<?xml version="1.0" encoding="UTF-8" standalone="no" ?>
<gpx xmlns="http://www.topografix.com/GPX/1/1" xmlns:xsi="http://www.w3.org/2001/XMLSchema-instance" xsi:schemaLocation="http://www.topografix.com/GPX/1/1 http://www.topografix.com/GPX/1/1/gpx.xsd" version="1.1" creator="VisuGPX - https://www.visugpx.com">
  <metadata>
    <name>Parcours n°1</name>
  </metadata>
  <wpt lat="42.77908" lon="-0.12337">
    <ele>2632.9</ele>
    <name><![CDATA[Ravitaillement chaud]]></name>
    <desc><![CDATA[]]></desc>
  </wpt>
  <wpt lat="42.83187" lon="-0.1431">
    <ele>1800</ele>
    <name><![CDATA[Ravitaillement chaud]]></name>
    <desc><![CDATA[]]></desc>
  </wpt>
  <wpt lat="42.83122" lon="-0.14185">
    <ele>1734.4</ele>
    <name><![CDATA[POI Générique]]></name>
    <desc><![CDATA[Midi J1]]></desc>
  </wpt>
  <wpt lat="42.77879" lon="-0.12429">
    <ele>2627.7</ele>
    <name><![CDATA[POI Générique]]></name>
    <desc><![CDATA[Soir J1]]></desc>
  </wpt>
  <wpt lat="42.81986" lon="-0.19437">
    <ele>1859.6</ele>
    <name><![CDATA[POI Générique]]></name>
    <desc><![CDATA[Soir J2]]></desc>
  </wpt>
  <wpt lat="42.81693" lon="-0.28774">
    <ele>2143</ele>
    <name><![CDATA[POI Générique]]></name>
    <desc><![CDATA[Soir J3]]></desc>
  </wpt>
  <wpt lat="42.85806" lon="-0.28886">
    <ele>2063.6</ele>
    <name><![CDATA[POI Générique]]></name>
    <desc><![CDATA[Soir J4]]></desc>
  </wpt>
  <wpt lat="42.82069" lon="-0.19562">
    <ele>1878.9</ele>
    <name><![CDATA[POI Générique]]></name>
    <desc><![CDATA[Soir J5]]></desc>
  </wpt>
  <wpt lat="42.85182" lon="-0.13834">
    <ele>1472.1</ele>
    <name><![CDATA[POI Générique]]></name>
    <desc><![CDATA[Soir J6]]></desc>
  </wpt>
  <wpt lat="42.83894" lon="-0.29039">
    <ele>3137.8</ele>
    <name><![CDATA[POI Générique]]></name>
    <desc><![CDATA[Pic du Balaïtous (optionnel)]]></desc>
  </wpt>
  <trk>
    <name><![CDATA[TREK AOÛT V ASCENSION BALAÏTOUS-17320843]]></name>
    <trkseg>
      <trkpt lat="42.85146" lon="-0.13688">
        <ele>1482</ele>
        <time>2023-07-31T20:01:58Z</time>
      </trkpt>
      <trkpt lat="42.85161" lon="-0.13703">
        <ele>1476</ele>
        <time>2023-07-31T20:02:23Z</time>
      </trkpt>
      <trkpt lat="42.85153" lon="-0.13722">
        <ele>1478</ele>
        <time>2023-07-31T20:02:44Z</time>
      </trkpt>
      <trkpt lat="42.85139" lon="-0.13766">
        <ele>1483</ele>
        <time>2023-07-31T20:03:31Z</time>
      </trkpt>
      <trkpt lat="42.85132" lon="-0.13828">
        <ele>1489</ele>
        <time>2023-07-31T20:04:33Z</time>
      </trkpt>
      <trkpt lat="42.85129" lon="-0.13838">
        <ele>1491</ele>
        <time>2023-07-31T20:04:43Z</time>
      </trkpt>
      <trkpt lat="42.85125" lon="-0.13845">
        <ele>1493</ele>
        <time>2023-07-31T20:04:52Z</time>
      </trkpt>
      <trkpt lat="42.85118" lon="-0.13851">
        <ele>1495</ele>
        <time>2023-07-31T20:05:03Z</time>
      </trkpt>
      <trkpt lat="42.85111" lon="-0.1385">
        <ele>1496</ele>
        <time>2023-07-31T20:05:12Z</time>
      </trkpt>
      <trkpt lat="42.85108" lon="-0.13846">
        <ele>1497</ele>
        <time>2023-07-31T20:05:18Z</time>
      </trkpt>
      <trkpt lat="42.85105" lon="-0.1384">
        <ele>1497</ele>
        <time>2023-07-31T20:05:25Z</time>
      </trkpt>
      <trkpt lat="42.851" lon="-0.13816">
        <ele>1497</ele>
        <time>2023-07-31T20:05:49Z</time>
      </trkpt>
      <trkpt lat="42.85094" lon="-0.13807">
        <ele>1498</ele>
        <time>2023-07-31T20:06:01Z</time>
      </trkpt>
      <trkpt lat="42.85087" lon="-0.13804">
        <ele>1500</ele>
        <time>2023-07-31T20:06:11Z</time>
      </trkpt>
      <trkpt lat="42.85076" lon="-0.13809">
        <ele>1505</ele>
        <time>2023-07-31T20:06:27Z</time>
      </trkpt>
      <trkpt lat="42.85072" lon="-0.13813">
        <ele>1507</ele>
        <time>2023-07-31T20:06:33Z</time>
      </trkpt>
      <trkpt lat="42.8507" lon="-0.13824">
        <ele>1509</ele>
        <time>2023-07-31T20:06:44Z</time>
      </trkpt>
      <trkpt lat="42.85077" lon="-0.13866">
        <ele>1506</ele>
        <time>2023-07-31T20:07:26Z</time>
      </trkpt>
      <trkpt lat="42.85077" lon="-0.13874">
        <ele>1506</ele>
        <time>2023-07-31T20:07:34Z</time>
      </trkpt>
      <trkpt lat="42.85074" lon="-0.13892">
        <ele>1508</ele>
        <time>2023-07-31T20:07:52Z</time>
      </trkpt>
      <trkpt lat="42.8507" lon="-0.13891">
        <ele>1510</ele>
        <time>2023-07-31T20:07:58Z</time>
      </trkpt>
      <trkpt lat="42.85059" lon="-0.13874">
        <ele>1515</ele>
        <time>2023-07-31T20:08:20Z</time>
      </trkpt>
      <trkpt lat="42.85045" lon="-0.13906">
        <ele>1520</ele>
        <time>2023-07-31T20:08:56Z</time>
      </trkpt>
      <trkpt lat="42.85045" lon="-0.13878">
        <ele>1522</ele>
        <time>2023-07-31T20:09:24Z</time>
      </trkpt>
      <trkpt lat="42.85034" lon="-0.13898">
        <ele>1526</ele>
        <time>2023-07-31T20:09:48Z</time>
      </trkpt>
      <trkpt lat="42.85024" lon="-0.13921">
        <ele>1529</ele>
        <time>2023-07-31T20:10:14Z</time>
      </trkpt>
      <trkpt lat="42.85021" lon="-0.13919">
        <ele>1530</ele>
        <time>2023-07-31T20:10:19Z</time>
      </trkpt>
      <trkpt lat="42.8502" lon="-0.13908">
        <ele>1531</ele>
        <time>2023-07-31T20:10:30Z</time>
      </trkpt>
      <trkpt lat="42.85024" lon="-0.1387">
        <ele>1532</ele>
        <time>2023-07-31T20:11:07Z</time>
      </trkpt>
      <trkpt lat="42.85013" lon="-0.13844">
        <ele>1540</ele>
        <time>2023-07-31T20:11:37Z</time>
      </trkpt>
      <trkpt lat="42.85001" lon="-0.13869">
        <ele>1544</ele>
        <time>2023-07-31T20:12:06Z</time>
      </trkpt>
      <trkpt lat="42.84997" lon="-0.13866">
        <ele>1546</ele>
        <time>2023-07-31T20:12:12Z</time>
      </trkpt>
      <trkpt lat="42.84994" lon="-0.13841">
        <ele>1549</ele>
        <time>2023-07-31T20:12:37Z</time>
      </trkpt>
      <trkpt lat="42.84988" lon="-0.13833">
        <ele>1552</ele>
        <time>2023-07-31T20:12:48Z</time>
      </trkpt>
      <trkpt lat="42.8498" lon="-0.13831">
        <ele>1555</ele>
        <time>2023-07-31T20:12:59Z</time>
      </trkpt>
      <trkpt lat="42.84973" lon="-0.13835">
        <ele>1558</ele>
        <time>2023-07-31T20:13:09Z</time>
      </trkpt>
      <trkpt lat="42.84969" lon="-0.13846">
        <ele>1558</ele>
        <time>2023-07-31T20:13:21Z</time>
      </trkpt>
      <trkpt lat="42.84945" lon="-0.13851">
        <ele>1565</ele>
        <time>2023-07-31T20:13:53Z</time>
      </trkpt>
      <trkpt lat="42.84902" lon="-0.1388">
        <ele>1576</ele>
        <time>2023-07-31T20:14:57Z</time>
      </trkpt>
      <trkpt lat="42.84872" lon="-0.1387">
        <ele>1587</ele>
        <time>2023-07-31T20:15:38Z</time>
      </trkpt>
      <trkpt lat="42.84855" lon="-0.13859">
        <ele>1594</ele>
        <time>2023-07-31T20:16:04Z</time>
      </trkpt>
      <trkpt lat="42.84839" lon="-0.13859">
        <ele>1599</ele>
        <time>2023-07-31T20:16:25Z</time>
      </trkpt>
      <trkpt lat="42.84823" lon="-0.13848">
        <ele>1604</ele>
        <time>2023-07-31T20:16:49Z</time>
      </trkpt>
      <trkpt lat="42.84801" lon="-0.13843">
        <ele>1608</ele>
        <time>2023-07-31T20:17:19Z</time>
      </trkpt>
      <trkpt lat="42.84778" lon="-0.13844">
        <ele>1613</ele>
        <time>2023-07-31T20:17:49Z</time>
      </trkpt>
      <trkpt lat="42.84752" lon="-0.13836">
        <ele>1618</ele>
        <time>2023-07-31T20:18:25Z</time>
      </trkpt>
      <trkpt lat="42.84713" lon="-0.13853">
        <ele>1627</ele>
        <time>2023-07-31T20:19:20Z</time>
      </trkpt>
      <trkpt lat="42.84697" lon="-0.13856">
        <ele>1630</ele>
        <time>2023-07-31T20:19:41Z</time>
      </trkpt>
      <trkpt lat="42.84688" lon="-0.1385">
        <ele>1633</ele>
        <time>2023-07-31T20:19:54Z</time>
      </trkpt>
      <trkpt lat="42.84684" lon="-0.13849">
        <ele>1634</ele>
        <time>2023-07-31T20:20:00Z</time>
      </trkpt>
      <trkpt lat="42.84647" lon="-0.13864">
        <ele>1642</ele>
        <time>2023-07-31T20:20:51Z</time>
      </trkpt>
      <trkpt lat="42.84639" lon="-0.13871">
        <ele>1643</ele>
        <time>2023-07-31T20:21:04Z</time>
      </trkpt>
      <trkpt lat="42.84631" lon="-0.13871">
        <ele>1645</ele>
        <time>2023-07-31T20:21:15Z</time>
      </trkpt>
      <trkpt lat="42.84605" lon="-0.1386">
        <ele>1655</ele>
        <time>2023-07-31T20:21:51Z</time>
      </trkpt>
      <trkpt lat="42.84598" lon="-0.13863">
        <ele>1657</ele>
        <time>2023-07-31T20:22:01Z</time>
      </trkpt>
      <trkpt lat="42.84591" lon="-0.13871">
        <ele>1656</ele>
        <time>2023-07-31T20:22:13Z</time>
      </trkpt>
      <trkpt lat="42.84582" lon="-0.13861">
        <ele>1661</ele>
        <time>2023-07-31T20:22:29Z</time>
      </trkpt>
      <trkpt lat="42.8455" lon="-0.13882">
        <ele>1658</ele>
        <time>2023-07-31T20:23:16Z</time>
      </trkpt>
      <trkpt lat="42.84531" lon="-0.13884">
        <ele>1659</ele>
        <time>2023-07-31T20:23:41Z</time>
      </trkpt>
      <trkpt lat="42.84499" lon="-0.13896">
        <ele>1658</ele>
        <time>2023-07-31T20:24:26Z</time>
      </trkpt>
      <trkpt lat="42.8448" lon="-0.13889">
        <ele>1663</ele>
        <time>2023-07-31T20:24:52Z</time>
      </trkpt>
      <trkpt lat="42.84456" lon="-0.13889">
        <ele>1666</ele>
        <time>2023-07-31T20:25:24Z</time>
      </trkpt>
      <trkpt lat="42.8445" lon="-0.13881">
        <ele>1669</ele>
        <time>2023-07-31T20:25:35Z</time>
      </trkpt>
      <trkpt lat="42.84437" lon="-0.13877">
        <ele>1671</ele>
        <time>2023-07-31T20:25:53Z</time>
      </trkpt>
      <trkpt lat="42.84428" lon="-0.13872">
        <ele>1674</ele>
        <time>2023-07-31T20:26:06Z</time>
      </trkpt>
      <trkpt lat="42.84415" lon="-0.13871">
        <ele>1676</ele>
        <time>2023-07-31T20:26:23Z</time>
      </trkpt>
      <trkpt lat="42.84389" lon="-0.13878">
        <ele>1678</ele>
        <time>2023-07-31T20:26:59Z</time>
      </trkpt>
      <trkpt lat="42.84378" lon="-0.13877">
        <ele>1680</ele>
        <time>2023-07-31T20:27:13Z</time>
      </trkpt>
      <trkpt lat="42.84341" lon="-0.13885">
        <ele>1684</ele>
        <time>2023-07-31T20:28:03Z</time>
      </trkpt>
      <trkpt lat="42.84326" lon="-0.13884">
        <ele>1686</ele>
        <time>2023-07-31T20:28:23Z</time>
      </trkpt>
      <trkpt lat="42.84315" lon="-0.13878">
        <ele>1688</ele>
        <time>2023-07-31T20:28:39Z</time>
      </trkpt>
      <trkpt lat="42.84276" lon="-0.13876">
        <ele>1691</ele>
        <time>2023-07-31T20:29:31Z</time>
      </trkpt>
      <trkpt lat="42.84254" lon="-0.13882">
        <ele>1691</ele>
        <time>2023-07-31T20:30:01Z</time>
      </trkpt>
      <trkpt lat="42.84248" lon="-0.13887">
        <ele>1690</ele>
        <time>2023-07-31T20:30:11Z</time>
      </trkpt>
      <trkpt lat="42.84248" lon="-0.13899">
        <ele>1688</ele>
        <time>2023-07-31T20:30:22Z</time>
      </trkpt>
      <trkpt lat="42.84252" lon="-0.13913">
        <ele>1685</ele>
        <time>2023-07-31T20:30:37Z</time>
      </trkpt>
      <trkpt lat="42.84246" lon="-0.13916">
        <ele>1684</ele>
        <time>2023-07-31T20:30:46Z</time>
      </trkpt>
      <trkpt lat="42.84233" lon="-0.13918">
        <ele>1684</ele>
        <time>2023-07-31T20:31:03Z</time>
      </trkpt>
      <trkpt lat="42.84202" lon="-0.13915">
        <ele>1684</ele>
        <time>2023-07-31T20:31:44Z</time>
      </trkpt>
      <trkpt lat="42.84181" lon="-0.13901">
        <ele>1688</ele>
        <time>2023-07-31T20:32:16Z</time>
      </trkpt>
      <trkpt lat="42.84132" lon="-0.13894">
        <ele>1690</ele>
        <time>2023-07-31T20:33:21Z</time>
      </trkpt>
      <trkpt lat="42.84114" lon="-0.13879">
        <ele>1695</ele>
        <time>2023-07-31T20:33:50Z</time>
      </trkpt>
      <trkpt lat="42.84102" lon="-0.13856">
        <ele>1703</ele>
        <time>2023-07-31T20:34:17Z</time>
      </trkpt>
      <trkpt lat="42.84069" lon="-0.13844">
        <ele>1707</ele>
        <time>2023-07-31T20:35:03Z</time>
      </trkpt>
      <trkpt lat="42.84024" lon="-0.13845">
        <ele>1704</ele>
        <time>2023-07-31T20:36:03Z</time>
      </trkpt>
      <trkpt lat="42.84001" lon="-0.13856">
        <ele>1700</ele>
        <time>2023-07-31T20:36:35Z</time>
      </trkpt>
      <trkpt lat="42.8396" lon="-0.13867">
        <ele>1701</ele>
        <time>2023-07-31T20:37:31Z</time>
      </trkpt>
      <trkpt lat="42.83947" lon="-0.13866">
        <ele>1703</ele>
        <time>2023-07-31T20:37:48Z</time>
      </trkpt>
      <trkpt lat="42.83929" lon="-0.13873">
        <ele>1702</ele>
        <time>2023-07-31T20:38:13Z</time>
      </trkpt>
      <trkpt lat="42.83917" lon="-0.13881">
        <ele>1701</ele>
        <time>2023-07-31T20:38:31Z</time>
      </trkpt>
      <trkpt lat="42.83879" lon="-0.13881">
        <ele>1703</ele>
        <time>2023-07-31T20:39:22Z</time>
      </trkpt>
      <trkpt lat="42.83836" lon="-0.13869">
        <ele>1707</ele>
        <time>2023-07-31T20:40:21Z</time>
      </trkpt>
      <trkpt lat="42.83801" lon="-0.13849">
        <ele>1713</ele>
        <time>2023-07-31T20:41:11Z</time>
      </trkpt>
      <trkpt lat="42.83784" lon="-0.13841">
        <ele>1716</ele>
        <time>2023-07-31T20:41:35Z</time>
      </trkpt>
      <trkpt lat="42.83771" lon="-0.13831">
        <ele>1718</ele>
        <time>2023-07-31T20:41:55Z</time>
      </trkpt>
      <trkpt lat="42.83755" lon="-0.13831">
        <ele>1719</ele>
        <time>2023-07-31T20:42:16Z</time>
      </trkpt>
      <trkpt lat="42.83721" lon="-0.13836">
        <ele>1720</ele>
        <time>2023-07-31T20:43:02Z</time>
      </trkpt>
      <trkpt lat="42.8365" lon="-0.13837">
        <ele>1725</ele>
        <time>2023-07-31T20:44:37Z</time>
      </trkpt>
      <trkpt lat="42.8361" lon="-0.13868">
        <ele>1725</ele>
        <time>2023-07-31T20:45:38Z</time>
      </trkpt>
      <trkpt lat="42.83581" lon="-0.13868">
        <ele>1728</ele>
        <time>2023-07-31T20:46:17Z</time>
      </trkpt>
      <trkpt lat="42.83568" lon="-0.13866">
        <ele>1730</ele>
        <time>2023-07-31T20:46:34Z</time>
      </trkpt>
      <trkpt lat="42.83533" lon="-0.13873">
        <ele>1732</ele>
        <time>2023-07-31T20:47:22Z</time>
      </trkpt>
      <trkpt lat="42.83515" lon="-0.13882">
        <ele>1733</ele>
        <time>2023-07-31T20:47:47Z</time>
      </trkpt>
      <trkpt lat="42.83476" lon="-0.13913">
        <ele>1731</ele>
        <time>2023-07-31T20:48:47Z</time>
      </trkpt>
      <trkpt lat="42.83454" lon="-0.13921">
        <ele>1730</ele>
        <time>2023-07-31T20:49:18Z</time>
      </trkpt>
      <trkpt lat="42.83439" lon="-0.13914">
        <ele>1730</ele>
        <time>2023-07-31T20:49:39Z</time>
      </trkpt>
      <trkpt lat="42.83405" lon="-0.13903">
        <ele>1730</ele>
        <time>2023-07-31T20:50:26Z</time>
      </trkpt>
      <trkpt lat="42.83439" lon="-0.13914">
        <ele>1730</ele>
        <time>2023-07-31T20:51:12Z</time>
      </trkpt>
      <trkpt lat="42.83454" lon="-0.13921">
        <ele>1730</ele>
        <time>2023-07-31T20:51:33Z</time>
      </trkpt>
      <trkpt lat="42.83461" lon="-0.13941">
        <ele>1730</ele>
        <time>2023-07-31T20:51:55Z</time>
      </trkpt>
      <trkpt lat="42.83471" lon="-0.1395">
        <ele>1730</ele>
        <time>2023-07-31T20:52:11Z</time>
      </trkpt>
      <trkpt lat="42.83477" lon="-0.13966">
        <ele>1729</ele>
        <time>2023-07-31T20:52:29Z</time>
      </trkpt>
      <trkpt lat="42.83483" lon="-0.13988">
        <ele>1729</ele>
        <time>2023-07-31T20:52:52Z</time>
      </trkpt>
      <trkpt lat="42.83506" lon="-0.14019">
        <ele>1730</ele>
        <time>2023-07-31T20:53:35Z</time>
      </trkpt>
      <trkpt lat="42.83515" lon="-0.1404">
        <ele>1731</ele>
        <time>2023-07-31T20:53:59Z</time>
      </trkpt>
      <trkpt lat="42.83518" lon="-0.14045">
        <ele>1731</ele>
        <time>2023-07-31T20:54:05Z</time>
      </trkpt>
      <trkpt lat="42.83526" lon="-0.14053">
        <ele>1732</ele>
        <time>2023-07-31T20:54:18Z</time>
      </trkpt>
      <trkpt lat="42.83515" lon="-0.1407">
        <ele>1733</ele>
        <time>2023-07-31T20:54:40Z</time>
      </trkpt>
      <trkpt lat="42.83504" lon="-0.14104">
        <ele>1739</ele>
        <time>2023-07-31T20:55:17Z</time>
      </trkpt>
      <trkpt lat="42.83493" lon="-0.14125">
        <ele>1744</ele>
        <time>2023-07-31T20:55:42Z</time>
      </trkpt>
      <trkpt lat="42.83488" lon="-0.14131">
        <ele>1745</ele>
        <time>2023-07-31T20:55:51Z</time>
      </trkpt>
      <trkpt lat="42.83479" lon="-0.14135">
        <ele>1745</ele>
        <time>2023-07-31T20:56:03Z</time>
      </trkpt>
      <trkpt lat="42.83463" lon="-0.14147">
        <ele>1746</ele>
        <time>2023-07-31T20:56:28Z</time>
      </trkpt>
      <trkpt lat="42.83454" lon="-0.14149">
        <ele>1745</ele>
        <time>2023-07-31T20:56:40Z</time>
      </trkpt>
      <trkpt lat="42.83447" lon="-0.14156">
        <ele>1746</ele>
        <time>2023-07-31T20:56:52Z</time>
      </trkpt>
      <trkpt lat="42.8343" lon="-0.14163">
        <ele>1744</ele>
        <time>2023-07-31T20:57:15Z</time>
      </trkpt>
      <trkpt lat="42.83418" lon="-0.14163">
        <ele>1743</ele>
        <time>2023-07-31T20:57:31Z</time>
      </trkpt>
      <trkpt lat="42.83409" lon="-0.14165">
        <ele>1742</ele>
        <time>2023-07-31T20:57:43Z</time>
      </trkpt>
      <trkpt lat="42.83399" lon="-0.14173">
        <ele>1745</ele>
        <time>2023-07-31T20:57:59Z</time>
      </trkpt>
      <trkpt lat="42.83387" lon="-0.14178">
        <ele>1747</ele>
        <time>2023-07-31T20:58:16Z</time>
      </trkpt>
      <trkpt lat="42.83353" lon="-0.14185">
        <ele>1747</ele>
        <time>2023-07-31T20:59:02Z</time>
      </trkpt>
      <trkpt lat="42.83321" lon="-0.1417">
        <ele>1738</ele>
        <time>2023-07-31T20:59:47Z</time>
      </trkpt>
      <trkpt lat="42.83298" lon="-0.14168">
        <ele>1738</ele>
        <time>2023-07-31T21:00:18Z</time>
      </trkpt>
      <trkpt lat="42.83282" lon="-0.14171">
        <ele>1739</ele>
        <time>2023-07-31T21:00:39Z</time>
      </trkpt>
      <trkpt lat="42.83254" lon="-0.14169">
        <ele>1739</ele>
        <time>2023-07-31T21:01:16Z</time>
      </trkpt>
      <trkpt lat="42.8323" lon="-0.14165">
        <ele>1738</ele>
        <time>2023-07-31T21:01:49Z</time>
      </trkpt>
      <trkpt lat="42.83202" lon="-0.14154">
        <ele>1736</ele>
        <time>2023-07-31T21:02:28Z</time>
      </trkpt>
      <trkpt lat="42.8319" lon="-0.14153">
        <ele>1736</ele>
        <time>2023-07-31T21:02:44Z</time>
      </trkpt>
      <trkpt lat="42.83137" lon="-0.14179">
        <ele>1742</ele>
        <time>2023-07-31T21:03:59Z</time>
      </trkpt>
      <trkpt lat="42.83122" lon="-0.14185">
        <ele>1744</ele>
        <time>2023-07-31T21:04:20Z</time>
      </trkpt>
      <trkpt lat="42.83101" lon="-0.14189">
        <ele>1745</ele>
        <time>2023-07-31T21:04:48Z</time>
      </trkpt>
      <trkpt lat="42.83065" lon="-0.14183">
        <ele>1743</ele>
        <time>2023-07-31T21:05:36Z</time>
      </trkpt>
      <trkpt lat="42.83053" lon="-0.14187">
        <ele>1745</ele>
        <time>2023-07-31T21:05:53Z</time>
      </trkpt>
      <trkpt lat="42.83027" lon="-0.14178">
        <ele>1744</ele>
        <time>2023-07-31T21:06:29Z</time>
      </trkpt>
      <trkpt lat="42.8302" lon="-0.14174">
        <ele>1742</ele>
        <time>2023-07-31T21:06:39Z</time>
      </trkpt>
      <trkpt lat="42.83006" lon="-0.1417">
        <ele>1742</ele>
        <time>2023-07-31T21:06:58Z</time>
      </trkpt>
      <trkpt lat="42.82994" lon="-0.14163">
        <ele>1741</ele>
        <time>2023-07-31T21:07:15Z</time>
      </trkpt>
      <trkpt lat="42.82967" lon="-0.14152">
        <ele>1741</ele>
        <time>2023-07-31T21:07:53Z</time>
      </trkpt>
      <trkpt lat="42.82944" lon="-0.14136">
        <ele>1740</ele>
        <time>2023-07-31T21:08:27Z</time>
      </trkpt>
      <trkpt lat="42.82936" lon="-0.14127">
        <ele>1739</ele>
        <time>2023-07-31T21:08:41Z</time>
      </trkpt>
      <trkpt lat="42.82919" lon="-0.14129">
        <ele>1741</ele>
        <time>2023-07-31T21:09:04Z</time>
      </trkpt>
      <trkpt lat="42.82906" lon="-0.14114">
        <ele>1740</ele>
        <time>2023-07-31T21:09:27Z</time>
      </trkpt>
      <trkpt lat="42.829" lon="-0.14111">
        <ele>1740</ele>
        <time>2023-07-31T21:09:35Z</time>
      </trkpt>
      <trkpt lat="42.82875" lon="-0.14107">
        <ele>1742</ele>
        <time>2023-07-31T21:10:09Z</time>
      </trkpt>
      <trkpt lat="42.82849" lon="-0.14087">
        <ele>1739</ele>
        <time>2023-07-31T21:10:49Z</time>
      </trkpt>
      <trkpt lat="42.82844" lon="-0.14079">
        <ele>1738</ele>
        <time>2023-07-31T21:10:59Z</time>
      </trkpt>
      <trkpt lat="42.82829" lon="-0.14067">
        <ele>1738</ele>
        <time>2023-07-31T21:11:22Z</time>
      </trkpt>
      <trkpt lat="42.82818" lon="-0.14072">
        <ele>1739</ele>
        <time>2023-07-31T21:11:38Z</time>
      </trkpt>
      <trkpt lat="42.82807" lon="-0.14073">
        <ele>1740</ele>
        <time>2023-07-31T21:11:52Z</time>
      </trkpt>
      <trkpt lat="42.828" lon="-0.14072">
        <ele>1741</ele>
        <time>2023-07-31T21:12:02Z</time>
      </trkpt>
      <trkpt lat="42.82795" lon="-0.14063">
        <ele>1740</ele>
        <time>2023-07-31T21:12:13Z</time>
      </trkpt>
      <trkpt lat="42.82783" lon="-0.14062">
        <ele>1741</ele>
        <time>2023-07-31T21:12:29Z</time>
      </trkpt>
      <trkpt lat="42.82778" lon="-0.14064">
        <ele>1741</ele>
        <time>2023-07-31T21:12:36Z</time>
      </trkpt>
      <trkpt lat="42.82769" lon="-0.14061">
        <ele>1741</ele>
        <time>2023-07-31T21:12:48Z</time>
      </trkpt>
      <trkpt lat="42.82758" lon="-0.14063">
        <ele>1742</ele>
        <time>2023-07-31T21:13:03Z</time>
      </trkpt>
      <trkpt lat="42.82745" lon="-0.14055">
        <ele>1742</ele>
        <time>2023-07-31T21:13:22Z</time>
      </trkpt>
      <trkpt lat="42.8273" lon="-0.14054">
        <ele>1744</ele>
        <time>2023-07-31T21:13:42Z</time>
      </trkpt>
      <trkpt lat="42.82721" lon="-0.14057">
        <ele>1746</ele>
        <time>2023-07-31T21:13:54Z</time>
      </trkpt>
      <trkpt lat="42.82713" lon="-0.14044">
        <ele>1745</ele>
        <time>2023-07-31T21:14:11Z</time>
      </trkpt>
      <trkpt lat="42.82674" lon="-0.14026">
        <ele>1745</ele>
        <time>2023-07-31T21:15:06Z</time>
      </trkpt>
      <trkpt lat="42.82663" lon="-0.14025">
        <ele>1746</ele>
        <time>2023-07-31T21:15:21Z</time>
      </trkpt>
      <trkpt lat="42.82656" lon="-0.14018">
        <ele>1745</ele>
        <time>2023-07-31T21:15:32Z</time>
      </trkpt>
      <trkpt lat="42.82632" lon="-0.14006">
        <ele>1743</ele>
        <time>2023-07-31T21:16:06Z</time>
      </trkpt>
      <trkpt lat="42.82624" lon="-0.13997">
        <ele>1742</ele>
        <time>2023-07-31T21:16:20Z</time>
      </trkpt>
      <trkpt lat="42.82616" lon="-0.14">
        <ele>1743</ele>
        <time>2023-07-31T21:16:31Z</time>
      </trkpt>
      <trkpt lat="42.82608" lon="-0.14">
        <ele>1743</ele>
        <time>2023-07-31T21:16:42Z</time>
      </trkpt>
      <trkpt lat="42.826" lon="-0.13997">
        <ele>1744</ele>
        <time>2023-07-31T21:16:53Z</time>
      </trkpt>
      <trkpt lat="42.82589" lon="-0.14003">
        <ele>1746</ele>
        <time>2023-07-31T21:17:09Z</time>
      </trkpt>
      <trkpt lat="42.82585" lon="-0.14001">
        <ele>1745</ele>
        <time>2023-07-31T21:17:15Z</time>
      </trkpt>
      <trkpt lat="42.82574" lon="-0.13986">
        <ele>1745</ele>
        <time>2023-07-31T21:17:35Z</time>
      </trkpt>
      <trkpt lat="42.82545" lon="-0.13979">
        <ele>1747</ele>
        <time>2023-07-31T21:18:15Z</time>
      </trkpt>
      <trkpt lat="42.82522" lon="-0.1398">
        <ele>1748</ele>
        <time>2023-07-31T21:18:45Z</time>
      </trkpt>
      <trkpt lat="42.82492" lon="-0.13976">
        <ele>1752</ele>
        <time>2023-07-31T21:19:26Z</time>
      </trkpt>
      <trkpt lat="42.82477" lon="-0.13969">
        <ele>1754</ele>
        <time>2023-07-31T21:19:47Z</time>
      </trkpt>
      <trkpt lat="42.82464" lon="-0.13972">
        <ele>1758</ele>
        <time>2023-07-31T21:20:04Z</time>
      </trkpt>
      <trkpt lat="42.82455" lon="-0.13966">
        <ele>1759</ele>
        <time>2023-07-31T21:20:18Z</time>
      </trkpt>
      <trkpt lat="42.82448" lon="-0.13959">
        <ele>1760</ele>
        <time>2023-07-31T21:20:29Z</time>
      </trkpt>
      <trkpt lat="42.82399" lon="-0.13901">
        <ele>1767</ele>
        <time>2023-07-31T21:21:56Z</time>
      </trkpt>
      <trkpt lat="42.82384" lon="-0.13895">
        <ele>1771</ele>
        <time>2023-07-31T21:22:17Z</time>
      </trkpt>
      <trkpt lat="42.82381" lon="-0.13882">
        <ele>1772</ele>
        <time>2023-07-31T21:22:30Z</time>
      </trkpt>
      <trkpt lat="42.82382" lon="-0.13866">
        <ele>1773</ele>
        <time>2023-07-31T21:22:46Z</time>
      </trkpt>
      <trkpt lat="42.82394" lon="-0.13847">
        <ele>1772</ele>
        <time>2023-07-31T21:23:10Z</time>
      </trkpt>
      <trkpt lat="42.82395" lon="-0.1384">
        <ele>1772</ele>
        <time>2023-07-31T21:23:17Z</time>
      </trkpt>
      <trkpt lat="42.82391" lon="-0.13833">
        <ele>1773</ele>
        <time>2023-07-31T21:23:26Z</time>
      </trkpt>
      <trkpt lat="42.82375" lon="-0.13832">
        <ele>1775</ele>
        <time>2023-07-31T21:23:47Z</time>
      </trkpt>
      <trkpt lat="42.82366" lon="-0.13837">
        <ele>1776</ele>
        <time>2023-07-31T21:24:00Z</time>
      </trkpt>
      <trkpt lat="42.8236" lon="-0.13837">
        <ele>1777</ele>
        <time>2023-07-31T21:24:08Z</time>
      </trkpt>
      <trkpt lat="42.82347" lon="-0.13842">
        <ele>1779</ele>
        <time>2023-07-31T21:24:26Z</time>
      </trkpt>
      <trkpt lat="42.82341" lon="-0.13848">
        <ele>1780</ele>
        <time>2023-07-31T21:24:36Z</time>
      </trkpt>
      <trkpt lat="42.82333" lon="-0.13835">
        <ele>1780</ele>
        <time>2023-07-31T21:24:53Z</time>
      </trkpt>
      <trkpt lat="42.82323" lon="-0.13832">
        <ele>1781</ele>
        <time>2023-07-31T21:25:07Z</time>
      </trkpt>
      <trkpt lat="42.82308" lon="-0.13813">
        <ele>1785</ele>
        <time>2023-07-31T21:25:34Z</time>
      </trkpt>
      <trkpt lat="42.82304" lon="-0.13803">
        <ele>1787</ele>
        <time>2023-07-31T21:25:45Z</time>
      </trkpt>
      <trkpt lat="42.82298" lon="-0.13779">
        <ele>1791</ele>
        <time>2023-07-31T21:26:10Z</time>
      </trkpt>
      <trkpt lat="42.8229" lon="-0.13769">
        <ele>1793</ele>
        <time>2023-07-31T21:26:24Z</time>
      </trkpt>
      <trkpt lat="42.82281" lon="-0.13766">
        <ele>1794</ele>
        <time>2023-07-31T21:26:37Z</time>
      </trkpt>
      <trkpt lat="42.82267" lon="-0.13764">
        <ele>1795</ele>
        <time>2023-07-31T21:26:55Z</time>
      </trkpt>
      <trkpt lat="42.82255" lon="-0.13757">
        <ele>1797</ele>
        <time>2023-07-31T21:27:13Z</time>
      </trkpt>
      <trkpt lat="42.82226" lon="-0.1375">
        <ele>1798</ele>
        <time>2023-07-31T21:27:52Z</time>
      </trkpt>
      <trkpt lat="42.82209" lon="-0.1375">
        <ele>1798</ele>
        <time>2023-07-31T21:28:15Z</time>
      </trkpt>
      <trkpt lat="42.82196" lon="-0.13744">
        <ele>1800</ele>
        <time>2023-07-31T21:28:33Z</time>
      </trkpt>
      <trkpt lat="42.82185" lon="-0.13743">
        <ele>1800</ele>
        <time>2023-07-31T21:28:48Z</time>
      </trkpt>
      <trkpt lat="42.82177" lon="-0.13741">
        <ele>1801</ele>
        <time>2023-07-31T21:28:59Z</time>
      </trkpt>
      <trkpt lat="42.82167" lon="-0.13731">
        <ele>1804</ele>
        <time>2023-07-31T21:29:15Z</time>
      </trkpt>
      <trkpt lat="42.82158" lon="-0.13728">
        <ele>1805</ele>
        <time>2023-07-31T21:29:28Z</time>
      </trkpt>
      <trkpt lat="42.82145" lon="-0.13728">
        <ele>1806</ele>
        <time>2023-07-31T21:29:45Z</time>
      </trkpt>
      <trkpt lat="42.82123" lon="-0.13717">
        <ele>1810</ele>
        <time>2023-07-31T21:30:16Z</time>
      </trkpt>
      <trkpt lat="42.82108" lon="-0.13718">
        <ele>1810</ele>
        <time>2023-07-31T21:30:36Z</time>
      </trkpt>
      <trkpt lat="42.82091" lon="-0.13722">
        <ele>1809</ele>
        <time>2023-07-31T21:30:59Z</time>
      </trkpt>
      <trkpt lat="42.82077" lon="-0.1372">
        <ele>1812</ele>
        <time>2023-07-31T21:31:18Z</time>
      </trkpt>
      <trkpt lat="42.8207" lon="-0.13725">
        <ele>1812</ele>
        <time>2023-07-31T21:31:29Z</time>
      </trkpt>
      <trkpt lat="42.82052" lon="-0.13728">
        <ele>1816</ele>
        <time>2023-07-31T21:31:53Z</time>
      </trkpt>
      <trkpt lat="42.82032" lon="-0.13728">
        <ele>1821</ele>
        <time>2023-07-31T21:32:20Z</time>
      </trkpt>
      <trkpt lat="42.82025" lon="-0.13724">
        <ele>1823</ele>
        <time>2023-07-31T21:32:30Z</time>
      </trkpt>
      <trkpt lat="42.82018" lon="-0.13724">
        <ele>1825</ele>
        <time>2023-07-31T21:32:39Z</time>
      </trkpt>
      <trkpt lat="42.82014" lon="-0.1373">
        <ele>1824</ele>
        <time>2023-07-31T21:32:47Z</time>
      </trkpt>
      <trkpt lat="42.82005" lon="-0.1373">
        <ele>1827</ele>
        <time>2023-07-31T21:32:59Z</time>
      </trkpt>
      <trkpt lat="42.81998" lon="-0.13734">
        <ele>1827</ele>
        <time>2023-07-31T21:33:09Z</time>
      </trkpt>
      <trkpt lat="42.81978" lon="-0.13747">
        <ele>1826</ele>
        <time>2023-07-31T21:33:39Z</time>
      </trkpt>
      <trkpt lat="42.81967" lon="-0.13758">
        <ele>1827</ele>
        <time>2023-07-31T21:33:57Z</time>
      </trkpt>
      <trkpt lat="42.81957" lon="-0.13761">
        <ele>1828</ele>
        <time>2023-07-31T21:34:10Z</time>
      </trkpt>
      <trkpt lat="42.8194" lon="-0.1376">
        <ele>1831</ele>
        <time>2023-07-31T21:34:33Z</time>
      </trkpt>
      <trkpt lat="42.81935" lon="-0.1375">
        <ele>1832</ele>
        <time>2023-07-31T21:34:45Z</time>
      </trkpt>
      <trkpt lat="42.81926" lon="-0.13741">
        <ele>1837</ele>
        <time>2023-07-31T21:35:00Z</time>
      </trkpt>
      <trkpt lat="42.81914" lon="-0.13734">
        <ele>1841</ele>
        <time>2023-07-31T21:35:17Z</time>
      </trkpt>
      <trkpt lat="42.81906" lon="-0.13732">
        <ele>1843</ele>
        <time>2023-07-31T21:35:28Z</time>
      </trkpt>
      <trkpt lat="42.81898" lon="-0.13736">
        <ele>1843</ele>
        <time>2023-07-31T21:35:40Z</time>
      </trkpt>
      <trkpt lat="42.81886" lon="-0.1375">
        <ele>1839</ele>
        <time>2023-07-31T21:36:01Z</time>
      </trkpt>
      <trkpt lat="42.81868" lon="-0.13757">
        <ele>1841</ele>
        <time>2023-07-31T21:36:26Z</time>
      </trkpt>
      <trkpt lat="42.81862" lon="-0.13762">
        <ele>1841</ele>
        <time>2023-07-31T21:36:35Z</time>
      </trkpt>
      <trkpt lat="42.81843" lon="-0.13785">
        <ele>1840</ele>
        <time>2023-07-31T21:37:09Z</time>
      </trkpt>
      <trkpt lat="42.81839" lon="-0.13786">
        <ele>1840</ele>
        <time>2023-07-31T21:37:14Z</time>
      </trkpt>
      <trkpt lat="42.81835" lon="-0.13784">
        <ele>1841</ele>
        <time>2023-07-31T21:37:20Z</time>
      </trkpt>
      <trkpt lat="42.81818" lon="-0.13786">
        <ele>1843</ele>
        <time>2023-07-31T21:37:43Z</time>
      </trkpt>
      <trkpt lat="42.81801" lon="-0.13793">
        <ele>1844</ele>
        <time>2023-07-31T21:38:07Z</time>
      </trkpt>
      <trkpt lat="42.81797" lon="-0.13792">
        <ele>1845</ele>
        <time>2023-07-31T21:38:12Z</time>
      </trkpt>
      <trkpt lat="42.81777" lon="-0.13776">
        <ele>1851</ele>
        <time>2023-07-31T21:38:43Z</time>
      </trkpt>
      <trkpt lat="42.81773" lon="-0.13776">
        <ele>1852</ele>
        <time>2023-07-31T21:38:48Z</time>
      </trkpt>
      <trkpt lat="42.81766" lon="-0.13773">
        <ele>1854</ele>
        <time>2023-07-31T21:38:58Z</time>
      </trkpt>
      <trkpt lat="42.8176" lon="-0.13749">
        <ele>1861</ele>
        <time>2023-07-31T21:39:23Z</time>
      </trkpt>
      <trkpt lat="42.81744" lon="-0.13744">
        <ele>1867</ele>
        <time>2023-07-31T21:39:45Z</time>
      </trkpt>
      <trkpt lat="42.81737" lon="-0.13746">
        <ele>1866</ele>
        <time>2023-07-31T21:39:54Z</time>
      </trkpt>
      <trkpt lat="42.81731" lon="-0.13742">
        <ele>1869</ele>
        <time>2023-07-31T21:40:03Z</time>
      </trkpt>
      <trkpt lat="42.81692" lon="-0.13734">
        <ele>1877</ele>
        <time>2023-07-31T21:40:56Z</time>
      </trkpt>
      <trkpt lat="42.81683" lon="-0.13727">
        <ele>1883</ele>
        <time>2023-07-31T21:41:10Z</time>
      </trkpt>
      <trkpt lat="42.8164" lon="-0.13737">
        <ele>1882</ele>
        <time>2023-07-31T21:42:08Z</time>
      </trkpt>
      <trkpt lat="42.81633" lon="-0.13736">
        <ele>1884</ele>
        <time>2023-07-31T21:42:17Z</time>
      </trkpt>
      <trkpt lat="42.81624" lon="-0.13729">
        <ele>1891</ele>
        <time>2023-07-31T21:42:31Z</time>
      </trkpt>
      <trkpt lat="42.81603" lon="-0.13724">
        <ele>1898</ele>
        <time>2023-07-31T21:43:00Z</time>
      </trkpt>
      <trkpt lat="42.81594" lon="-0.13729">
        <ele>1896</ele>
        <time>2023-07-31T21:43:13Z</time>
      </trkpt>
      <trkpt lat="42.81578" lon="-0.1375">
        <ele>1885</ele>
        <time>2023-07-31T21:43:42Z</time>
      </trkpt>
      <trkpt lat="42.8157" lon="-0.13752">
        <ele>1885</ele>
        <time>2023-07-31T21:43:53Z</time>
      </trkpt>
      <trkpt lat="42.81561" lon="-0.1375">
        <ele>1887</ele>
        <time>2023-07-31T21:44:05Z</time>
      </trkpt>
      <trkpt lat="42.81548" lon="-0.13741">
        <ele>1895</ele>
        <time>2023-07-31T21:44:25Z</time>
      </trkpt>
      <trkpt lat="42.8153" lon="-0.13734">
        <ele>1903</ele>
        <time>2023-07-31T21:44:50Z</time>
      </trkpt>
      <trkpt lat="42.81518" lon="-0.13722">
        <ele>1912</ele>
        <time>2023-07-31T21:45:09Z</time>
      </trkpt>
      <trkpt lat="42.8149" lon="-0.13722">
        <ele>1917</ele>
        <time>2023-07-31T21:45:47Z</time>
      </trkpt>
      <trkpt lat="42.81474" lon="-0.13715">
        <ele>1925</ele>
        <time>2023-07-31T21:46:09Z</time>
      </trkpt>
      <trkpt lat="42.81453" lon="-0.1372">
        <ele>1927</ele>
        <time>2023-07-31T21:46:38Z</time>
      </trkpt>
      <trkpt lat="42.81463" lon="-0.13699">
        <ele>1936</ele>
        <time>2023-07-31T21:47:02Z</time>
      </trkpt>
      <trkpt lat="42.81439" lon="-0.13699">
        <ele>1941</ele>
        <time>2023-07-31T21:47:34Z</time>
      </trkpt>
      <trkpt lat="42.81428" lon="-0.13697">
        <ele>1944</ele>
        <time>2023-07-31T21:47:49Z</time>
      </trkpt>
      <trkpt lat="42.81421" lon="-0.13699">
        <ele>1944</ele>
        <time>2023-07-31T21:47:59Z</time>
      </trkpt>
      <trkpt lat="42.81401" lon="-0.13719">
        <ele>1942</ele>
        <time>2023-07-31T21:48:32Z</time>
      </trkpt>
      <trkpt lat="42.81401" lon="-0.13727">
        <ele>1939</ele>
        <time>2023-07-31T21:48:40Z</time>
      </trkpt>
      <trkpt lat="42.81394" lon="-0.13739">
        <ele>1937</ele>
        <time>2023-07-31T21:48:55Z</time>
      </trkpt>
      <trkpt lat="42.81367" lon="-0.13757">
        <ele>1942</ele>
        <time>2023-07-31T21:49:35Z</time>
      </trkpt>
      <trkpt lat="42.8135" lon="-0.13765">
        <ele>1947</ele>
        <time>2023-07-31T21:49:59Z</time>
      </trkpt>
      <trkpt lat="42.81343" lon="-0.13771">
        <ele>1949</ele>
        <time>2023-07-31T21:50:10Z</time>
      </trkpt>
      <trkpt lat="42.81342" lon="-0.13777">
        <ele>1947</ele>
        <time>2023-07-31T21:50:16Z</time>
      </trkpt>
      <trkpt lat="42.81339" lon="-0.13783">
        <ele>1947</ele>
        <time>2023-07-31T21:50:23Z</time>
      </trkpt>
      <trkpt lat="42.81313" lon="-0.13779">
        <ele>1953</ele>
        <time>2023-07-31T21:50:58Z</time>
      </trkpt>
      <trkpt lat="42.81298" lon="-0.13772">
        <ele>1956</ele>
        <time>2023-07-31T21:51:19Z</time>
      </trkpt>
      <trkpt lat="42.81288" lon="-0.1379">
        <ele>1955</ele>
        <time>2023-07-31T21:51:41Z</time>
      </trkpt>
      <trkpt lat="42.81262" lon="-0.1377">
        <ele>1959</ele>
        <time>2023-07-31T21:52:21Z</time>
      </trkpt>
      <trkpt lat="42.81243" lon="-0.13768">
        <ele>1961</ele>
        <time>2023-07-31T21:52:46Z</time>
      </trkpt>
      <trkpt lat="42.81231" lon="-0.13762">
        <ele>1961</ele>
        <time>2023-07-31T21:53:03Z</time>
      </trkpt>
      <trkpt lat="42.81219" lon="-0.1376">
        <ele>1962</ele>
        <time>2023-07-31T21:53:19Z</time>
      </trkpt>
      <trkpt lat="42.81181" lon="-0.13775">
        <ele>1965</ele>
        <time>2023-07-31T21:54:12Z</time>
      </trkpt>
      <trkpt lat="42.81169" lon="-0.13774">
        <ele>1965</ele>
        <time>2023-07-31T21:54:28Z</time>
      </trkpt>
      <trkpt lat="42.81165" lon="-0.1377">
        <ele>1966</ele>
        <time>2023-07-31T21:54:35Z</time>
      </trkpt>
      <trkpt lat="42.81156" lon="-0.13768">
        <ele>1967</ele>
        <time>2023-07-31T21:54:47Z</time>
      </trkpt>
      <trkpt lat="42.81108" lon="-0.13768">
        <ele>1976</ele>
        <time>2023-07-31T21:55:51Z</time>
      </trkpt>
      <trkpt lat="42.81096" lon="-0.13777">
        <ele>1977</ele>
        <time>2023-07-31T21:56:09Z</time>
      </trkpt>
      <trkpt lat="42.81086" lon="-0.13795">
        <ele>1978</ele>
        <time>2023-07-31T21:56:32Z</time>
      </trkpt>
      <trkpt lat="42.81073" lon="-0.13808">
        <ele>1978</ele>
        <time>2023-07-31T21:56:53Z</time>
      </trkpt>
      <trkpt lat="42.81059" lon="-0.13815">
        <ele>1979</ele>
        <time>2023-07-31T21:57:13Z</time>
      </trkpt>
      <trkpt lat="42.81049" lon="-0.13815">
        <ele>1980</ele>
        <time>2023-07-31T21:57:26Z</time>
      </trkpt>
      <trkpt lat="42.81022" lon="-0.13808">
        <ele>1983</ele>
        <time>2023-07-31T21:58:03Z</time>
      </trkpt>
      <trkpt lat="42.81001" lon="-0.13796">
        <ele>1984</ele>
        <time>2023-07-31T21:58:33Z</time>
      </trkpt>
      <trkpt lat="42.80993" lon="-0.13785">
        <ele>1986</ele>
        <time>2023-07-31T21:58:48Z</time>
      </trkpt>
      <trkpt lat="42.80985" lon="-0.13768">
        <ele>1986</ele>
        <time>2023-07-31T21:59:08Z</time>
      </trkpt>
      <trkpt lat="42.80967" lon="-0.13749">
        <ele>1985</ele>
        <time>2023-07-31T21:59:39Z</time>
      </trkpt>
      <trkpt lat="42.8096" lon="-0.13726">
        <ele>1987</ele>
        <time>2023-07-31T22:00:03Z</time>
      </trkpt>
      <trkpt lat="42.80945" lon="-0.13718">
        <ele>1988</ele>
        <time>2023-07-31T22:00:25Z</time>
      </trkpt>
      <trkpt lat="42.80941" lon="-0.13714">
        <ele>1988</ele>
        <time>2023-07-31T22:00:31Z</time>
      </trkpt>
      <trkpt lat="42.80934" lon="-0.13699">
        <ele>1989</ele>
        <time>2023-07-31T22:00:49Z</time>
      </trkpt>
      <trkpt lat="42.80926" lon="-0.13691">
        <ele>1990</ele>
        <time>2023-07-31T22:01:02Z</time>
      </trkpt>
      <trkpt lat="42.80915" lon="-0.13671">
        <ele>1991</ele>
        <time>2023-07-31T22:01:26Z</time>
      </trkpt>
      <trkpt lat="42.80907" lon="-0.1366">
        <ele>1993</ele>
        <time>2023-07-31T22:01:41Z</time>
      </trkpt>
      <trkpt lat="42.80899" lon="-0.13653">
        <ele>1995</ele>
        <time>2023-07-31T22:01:54Z</time>
      </trkpt>
      <trkpt lat="42.80883" lon="-0.13643">
        <ele>1998</ele>
        <time>2023-07-31T22:02:18Z</time>
      </trkpt>
      <trkpt lat="42.80866" lon="-0.13647">
        <ele>1997</ele>
        <time>2023-07-31T22:02:41Z</time>
      </trkpt>
      <trkpt lat="42.80861" lon="-0.13657">
        <ele>1995</ele>
        <time>2023-07-31T22:02:52Z</time>
      </trkpt>
      <trkpt lat="42.80864" lon="-0.13666">
        <ele>1994</ele>
        <time>2023-07-31T22:03:02Z</time>
      </trkpt>
      <trkpt lat="42.80869" lon="-0.13673">
        <ele>1994</ele>
        <time>2023-07-31T22:03:12Z</time>
      </trkpt>
      <trkpt lat="42.80871" lon="-0.13677">
        <ele>1994</ele>
        <time>2023-07-31T22:03:16Z</time>
      </trkpt>
      <trkpt lat="42.8087" lon="-0.13681">
        <ele>1994</ele>
        <time>2023-07-31T22:03:21Z</time>
      </trkpt>
      <trkpt lat="42.80867" lon="-0.13683">
        <ele>1994</ele>
        <time>2023-07-31T22:03:25Z</time>
      </trkpt>
      <trkpt lat="42.80859" lon="-0.13681">
        <ele>1995</ele>
        <time>2023-07-31T22:03:36Z</time>
      </trkpt>
      <trkpt lat="42.80853" lon="-0.1369">
        <ele>1996</ele>
        <time>2023-07-31T22:03:48Z</time>
      </trkpt>
      <trkpt lat="42.80842" lon="-0.13691">
        <ele>1998</ele>
        <time>2023-07-31T22:04:02Z</time>
      </trkpt>
      <trkpt lat="42.80823" lon="-0.13681">
        <ele>1997</ele>
        <time>2023-07-31T22:04:30Z</time>
      </trkpt>
      <trkpt lat="42.80802" lon="-0.13674">
        <ele>1996</ele>
        <time>2023-07-31T22:04:59Z</time>
      </trkpt>
      <trkpt lat="42.80793" lon="-0.13666">
        <ele>1995</ele>
        <time>2023-07-31T22:05:13Z</time>
      </trkpt>
      <trkpt lat="42.80775" lon="-0.13668">
        <ele>1995</ele>
        <time>2023-07-31T22:05:37Z</time>
      </trkpt>
      <trkpt lat="42.80765" lon="-0.13666">
        <ele>1994</ele>
        <time>2023-07-31T22:05:50Z</time>
      </trkpt>
      <trkpt lat="42.80751" lon="-0.13655">
        <ele>1994</ele>
        <time>2023-07-31T22:06:12Z</time>
      </trkpt>
      <trkpt lat="42.80744" lon="-0.13655">
        <ele>1994</ele>
        <time>2023-07-31T22:06:21Z</time>
      </trkpt>
      <trkpt lat="42.8072" lon="-0.13667">
        <ele>1993</ele>
        <time>2023-07-31T22:06:55Z</time>
      </trkpt>
      <trkpt lat="42.80709" lon="-0.13662">
        <ele>1993</ele>
        <time>2023-07-31T22:07:11Z</time>
      </trkpt>
      <trkpt lat="42.80699" lon="-0.13663">
        <ele>1992</ele>
        <time>2023-07-31T22:07:24Z</time>
      </trkpt>
      <trkpt lat="42.80678" lon="-0.1366">
        <ele>1992</ele>
        <time>2023-07-31T22:07:53Z</time>
      </trkpt>
      <trkpt lat="42.80641" lon="-0.13659">
        <ele>1995</ele>
        <time>2023-07-31T22:08:42Z</time>
      </trkpt>
      <trkpt lat="42.80631" lon="-0.13667">
        <ele>1996</ele>
        <time>2023-07-31T22:08:57Z</time>
      </trkpt>
      <trkpt lat="42.80609" lon="-0.13699">
        <ele>2003</ele>
        <time>2023-07-31T22:09:40Z</time>
      </trkpt>
      <trkpt lat="42.80588" lon="-0.13742">
        <ele>2007</ele>
        <time>2023-07-31T22:10:31Z</time>
      </trkpt>
      <trkpt lat="42.80569" lon="-0.13769">
        <ele>2017</ele>
        <time>2023-07-31T22:11:07Z</time>
      </trkpt>
      <trkpt lat="42.80548" lon="-0.13768">
        <ele>2021</ele>
        <time>2023-07-31T22:11:36Z</time>
      </trkpt>
      <trkpt lat="42.80539" lon="-0.13753">
        <ele>2020</ele>
        <time>2023-07-31T22:11:55Z</time>
      </trkpt>
      <trkpt lat="42.8053" lon="-0.13752">
        <ele>2022</ele>
        <time>2023-07-31T22:12:07Z</time>
      </trkpt>
      <trkpt lat="42.80508" lon="-0.13738">
        <ele>2027</ele>
        <time>2023-07-31T22:12:39Z</time>
      </trkpt>
      <trkpt lat="42.80489" lon="-0.13739">
        <ele>2032</ele>
        <time>2023-07-31T22:13:04Z</time>
      </trkpt>
      <trkpt lat="42.80481" lon="-0.13745">
        <ele>2033</ele>
        <time>2023-07-31T22:13:17Z</time>
      </trkpt>
      <trkpt lat="42.80472" lon="-0.13747">
        <ele>2035</ele>
        <time>2023-07-31T22:13:29Z</time>
      </trkpt>
      <trkpt lat="42.80443" lon="-0.13744">
        <ele>2041</ele>
        <time>2023-07-31T22:14:07Z</time>
      </trkpt>
      <trkpt lat="42.80418" lon="-0.13737">
        <ele>2046</ele>
        <time>2023-07-31T22:14:42Z</time>
      </trkpt>
      <trkpt lat="42.80396" lon="-0.13747">
        <ele>2047</ele>
        <time>2023-07-31T22:15:13Z</time>
      </trkpt>
      <trkpt lat="42.80378" lon="-0.13753">
        <ele>2049</ele>
        <time>2023-07-31T22:15:37Z</time>
      </trkpt>
      <trkpt lat="42.80338" lon="-0.13784">
        <ele>2057</ele>
        <time>2023-07-31T22:16:39Z</time>
      </trkpt>
      <trkpt lat="42.80326" lon="-0.13788">
        <ele>2057</ele>
        <time>2023-07-31T22:16:55Z</time>
      </trkpt>
      <trkpt lat="42.8032" lon="-0.13788">
        <ele>2057</ele>
        <time>2023-07-31T22:17:03Z</time>
      </trkpt>
      <trkpt lat="42.80296" lon="-0.13797">
        <ele>2057</ele>
        <time>2023-07-31T22:17:36Z</time>
      </trkpt>
      <trkpt lat="42.80284" lon="-0.13794">
        <ele>2056</ele>
        <time>2023-07-31T22:17:53Z</time>
      </trkpt>
      <trkpt lat="42.80276" lon="-0.13797">
        <ele>2056</ele>
        <time>2023-07-31T22:18:04Z</time>
      </trkpt>
      <trkpt lat="42.80239" lon="-0.13844">
        <ele>2058</ele>
        <time>2023-07-31T22:19:11Z</time>
      </trkpt>
      <trkpt lat="42.80195" lon="-0.13878">
        <ele>2062</ele>
        <time>2023-07-31T22:20:19Z</time>
      </trkpt>
      <trkpt lat="42.80174" lon="-0.13887">
        <ele>2063</ele>
        <time>2023-07-31T22:20:48Z</time>
      </trkpt>
      <trkpt lat="42.80105" lon="-0.1388">
        <ele>2058</ele>
        <time>2023-07-31T22:22:20Z</time>
      </trkpt>
      <trkpt lat="42.80075" lon="-0.13893">
        <ele>2058</ele>
        <time>2023-07-31T22:23:02Z</time>
      </trkpt>
      <trkpt lat="42.79986" lon="-0.13892">
        <ele>2059</ele>
        <time>2023-07-31T22:25:01Z</time>
      </trkpt>
      <trkpt lat="42.79949" lon="-0.13917">
        <ele>2061</ele>
        <time>2023-07-31T22:25:56Z</time>
      </trkpt>
      <trkpt lat="42.79927" lon="-0.1392">
        <ele>2063</ele>
        <time>2023-07-31T22:26:26Z</time>
      </trkpt>
      <trkpt lat="42.79886" lon="-0.13941">
        <ele>2067</ele>
        <time>2023-07-31T22:27:24Z</time>
      </trkpt>
      <trkpt lat="42.7984" lon="-0.13947">
        <ele>2068</ele>
        <time>2023-07-31T22:28:26Z</time>
      </trkpt>
      <trkpt lat="42.79784" lon="-0.13995">
        <ele>2070</ele>
        <time>2023-07-31T22:29:54Z</time>
      </trkpt>
      <trkpt lat="42.7975" lon="-0.14009">
        <ele>2071</ele>
        <time>2023-07-31T22:30:42Z</time>
      </trkpt>
      <trkpt lat="42.7972" lon="-0.14029">
        <ele>2074</ele>
        <time>2023-07-31T22:31:26Z</time>
      </trkpt>
      <trkpt lat="42.79715" lon="-0.14042">
        <ele>2075</ele>
        <time>2023-07-31T22:31:41Z</time>
      </trkpt>
      <trkpt lat="42.79687" lon="-0.1406">
        <ele>2078</ele>
        <time>2023-07-31T22:32:22Z</time>
      </trkpt>
      <trkpt lat="42.79681" lon="-0.14065">
        <ele>2078</ele>
        <time>2023-07-31T22:32:31Z</time>
      </trkpt>
      <trkpt lat="42.79673" lon="-0.14067">
        <ele>2079</ele>
        <time>2023-07-31T22:32:42Z</time>
      </trkpt>
      <trkpt lat="42.79653" lon="-0.14067">
        <ele>2081</ele>
        <time>2023-07-31T22:33:09Z</time>
      </trkpt>
      <trkpt lat="42.79633" lon="-0.14092">
        <ele>2085</ele>
        <time>2023-07-31T22:33:45Z</time>
      </trkpt>
      <trkpt lat="42.79615" lon="-0.14099">
        <ele>2089</ele>
        <time>2023-07-31T22:34:10Z</time>
      </trkpt>
      <trkpt lat="42.79611" lon="-0.14099">
        <ele>2089</ele>
        <time>2023-07-31T22:34:15Z</time>
      </trkpt>
      <trkpt lat="42.79591" lon="-0.14114">
        <ele>2094</ele>
        <time>2023-07-31T22:34:46Z</time>
      </trkpt>
      <trkpt lat="42.79588" lon="-0.1412">
        <ele>2096</ele>
        <time>2023-07-31T22:34:53Z</time>
      </trkpt>
      <trkpt lat="42.79587" lon="-0.14142">
        <ele>2100</ele>
        <time>2023-07-31T22:35:14Z</time>
      </trkpt>
      <trkpt lat="42.79588" lon="-0.14148">
        <ele>2101</ele>
        <time>2023-07-31T22:35:20Z</time>
      </trkpt>
      <trkpt lat="42.79589" lon="-0.14151">
        <ele>2101</ele>
        <time>2023-07-31T22:35:24Z</time>
      </trkpt>
      <trkpt lat="42.79599" lon="-0.14158">
        <ele>2101</ele>
        <time>2023-07-31T22:35:39Z</time>
      </trkpt>
      <trkpt lat="42.79599" lon="-0.14161">
        <ele>2102</ele>
        <time>2023-07-31T22:35:42Z</time>
      </trkpt>
      <trkpt lat="42.79571" lon="-0.14172">
        <ele>2109</ele>
        <time>2023-07-31T22:36:21Z</time>
      </trkpt>
      <trkpt lat="42.79568" lon="-0.1417">
        <ele>2108</ele>
        <time>2023-07-31T22:36:25Z</time>
      </trkpt>
      <trkpt lat="42.79538" lon="-0.14175">
        <ele>2113</ele>
        <time>2023-07-31T22:37:05Z</time>
      </trkpt>
      <trkpt lat="42.79534" lon="-0.14173">
        <ele>2113</ele>
        <time>2023-07-31T22:37:11Z</time>
      </trkpt>
      <trkpt lat="42.79526" lon="-0.14174">
        <ele>2114</ele>
        <time>2023-07-31T22:37:22Z</time>
      </trkpt>
      <trkpt lat="42.79519" lon="-0.14178">
        <ele>2117</ele>
        <time>2023-07-31T22:37:32Z</time>
      </trkpt>
      <trkpt lat="42.79498" lon="-0.14177">
        <ele>2119</ele>
        <time>2023-07-31T22:38:00Z</time>
      </trkpt>
      <trkpt lat="42.79493" lon="-0.14181">
        <ele>2121</ele>
        <time>2023-07-31T22:38:08Z</time>
      </trkpt>
      <trkpt lat="42.79479" lon="-0.14196">
        <ele>2128</ele>
        <time>2023-07-31T22:38:31Z</time>
      </trkpt>
      <trkpt lat="42.79468" lon="-0.14201">
        <ele>2131</ele>
        <time>2023-07-31T22:38:47Z</time>
      </trkpt>
      <trkpt lat="42.79458" lon="-0.142">
        <ele>2131</ele>
        <time>2023-07-31T22:39:00Z</time>
      </trkpt>
      <trkpt lat="42.79454" lon="-0.14202">
        <ele>2132</ele>
        <time>2023-07-31T22:39:06Z</time>
      </trkpt>
      <trkpt lat="42.79453" lon="-0.14208">
        <ele>2134</ele>
        <time>2023-07-31T22:39:12Z</time>
      </trkpt>
      <trkpt lat="42.7946" lon="-0.1422">
        <ele>2137</ele>
        <time>2023-07-31T22:39:27Z</time>
      </trkpt>
      <trkpt lat="42.79455" lon="-0.14225">
        <ele>2139</ele>
        <time>2023-07-31T22:39:35Z</time>
      </trkpt>
      <trkpt lat="42.7945" lon="-0.14227">
        <ele>2140</ele>
        <time>2023-07-31T22:39:42Z</time>
      </trkpt>
      <trkpt lat="42.7945" lon="-0.1423">
        <ele>2140</ele>
        <time>2023-07-31T22:39:45Z</time>
      </trkpt>
      <trkpt lat="42.79457" lon="-0.14233">
        <ele>2141</ele>
        <time>2023-07-31T22:39:55Z</time>
      </trkpt>
      <trkpt lat="42.7948" lon="-0.14221">
        <ele>2137</ele>
        <time>2023-07-31T22:40:28Z</time>
      </trkpt>
      <trkpt lat="42.79482" lon="-0.14223">
        <ele>2138</ele>
        <time>2023-07-31T22:40:31Z</time>
      </trkpt>
      <trkpt lat="42.79481" lon="-0.14226">
        <ele>2139</ele>
        <time>2023-07-31T22:40:34Z</time>
      </trkpt>
      <trkpt lat="42.79478" lon="-0.14232">
        <ele>2141</ele>
        <time>2023-07-31T22:40:41Z</time>
      </trkpt>
      <trkpt lat="42.79478" lon="-0.14236">
        <ele>2142</ele>
        <time>2023-07-31T22:40:45Z</time>
      </trkpt>
      <trkpt lat="42.79494" lon="-0.14249">
        <ele>2147</ele>
        <time>2023-07-31T22:41:10Z</time>
      </trkpt>
      <trkpt lat="42.79495" lon="-0.14254">
        <ele>2149</ele>
        <time>2023-07-31T22:41:15Z</time>
      </trkpt>
      <trkpt lat="42.79489" lon="-0.14257">
        <ele>2150</ele>
        <time>2023-07-31T22:41:24Z</time>
      </trkpt>
      <trkpt lat="42.79481" lon="-0.14256">
        <ele>2150</ele>
        <time>2023-07-31T22:41:35Z</time>
      </trkpt>
      <trkpt lat="42.79469" lon="-0.1427">
        <ele>2154</ele>
        <time>2023-07-31T22:41:56Z</time>
      </trkpt>
      <trkpt lat="42.79461" lon="-0.14271">
        <ele>2154</ele>
        <time>2023-07-31T22:42:06Z</time>
      </trkpt>
      <trkpt lat="42.79456" lon="-0.14268">
        <ele>2153</ele>
        <time>2023-07-31T22:42:14Z</time>
      </trkpt>
      <trkpt lat="42.79441" lon="-0.1427">
        <ele>2152</ele>
        <time>2023-07-31T22:42:34Z</time>
      </trkpt>
      <trkpt lat="42.79433" lon="-0.14254">
        <ele>2147</ele>
        <time>2023-07-31T22:42:53Z</time>
      </trkpt>
      <trkpt lat="42.7942" lon="-0.14247">
        <ele>2144</ele>
        <time>2023-07-31T22:43:11Z</time>
      </trkpt>
      <trkpt lat="42.79402" lon="-0.14248">
        <ele>2146</ele>
        <time>2023-07-31T22:43:35Z</time>
      </trkpt>
      <trkpt lat="42.79398" lon="-0.14246">
        <ele>2146</ele>
        <time>2023-07-31T22:43:41Z</time>
      </trkpt>
      <trkpt lat="42.79393" lon="-0.14236">
        <ele>2145</ele>
        <time>2023-07-31T22:43:53Z</time>
      </trkpt>
      <trkpt lat="42.79378" lon="-0.14237">
        <ele>2147</ele>
        <time>2023-07-31T22:44:13Z</time>
      </trkpt>
      <trkpt lat="42.7934" lon="-0.14225">
        <ele>2151</ele>
        <time>2023-07-31T22:45:05Z</time>
      </trkpt>
      <trkpt lat="42.79339" lon="-0.14217">
        <ele>2151</ele>
        <time>2023-07-31T22:45:13Z</time>
      </trkpt>
      <trkpt lat="42.79342" lon="-0.14203">
        <ele>2149</ele>
        <time>2023-07-31T22:45:27Z</time>
      </trkpt>
      <trkpt lat="42.79335" lon="-0.14194">
        <ele>2150</ele>
        <time>2023-07-31T22:45:40Z</time>
      </trkpt>
      <trkpt lat="42.79328" lon="-0.14196">
        <ele>2150</ele>
        <time>2023-07-31T22:45:50Z</time>
      </trkpt>
      <trkpt lat="42.79317" lon="-0.14188">
        <ele>2150</ele>
        <time>2023-07-31T22:46:06Z</time>
      </trkpt>
      <trkpt lat="42.79274" lon="-0.14162">
        <ele>2148</ele>
        <time>2023-07-31T22:47:09Z</time>
      </trkpt>
      <trkpt lat="42.79266" lon="-0.14126">
        <ele>2149</ele>
        <time>2023-07-31T22:47:46Z</time>
      </trkpt>
      <trkpt lat="42.79268" lon="-0.14119">
        <ele>2149</ele>
        <time>2023-07-31T22:47:53Z</time>
      </trkpt>
      <trkpt lat="42.79267" lon="-0.14114">
        <ele>2149</ele>
        <time>2023-07-31T22:47:58Z</time>
      </trkpt>
      <trkpt lat="42.79272" lon="-0.14107">
        <ele>2148</ele>
        <time>2023-07-31T22:48:08Z</time>
      </trkpt>
      <trkpt lat="42.79273" lon="-0.14099">
        <ele>2148</ele>
        <time>2023-07-31T22:48:16Z</time>
      </trkpt>
      <trkpt lat="42.79266" lon="-0.14084">
        <ele>2149</ele>
        <time>2023-07-31T22:48:33Z</time>
      </trkpt>
      <trkpt lat="42.7926" lon="-0.14061">
        <ele>2156</ele>
        <time>2023-07-31T22:48:57Z</time>
      </trkpt>
      <trkpt lat="42.79257" lon="-0.14056">
        <ele>2158</ele>
        <time>2023-07-31T22:49:03Z</time>
      </trkpt>
      <trkpt lat="42.79239" lon="-0.14036">
        <ele>2164</ele>
        <time>2023-07-31T22:49:34Z</time>
      </trkpt>
      <trkpt lat="42.79225" lon="-0.14017">
        <ele>2167</ele>
        <time>2023-07-31T22:50:01Z</time>
      </trkpt>
      <trkpt lat="42.79078" lon="-0.13885">
        <ele>2201</ele>
        <time>2023-07-31T22:53:56Z</time>
      </trkpt>
      <trkpt lat="42.79074" lon="-0.13883">
        <ele>2203</ele>
        <time>2023-07-31T22:54:01Z</time>
      </trkpt>
      <trkpt lat="42.79066" lon="-0.13886">
        <ele>2202</ele>
        <time>2023-07-31T22:54:13Z</time>
      </trkpt>
      <trkpt lat="42.79054" lon="-0.13896">
        <ele>2198</ele>
        <time>2023-07-31T22:54:31Z</time>
      </trkpt>
      <trkpt lat="42.79046" lon="-0.13898">
        <ele>2197</ele>
        <time>2023-07-31T22:54:42Z</time>
      </trkpt>
      <trkpt lat="42.79023" lon="-0.13895">
        <ele>2200</ele>
        <time>2023-07-31T22:55:13Z</time>
      </trkpt>
      <trkpt lat="42.79009" lon="-0.13886">
        <ele>2204</ele>
        <time>2023-07-31T22:55:34Z</time>
      </trkpt>
      <trkpt lat="42.78992" lon="-0.13881">
        <ele>2207</ele>
        <time>2023-07-31T22:55:57Z</time>
      </trkpt>
      <trkpt lat="42.79003" lon="-0.13876">
        <ele>2208</ele>
        <time>2023-07-31T22:56:12Z</time>
      </trkpt>
      <trkpt lat="42.78997" lon="-0.13871">
        <ele>2211</ele>
        <time>2023-07-31T22:56:22Z</time>
      </trkpt>
      <trkpt lat="42.78963" lon="-0.13856">
        <ele>2220</ele>
        <time>2023-07-31T22:57:09Z</time>
      </trkpt>
      <trkpt lat="42.78956" lon="-0.13846">
        <ele>2225</ele>
        <time>2023-07-31T22:57:23Z</time>
      </trkpt>
      <trkpt lat="42.7896" lon="-0.13842">
        <ele>2226</ele>
        <time>2023-07-31T22:57:30Z</time>
      </trkpt>
      <trkpt lat="42.78967" lon="-0.13844">
        <ele>2225</ele>
        <time>2023-07-31T22:57:39Z</time>
      </trkpt>
      <trkpt lat="42.7898" lon="-0.1384">
        <ele>2225</ele>
        <time>2023-07-31T22:57:57Z</time>
      </trkpt>
      <trkpt lat="42.78958" lon="-0.13817">
        <ele>2237</ele>
        <time>2023-07-31T22:58:34Z</time>
      </trkpt>
      <trkpt lat="42.78914" lon="-0.13803">
        <ele>2247</ele>
        <time>2023-07-31T22:59:34Z</time>
      </trkpt>
      <trkpt lat="42.78898" lon="-0.13803">
        <ele>2248</ele>
        <time>2023-07-31T22:59:56Z</time>
      </trkpt>
      <trkpt lat="42.78887" lon="-0.13799">
        <ele>2251</ele>
        <time>2023-07-31T23:00:11Z</time>
      </trkpt>
      <trkpt lat="42.78853" lon="-0.13809">
        <ele>2248</ele>
        <time>2023-07-31T23:00:57Z</time>
      </trkpt>
      <trkpt lat="42.78845" lon="-0.13804">
        <ele>2251</ele>
        <time>2023-07-31T23:01:09Z</time>
      </trkpt>
      <trkpt lat="42.78828" lon="-0.13797">
        <ele>2256</ele>
        <time>2023-07-31T23:01:33Z</time>
      </trkpt>
      <trkpt lat="42.78826" lon="-0.13792">
        <ele>2259</ele>
        <time>2023-07-31T23:01:38Z</time>
      </trkpt>
      <trkpt lat="42.78795" lon="-0.13782">
        <ele>2267</ele>
        <time>2023-07-31T23:02:21Z</time>
      </trkpt>
      <trkpt lat="42.78795" lon="-0.1378">
        <ele>2268</ele>
        <time>2023-07-31T23:02:23Z</time>
      </trkpt>
      <trkpt lat="42.78801" lon="-0.13775">
        <ele>2270</ele>
        <time>2023-07-31T23:02:32Z</time>
      </trkpt>
      <trkpt lat="42.78805" lon="-0.13764">
        <ele>2276</ele>
        <time>2023-07-31T23:02:44Z</time>
      </trkpt>
      <trkpt lat="42.78814" lon="-0.13753">
        <ele>2281</ele>
        <time>2023-07-31T23:03:00Z</time>
      </trkpt>
      <trkpt lat="42.78822" lon="-0.13745">
        <ele>2284</ele>
        <time>2023-07-31T23:03:13Z</time>
      </trkpt>
      <trkpt lat="42.78848" lon="-0.13729">
        <ele>2288</ele>
        <time>2023-07-31T23:03:52Z</time>
      </trkpt>
      <trkpt lat="42.78861" lon="-0.13728">
        <ele>2287</ele>
        <time>2023-07-31T23:04:09Z</time>
      </trkpt>
      <trkpt lat="42.78924" lon="-0.1371">
        <ele>2287</ele>
        <time>2023-07-31T23:05:35Z</time>
      </trkpt>
      <trkpt lat="42.78947" lon="-0.13701">
        <ele>2289</ele>
        <time>2023-07-31T23:06:07Z</time>
      </trkpt>
      <trkpt lat="42.78955" lon="-0.13684">
        <ele>2295</ele>
        <time>2023-07-31T23:06:26Z</time>
      </trkpt>
      <trkpt lat="42.78963" lon="-0.13681">
        <ele>2296</ele>
        <time>2023-07-31T23:06:38Z</time>
      </trkpt>
      <trkpt lat="42.78979" lon="-0.13687">
        <ele>2291</ele>
        <time>2023-07-31T23:07:00Z</time>
      </trkpt>
      <trkpt lat="42.78984" lon="-0.13687">
        <ele>2291</ele>
        <time>2023-07-31T23:07:06Z</time>
      </trkpt>
      <trkpt lat="42.78998" lon="-0.13678">
        <ele>2293</ele>
        <time>2023-07-31T23:07:27Z</time>
      </trkpt>
      <trkpt lat="42.7902" lon="-0.1367">
        <ele>2299</ele>
        <time>2023-07-31T23:07:57Z</time>
      </trkpt>
      <trkpt lat="42.79019" lon="-0.13666">
        <ele>2300</ele>
        <time>2023-07-31T23:08:02Z</time>
      </trkpt>
      <trkpt lat="42.79009" lon="-0.13656">
        <ele>2304</ele>
        <time>2023-07-31T23:08:18Z</time>
      </trkpt>
      <trkpt lat="42.79002" lon="-0.13645">
        <ele>2308</ele>
        <time>2023-07-31T23:08:32Z</time>
      </trkpt>
      <trkpt lat="42.79017" lon="-0.13642">
        <ele>2312</ele>
        <time>2023-07-31T23:08:53Z</time>
      </trkpt>
      <trkpt lat="42.79023" lon="-0.13638">
        <ele>2315</ele>
        <time>2023-07-31T23:09:02Z</time>
      </trkpt>
      <trkpt lat="42.7903" lon="-0.13639">
        <ele>2315</ele>
        <time>2023-07-31T23:09:11Z</time>
      </trkpt>
      <trkpt lat="42.79022" lon="-0.13629">
        <ele>2319</ele>
        <time>2023-07-31T23:09:25Z</time>
      </trkpt>
      <trkpt lat="42.79013" lon="-0.13626">
        <ele>2319</ele>
        <time>2023-07-31T23:09:38Z</time>
      </trkpt>
      <trkpt lat="42.79001" lon="-0.13615">
        <ele>2323</ele>
        <time>2023-07-31T23:09:57Z</time>
      </trkpt>
      <trkpt lat="42.79035" lon="-0.13609">
        <ele>2331</ele>
        <time>2023-07-31T23:10:43Z</time>
      </trkpt>
      <trkpt lat="42.79035" lon="-0.13606">
        <ele>2332</ele>
        <time>2023-07-31T23:10:46Z</time>
      </trkpt>
      <trkpt lat="42.79031" lon="-0.13601">
        <ele>2334</ele>
        <time>2023-07-31T23:10:53Z</time>
      </trkpt>
      <trkpt lat="42.7904" lon="-0.13598">
        <ele>2337</ele>
        <time>2023-07-31T23:11:05Z</time>
      </trkpt>
      <trkpt lat="42.79039" lon="-0.13595">
        <ele>2338</ele>
        <time>2023-07-31T23:11:09Z</time>
      </trkpt>
      <trkpt lat="42.79032" lon="-0.1359">
        <ele>2339</ele>
        <time>2023-07-31T23:11:19Z</time>
      </trkpt>
      <trkpt lat="42.79037" lon="-0.1359">
        <ele>2340</ele>
        <time>2023-07-31T23:11:26Z</time>
      </trkpt>
      <trkpt lat="42.79053" lon="-0.13595">
        <ele>2340</ele>
        <time>2023-07-31T23:11:48Z</time>
      </trkpt>
      <trkpt lat="42.79066" lon="-0.13588">
        <ele>2345</ele>
        <time>2023-07-31T23:12:06Z</time>
      </trkpt>
      <trkpt lat="42.79055" lon="-0.13581">
        <ele>2347</ele>
        <time>2023-07-31T23:12:23Z</time>
      </trkpt>
      <trkpt lat="42.79048" lon="-0.13567">
        <ele>2352</ele>
        <time>2023-07-31T23:12:39Z</time>
      </trkpt>
      <trkpt lat="42.79035" lon="-0.13559">
        <ele>2354</ele>
        <time>2023-07-31T23:12:58Z</time>
      </trkpt>
      <trkpt lat="42.79063" lon="-0.13546">
        <ele>2363</ele>
        <time>2023-07-31T23:13:38Z</time>
      </trkpt>
      <trkpt lat="42.79037" lon="-0.1353">
        <ele>2367</ele>
        <time>2023-07-31T23:14:16Z</time>
      </trkpt>
      <trkpt lat="42.79017" lon="-0.13524">
        <ele>2368</ele>
        <time>2023-07-31T23:14:43Z</time>
      </trkpt>
      <trkpt lat="42.79006" lon="-0.13517">
        <ele>2370</ele>
        <time>2023-07-31T23:14:59Z</time>
      </trkpt>
      <trkpt lat="42.78997" lon="-0.1352">
        <ele>2369</ele>
        <time>2023-07-31T23:15:12Z</time>
      </trkpt>
      <trkpt lat="42.78991" lon="-0.13521">
        <ele>2369</ele>
        <time>2023-07-31T23:15:20Z</time>
      </trkpt>
      <trkpt lat="42.78988" lon="-0.1352">
        <ele>2370</ele>
        <time>2023-07-31T23:15:24Z</time>
      </trkpt>
      <trkpt lat="42.78982" lon="-0.1351">
        <ele>2376</ele>
        <time>2023-07-31T23:15:36Z</time>
      </trkpt>
      <trkpt lat="42.7897" lon="-0.13502">
        <ele>2382</ele>
        <time>2023-07-31T23:15:54Z</time>
      </trkpt>
      <trkpt lat="42.7897" lon="-0.13499">
        <ele>2383</ele>
        <time>2023-07-31T23:15:57Z</time>
      </trkpt>
      <trkpt lat="42.78983" lon="-0.13497">
        <ele>2382</ele>
        <time>2023-07-31T23:16:15Z</time>
      </trkpt>
      <trkpt lat="42.7901" lon="-0.13476">
        <ele>2387</ele>
        <time>2023-07-31T23:16:56Z</time>
      </trkpt>
      <trkpt lat="42.79024" lon="-0.13472">
        <ele>2389</ele>
        <time>2023-07-31T23:17:15Z</time>
      </trkpt>
      <trkpt lat="42.79054" lon="-0.13469">
        <ele>2391</ele>
        <time>2023-07-31T23:17:55Z</time>
      </trkpt>
      <trkpt lat="42.79058" lon="-0.13464">
        <ele>2393</ele>
        <time>2023-07-31T23:18:03Z</time>
      </trkpt>
      <trkpt lat="42.79059" lon="-0.13461">
        <ele>2394</ele>
        <time>2023-07-31T23:18:06Z</time>
      </trkpt>
      <trkpt lat="42.79058" lon="-0.13457">
        <ele>2395</ele>
        <time>2023-07-31T23:18:10Z</time>
      </trkpt>
      <trkpt lat="42.7904" lon="-0.13445">
        <ele>2398</ele>
        <time>2023-07-31T23:18:37Z</time>
      </trkpt>
      <trkpt lat="42.79028" lon="-0.13445">
        <ele>2398</ele>
        <time>2023-07-31T23:18:53Z</time>
      </trkpt>
      <trkpt lat="42.79018" lon="-0.13441">
        <ele>2400</ele>
        <time>2023-07-31T23:19:07Z</time>
      </trkpt>
      <trkpt lat="42.79017" lon="-0.13438">
        <ele>2401</ele>
        <time>2023-07-31T23:19:10Z</time>
      </trkpt>
      <trkpt lat="42.79021" lon="-0.13423">
        <ele>2406</ele>
        <time>2023-07-31T23:19:26Z</time>
      </trkpt>
      <trkpt lat="42.79066" lon="-0.13378">
        <ele>2418</ele>
        <time>2023-07-31T23:20:40Z</time>
      </trkpt>
      <trkpt lat="42.79066" lon="-0.13375">
        <ele>2419</ele>
        <time>2023-07-31T23:20:43Z</time>
      </trkpt>
      <trkpt lat="42.79049" lon="-0.13364">
        <ele>2425</ele>
        <time>2023-07-31T23:21:08Z</time>
      </trkpt>
      <trkpt lat="42.79024" lon="-0.13361">
        <ele>2429</ele>
        <time>2023-07-31T23:21:42Z</time>
      </trkpt>
      <trkpt lat="42.79057" lon="-0.13329">
        <ele>2435</ele>
        <time>2023-07-31T23:22:36Z</time>
      </trkpt>
      <trkpt lat="42.79032" lon="-0.13329">
        <ele>2439</ele>
        <time>2023-07-31T23:23:09Z</time>
      </trkpt>
      <trkpt lat="42.79046" lon="-0.13312">
        <ele>2441</ele>
        <time>2023-07-31T23:23:34Z</time>
      </trkpt>
      <trkpt lat="42.79048" lon="-0.13305">
        <ele>2443</ele>
        <time>2023-07-31T23:23:41Z</time>
      </trkpt>
      <trkpt lat="42.78987" lon="-0.13308">
        <ele>2454</ele>
        <time>2023-07-31T23:25:03Z</time>
      </trkpt>
      <trkpt lat="42.79009" lon="-0.13267">
        <ele>2460</ele>
        <time>2023-07-31T23:25:53Z</time>
      </trkpt>
      <trkpt lat="42.79007" lon="-0.1326">
        <ele>2462</ele>
        <time>2023-07-31T23:26:00Z</time>
      </trkpt>
      <trkpt lat="42.78992" lon="-0.13261">
        <ele>2465</ele>
        <time>2023-07-31T23:26:20Z</time>
      </trkpt>
      <trkpt lat="42.78994" lon="-0.13255">
        <ele>2466</ele>
        <time>2023-07-31T23:26:26Z</time>
      </trkpt>
      <trkpt lat="42.78991" lon="-0.13251">
        <ele>2468</ele>
        <time>2023-07-31T23:26:32Z</time>
      </trkpt>
      <trkpt lat="42.78971" lon="-0.13261">
        <ele>2471</ele>
        <time>2023-07-31T23:27:00Z</time>
      </trkpt>
      <trkpt lat="42.78965" lon="-0.13255">
        <ele>2474</ele>
        <time>2023-07-31T23:27:10Z</time>
      </trkpt>
      <trkpt lat="42.78954" lon="-0.13255">
        <ele>2478</ele>
        <time>2023-07-31T23:27:25Z</time>
      </trkpt>
      <trkpt lat="42.7895" lon="-0.13248">
        <ele>2480</ele>
        <time>2023-07-31T23:27:34Z</time>
      </trkpt>
      <trkpt lat="42.78928" lon="-0.1325">
        <ele>2486</ele>
        <time>2023-07-31T23:28:03Z</time>
      </trkpt>
      <trkpt lat="42.78919" lon="-0.13261">
        <ele>2486</ele>
        <time>2023-07-31T23:28:19Z</time>
      </trkpt>
      <trkpt lat="42.78911" lon="-0.1326">
        <ele>2488</ele>
        <time>2023-07-31T23:28:30Z</time>
      </trkpt>
      <trkpt lat="42.78899" lon="-0.13271">
        <ele>2489</ele>
        <time>2023-07-31T23:28:49Z</time>
      </trkpt>
      <trkpt lat="42.78876" lon="-0.13309">
        <ele>2487</ele>
        <time>2023-07-31T23:29:38Z</time>
      </trkpt>
      <trkpt lat="42.78867" lon="-0.13311">
        <ele>2489</ele>
        <time>2023-07-31T23:29:50Z</time>
      </trkpt>
      <trkpt lat="42.7886" lon="-0.13298">
        <ele>2493</ele>
        <time>2023-07-31T23:30:05Z</time>
      </trkpt>
      <trkpt lat="42.78848" lon="-0.13302">
        <ele>2495</ele>
        <time>2023-07-31T23:30:22Z</time>
      </trkpt>
      <trkpt lat="42.78834" lon="-0.13292">
        <ele>2500</ele>
        <time>2023-07-31T23:30:43Z</time>
      </trkpt>
      <trkpt lat="42.78823" lon="-0.13292">
        <ele>2502</ele>
        <time>2023-07-31T23:30:58Z</time>
      </trkpt>
      <trkpt lat="42.7881" lon="-0.13295">
        <ele>2504</ele>
        <time>2023-07-31T23:31:15Z</time>
      </trkpt>
      <trkpt lat="42.78802" lon="-0.13299">
        <ele>2505</ele>
        <time>2023-07-31T23:31:27Z</time>
      </trkpt>
      <trkpt lat="42.78786" lon="-0.13325">
        <ele>2505</ele>
        <time>2023-07-31T23:32:00Z</time>
      </trkpt>
      <trkpt lat="42.78776" lon="-0.13308">
        <ele>2509</ele>
        <time>2023-07-31T23:32:21Z</time>
      </trkpt>
      <trkpt lat="42.78761" lon="-0.13318">
        <ele>2511</ele>
        <time>2023-07-31T23:32:44Z</time>
      </trkpt>
      <trkpt lat="42.78755" lon="-0.13311">
        <ele>2513</ele>
        <time>2023-07-31T23:32:54Z</time>
      </trkpt>
      <trkpt lat="42.78727" lon="-0.13315">
        <ele>2520</ele>
        <time>2023-07-31T23:33:32Z</time>
      </trkpt>
      <trkpt lat="42.78719" lon="-0.13327">
        <ele>2521</ele>
        <time>2023-07-31T23:33:48Z</time>
      </trkpt>
      <trkpt lat="42.78666" lon="-0.13328">
        <ele>2533</ele>
        <time>2023-07-31T23:34:58Z</time>
      </trkpt>
      <trkpt lat="42.78638" lon="-0.13336">
        <ele>2540</ele>
        <time>2023-07-31T23:35:36Z</time>
      </trkpt>
      <trkpt lat="42.78586" lon="-0.13361">
        <ele>2547</ele>
        <time>2023-07-31T23:36:50Z</time>
      </trkpt>
      <trkpt lat="42.78561" lon="-0.13396">
        <ele>2546</ele>
        <time>2023-07-31T23:37:38Z</time>
      </trkpt>
      <trkpt lat="42.78531" lon="-0.13417">
        <ele>2551</ele>
        <time>2023-07-31T23:38:23Z</time>
      </trkpt>
      <trkpt lat="42.78522" lon="-0.13417">
        <ele>2554</ele>
        <time>2023-07-31T23:38:35Z</time>
      </trkpt>
      <trkpt lat="42.7851" lon="-0.13437">
        <ele>2552</ele>
        <time>2023-07-31T23:39:00Z</time>
      </trkpt>
      <trkpt lat="42.78495" lon="-0.13445">
        <ele>2555</ele>
        <time>2023-07-31T23:39:22Z</time>
      </trkpt>
      <trkpt lat="42.78496" lon="-0.13428">
        <ele>2560</ele>
        <time>2023-07-31T23:39:38Z</time>
      </trkpt>
      <trkpt lat="42.78484" lon="-0.13434">
        <ele>2562</ele>
        <time>2023-07-31T23:39:55Z</time>
      </trkpt>
      <trkpt lat="42.78481" lon="-0.1342">
        <ele>2568</ele>
        <time>2023-07-31T23:40:10Z</time>
      </trkpt>
      <trkpt lat="42.7847" lon="-0.13444">
        <ele>2563</ele>
        <time>2023-07-31T23:40:37Z</time>
      </trkpt>
      <trkpt lat="42.78453" lon="-0.13452">
        <ele>2566</ele>
        <time>2023-07-31T23:41:01Z</time>
      </trkpt>
      <trkpt lat="42.78396" lon="-0.13448">
        <ele>2584</ele>
        <time>2023-07-31T23:42:18Z</time>
      </trkpt>
      <trkpt lat="42.78373" lon="-0.13456">
        <ele>2585</ele>
        <time>2023-07-31T23:42:49Z</time>
      </trkpt>
      <trkpt lat="42.78362" lon="-0.13453">
        <ele>2588</ele>
        <time>2023-07-31T23:43:04Z</time>
      </trkpt>
      <trkpt lat="42.78358" lon="-0.13431">
        <ele>2596</ele>
        <time>2023-07-31T23:43:26Z</time>
      </trkpt>
      <trkpt lat="42.78339" lon="-0.13427">
        <ele>2600</ele>
        <time>2023-07-31T23:43:52Z</time>
      </trkpt>
      <trkpt lat="42.7832" lon="-0.1345">
        <ele>2596</ele>
        <time>2023-07-31T23:44:26Z</time>
      </trkpt>
      <trkpt lat="42.7829" lon="-0.13433">
        <ele>2606</ele>
        <time>2023-07-31T23:45:09Z</time>
      </trkpt>
      <trkpt lat="42.78279" lon="-0.13433">
        <ele>2608</ele>
        <time>2023-07-31T23:45:24Z</time>
      </trkpt>
      <trkpt lat="42.78263" lon="-0.13436">
        <ele>2610</ele>
        <time>2023-07-31T23:45:46Z</time>
      </trkpt>
      <trkpt lat="42.78255" lon="-0.13445">
        <ele>2609</ele>
        <time>2023-07-31T23:45:59Z</time>
      </trkpt>
      <trkpt lat="42.78241" lon="-0.13442">
        <ele>2610</ele>
        <time>2023-07-31T23:46:18Z</time>
      </trkpt>
      <trkpt lat="42.78231" lon="-0.13447">
        <ele>2608</ele>
        <time>2023-07-31T23:46:33Z</time>
      </trkpt>
      <trkpt lat="42.78198" lon="-0.13445">
        <ele>2606</ele>
        <time>2023-07-31T23:47:17Z</time>
      </trkpt>
      <trkpt lat="42.78161" lon="-0.13417">
        <ele>2618</ele>
        <time>2023-07-31T23:48:13Z</time>
      </trkpt>
      <trkpt lat="42.78144" lon="-0.13396">
        <ele>2623</ele>
        <time>2023-07-31T23:48:44Z</time>
      </trkpt>
      <trkpt lat="42.78123" lon="-0.13366">
        <ele>2633</ele>
        <time>2023-07-31T23:49:24Z</time>
      </trkpt>
      <trkpt lat="42.78138" lon="-0.1336">
        <ele>2638</ele>
        <time>2023-07-31T23:49:45Z</time>
      </trkpt>
      <trkpt lat="42.78119" lon="-0.1334">
        <ele>2645</ele>
        <time>2023-07-31T23:50:17Z</time>
      </trkpt>
      <trkpt lat="42.78106" lon="-0.13336">
        <ele>2646</ele>
        <time>2023-07-31T23:50:35Z</time>
      </trkpt>
      <trkpt lat="42.78133" lon="-0.13325">
        <ele>2653</ele>
        <time>2023-07-31T23:51:13Z</time>
      </trkpt>
      <trkpt lat="42.78087" lon="-0.13292">
        <ele>2661</ele>
        <time>2023-07-31T23:52:22Z</time>
      </trkpt>
      <trkpt lat="42.78005" lon="-0.13256">
        <ele>2678</ele>
        <time>2023-07-31T23:54:17Z</time>
      </trkpt>
      <trkpt lat="42.7796" lon="-0.13219">
        <ele>2698</ele>
        <time>2023-07-31T23:55:27Z</time>
      </trkpt>
      <trkpt lat="42.77953" lon="-0.13201">
        <ele>2707</ele>
        <time>2023-07-31T23:55:47Z</time>
      </trkpt>
      <trkpt lat="42.77972" lon="-0.13201">
        <ele>2708</ele>
        <time>2023-07-31T23:56:12Z</time>
      </trkpt>
      <trkpt lat="42.77937" lon="-0.13168">
        <ele>2720</ele>
        <time>2023-07-31T23:57:09Z</time>
      </trkpt>
      <trkpt lat="42.77959" lon="-0.13163">
        <ele>2724</ele>
        <time>2023-07-31T23:57:39Z</time>
      </trkpt>
      <trkpt lat="42.77936" lon="-0.13144">
        <ele>2723</ele>
        <time>2023-07-31T23:58:15Z</time>
      </trkpt>
      <trkpt lat="42.77928" lon="-0.13135">
        <ele>2723</ele>
        <time>2023-07-31T23:58:29Z</time>
      </trkpt>
      <trkpt lat="42.77916" lon="-0.13115">
        <ele>2722</ele>
        <time>2023-07-31T23:58:54Z</time>
      </trkpt>
      <trkpt lat="42.77915" lon="-0.13089">
        <ele>2724</ele>
        <time>2023-07-31T23:59:20Z</time>
      </trkpt>
      <trkpt lat="42.77908" lon="-0.13086">
        <ele>2724</ele>
        <time>2023-07-31T23:59:29Z</time>
      </trkpt>
      <trkpt lat="42.77889" lon="-0.13056">
        <ele>2720</ele>
        <time>2023-08-01T00:00:08Z</time>
      </trkpt>
      <trkpt lat="42.77888" lon="-0.1298">
        <ele>2706</ele>
        <time>2023-08-01T00:01:23Z</time>
      </trkpt>
      <trkpt lat="42.77878" lon="-0.12962">
        <ele>2703</ele>
        <time>2023-08-01T00:01:45Z</time>
      </trkpt>
      <trkpt lat="42.77885" lon="-0.12936">
        <ele>2696</ele>
        <time>2023-08-01T00:02:12Z</time>
      </trkpt>
      <trkpt lat="42.77907" lon="-0.12889">
        <ele>2686</ele>
        <time>2023-08-01T00:03:06Z</time>
      </trkpt>
      <trkpt lat="42.77945" lon="-0.12872">
        <ele>2691</ele>
        <time>2023-08-01T00:04:00Z</time>
      </trkpt>
      <trkpt lat="42.77948" lon="-0.12855">
        <ele>2689</ele>
        <time>2023-08-01T00:04:17Z</time>
      </trkpt>
      <trkpt lat="42.77941" lon="-0.12816">
        <ele>2681</ele>
        <time>2023-08-01T00:04:56Z</time>
      </trkpt>
      <trkpt lat="42.77942" lon="-0.1274">
        <ele>2667</ele>
        <time>2023-08-01T00:06:11Z</time>
      </trkpt>
      <trkpt lat="42.77946" lon="-0.12693">
        <ele>2658</ele>
        <time>2023-08-01T00:06:57Z</time>
      </trkpt>
      <trkpt lat="42.77956" lon="-0.12675">
        <ele>2656</ele>
        <time>2023-08-01T00:07:19Z</time>
      </trkpt>
      <trkpt lat="42.77952" lon="-0.12621">
        <ele>2648</ele>
        <time>2023-08-01T00:08:12Z</time>
      </trkpt>
      <trkpt lat="42.77957" lon="-0.12565">
        <ele>2643</ele>
        <time>2023-08-01T00:09:08Z</time>
      </trkpt>
      <trkpt lat="42.77936" lon="-0.12552">
        <ele>2641</ele>
        <time>2023-08-01T00:09:38Z</time>
      </trkpt>
      <trkpt lat="42.77916" lon="-0.12502">
        <ele>2638</ele>
        <time>2023-08-01T00:10:34Z</time>
      </trkpt>
      <trkpt lat="42.7789" lon="-0.12442">
        <ele>2634</ele>
        <time>2023-08-01T00:11:42Z</time>
      </trkpt>
      <trkpt lat="42.77879" lon="-0.12429">
        <ele>2631</ele>
        <time>2023-08-01T00:12:02Z</time>
      </trkpt>
      <trkpt lat="42.77875" lon="-0.12407">
        <ele>2628</ele>
        <time>2023-08-01T00:12:24Z</time>
      </trkpt>
      <trkpt lat="42.77888" lon="-0.12395">
        <ele>2630</ele>
        <time>2023-08-01T00:12:45Z</time>
      </trkpt>
      <trkpt lat="42.77875" lon="-0.12407">
        <ele>2628</ele>
        <time>2023-08-01T00:13:06Z</time>
      </trkpt>
      <trkpt lat="42.77879" lon="-0.12429">
        <ele>2631</ele>
        <time>2023-08-01T00:13:28Z</time>
      </trkpt>
      <trkpt lat="42.7789" lon="-0.12442">
        <ele>2634</ele>
        <time>2023-08-01T00:13:48Z</time>
      </trkpt>
      <trkpt lat="42.77936" lon="-0.12552">
        <ele>2641</ele>
        <time>2023-08-01T00:15:52Z</time>
      </trkpt>
      <trkpt lat="42.77957" lon="-0.12565">
        <ele>2643</ele>
        <time>2023-08-01T00:16:22Z</time>
      </trkpt>
      <trkpt lat="42.77952" lon="-0.12621">
        <ele>2648</ele>
        <time>2023-08-01T00:17:18Z</time>
      </trkpt>
      <trkpt lat="42.77956" lon="-0.12675">
        <ele>2656</ele>
        <time>2023-08-01T00:18:11Z</time>
      </trkpt>
      <trkpt lat="42.77946" lon="-0.12693">
        <ele>2658</ele>
        <time>2023-08-01T00:18:33Z</time>
      </trkpt>
      <trkpt lat="42.77942" lon="-0.1274">
        <ele>2667</ele>
        <time>2023-08-01T00:19:19Z</time>
      </trkpt>
      <trkpt lat="42.77941" lon="-0.12816">
        <ele>2681</ele>
        <time>2023-08-01T00:20:34Z</time>
      </trkpt>
      <trkpt lat="42.77948" lon="-0.12855">
        <ele>2689</ele>
        <time>2023-08-01T00:21:13Z</time>
      </trkpt>
      <trkpt lat="42.77945" lon="-0.12872">
        <ele>2691</ele>
        <time>2023-08-01T00:21:30Z</time>
      </trkpt>
      <trkpt lat="42.77907" lon="-0.12889">
        <ele>2686</ele>
        <time>2023-08-01T00:22:24Z</time>
      </trkpt>
      <trkpt lat="42.77885" lon="-0.12936">
        <ele>2696</ele>
        <time>2023-08-01T00:23:18Z</time>
      </trkpt>
      <trkpt lat="42.77878" lon="-0.12962">
        <ele>2703</ele>
        <time>2023-08-01T00:23:45Z</time>
      </trkpt>
      <trkpt lat="42.77888" lon="-0.1298">
        <ele>2706</ele>
        <time>2023-08-01T00:24:07Z</time>
      </trkpt>
      <trkpt lat="42.77889" lon="-0.13056">
        <ele>2720</ele>
        <time>2023-08-01T00:25:22Z</time>
      </trkpt>
      <trkpt lat="42.77908" lon="-0.13086">
        <ele>2724</ele>
        <time>2023-08-01T00:26:01Z</time>
      </trkpt>
      <trkpt lat="42.77915" lon="-0.13089">
        <ele>2724</ele>
        <time>2023-08-01T00:26:10Z</time>
      </trkpt>
      <trkpt lat="42.77916" lon="-0.13115">
        <ele>2722</ele>
        <time>2023-08-01T00:26:36Z</time>
      </trkpt>
      <trkpt lat="42.77928" lon="-0.13135">
        <ele>2723</ele>
        <time>2023-08-01T00:27:01Z</time>
      </trkpt>
      <trkpt lat="42.77936" lon="-0.13144">
        <ele>2723</ele>
        <time>2023-08-01T00:27:15Z</time>
      </trkpt>
      <trkpt lat="42.77959" lon="-0.13163">
        <ele>2724</ele>
        <time>2023-08-01T00:27:51Z</time>
      </trkpt>
      <trkpt lat="42.77937" lon="-0.13168">
        <ele>2720</ele>
        <time>2023-08-01T00:28:21Z</time>
      </trkpt>
      <trkpt lat="42.77972" lon="-0.13201">
        <ele>2708</ele>
        <time>2023-08-01T00:29:18Z</time>
      </trkpt>
      <trkpt lat="42.77953" lon="-0.13201">
        <ele>2707</ele>
        <time>2023-08-01T00:29:43Z</time>
      </trkpt>
      <trkpt lat="42.7796" lon="-0.13219">
        <ele>2698</ele>
        <time>2023-08-01T00:30:03Z</time>
      </trkpt>
      <trkpt lat="42.78005" lon="-0.13256">
        <ele>2678</ele>
        <time>2023-08-01T00:31:13Z</time>
      </trkpt>
      <trkpt lat="42.78087" lon="-0.13292">
        <ele>2661</ele>
        <time>2023-08-01T00:33:08Z</time>
      </trkpt>
      <trkpt lat="42.78133" lon="-0.13325">
        <ele>2653</ele>
        <time>2023-08-01T00:34:17Z</time>
      </trkpt>
      <trkpt lat="42.78106" lon="-0.13336">
        <ele>2646</ele>
        <time>2023-08-01T00:34:55Z</time>
      </trkpt>
      <trkpt lat="42.78119" lon="-0.1334">
        <ele>2645</ele>
        <time>2023-08-01T00:35:13Z</time>
      </trkpt>
      <trkpt lat="42.78138" lon="-0.1336">
        <ele>2638</ele>
        <time>2023-08-01T00:35:45Z</time>
      </trkpt>
      <trkpt lat="42.78123" lon="-0.13366">
        <ele>2633</ele>
        <time>2023-08-01T00:36:06Z</time>
      </trkpt>
      <trkpt lat="42.78144" lon="-0.13396">
        <ele>2623</ele>
        <time>2023-08-01T00:36:46Z</time>
      </trkpt>
      <trkpt lat="42.78161" lon="-0.13417">
        <ele>2618</ele>
        <time>2023-08-01T00:37:17Z</time>
      </trkpt>
      <trkpt lat="42.78198" lon="-0.13445">
        <ele>2606</ele>
        <time>2023-08-01T00:38:13Z</time>
      </trkpt>
      <trkpt lat="42.78231" lon="-0.13447">
        <ele>2608</ele>
        <time>2023-08-01T00:38:57Z</time>
      </trkpt>
      <trkpt lat="42.78241" lon="-0.13442">
        <ele>2610</ele>
        <time>2023-08-01T00:39:12Z</time>
      </trkpt>
      <trkpt lat="42.78255" lon="-0.13445">
        <ele>2609</ele>
        <time>2023-08-01T00:39:31Z</time>
      </trkpt>
      <trkpt lat="42.78263" lon="-0.13436">
        <ele>2610</ele>
        <time>2023-08-01T00:39:44Z</time>
      </trkpt>
      <trkpt lat="42.78279" lon="-0.13433">
        <ele>2608</ele>
        <time>2023-08-01T00:40:06Z</time>
      </trkpt>
      <trkpt lat="42.7829" lon="-0.13433">
        <ele>2606</ele>
        <time>2023-08-01T00:40:21Z</time>
      </trkpt>
      <trkpt lat="42.7832" lon="-0.1345">
        <ele>2596</ele>
        <time>2023-08-01T00:41:04Z</time>
      </trkpt>
      <trkpt lat="42.78339" lon="-0.13427">
        <ele>2600</ele>
        <time>2023-08-01T00:41:38Z</time>
      </trkpt>
      <trkpt lat="42.78358" lon="-0.13431">
        <ele>2596</ele>
        <time>2023-08-01T00:42:04Z</time>
      </trkpt>
      <trkpt lat="42.78362" lon="-0.13453">
        <ele>2588</ele>
        <time>2023-08-01T00:42:26Z</time>
      </trkpt>
      <trkpt lat="42.78373" lon="-0.13456">
        <ele>2585</ele>
        <time>2023-08-01T00:42:41Z</time>
      </trkpt>
      <trkpt lat="42.78396" lon="-0.13448">
        <ele>2584</ele>
        <time>2023-08-01T00:43:12Z</time>
      </trkpt>
      <trkpt lat="42.78453" lon="-0.13452">
        <ele>2566</ele>
        <time>2023-08-01T00:44:29Z</time>
      </trkpt>
      <trkpt lat="42.7847" lon="-0.13444">
        <ele>2563</ele>
        <time>2023-08-01T00:44:53Z</time>
      </trkpt>
      <trkpt lat="42.78481" lon="-0.1342">
        <ele>2568</ele>
        <time>2023-08-01T00:45:20Z</time>
      </trkpt>
      <trkpt lat="42.78484" lon="-0.13434">
        <ele>2562</ele>
        <time>2023-08-01T00:45:35Z</time>
      </trkpt>
      <trkpt lat="42.78496" lon="-0.13428">
        <ele>2560</ele>
        <time>2023-08-01T00:45:52Z</time>
      </trkpt>
      <trkpt lat="42.78495" lon="-0.13445">
        <ele>2555</ele>
        <time>2023-08-01T00:46:08Z</time>
      </trkpt>
      <trkpt lat="42.7851" lon="-0.13437">
        <ele>2552</ele>
        <time>2023-08-01T00:46:30Z</time>
      </trkpt>
      <trkpt lat="42.78522" lon="-0.13417">
        <ele>2554</ele>
        <time>2023-08-01T00:46:55Z</time>
      </trkpt>
      <trkpt lat="42.78531" lon="-0.13417">
        <ele>2551</ele>
        <time>2023-08-01T00:47:07Z</time>
      </trkpt>
      <trkpt lat="42.78561" lon="-0.13396">
        <ele>2546</ele>
        <time>2023-08-01T00:47:52Z</time>
      </trkpt>
      <trkpt lat="42.78586" lon="-0.13361">
        <ele>2547</ele>
        <time>2023-08-01T00:48:40Z</time>
      </trkpt>
      <trkpt lat="42.78638" lon="-0.13336">
        <ele>2540</ele>
        <time>2023-08-01T00:49:54Z</time>
      </trkpt>
      <trkpt lat="42.78666" lon="-0.13328">
        <ele>2533</ele>
        <time>2023-08-01T00:50:32Z</time>
      </trkpt>
      <trkpt lat="42.78719" lon="-0.13327">
        <ele>2521</ele>
        <time>2023-08-01T00:51:42Z</time>
      </trkpt>
      <trkpt lat="42.78727" lon="-0.13315">
        <ele>2520</ele>
        <time>2023-08-01T00:51:58Z</time>
      </trkpt>
      <trkpt lat="42.78755" lon="-0.13311">
        <ele>2513</ele>
        <time>2023-08-01T00:52:36Z</time>
      </trkpt>
      <trkpt lat="42.78761" lon="-0.13318">
        <ele>2511</ele>
        <time>2023-08-01T00:52:46Z</time>
      </trkpt>
      <trkpt lat="42.78776" lon="-0.13308">
        <ele>2509</ele>
        <time>2023-08-01T00:53:09Z</time>
      </trkpt>
      <trkpt lat="42.78786" lon="-0.13325">
        <ele>2505</ele>
        <time>2023-08-01T00:53:30Z</time>
      </trkpt>
      <trkpt lat="42.78802" lon="-0.13299">
        <ele>2505</ele>
        <time>2023-08-01T00:54:03Z</time>
      </trkpt>
      <trkpt lat="42.7881" lon="-0.13295">
        <ele>2504</ele>
        <time>2023-08-01T00:54:15Z</time>
      </trkpt>
      <trkpt lat="42.78823" lon="-0.13292">
        <ele>2502</ele>
        <time>2023-08-01T00:54:32Z</time>
      </trkpt>
      <trkpt lat="42.78834" lon="-0.13292">
        <ele>2500</ele>
        <time>2023-08-01T00:54:47Z</time>
      </trkpt>
      <trkpt lat="42.78848" lon="-0.13302">
        <ele>2495</ele>
        <time>2023-08-01T00:55:08Z</time>
      </trkpt>
      <trkpt lat="42.7886" lon="-0.13298">
        <ele>2493</ele>
        <time>2023-08-01T00:55:24Z</time>
      </trkpt>
      <trkpt lat="42.78867" lon="-0.13311">
        <ele>2489</ele>
        <time>2023-08-01T00:55:40Z</time>
      </trkpt>
      <trkpt lat="42.78876" lon="-0.13309">
        <ele>2487</ele>
        <time>2023-08-01T00:55:52Z</time>
      </trkpt>
      <trkpt lat="42.78899" lon="-0.13271">
        <ele>2489</ele>
        <time>2023-08-01T00:56:41Z</time>
      </trkpt>
      <trkpt lat="42.78911" lon="-0.1326">
        <ele>2488</ele>
        <time>2023-08-01T00:57:00Z</time>
      </trkpt>
      <trkpt lat="42.78919" lon="-0.13261">
        <ele>2486</ele>
        <time>2023-08-01T00:57:11Z</time>
      </trkpt>
      <trkpt lat="42.78928" lon="-0.1325">
        <ele>2486</ele>
        <time>2023-08-01T00:57:27Z</time>
      </trkpt>
      <trkpt lat="42.7895" lon="-0.13248">
        <ele>2480</ele>
        <time>2023-08-01T00:57:56Z</time>
      </trkpt>
      <trkpt lat="42.78954" lon="-0.13255">
        <ele>2478</ele>
        <time>2023-08-01T00:58:05Z</time>
      </trkpt>
      <trkpt lat="42.78965" lon="-0.13255">
        <ele>2474</ele>
        <time>2023-08-01T00:58:20Z</time>
      </trkpt>
      <trkpt lat="42.78971" lon="-0.13261">
        <ele>2471</ele>
        <time>2023-08-01T00:58:30Z</time>
      </trkpt>
      <trkpt lat="42.78991" lon="-0.13251">
        <ele>2468</ele>
        <time>2023-08-01T00:58:58Z</time>
      </trkpt>
      <trkpt lat="42.78994" lon="-0.13255">
        <ele>2466</ele>
        <time>2023-08-01T00:59:04Z</time>
      </trkpt>
      <trkpt lat="42.78992" lon="-0.13261">
        <ele>2465</ele>
        <time>2023-08-01T00:59:10Z</time>
      </trkpt>
      <trkpt lat="42.79007" lon="-0.1326">
        <ele>2462</ele>
        <time>2023-08-01T00:59:30Z</time>
      </trkpt>
      <trkpt lat="42.79009" lon="-0.13267">
        <ele>2460</ele>
        <time>2023-08-01T00:59:37Z</time>
      </trkpt>
      <trkpt lat="42.78987" lon="-0.13308">
        <ele>2454</ele>
        <time>2023-08-01T01:00:27Z</time>
      </trkpt>
      <trkpt lat="42.79048" lon="-0.13305">
        <ele>2443</ele>
        <time>2023-08-01T01:01:49Z</time>
      </trkpt>
      <trkpt lat="42.79046" lon="-0.13312">
        <ele>2441</ele>
        <time>2023-08-01T01:01:56Z</time>
      </trkpt>
      <trkpt lat="42.79032" lon="-0.13329">
        <ele>2439</ele>
        <time>2023-08-01T01:02:21Z</time>
      </trkpt>
      <trkpt lat="42.79057" lon="-0.13329">
        <ele>2435</ele>
        <time>2023-08-01T01:02:54Z</time>
      </trkpt>
      <trkpt lat="42.79024" lon="-0.13361">
        <ele>2429</ele>
        <time>2023-08-01T01:03:48Z</time>
      </trkpt>
      <trkpt lat="42.79049" lon="-0.13364">
        <ele>2425</ele>
        <time>2023-08-01T01:04:22Z</time>
      </trkpt>
      <trkpt lat="42.79066" lon="-0.13375">
        <ele>2419</ele>
        <time>2023-08-01T01:04:47Z</time>
      </trkpt>
      <trkpt lat="42.79066" lon="-0.13378">
        <ele>2418</ele>
        <time>2023-08-01T01:04:50Z</time>
      </trkpt>
      <trkpt lat="42.79021" lon="-0.13423">
        <ele>2406</ele>
        <time>2023-08-01T01:06:04Z</time>
      </trkpt>
      <trkpt lat="42.79017" lon="-0.13438">
        <ele>2401</ele>
        <time>2023-08-01T01:06:20Z</time>
      </trkpt>
      <trkpt lat="42.79018" lon="-0.13441">
        <ele>2400</ele>
        <time>2023-08-01T01:06:23Z</time>
      </trkpt>
      <trkpt lat="42.79028" lon="-0.13445">
        <ele>2398</ele>
        <time>2023-08-01T01:06:37Z</time>
      </trkpt>
      <trkpt lat="42.7904" lon="-0.13445">
        <ele>2398</ele>
        <time>2023-08-01T01:06:53Z</time>
      </trkpt>
      <trkpt lat="42.79058" lon="-0.13457">
        <ele>2395</ele>
        <time>2023-08-01T01:07:20Z</time>
      </trkpt>
      <trkpt lat="42.79059" lon="-0.13461">
        <ele>2394</ele>
        <time>2023-08-01T01:07:24Z</time>
      </trkpt>
      <trkpt lat="42.79058" lon="-0.13464">
        <ele>2393</ele>
        <time>2023-08-01T01:07:27Z</time>
      </trkpt>
      <trkpt lat="42.79054" lon="-0.13469">
        <ele>2391</ele>
        <time>2023-08-01T01:07:35Z</time>
      </trkpt>
      <trkpt lat="42.79024" lon="-0.13472">
        <ele>2389</ele>
        <time>2023-08-01T01:08:15Z</time>
      </trkpt>
      <trkpt lat="42.7901" lon="-0.13476">
        <ele>2387</ele>
        <time>2023-08-01T01:08:34Z</time>
      </trkpt>
      <trkpt lat="42.78983" lon="-0.13497">
        <ele>2382</ele>
        <time>2023-08-01T01:09:15Z</time>
      </trkpt>
      <trkpt lat="42.7897" lon="-0.13499">
        <ele>2383</ele>
        <time>2023-08-01T01:09:33Z</time>
      </trkpt>
      <trkpt lat="42.7897" lon="-0.13502">
        <ele>2382</ele>
        <time>2023-08-01T01:09:36Z</time>
      </trkpt>
      <trkpt lat="42.78982" lon="-0.1351">
        <ele>2376</ele>
        <time>2023-08-01T01:09:54Z</time>
      </trkpt>
      <trkpt lat="42.78988" lon="-0.1352">
        <ele>2370</ele>
        <time>2023-08-01T01:10:06Z</time>
      </trkpt>
      <trkpt lat="42.78991" lon="-0.13521">
        <ele>2369</ele>
        <time>2023-08-01T01:10:10Z</time>
      </trkpt>
      <trkpt lat="42.78997" lon="-0.1352">
        <ele>2369</ele>
        <time>2023-08-01T01:10:18Z</time>
      </trkpt>
      <trkpt lat="42.79006" lon="-0.13517">
        <ele>2370</ele>
        <time>2023-08-01T01:10:31Z</time>
      </trkpt>
      <trkpt lat="42.79017" lon="-0.13524">
        <ele>2368</ele>
        <time>2023-08-01T01:10:47Z</time>
      </trkpt>
      <trkpt lat="42.79037" lon="-0.1353">
        <ele>2367</ele>
        <time>2023-08-01T01:11:14Z</time>
      </trkpt>
      <trkpt lat="42.79063" lon="-0.13546">
        <ele>2363</ele>
        <time>2023-08-01T01:11:52Z</time>
      </trkpt>
      <trkpt lat="42.79035" lon="-0.13559">
        <ele>2354</ele>
        <time>2023-08-01T01:12:32Z</time>
      </trkpt>
      <trkpt lat="42.79048" lon="-0.13567">
        <ele>2352</ele>
        <time>2023-08-01T01:12:51Z</time>
      </trkpt>
      <trkpt lat="42.79055" lon="-0.13581">
        <ele>2347</ele>
        <time>2023-08-01T01:13:07Z</time>
      </trkpt>
      <trkpt lat="42.79066" lon="-0.13588">
        <ele>2345</ele>
        <time>2023-08-01T01:13:24Z</time>
      </trkpt>
      <trkpt lat="42.79053" lon="-0.13595">
        <ele>2340</ele>
        <time>2023-08-01T01:13:42Z</time>
      </trkpt>
      <trkpt lat="42.79037" lon="-0.1359">
        <ele>2340</ele>
        <time>2023-08-01T01:14:04Z</time>
      </trkpt>
      <trkpt lat="42.79032" lon="-0.1359">
        <ele>2339</ele>
        <time>2023-08-01T01:14:11Z</time>
      </trkpt>
      <trkpt lat="42.79039" lon="-0.13595">
        <ele>2338</ele>
        <time>2023-08-01T01:14:21Z</time>
      </trkpt>
      <trkpt lat="42.7904" lon="-0.13598">
        <ele>2337</ele>
        <time>2023-08-01T01:14:25Z</time>
      </trkpt>
      <trkpt lat="42.79031" lon="-0.13601">
        <ele>2334</ele>
        <time>2023-08-01T01:14:37Z</time>
      </trkpt>
      <trkpt lat="42.79035" lon="-0.13606">
        <ele>2332</ele>
        <time>2023-08-01T01:14:44Z</time>
      </trkpt>
      <trkpt lat="42.79035" lon="-0.13609">
        <ele>2331</ele>
        <time>2023-08-01T01:14:47Z</time>
      </trkpt>
      <trkpt lat="42.79001" lon="-0.13615">
        <ele>2323</ele>
        <time>2023-08-01T01:15:33Z</time>
      </trkpt>
      <trkpt lat="42.79013" lon="-0.13626">
        <ele>2319</ele>
        <time>2023-08-01T01:15:52Z</time>
      </trkpt>
      <trkpt lat="42.79022" lon="-0.13629">
        <ele>2319</ele>
        <time>2023-08-01T01:16:05Z</time>
      </trkpt>
      <trkpt lat="42.7903" lon="-0.13639">
        <ele>2315</ele>
        <time>2023-08-01T01:16:19Z</time>
      </trkpt>
      <trkpt lat="42.79023" lon="-0.13638">
        <ele>2315</ele>
        <time>2023-08-01T01:16:28Z</time>
      </trkpt>
      <trkpt lat="42.79017" lon="-0.13642">
        <ele>2312</ele>
        <time>2023-08-01T01:16:37Z</time>
      </trkpt>
      <trkpt lat="42.79002" lon="-0.13645">
        <ele>2308</ele>
        <time>2023-08-01T01:16:58Z</time>
      </trkpt>
      <trkpt lat="42.79009" lon="-0.13656">
        <ele>2304</ele>
        <time>2023-08-01T01:17:12Z</time>
      </trkpt>
      <trkpt lat="42.79019" lon="-0.13666">
        <ele>2300</ele>
        <time>2023-08-01T01:17:28Z</time>
      </trkpt>
      <trkpt lat="42.7902" lon="-0.1367">
        <ele>2299</ele>
        <time>2023-08-01T01:17:33Z</time>
      </trkpt>
      <trkpt lat="42.78998" lon="-0.13678">
        <ele>2293</ele>
        <time>2023-08-01T01:18:03Z</time>
      </trkpt>
      <trkpt lat="42.78984" lon="-0.13687">
        <ele>2291</ele>
        <time>2023-08-01T01:18:24Z</time>
      </trkpt>
      <trkpt lat="42.78979" lon="-0.13687">
        <ele>2291</ele>
        <time>2023-08-01T01:18:30Z</time>
      </trkpt>
      <trkpt lat="42.78963" lon="-0.13681">
        <ele>2296</ele>
        <time>2023-08-01T01:18:52Z</time>
      </trkpt>
      <trkpt lat="42.78955" lon="-0.13684">
        <ele>2295</ele>
        <time>2023-08-01T01:19:03Z</time>
      </trkpt>
      <trkpt lat="42.78947" lon="-0.13701">
        <ele>2289</ele>
        <time>2023-08-01T01:19:23Z</time>
      </trkpt>
      <trkpt lat="42.78924" lon="-0.1371">
        <ele>2287</ele>
        <time>2023-08-01T01:19:55Z</time>
      </trkpt>
      <trkpt lat="42.78861" lon="-0.13728">
        <ele>2287</ele>
        <time>2023-08-01T01:21:21Z</time>
      </trkpt>
      <trkpt lat="42.78848" lon="-0.13729">
        <ele>2288</ele>
        <time>2023-08-01T01:21:38Z</time>
      </trkpt>
      <trkpt lat="42.78822" lon="-0.13745">
        <ele>2284</ele>
        <time>2023-08-01T01:22:17Z</time>
      </trkpt>
      <trkpt lat="42.78814" lon="-0.13753">
        <ele>2281</ele>
        <time>2023-08-01T01:22:30Z</time>
      </trkpt>
      <trkpt lat="42.78805" lon="-0.13764">
        <ele>2276</ele>
        <time>2023-08-01T01:22:46Z</time>
      </trkpt>
      <trkpt lat="42.78801" lon="-0.13775">
        <ele>2270</ele>
        <time>2023-08-01T01:22:58Z</time>
      </trkpt>
      <trkpt lat="42.78795" lon="-0.1378">
        <ele>2268</ele>
        <time>2023-08-01T01:23:07Z</time>
      </trkpt>
      <trkpt lat="42.78795" lon="-0.13782">
        <ele>2267</ele>
        <time>2023-08-01T01:23:09Z</time>
      </trkpt>
      <trkpt lat="42.78826" lon="-0.13792">
        <ele>2259</ele>
        <time>2023-08-01T01:23:52Z</time>
      </trkpt>
      <trkpt lat="42.78828" lon="-0.13797">
        <ele>2256</ele>
        <time>2023-08-01T01:23:57Z</time>
      </trkpt>
      <trkpt lat="42.78845" lon="-0.13804">
        <ele>2251</ele>
        <time>2023-08-01T01:24:21Z</time>
      </trkpt>
      <trkpt lat="42.78853" lon="-0.13809">
        <ele>2248</ele>
        <time>2023-08-01T01:24:33Z</time>
      </trkpt>
      <trkpt lat="42.78887" lon="-0.13799">
        <ele>2251</ele>
        <time>2023-08-01T01:25:19Z</time>
      </trkpt>
      <trkpt lat="42.78898" lon="-0.13803">
        <ele>2248</ele>
        <time>2023-08-01T01:25:34Z</time>
      </trkpt>
      <trkpt lat="42.78914" lon="-0.13803">
        <ele>2247</ele>
        <time>2023-08-01T01:25:56Z</time>
      </trkpt>
      <trkpt lat="42.78958" lon="-0.13817">
        <ele>2237</ele>
        <time>2023-08-01T01:26:56Z</time>
      </trkpt>
      <trkpt lat="42.7898" lon="-0.1384">
        <ele>2225</ele>
        <time>2023-08-01T01:27:33Z</time>
      </trkpt>
      <trkpt lat="42.78967" lon="-0.13844">
        <ele>2225</ele>
        <time>2023-08-01T01:27:51Z</time>
      </trkpt>
      <trkpt lat="42.7896" lon="-0.13842">
        <ele>2226</ele>
        <time>2023-08-01T01:28:00Z</time>
      </trkpt>
      <trkpt lat="42.78956" lon="-0.13846">
        <ele>2225</ele>
        <time>2023-08-01T01:28:07Z</time>
      </trkpt>
      <trkpt lat="42.78963" lon="-0.13856">
        <ele>2220</ele>
        <time>2023-08-01T01:28:21Z</time>
      </trkpt>
      <trkpt lat="42.78997" lon="-0.13871">
        <ele>2211</ele>
        <time>2023-08-01T01:29:08Z</time>
      </trkpt>
      <trkpt lat="42.79003" lon="-0.13876">
        <ele>2208</ele>
        <time>2023-08-01T01:29:18Z</time>
      </trkpt>
      <trkpt lat="42.78992" lon="-0.13881">
        <ele>2207</ele>
        <time>2023-08-01T01:29:33Z</time>
      </trkpt>
      <trkpt lat="42.79009" lon="-0.13886">
        <ele>2204</ele>
        <time>2023-08-01T01:29:56Z</time>
      </trkpt>
      <trkpt lat="42.79023" lon="-0.13895">
        <ele>2200</ele>
        <time>2023-08-01T01:30:17Z</time>
      </trkpt>
      <trkpt lat="42.79046" lon="-0.13898">
        <ele>2197</ele>
        <time>2023-08-01T01:30:48Z</time>
      </trkpt>
      <trkpt lat="42.79054" lon="-0.13896">
        <ele>2198</ele>
        <time>2023-08-01T01:30:59Z</time>
      </trkpt>
      <trkpt lat="42.79066" lon="-0.13886">
        <ele>2202</ele>
        <time>2023-08-01T01:31:17Z</time>
      </trkpt>
      <trkpt lat="42.79074" lon="-0.13883">
        <ele>2203</ele>
        <time>2023-08-01T01:31:29Z</time>
      </trkpt>
      <trkpt lat="42.79078" lon="-0.13885">
        <ele>2201</ele>
        <time>2023-08-01T01:31:34Z</time>
      </trkpt>
      <trkpt lat="42.79225" lon="-0.14017">
        <ele>2167</ele>
        <time>2023-08-01T01:35:29Z</time>
      </trkpt>
      <trkpt lat="42.79239" lon="-0.14036">
        <ele>2164</ele>
        <time>2023-08-01T01:35:55Z</time>
      </trkpt>
      <trkpt lat="42.79257" lon="-0.14056">
        <ele>2158</ele>
        <time>2023-08-01T01:36:26Z</time>
      </trkpt>
      <trkpt lat="42.7926" lon="-0.14061">
        <ele>2156</ele>
        <time>2023-08-01T01:36:33Z</time>
      </trkpt>
      <trkpt lat="42.79266" lon="-0.14084">
        <ele>2149</ele>
        <time>2023-08-01T01:36:57Z</time>
      </trkpt>
      <trkpt lat="42.79273" lon="-0.14099">
        <ele>2148</ele>
        <time>2023-08-01T01:37:14Z</time>
      </trkpt>
      <trkpt lat="42.79272" lon="-0.14107">
        <ele>2148</ele>
        <time>2023-08-01T01:37:22Z</time>
      </trkpt>
      <trkpt lat="42.79267" lon="-0.14114">
        <ele>2149</ele>
        <time>2023-08-01T01:37:32Z</time>
      </trkpt>
      <trkpt lat="42.79268" lon="-0.14119">
        <ele>2149</ele>
        <time>2023-08-01T01:37:37Z</time>
      </trkpt>
      <trkpt lat="42.79266" lon="-0.14126">
        <ele>2149</ele>
        <time>2023-08-01T01:37:44Z</time>
      </trkpt>
      <trkpt lat="42.79274" lon="-0.14162">
        <ele>2148</ele>
        <time>2023-08-01T01:38:21Z</time>
      </trkpt>
      <trkpt lat="42.79317" lon="-0.14188">
        <ele>2150</ele>
        <time>2023-08-01T01:39:24Z</time>
      </trkpt>
      <trkpt lat="42.79328" lon="-0.14196">
        <ele>2150</ele>
        <time>2023-08-01T01:39:40Z</time>
      </trkpt>
      <trkpt lat="42.79335" lon="-0.14194">
        <ele>2150</ele>
        <time>2023-08-01T01:39:50Z</time>
      </trkpt>
      <trkpt lat="42.79342" lon="-0.14203">
        <ele>2149</ele>
        <time>2023-08-01T01:40:03Z</time>
      </trkpt>
      <trkpt lat="42.79339" lon="-0.14217">
        <ele>2151</ele>
        <time>2023-08-01T01:40:17Z</time>
      </trkpt>
      <trkpt lat="42.7934" lon="-0.14225">
        <ele>2151</ele>
        <time>2023-08-01T01:40:25Z</time>
      </trkpt>
      <trkpt lat="42.79348" lon="-0.14229">
        <ele>2150</ele>
        <time>2023-08-01T01:40:36Z</time>
      </trkpt>
      <trkpt lat="42.79378" lon="-0.14237">
        <ele>2147</ele>
        <time>2023-08-01T01:41:17Z</time>
      </trkpt>
      <trkpt lat="42.79393" lon="-0.14236">
        <ele>2145</ele>
        <time>2023-08-01T01:41:37Z</time>
      </trkpt>
      <trkpt lat="42.79398" lon="-0.14246">
        <ele>2146</ele>
        <time>2023-08-01T01:41:49Z</time>
      </trkpt>
      <trkpt lat="42.79402" lon="-0.14248">
        <ele>2146</ele>
        <time>2023-08-01T01:41:55Z</time>
      </trkpt>
      <trkpt lat="42.7942" lon="-0.14247">
        <ele>2144</ele>
        <time>2023-08-01T01:42:19Z</time>
      </trkpt>
      <trkpt lat="42.7943" lon="-0.14252">
        <ele>2146</ele>
        <time>2023-08-01T01:42:33Z</time>
      </trkpt>
      <trkpt lat="42.79433" lon="-0.14254">
        <ele>2147</ele>
        <time>2023-08-01T01:42:37Z</time>
      </trkpt>
      <trkpt lat="42.79441" lon="-0.1427">
        <ele>2152</ele>
        <time>2023-08-01T01:42:56Z</time>
      </trkpt>
      <trkpt lat="42.79456" lon="-0.14268">
        <ele>2153</ele>
        <time>2023-08-01T01:43:16Z</time>
      </trkpt>
      <trkpt lat="42.79461" lon="-0.14271">
        <ele>2154</ele>
        <time>2023-08-01T01:43:24Z</time>
      </trkpt>
      <trkpt lat="42.79469" lon="-0.1427">
        <ele>2154</ele>
        <time>2023-08-01T01:43:34Z</time>
      </trkpt>
      <trkpt lat="42.79481" lon="-0.14256">
        <ele>2150</ele>
        <time>2023-08-01T01:43:56Z</time>
      </trkpt>
      <trkpt lat="42.79489" lon="-0.14257">
        <ele>2150</ele>
        <time>2023-08-01T01:44:06Z</time>
      </trkpt>
      <trkpt lat="42.79495" lon="-0.14254">
        <ele>2149</ele>
        <time>2023-08-01T01:44:15Z</time>
      </trkpt>
      <trkpt lat="42.79494" lon="-0.14249">
        <ele>2147</ele>
        <time>2023-08-01T01:44:20Z</time>
      </trkpt>
      <trkpt lat="42.79478" lon="-0.14236">
        <ele>2142</ele>
        <time>2023-08-01T01:44:45Z</time>
      </trkpt>
      <trkpt lat="42.79478" lon="-0.14232">
        <ele>2141</ele>
        <time>2023-08-01T01:44:49Z</time>
      </trkpt>
      <trkpt lat="42.79481" lon="-0.14226">
        <ele>2139</ele>
        <time>2023-08-01T01:44:56Z</time>
      </trkpt>
      <trkpt lat="42.79482" lon="-0.14223">
        <ele>2138</ele>
        <time>2023-08-01T01:44:59Z</time>
      </trkpt>
      <trkpt lat="42.7948" lon="-0.14221">
        <ele>2137</ele>
        <time>2023-08-01T01:45:02Z</time>
      </trkpt>
      <trkpt lat="42.79457" lon="-0.14233">
        <ele>2141</ele>
        <time>2023-08-01T01:45:35Z</time>
      </trkpt>
      <trkpt lat="42.7945" lon="-0.1423">
        <ele>2140</ele>
        <time>2023-08-01T01:45:45Z</time>
      </trkpt>
      <trkpt lat="42.7945" lon="-0.14227">
        <ele>2140</ele>
        <time>2023-08-01T01:45:48Z</time>
      </trkpt>
      <trkpt lat="42.79455" lon="-0.14225">
        <ele>2139</ele>
        <time>2023-08-01T01:45:55Z</time>
      </trkpt>
      <trkpt lat="42.7946" lon="-0.1422">
        <ele>2137</ele>
        <time>2023-08-01T01:46:03Z</time>
      </trkpt>
      <trkpt lat="42.79453" lon="-0.14208">
        <ele>2134</ele>
        <time>2023-08-01T01:46:18Z</time>
      </trkpt>
      <trkpt lat="42.79454" lon="-0.14202">
        <ele>2132</ele>
        <time>2023-08-01T01:46:24Z</time>
      </trkpt>
      <trkpt lat="42.79458" lon="-0.142">
        <ele>2131</ele>
        <time>2023-08-01T01:46:30Z</time>
      </trkpt>
      <trkpt lat="42.79468" lon="-0.14201">
        <ele>2131</ele>
        <time>2023-08-01T01:46:43Z</time>
      </trkpt>
      <trkpt lat="42.79479" lon="-0.14196">
        <ele>2128</ele>
        <time>2023-08-01T01:46:59Z</time>
      </trkpt>
      <trkpt lat="42.79493" lon="-0.14181">
        <ele>2121</ele>
        <time>2023-08-01T01:47:22Z</time>
      </trkpt>
      <trkpt lat="42.79498" lon="-0.14177">
        <ele>2119</ele>
        <time>2023-08-01T01:47:30Z</time>
      </trkpt>
      <trkpt lat="42.79519" lon="-0.14178">
        <ele>2117</ele>
        <time>2023-08-01T01:47:58Z</time>
      </trkpt>
      <trkpt lat="42.79526" lon="-0.14174">
        <ele>2114</ele>
        <time>2023-08-01T01:48:08Z</time>
      </trkpt>
      <trkpt lat="42.79534" lon="-0.14173">
        <ele>2113</ele>
        <time>2023-08-01T01:48:19Z</time>
      </trkpt>
      <trkpt lat="42.79538" lon="-0.14175">
        <ele>2113</ele>
        <time>2023-08-01T01:48:25Z</time>
      </trkpt>
      <trkpt lat="42.79568" lon="-0.1417">
        <ele>2108</ele>
        <time>2023-08-01T01:49:05Z</time>
      </trkpt>
      <trkpt lat="42.79571" lon="-0.14172">
        <ele>2109</ele>
        <time>2023-08-01T01:49:10Z</time>
      </trkpt>
      <trkpt lat="42.79599" lon="-0.14161">
        <ele>2102</ele>
        <time>2023-08-01T01:49:48Z</time>
      </trkpt>
      <trkpt lat="42.79599" lon="-0.14158">
        <ele>2101</ele>
        <time>2023-08-01T01:49:51Z</time>
      </trkpt>
      <trkpt lat="42.79589" lon="-0.14151">
        <ele>2101</ele>
        <time>2023-08-01T01:50:06Z</time>
      </trkpt>
      <trkpt lat="42.79588" lon="-0.14148">
        <ele>2101</ele>
        <time>2023-08-01T01:50:10Z</time>
      </trkpt>
      <trkpt lat="42.79587" lon="-0.14142">
        <ele>2100</ele>
        <time>2023-08-01T01:50:16Z</time>
      </trkpt>
      <trkpt lat="42.79588" lon="-0.1412">
        <ele>2096</ele>
        <time>2023-08-01T01:50:37Z</time>
      </trkpt>
      <trkpt lat="42.79591" lon="-0.14114">
        <ele>2094</ele>
        <time>2023-08-01T01:50:44Z</time>
      </trkpt>
      <trkpt lat="42.79611" lon="-0.14099">
        <ele>2089</ele>
        <time>2023-08-01T01:51:15Z</time>
      </trkpt>
      <trkpt lat="42.79615" lon="-0.14099">
        <ele>2089</ele>
        <time>2023-08-01T01:51:20Z</time>
      </trkpt>
      <trkpt lat="42.79633" lon="-0.14092">
        <ele>2085</ele>
        <time>2023-08-01T01:51:45Z</time>
      </trkpt>
      <trkpt lat="42.79653" lon="-0.14067">
        <ele>2081</ele>
        <time>2023-08-01T01:52:21Z</time>
      </trkpt>
      <trkpt lat="42.79673" lon="-0.14067">
        <ele>2079</ele>
        <time>2023-08-01T01:52:48Z</time>
      </trkpt>
      <trkpt lat="42.79681" lon="-0.14065">
        <ele>2078</ele>
        <time>2023-08-01T01:52:59Z</time>
      </trkpt>
      <trkpt lat="42.79687" lon="-0.1406">
        <ele>2078</ele>
        <time>2023-08-01T01:53:08Z</time>
      </trkpt>
      <trkpt lat="42.79715" lon="-0.14042">
        <ele>2075</ele>
        <time>2023-08-01T01:53:50Z</time>
      </trkpt>
      <trkpt lat="42.7972" lon="-0.14029">
        <ele>2074</ele>
        <time>2023-08-01T01:54:04Z</time>
      </trkpt>
      <trkpt lat="42.7975" lon="-0.14009">
        <ele>2071</ele>
        <time>2023-08-01T01:54:49Z</time>
      </trkpt>
      <trkpt lat="42.79784" lon="-0.13995">
        <ele>2070</ele>
        <time>2023-08-01T01:55:36Z</time>
      </trkpt>
      <trkpt lat="42.7984" lon="-0.13947">
        <ele>2068</ele>
        <time>2023-08-01T01:57:04Z</time>
      </trkpt>
      <trkpt lat="42.79886" lon="-0.13941">
        <ele>2067</ele>
        <time>2023-08-01T01:58:06Z</time>
      </trkpt>
      <trkpt lat="42.79927" lon="-0.1392">
        <ele>2063</ele>
        <time>2023-08-01T01:59:04Z</time>
      </trkpt>
      <trkpt lat="42.79949" lon="-0.13917">
        <ele>2061</ele>
        <time>2023-08-01T01:59:34Z</time>
      </trkpt>
      <trkpt lat="42.79986" lon="-0.13892">
        <ele>2059</ele>
        <time>2023-08-01T02:00:29Z</time>
      </trkpt>
      <trkpt lat="42.80075" lon="-0.13893">
        <ele>2058</ele>
        <time>2023-08-01T02:02:28Z</time>
      </trkpt>
      <trkpt lat="42.80105" lon="-0.1388">
        <ele>2058</ele>
        <time>2023-08-01T02:03:10Z</time>
      </trkpt>
      <trkpt lat="42.80174" lon="-0.13887">
        <ele>2063</ele>
        <time>2023-08-01T02:04:42Z</time>
      </trkpt>
      <trkpt lat="42.80195" lon="-0.13878">
        <ele>2062</ele>
        <time>2023-08-01T02:05:11Z</time>
      </trkpt>
      <trkpt lat="42.80239" lon="-0.13844">
        <ele>2058</ele>
        <time>2023-08-01T02:06:19Z</time>
      </trkpt>
      <trkpt lat="42.80276" lon="-0.13797">
        <ele>2056</ele>
        <time>2023-08-01T02:07:26Z</time>
      </trkpt>
      <trkpt lat="42.80282" lon="-0.13812">
        <ele>2058</ele>
        <time>2023-08-01T02:07:43Z</time>
      </trkpt>
      <trkpt lat="42.80279" lon="-0.13833">
        <ele>2059</ele>
        <time>2023-08-01T02:08:04Z</time>
      </trkpt>
      <trkpt lat="42.8027" lon="-0.13848">
        <ele>2061</ele>
        <time>2023-08-01T02:08:23Z</time>
      </trkpt>
      <trkpt lat="42.80273" lon="-0.13863">
        <ele>2065</ele>
        <time>2023-08-01T02:08:38Z</time>
      </trkpt>
      <trkpt lat="42.80292" lon="-0.13898">
        <ele>2075</ele>
        <time>2023-08-01T02:09:21Z</time>
      </trkpt>
      <trkpt lat="42.80311" lon="-0.13902">
        <ele>2078</ele>
        <time>2023-08-01T02:09:47Z</time>
      </trkpt>
      <trkpt lat="42.80326" lon="-0.13918">
        <ele>2084</ele>
        <time>2023-08-01T02:10:12Z</time>
      </trkpt>
      <trkpt lat="42.80324" lon="-0.13923">
        <ele>2085</ele>
        <time>2023-08-01T02:10:18Z</time>
      </trkpt>
      <trkpt lat="42.8034" lon="-0.13947">
        <ele>2091</ele>
        <time>2023-08-01T02:10:49Z</time>
      </trkpt>
      <trkpt lat="42.80342" lon="-0.13977">
        <ele>2097</ele>
        <time>2023-08-01T02:11:19Z</time>
      </trkpt>
      <trkpt lat="42.80334" lon="-0.1398">
        <ele>2098</ele>
        <time>2023-08-01T02:11:30Z</time>
      </trkpt>
      <trkpt lat="42.80309" lon="-0.14006">
        <ele>2103</ele>
        <time>2023-08-01T02:12:12Z</time>
      </trkpt>
      <trkpt lat="42.80295" lon="-0.14032">
        <ele>2112</ele>
        <time>2023-08-01T02:12:43Z</time>
      </trkpt>
      <trkpt lat="42.80296" lon="-0.14044">
        <ele>2116</ele>
        <time>2023-08-01T02:12:55Z</time>
      </trkpt>
      <trkpt lat="42.80312" lon="-0.14065">
        <ele>2125</ele>
        <time>2023-08-01T02:13:25Z</time>
      </trkpt>
      <trkpt lat="42.80293" lon="-0.14087">
        <ele>2132</ele>
        <time>2023-08-01T02:13:58Z</time>
      </trkpt>
      <trkpt lat="42.8029" lon="-0.14122">
        <ele>2146</ele>
        <time>2023-08-01T02:14:33Z</time>
      </trkpt>
      <trkpt lat="42.80284" lon="-0.14135">
        <ele>2151</ele>
        <time>2023-08-01T02:14:48Z</time>
      </trkpt>
      <trkpt lat="42.80303" lon="-0.14137">
        <ele>2154</ele>
        <time>2023-08-01T02:15:13Z</time>
      </trkpt>
      <trkpt lat="42.80322" lon="-0.14181">
        <ele>2181</ele>
        <time>2023-08-01T02:16:03Z</time>
      </trkpt>
      <trkpt lat="42.80306" lon="-0.14199">
        <ele>2192</ele>
        <time>2023-08-01T02:16:31Z</time>
      </trkpt>
      <trkpt lat="42.80292" lon="-0.14221">
        <ele>2209</ele>
        <time>2023-08-01T02:16:59Z</time>
      </trkpt>
      <trkpt lat="42.80299" lon="-0.14243">
        <ele>2226</ele>
        <time>2023-08-01T02:17:23Z</time>
      </trkpt>
      <trkpt lat="42.80329" lon="-0.1424">
        <ele>2222</ele>
        <time>2023-08-01T02:18:03Z</time>
      </trkpt>
      <trkpt lat="42.80354" lon="-0.14228">
        <ele>2217</ele>
        <time>2023-08-01T02:18:38Z</time>
      </trkpt>
      <trkpt lat="42.8036" lon="-0.14219">
        <ele>2213</ele>
        <time>2023-08-01T02:18:50Z</time>
      </trkpt>
      <trkpt lat="42.8037" lon="-0.14239">
        <ele>2227</ele>
        <time>2023-08-01T02:19:14Z</time>
      </trkpt>
      <trkpt lat="42.8037" lon="-0.14248">
        <ele>2233</ele>
        <time>2023-08-01T02:19:23Z</time>
      </trkpt>
      <trkpt lat="42.8036" lon="-0.14252">
        <ele>2233</ele>
        <time>2023-08-01T02:19:37Z</time>
      </trkpt>
      <trkpt lat="42.80357" lon="-0.1426">
        <ele>2237</ele>
        <time>2023-08-01T02:19:45Z</time>
      </trkpt>
      <trkpt lat="42.80354" lon="-0.14304">
        <ele>2259</ele>
        <time>2023-08-01T02:20:29Z</time>
      </trkpt>
      <trkpt lat="42.8036" lon="-0.14311">
        <ele>2263</ele>
        <time>2023-08-01T02:20:39Z</time>
      </trkpt>
      <trkpt lat="42.80372" lon="-0.14308">
        <ele>2262</ele>
        <time>2023-08-01T02:20:55Z</time>
      </trkpt>
      <trkpt lat="42.80372" lon="-0.1434">
        <ele>2276</ele>
        <time>2023-08-01T02:21:27Z</time>
      </trkpt>
      <trkpt lat="42.80378" lon="-0.14349">
        <ele>2279</ele>
        <time>2023-08-01T02:21:39Z</time>
      </trkpt>
      <trkpt lat="42.80375" lon="-0.14375">
        <ele>2286</ele>
        <time>2023-08-01T02:22:05Z</time>
      </trkpt>
      <trkpt lat="42.80368" lon="-0.14378">
        <ele>2286</ele>
        <time>2023-08-01T02:22:14Z</time>
      </trkpt>
      <trkpt lat="42.80361" lon="-0.14396">
        <ele>2290</ele>
        <time>2023-08-01T02:22:34Z</time>
      </trkpt>
      <trkpt lat="42.80356" lon="-0.14398">
        <ele>2290</ele>
        <time>2023-08-01T02:22:41Z</time>
      </trkpt>
      <trkpt lat="42.80354" lon="-0.14419">
        <ele>2295</ele>
        <time>2023-08-01T02:23:02Z</time>
      </trkpt>
      <trkpt lat="42.8034" lon="-0.14458">
        <ele>2301</ele>
        <time>2023-08-01T02:23:44Z</time>
      </trkpt>
      <trkpt lat="42.80332" lon="-0.14461">
        <ele>2301</ele>
        <time>2023-08-01T02:23:56Z</time>
      </trkpt>
      <trkpt lat="42.80321" lon="-0.14526">
        <ele>2314</ele>
        <time>2023-08-01T02:25:01Z</time>
      </trkpt>
      <trkpt lat="42.80322" lon="-0.14542">
        <ele>2314</ele>
        <time>2023-08-01T02:25:17Z</time>
      </trkpt>
      <trkpt lat="42.80329" lon="-0.14553">
        <ele>2311</ele>
        <time>2023-08-01T02:25:31Z</time>
      </trkpt>
      <trkpt lat="42.80329" lon="-0.14573">
        <ele>2312</ele>
        <time>2023-08-01T02:25:50Z</time>
      </trkpt>
      <trkpt lat="42.80338" lon="-0.14606">
        <ele>2314</ele>
        <time>2023-08-01T02:26:25Z</time>
      </trkpt>
      <trkpt lat="42.80345" lon="-0.14663">
        <ele>2318</ele>
        <time>2023-08-01T02:27:21Z</time>
      </trkpt>
      <trkpt lat="42.80362" lon="-0.14695">
        <ele>2331</ele>
        <time>2023-08-01T02:28:00Z</time>
      </trkpt>
      <trkpt lat="42.80379" lon="-0.14778">
        <ele>2350</ele>
        <time>2023-08-01T02:29:24Z</time>
      </trkpt>
      <trkpt lat="42.80368" lon="-0.14877">
        <ele>2347</ele>
        <time>2023-08-01T02:31:03Z</time>
      </trkpt>
      <trkpt lat="42.80339" lon="-0.14939">
        <ele>2332</ele>
        <time>2023-08-01T02:32:15Z</time>
      </trkpt>
      <trkpt lat="42.80325" lon="-0.14956">
        <ele>2332</ele>
        <time>2023-08-01T02:32:40Z</time>
      </trkpt>
      <trkpt lat="42.80328" lon="-0.14974">
        <ele>2333</ele>
        <time>2023-08-01T02:32:58Z</time>
      </trkpt>
      <trkpt lat="42.80327" lon="-0.14987">
        <ele>2334</ele>
        <time>2023-08-01T02:33:10Z</time>
      </trkpt>
      <trkpt lat="42.80324" lon="-0.14988">
        <ele>2334</ele>
        <time>2023-08-01T02:33:15Z</time>
      </trkpt>
      <trkpt lat="42.80333" lon="-0.15006">
        <ele>2337</ele>
        <time>2023-08-01T02:33:36Z</time>
      </trkpt>
      <trkpt lat="42.8034" lon="-0.15009">
        <ele>2340</ele>
        <time>2023-08-01T02:33:46Z</time>
      </trkpt>
      <trkpt lat="42.80349" lon="-0.15006">
        <ele>2343</ele>
        <time>2023-08-01T02:33:58Z</time>
      </trkpt>
      <trkpt lat="42.80355" lon="-0.15002">
        <ele>2344</ele>
        <time>2023-08-01T02:34:07Z</time>
      </trkpt>
      <trkpt lat="42.80362" lon="-0.15003">
        <ele>2347</ele>
        <time>2023-08-01T02:34:16Z</time>
      </trkpt>
      <trkpt lat="42.8037" lon="-0.15011">
        <ele>2352</ele>
        <time>2023-08-01T02:34:30Z</time>
      </trkpt>
      <trkpt lat="42.80382" lon="-0.15014">
        <ele>2358</ele>
        <time>2023-08-01T02:34:46Z</time>
      </trkpt>
      <trkpt lat="42.8039" lon="-0.15027">
        <ele>2364</ele>
        <time>2023-08-01T02:35:02Z</time>
      </trkpt>
      <trkpt lat="42.80396" lon="-0.15048">
        <ele>2371</ele>
        <time>2023-08-01T02:35:25Z</time>
      </trkpt>
      <trkpt lat="42.80405" lon="-0.15062">
        <ele>2377</ele>
        <time>2023-08-01T02:35:43Z</time>
      </trkpt>
      <trkpt lat="42.80403" lon="-0.15079">
        <ele>2380</ele>
        <time>2023-08-01T02:36:00Z</time>
      </trkpt>
      <trkpt lat="42.80404" lon="-0.15103">
        <ele>2387</ele>
        <time>2023-08-01T02:36:23Z</time>
      </trkpt>
      <trkpt lat="42.804" lon="-0.15111">
        <ele>2388</ele>
        <time>2023-08-01T02:36:33Z</time>
      </trkpt>
      <trkpt lat="42.80393" lon="-0.15141">
        <ele>2394</ele>
        <time>2023-08-01T02:37:03Z</time>
      </trkpt>
      <trkpt lat="42.80397" lon="-0.15165">
        <ele>2401</ele>
        <time>2023-08-01T02:37:28Z</time>
      </trkpt>
      <trkpt lat="42.80402" lon="-0.15183">
        <ele>2406</ele>
        <time>2023-08-01T02:37:46Z</time>
      </trkpt>
      <trkpt lat="42.80407" lon="-0.1519">
        <ele>2408</ele>
        <time>2023-08-01T02:37:56Z</time>
      </trkpt>
      <trkpt lat="42.80412" lon="-0.15217">
        <ele>2413</ele>
        <time>2023-08-01T02:38:23Z</time>
      </trkpt>
      <trkpt lat="42.80411" lon="-0.15225">
        <ele>2414</ele>
        <time>2023-08-01T02:38:31Z</time>
      </trkpt>
      <trkpt lat="42.80412" lon="-0.15241">
        <ele>2416</ele>
        <time>2023-08-01T02:38:47Z</time>
      </trkpt>
      <trkpt lat="42.80416" lon="-0.15255">
        <ele>2418</ele>
        <time>2023-08-01T02:39:02Z</time>
      </trkpt>
      <trkpt lat="42.80432" lon="-0.15281">
        <ele>2426</ele>
        <time>2023-08-01T02:39:35Z</time>
      </trkpt>
      <trkpt lat="42.80441" lon="-0.15284">
        <ele>2429</ele>
        <time>2023-08-01T02:39:47Z</time>
      </trkpt>
      <trkpt lat="42.80444" lon="-0.15298">
        <ele>2431</ele>
        <time>2023-08-01T02:40:01Z</time>
      </trkpt>
      <trkpt lat="42.80452" lon="-0.15309">
        <ele>2434</ele>
        <time>2023-08-01T02:40:17Z</time>
      </trkpt>
      <trkpt lat="42.80461" lon="-0.15319">
        <ele>2436</ele>
        <time>2023-08-01T02:40:32Z</time>
      </trkpt>
      <trkpt lat="42.80468" lon="-0.15323">
        <ele>2437</ele>
        <time>2023-08-01T02:40:42Z</time>
      </trkpt>
      <trkpt lat="42.80471" lon="-0.15328">
        <ele>2438</ele>
        <time>2023-08-01T02:40:49Z</time>
      </trkpt>
      <trkpt lat="42.80477" lon="-0.15331">
        <ele>2438</ele>
        <time>2023-08-01T02:40:57Z</time>
      </trkpt>
      <trkpt lat="42.80482" lon="-0.15329">
        <ele>2439</ele>
        <time>2023-08-01T02:41:04Z</time>
      </trkpt>
      <trkpt lat="42.80489" lon="-0.15323">
        <ele>2439</ele>
        <time>2023-08-01T02:41:15Z</time>
      </trkpt>
      <trkpt lat="42.80495" lon="-0.15328">
        <ele>2440</ele>
        <time>2023-08-01T02:41:24Z</time>
      </trkpt>
      <trkpt lat="42.80497" lon="-0.1532">
        <ele>2440</ele>
        <time>2023-08-01T02:41:33Z</time>
      </trkpt>
      <trkpt lat="42.805" lon="-0.15314">
        <ele>2440</ele>
        <time>2023-08-01T02:41:40Z</time>
      </trkpt>
      <trkpt lat="42.80509" lon="-0.15307">
        <ele>2445</ele>
        <time>2023-08-01T02:41:54Z</time>
      </trkpt>
      <trkpt lat="42.80529" lon="-0.15302">
        <ele>2456</ele>
        <time>2023-08-01T02:42:21Z</time>
      </trkpt>
      <trkpt lat="42.80534" lon="-0.15305">
        <ele>2458</ele>
        <time>2023-08-01T02:42:28Z</time>
      </trkpt>
      <trkpt lat="42.80552" lon="-0.1533">
        <ele>2468</ele>
        <time>2023-08-01T02:43:02Z</time>
      </trkpt>
      <trkpt lat="42.80556" lon="-0.15329">
        <ele>2470</ele>
        <time>2023-08-01T02:43:08Z</time>
      </trkpt>
      <trkpt lat="42.80558" lon="-0.15323">
        <ele>2471</ele>
        <time>2023-08-01T02:43:14Z</time>
      </trkpt>
      <trkpt lat="42.80565" lon="-0.15324">
        <ele>2475</ele>
        <time>2023-08-01T02:43:24Z</time>
      </trkpt>
      <trkpt lat="42.80568" lon="-0.15315">
        <ele>2477</ele>
        <time>2023-08-01T02:43:33Z</time>
      </trkpt>
      <trkpt lat="42.80576" lon="-0.15313">
        <ele>2481</ele>
        <time>2023-08-01T02:43:44Z</time>
      </trkpt>
      <trkpt lat="42.8058" lon="-0.15307">
        <ele>2483</ele>
        <time>2023-08-01T02:43:52Z</time>
      </trkpt>
      <trkpt lat="42.8059" lon="-0.15305">
        <ele>2489</ele>
        <time>2023-08-01T02:44:06Z</time>
      </trkpt>
      <trkpt lat="42.80594" lon="-0.15308">
        <ele>2492</ele>
        <time>2023-08-01T02:44:12Z</time>
      </trkpt>
      <trkpt lat="42.80615" lon="-0.15306">
        <ele>2506</ele>
        <time>2023-08-01T02:44:40Z</time>
      </trkpt>
      <trkpt lat="42.80621" lon="-0.15309">
        <ele>2510</ele>
        <time>2023-08-01T02:44:48Z</time>
      </trkpt>
      <trkpt lat="42.80625" lon="-0.15315">
        <ele>2512</ele>
        <time>2023-08-01T02:44:56Z</time>
      </trkpt>
      <trkpt lat="42.80635" lon="-0.15341">
        <ele>2517</ele>
        <time>2023-08-01T02:45:25Z</time>
      </trkpt>
      <trkpt lat="42.80646" lon="-0.15353">
        <ele>2524</ele>
        <time>2023-08-01T02:45:44Z</time>
      </trkpt>
      <trkpt lat="42.80649" lon="-0.15359">
        <ele>2526</ele>
        <time>2023-08-01T02:45:51Z</time>
      </trkpt>
      <trkpt lat="42.80651" lon="-0.15356">
        <ele>2527</ele>
        <time>2023-08-01T02:45:55Z</time>
      </trkpt>
      <trkpt lat="42.80655" lon="-0.15341">
        <ele>2530</ele>
        <time>2023-08-01T02:46:11Z</time>
      </trkpt>
      <trkpt lat="42.80665" lon="-0.15323">
        <ele>2537</ele>
        <time>2023-08-01T02:46:33Z</time>
      </trkpt>
      <trkpt lat="42.80664" lon="-0.15315">
        <ele>2537</ele>
        <time>2023-08-01T02:46:41Z</time>
      </trkpt>
      <trkpt lat="42.80669" lon="-0.15311">
        <ele>2541</ele>
        <time>2023-08-01T02:46:48Z</time>
      </trkpt>
      <trkpt lat="42.80679" lon="-0.15295">
        <ele>2549</ele>
        <time>2023-08-01T02:47:09Z</time>
      </trkpt>
      <trkpt lat="42.8069" lon="-0.15296">
        <ele>2556</ele>
        <time>2023-08-01T02:47:24Z</time>
      </trkpt>
      <trkpt lat="42.80694" lon="-0.15298">
        <ele>2559</ele>
        <time>2023-08-01T02:47:29Z</time>
      </trkpt>
      <trkpt lat="42.80712" lon="-0.15298">
        <ele>2571</ele>
        <time>2023-08-01T02:47:53Z</time>
      </trkpt>
      <trkpt lat="42.80716" lon="-0.15293">
        <ele>2574</ele>
        <time>2023-08-01T02:48:01Z</time>
      </trkpt>
      <trkpt lat="42.80715" lon="-0.15285">
        <ele>2574</ele>
        <time>2023-08-01T02:48:08Z</time>
      </trkpt>
      <trkpt lat="42.80718" lon="-0.15281">
        <ele>2576</ele>
        <time>2023-08-01T02:48:14Z</time>
      </trkpt>
      <trkpt lat="42.80729" lon="-0.15285">
        <ele>2583</ele>
        <time>2023-08-01T02:48:29Z</time>
      </trkpt>
      <trkpt lat="42.80733" lon="-0.1529">
        <ele>2585</ele>
        <time>2023-08-01T02:48:37Z</time>
      </trkpt>
      <trkpt lat="42.80739" lon="-0.15291">
        <ele>2589</ele>
        <time>2023-08-01T02:48:45Z</time>
      </trkpt>
      <trkpt lat="42.80747" lon="-0.15286">
        <ele>2594</ele>
        <time>2023-08-01T02:48:56Z</time>
      </trkpt>
      <trkpt lat="42.80749" lon="-0.15275">
        <ele>2597</ele>
        <time>2023-08-01T02:49:07Z</time>
      </trkpt>
      <trkpt lat="42.80755" lon="-0.15267">
        <ele>2600</ele>
        <time>2023-08-01T02:49:19Z</time>
      </trkpt>
      <trkpt lat="42.80752" lon="-0.1525">
        <ele>2600</ele>
        <time>2023-08-01T02:49:36Z</time>
      </trkpt>
      <trkpt lat="42.80762" lon="-0.1524">
        <ele>2605</ele>
        <time>2023-08-01T02:49:52Z</time>
      </trkpt>
      <trkpt lat="42.80775" lon="-0.15247">
        <ele>2610</ele>
        <time>2023-08-01T02:50:11Z</time>
      </trkpt>
      <trkpt lat="42.80795" lon="-0.15247">
        <ele>2619</ele>
        <time>2023-08-01T02:50:38Z</time>
      </trkpt>
      <trkpt lat="42.80807" lon="-0.15237">
        <ele>2626</ele>
        <time>2023-08-01T02:50:56Z</time>
      </trkpt>
      <trkpt lat="42.8081" lon="-0.15238">
        <ele>2627</ele>
        <time>2023-08-01T02:51:01Z</time>
      </trkpt>
      <trkpt lat="42.80818" lon="-0.15261">
        <ele>2629</ele>
        <time>2023-08-01T02:51:25Z</time>
      </trkpt>
      <trkpt lat="42.80827" lon="-0.1528">
        <ele>2634</ele>
        <time>2023-08-01T02:51:48Z</time>
      </trkpt>
      <trkpt lat="42.80828" lon="-0.15292">
        <ele>2635</ele>
        <time>2023-08-01T02:51:59Z</time>
      </trkpt>
      <trkpt lat="42.80832" lon="-0.15293">
        <ele>2637</ele>
        <time>2023-08-01T02:52:05Z</time>
      </trkpt>
      <trkpt lat="42.80835" lon="-0.15296">
        <ele>2638</ele>
        <time>2023-08-01T02:52:10Z</time>
      </trkpt>
      <trkpt lat="42.80844" lon="-0.15312">
        <ele>2635</ele>
        <time>2023-08-01T02:52:30Z</time>
      </trkpt>
      <trkpt lat="42.8085" lon="-0.15319">
        <ele>2633</ele>
        <time>2023-08-01T02:52:40Z</time>
      </trkpt>
      <trkpt lat="42.80853" lon="-0.15328">
        <ele>2633</ele>
        <time>2023-08-01T02:52:50Z</time>
      </trkpt>
      <trkpt lat="42.80858" lon="-0.15334">
        <ele>2632</ele>
        <time>2023-08-01T02:52:59Z</time>
      </trkpt>
      <trkpt lat="42.80866" lon="-0.15352">
        <ele>2633</ele>
        <time>2023-08-01T02:53:19Z</time>
      </trkpt>
      <trkpt lat="42.80874" lon="-0.15355">
        <ele>2631</ele>
        <time>2023-08-01T02:53:30Z</time>
      </trkpt>
      <trkpt lat="42.80876" lon="-0.15351">
        <ele>2630</ele>
        <time>2023-08-01T02:53:35Z</time>
      </trkpt>
      <trkpt lat="42.80891" lon="-0.15357">
        <ele>2626</ele>
        <time>2023-08-01T02:53:56Z</time>
      </trkpt>
      <trkpt lat="42.80916" lon="-0.15375">
        <ele>2623</ele>
        <time>2023-08-01T02:54:34Z</time>
      </trkpt>
      <trkpt lat="42.80923" lon="-0.15388">
        <ele>2623</ele>
        <time>2023-08-01T02:54:49Z</time>
      </trkpt>
      <trkpt lat="42.80933" lon="-0.15385">
        <ele>2617</ele>
        <time>2023-08-01T02:55:03Z</time>
      </trkpt>
      <trkpt lat="42.80931" lon="-0.15394">
        <ele>2621</ele>
        <time>2023-08-01T02:55:12Z</time>
      </trkpt>
      <trkpt lat="42.80939" lon="-0.15409">
        <ele>2621</ele>
        <time>2023-08-01T02:55:30Z</time>
      </trkpt>
      <trkpt lat="42.80946" lon="-0.15416">
        <ele>2620</ele>
        <time>2023-08-01T02:55:42Z</time>
      </trkpt>
      <trkpt lat="42.80951" lon="-0.15413">
        <ele>2617</ele>
        <time>2023-08-01T02:55:49Z</time>
      </trkpt>
      <trkpt lat="42.80954" lon="-0.15405">
        <ele>2614</ele>
        <time>2023-08-01T02:55:58Z</time>
      </trkpt>
      <trkpt lat="42.80961" lon="-0.15402">
        <ele>2610</ele>
        <time>2023-08-01T02:56:08Z</time>
      </trkpt>
      <trkpt lat="42.80969" lon="-0.15407">
        <ele>2608</ele>
        <time>2023-08-01T02:56:20Z</time>
      </trkpt>
      <trkpt lat="42.80993" lon="-0.15408">
        <ele>2598</ele>
        <time>2023-08-01T02:56:52Z</time>
      </trkpt>
      <trkpt lat="42.80998" lon="-0.15411">
        <ele>2597</ele>
        <time>2023-08-01T02:56:59Z</time>
      </trkpt>
      <trkpt lat="42.80997" lon="-0.15405">
        <ele>2595</ele>
        <time>2023-08-01T02:57:05Z</time>
      </trkpt>
      <trkpt lat="42.81" lon="-0.15401">
        <ele>2592</ele>
        <time>2023-08-01T02:57:11Z</time>
      </trkpt>
      <trkpt lat="42.81003" lon="-0.15404">
        <ele>2592</ele>
        <time>2023-08-01T02:57:16Z</time>
      </trkpt>
      <trkpt lat="42.8101" lon="-0.15393">
        <ele>2586</ele>
        <time>2023-08-01T02:57:30Z</time>
      </trkpt>
      <trkpt lat="42.81015" lon="-0.15398">
        <ele>2586</ele>
        <time>2023-08-01T02:57:38Z</time>
      </trkpt>
      <trkpt lat="42.81018" lon="-0.15393">
        <ele>2583</ele>
        <time>2023-08-01T02:57:44Z</time>
      </trkpt>
      <trkpt lat="42.81017" lon="-0.15377">
        <ele>2577</ele>
        <time>2023-08-01T02:58:00Z</time>
      </trkpt>
      <trkpt lat="42.8102" lon="-0.15368">
        <ele>2573</ele>
        <time>2023-08-01T02:58:10Z</time>
      </trkpt>
      <trkpt lat="42.81025" lon="-0.15362">
        <ele>2568</ele>
        <time>2023-08-01T02:58:19Z</time>
      </trkpt>
      <trkpt lat="42.8103" lon="-0.15362">
        <ele>2567</ele>
        <time>2023-08-01T02:58:25Z</time>
      </trkpt>
      <trkpt lat="42.81038" lon="-0.15366">
        <ele>2565</ele>
        <time>2023-08-01T02:58:37Z</time>
      </trkpt>
      <trkpt lat="42.81052" lon="-0.15365">
        <ele>2560</ele>
        <time>2023-08-01T02:58:56Z</time>
      </trkpt>
      <trkpt lat="42.81061" lon="-0.15368">
        <ele>2558</ele>
        <time>2023-08-01T02:59:08Z</time>
      </trkpt>
      <trkpt lat="42.81061" lon="-0.15362">
        <ele>2555</ele>
        <time>2023-08-01T02:59:14Z</time>
      </trkpt>
      <trkpt lat="42.81065" lon="-0.15362">
        <ele>2554</ele>
        <time>2023-08-01T02:59:19Z</time>
      </trkpt>
      <trkpt lat="42.81064" lon="-0.15352">
        <ele>2550</ele>
        <time>2023-08-01T02:59:29Z</time>
      </trkpt>
      <trkpt lat="42.81059" lon="-0.15341">
        <ele>2548</ele>
        <time>2023-08-01T02:59:42Z</time>
      </trkpt>
      <trkpt lat="42.81063" lon="-0.1534">
        <ele>2546</ele>
        <time>2023-08-01T02:59:47Z</time>
      </trkpt>
      <trkpt lat="42.81068" lon="-0.15331">
        <ele>2541</ele>
        <time>2023-08-01T02:59:58Z</time>
      </trkpt>
      <trkpt lat="42.81065" lon="-0.15322">
        <ele>2540</ele>
        <time>2023-08-01T03:00:08Z</time>
      </trkpt>
      <trkpt lat="42.81069" lon="-0.15322">
        <ele>2538</ele>
        <time>2023-08-01T03:00:13Z</time>
      </trkpt>
      <trkpt lat="42.81072" lon="-0.15316">
        <ele>2535</ele>
        <time>2023-08-01T03:00:20Z</time>
      </trkpt>
      <trkpt lat="42.81084" lon="-0.15308">
        <ele>2528</ele>
        <time>2023-08-01T03:00:38Z</time>
      </trkpt>
      <trkpt lat="42.81092" lon="-0.15293">
        <ele>2522</ele>
        <time>2023-08-01T03:00:56Z</time>
      </trkpt>
      <trkpt lat="42.81106" lon="-0.15292">
        <ele>2519</ele>
        <time>2023-08-01T03:01:15Z</time>
      </trkpt>
      <trkpt lat="42.81108" lon="-0.15291">
        <ele>2518</ele>
        <time>2023-08-01T03:01:18Z</time>
      </trkpt>
      <trkpt lat="42.81106" lon="-0.15286">
        <ele>2517</ele>
        <time>2023-08-01T03:01:23Z</time>
      </trkpt>
      <trkpt lat="42.81111" lon="-0.15286">
        <ele>2516</ele>
        <time>2023-08-01T03:01:30Z</time>
      </trkpt>
      <trkpt lat="42.81111" lon="-0.15282">
        <ele>2514</ele>
        <time>2023-08-01T03:01:34Z</time>
      </trkpt>
      <trkpt lat="42.81115" lon="-0.15279">
        <ele>2513</ele>
        <time>2023-08-01T03:01:40Z</time>
      </trkpt>
      <trkpt lat="42.81128" lon="-0.1528">
        <ele>2510</ele>
        <time>2023-08-01T03:01:57Z</time>
      </trkpt>
      <trkpt lat="42.81142" lon="-0.15277">
        <ele>2506</ele>
        <time>2023-08-01T03:02:16Z</time>
      </trkpt>
      <trkpt lat="42.81158" lon="-0.15267">
        <ele>2499</ele>
        <time>2023-08-01T03:02:40Z</time>
      </trkpt>
      <trkpt lat="42.8117" lon="-0.15264">
        <ele>2496</ele>
        <time>2023-08-01T03:02:56Z</time>
      </trkpt>
      <trkpt lat="42.81173" lon="-0.15259">
        <ele>2494</ele>
        <time>2023-08-01T03:03:02Z</time>
      </trkpt>
      <trkpt lat="42.81167" lon="-0.15245">
        <ele>2490</ele>
        <time>2023-08-01T03:03:18Z</time>
      </trkpt>
      <trkpt lat="42.81172" lon="-0.15235">
        <ele>2487</ele>
        <time>2023-08-01T03:03:30Z</time>
      </trkpt>
      <trkpt lat="42.81179" lon="-0.15225">
        <ele>2484</ele>
        <time>2023-08-01T03:03:44Z</time>
      </trkpt>
      <trkpt lat="42.81196" lon="-0.15213">
        <ele>2480</ele>
        <time>2023-08-01T03:04:09Z</time>
      </trkpt>
      <trkpt lat="42.81226" lon="-0.15198">
        <ele>2475</ele>
        <time>2023-08-01T03:04:52Z</time>
      </trkpt>
      <trkpt lat="42.81253" lon="-0.1519">
        <ele>2471</ele>
        <time>2023-08-01T03:05:29Z</time>
      </trkpt>
      <trkpt lat="42.81263" lon="-0.15194">
        <ele>2471</ele>
        <time>2023-08-01T03:05:43Z</time>
      </trkpt>
      <trkpt lat="42.81287" lon="-0.15195">
        <ele>2470</ele>
        <time>2023-08-01T03:06:15Z</time>
      </trkpt>
      <trkpt lat="42.81295" lon="-0.15192">
        <ele>2469</ele>
        <time>2023-08-01T03:06:26Z</time>
      </trkpt>
      <trkpt lat="42.81301" lon="-0.15195">
        <ele>2469</ele>
        <time>2023-08-01T03:06:34Z</time>
      </trkpt>
      <trkpt lat="42.81303" lon="-0.152">
        <ele>2471</ele>
        <time>2023-08-01T03:06:40Z</time>
      </trkpt>
      <trkpt lat="42.81315" lon="-0.152">
        <ele>2470</ele>
        <time>2023-08-01T03:06:56Z</time>
      </trkpt>
      <trkpt lat="42.81329" lon="-0.15192">
        <ele>2467</ele>
        <time>2023-08-01T03:07:16Z</time>
      </trkpt>
      <trkpt lat="42.81333" lon="-0.15186">
        <ele>2465</ele>
        <time>2023-08-01T03:07:24Z</time>
      </trkpt>
      <trkpt lat="42.81356" lon="-0.15171">
        <ele>2459</ele>
        <time>2023-08-01T03:07:58Z</time>
      </trkpt>
      <trkpt lat="42.81377" lon="-0.1516">
        <ele>2456</ele>
        <time>2023-08-01T03:08:28Z</time>
      </trkpt>
      <trkpt lat="42.81382" lon="-0.15163">
        <ele>2455</ele>
        <time>2023-08-01T03:08:35Z</time>
      </trkpt>
      <trkpt lat="42.81385" lon="-0.15163">
        <ele>2455</ele>
        <time>2023-08-01T03:08:39Z</time>
      </trkpt>
      <trkpt lat="42.81415" lon="-0.15151">
        <ele>2453</ele>
        <time>2023-08-01T03:09:21Z</time>
      </trkpt>
      <trkpt lat="42.8143" lon="-0.15152">
        <ele>2450</ele>
        <time>2023-08-01T03:09:41Z</time>
      </trkpt>
      <trkpt lat="42.8143" lon="-0.15155">
        <ele>2450</ele>
        <time>2023-08-01T03:09:44Z</time>
      </trkpt>
      <trkpt lat="42.81442" lon="-0.15158">
        <ele>2448</ele>
        <time>2023-08-01T03:10:00Z</time>
      </trkpt>
      <trkpt lat="42.81449" lon="-0.15154">
        <ele>2447</ele>
        <time>2023-08-01T03:10:10Z</time>
      </trkpt>
      <trkpt lat="42.81451" lon="-0.15158">
        <ele>2446</ele>
        <time>2023-08-01T03:10:15Z</time>
      </trkpt>
      <trkpt lat="42.81456" lon="-0.1516">
        <ele>2445</ele>
        <time>2023-08-01T03:10:22Z</time>
      </trkpt>
      <trkpt lat="42.81459" lon="-0.15153">
        <ele>2445</ele>
        <time>2023-08-01T03:10:30Z</time>
      </trkpt>
      <trkpt lat="42.81463" lon="-0.15158">
        <ele>2444</ele>
        <time>2023-08-01T03:10:37Z</time>
      </trkpt>
      <trkpt lat="42.81464" lon="-0.1517">
        <ele>2443</ele>
        <time>2023-08-01T03:10:49Z</time>
      </trkpt>
      <trkpt lat="42.81469" lon="-0.15163">
        <ele>2442</ele>
        <time>2023-08-01T03:10:59Z</time>
      </trkpt>
      <trkpt lat="42.81477" lon="-0.15161">
        <ele>2441</ele>
        <time>2023-08-01T03:11:10Z</time>
      </trkpt>
      <trkpt lat="42.81483" lon="-0.15156">
        <ele>2440</ele>
        <time>2023-08-01T03:11:19Z</time>
      </trkpt>
      <trkpt lat="42.81501" lon="-0.15148">
        <ele>2438</ele>
        <time>2023-08-01T03:11:44Z</time>
      </trkpt>
      <trkpt lat="42.81503" lon="-0.15138">
        <ele>2438</ele>
        <time>2023-08-01T03:11:54Z</time>
      </trkpt>
      <trkpt lat="42.81538" lon="-0.15132">
        <ele>2426</ele>
        <time>2023-08-01T03:12:41Z</time>
      </trkpt>
      <trkpt lat="42.81563" lon="-0.15115">
        <ele>2420</ele>
        <time>2023-08-01T03:13:19Z</time>
      </trkpt>
      <trkpt lat="42.81571" lon="-0.15118">
        <ele>2416</ele>
        <time>2023-08-01T03:13:30Z</time>
      </trkpt>
      <trkpt lat="42.81572" lon="-0.15122">
        <ele>2416</ele>
        <time>2023-08-01T03:13:34Z</time>
      </trkpt>
      <trkpt lat="42.81579" lon="-0.15122">
        <ele>2413</ele>
        <time>2023-08-01T03:13:43Z</time>
      </trkpt>
      <trkpt lat="42.81584" lon="-0.15125">
        <ele>2411</ele>
        <time>2023-08-01T03:13:51Z</time>
      </trkpt>
      <trkpt lat="42.81598" lon="-0.15118">
        <ele>2407</ele>
        <time>2023-08-01T03:14:11Z</time>
      </trkpt>
      <trkpt lat="42.81609" lon="-0.15122">
        <ele>2402</ele>
        <time>2023-08-01T03:14:26Z</time>
      </trkpt>
      <trkpt lat="42.81625" lon="-0.15138">
        <ele>2393</ele>
        <time>2023-08-01T03:14:52Z</time>
      </trkpt>
      <trkpt lat="42.81631" lon="-0.1514">
        <ele>2390</ele>
        <time>2023-08-01T03:15:00Z</time>
      </trkpt>
      <trkpt lat="42.81641" lon="-0.15163">
        <ele>2380</ele>
        <time>2023-08-01T03:15:27Z</time>
      </trkpt>
      <trkpt lat="42.81635" lon="-0.15167">
        <ele>2381</ele>
        <time>2023-08-01T03:15:36Z</time>
      </trkpt>
      <trkpt lat="42.81641" lon="-0.15172">
        <ele>2377</ele>
        <time>2023-08-01T03:15:45Z</time>
      </trkpt>
      <trkpt lat="42.81637" lon="-0.15176">
        <ele>2378</ele>
        <time>2023-08-01T03:15:52Z</time>
      </trkpt>
      <trkpt lat="42.8164" lon="-0.15184">
        <ele>2374</ele>
        <time>2023-08-01T03:16:00Z</time>
      </trkpt>
      <trkpt lat="42.81637" lon="-0.1519">
        <ele>2374</ele>
        <time>2023-08-01T03:16:07Z</time>
      </trkpt>
      <trkpt lat="42.81644" lon="-0.15192">
        <ele>2370</ele>
        <time>2023-08-01T03:16:17Z</time>
      </trkpt>
      <trkpt lat="42.81644" lon="-0.15197">
        <ele>2368</ele>
        <time>2023-08-01T03:16:22Z</time>
      </trkpt>
      <trkpt lat="42.81651" lon="-0.15206">
        <ele>2362</ele>
        <time>2023-08-01T03:16:35Z</time>
      </trkpt>
      <trkpt lat="42.81658" lon="-0.1521">
        <ele>2358</ele>
        <time>2023-08-01T03:16:45Z</time>
      </trkpt>
      <trkpt lat="42.81663" lon="-0.15217">
        <ele>2353</ele>
        <time>2023-08-01T03:16:54Z</time>
      </trkpt>
      <trkpt lat="42.81663" lon="-0.15226">
        <ele>2350</ele>
        <time>2023-08-01T03:17:03Z</time>
      </trkpt>
      <trkpt lat="42.8166" lon="-0.15229">
        <ele>2351</ele>
        <time>2023-08-01T03:17:08Z</time>
      </trkpt>
      <trkpt lat="42.8166" lon="-0.15234">
        <ele>2349</ele>
        <time>2023-08-01T03:17:13Z</time>
      </trkpt>
      <trkpt lat="42.81664" lon="-0.15235">
        <ele>2347</ele>
        <time>2023-08-01T03:17:18Z</time>
      </trkpt>
      <trkpt lat="42.8166" lon="-0.15246">
        <ele>2346</ele>
        <time>2023-08-01T03:17:30Z</time>
      </trkpt>
      <trkpt lat="42.81667" lon="-0.15263">
        <ele>2337</ele>
        <time>2023-08-01T03:17:50Z</time>
      </trkpt>
      <trkpt lat="42.81671" lon="-0.15263">
        <ele>2336</ele>
        <time>2023-08-01T03:17:55Z</time>
      </trkpt>
      <trkpt lat="42.81672" lon="-0.15279">
        <ele>2331</ele>
        <time>2023-08-01T03:18:11Z</time>
      </trkpt>
      <trkpt lat="42.81679" lon="-0.15278">
        <ele>2328</ele>
        <time>2023-08-01T03:18:20Z</time>
      </trkpt>
      <trkpt lat="42.81685" lon="-0.15293">
        <ele>2320</ele>
        <time>2023-08-01T03:18:37Z</time>
      </trkpt>
      <trkpt lat="42.8169" lon="-0.15297">
        <ele>2317</ele>
        <time>2023-08-01T03:18:44Z</time>
      </trkpt>
      <trkpt lat="42.81703" lon="-0.15288">
        <ele>2313</ele>
        <time>2023-08-01T03:19:04Z</time>
      </trkpt>
      <trkpt lat="42.81704" lon="-0.15293">
        <ele>2311</ele>
        <time>2023-08-01T03:19:09Z</time>
      </trkpt>
      <trkpt lat="42.81706" lon="-0.15295">
        <ele>2309</ele>
        <time>2023-08-01T03:19:12Z</time>
      </trkpt>
      <trkpt lat="42.81705" lon="-0.15301">
        <ele>2308</ele>
        <time>2023-08-01T03:19:18Z</time>
      </trkpt>
      <trkpt lat="42.81712" lon="-0.15298">
        <ele>2305</ele>
        <time>2023-08-01T03:19:28Z</time>
      </trkpt>
      <trkpt lat="42.8171" lon="-0.15331">
        <ele>2295</ele>
        <time>2023-08-01T03:20:01Z</time>
      </trkpt>
      <trkpt lat="42.81711" lon="-0.15354">
        <ele>2287</ele>
        <time>2023-08-01T03:20:23Z</time>
      </trkpt>
      <trkpt lat="42.81707" lon="-0.15382">
        <ele>2282</ele>
        <time>2023-08-01T03:20:51Z</time>
      </trkpt>
      <trkpt lat="42.81709" lon="-0.15384">
        <ele>2280</ele>
        <time>2023-08-01T03:20:54Z</time>
      </trkpt>
      <trkpt lat="42.81709" lon="-0.15389">
        <ele>2278</ele>
        <time>2023-08-01T03:20:59Z</time>
      </trkpt>
      <trkpt lat="42.81716" lon="-0.15392">
        <ele>2273</ele>
        <time>2023-08-01T03:21:09Z</time>
      </trkpt>
      <trkpt lat="42.81722" lon="-0.15412">
        <ele>2263</ele>
        <time>2023-08-01T03:21:30Z</time>
      </trkpt>
      <trkpt lat="42.81726" lon="-0.15415">
        <ele>2260</ele>
        <time>2023-08-01T03:21:36Z</time>
      </trkpt>
      <trkpt lat="42.81726" lon="-0.1542">
        <ele>2258</ele>
        <time>2023-08-01T03:21:41Z</time>
      </trkpt>
      <trkpt lat="42.81732" lon="-0.15426">
        <ele>2253</ele>
        <time>2023-08-01T03:21:51Z</time>
      </trkpt>
      <trkpt lat="42.81738" lon="-0.15427">
        <ele>2249</ele>
        <time>2023-08-01T03:21:59Z</time>
      </trkpt>
      <trkpt lat="42.81749" lon="-0.15444">
        <ele>2239</ele>
        <time>2023-08-01T03:22:21Z</time>
      </trkpt>
      <trkpt lat="42.81756" lon="-0.15457">
        <ele>2234</ele>
        <time>2023-08-01T03:22:37Z</time>
      </trkpt>
      <trkpt lat="42.81765" lon="-0.15453">
        <ele>2232</ele>
        <time>2023-08-01T03:22:50Z</time>
      </trkpt>
      <trkpt lat="42.81775" lon="-0.15458">
        <ele>2228</ele>
        <time>2023-08-01T03:23:04Z</time>
      </trkpt>
      <trkpt lat="42.81783" lon="-0.15471">
        <ele>2224</ele>
        <time>2023-08-01T03:23:21Z</time>
      </trkpt>
      <trkpt lat="42.81795" lon="-0.15481">
        <ele>2219</ele>
        <time>2023-08-01T03:23:39Z</time>
      </trkpt>
      <trkpt lat="42.81809" lon="-0.15486">
        <ele>2215</ele>
        <time>2023-08-01T03:23:59Z</time>
      </trkpt>
      <trkpt lat="42.81818" lon="-0.15483">
        <ele>2214</ele>
        <time>2023-08-01T03:24:11Z</time>
      </trkpt>
      <trkpt lat="42.81833" lon="-0.15518">
        <ele>2207</ele>
        <time>2023-08-01T03:24:51Z</time>
      </trkpt>
      <trkpt lat="42.81839" lon="-0.15528">
        <ele>2206</ele>
        <time>2023-08-01T03:25:03Z</time>
      </trkpt>
      <trkpt lat="42.8185" lon="-0.15533">
        <ele>2205</ele>
        <time>2023-08-01T03:25:19Z</time>
      </trkpt>
      <trkpt lat="42.8186" lon="-0.15529">
        <ele>2204</ele>
        <time>2023-08-01T03:25:33Z</time>
      </trkpt>
      <trkpt lat="42.81868" lon="-0.15531">
        <ele>2204</ele>
        <time>2023-08-01T03:25:44Z</time>
      </trkpt>
      <trkpt lat="42.81895" lon="-0.15543">
        <ele>2201</ele>
        <time>2023-08-01T03:26:22Z</time>
      </trkpt>
      <trkpt lat="42.81905" lon="-0.1554">
        <ele>2200</ele>
        <time>2023-08-01T03:26:35Z</time>
      </trkpt>
      <trkpt lat="42.81908" lon="-0.15538">
        <ele>2199</ele>
        <time>2023-08-01T03:26:40Z</time>
      </trkpt>
      <trkpt lat="42.81912" lon="-0.15542">
        <ele>2199</ele>
        <time>2023-08-01T03:26:46Z</time>
      </trkpt>
      <trkpt lat="42.81918" lon="-0.15536">
        <ele>2198</ele>
        <time>2023-08-01T03:26:56Z</time>
      </trkpt>
      <trkpt lat="42.81942" lon="-0.1555">
        <ele>2190</ele>
        <time>2023-08-01T03:27:31Z</time>
      </trkpt>
      <trkpt lat="42.8195" lon="-0.15549">
        <ele>2187</ele>
        <time>2023-08-01T03:27:42Z</time>
      </trkpt>
      <trkpt lat="42.81964" lon="-0.15553">
        <ele>2183</ele>
        <time>2023-08-01T03:28:01Z</time>
      </trkpt>
      <trkpt lat="42.81962" lon="-0.15577">
        <ele>2186</ele>
        <time>2023-08-01T03:28:24Z</time>
      </trkpt>
      <trkpt lat="42.81963" lon="-0.15586">
        <ele>2185</ele>
        <time>2023-08-01T03:28:33Z</time>
      </trkpt>
      <trkpt lat="42.81968" lon="-0.15589">
        <ele>2184</ele>
        <time>2023-08-01T03:28:41Z</time>
      </trkpt>
      <trkpt lat="42.81967" lon="-0.15604">
        <ele>2182</ele>
        <time>2023-08-01T03:28:55Z</time>
      </trkpt>
      <trkpt lat="42.81962" lon="-0.15613">
        <ele>2182</ele>
        <time>2023-08-01T03:29:06Z</time>
      </trkpt>
      <trkpt lat="42.81957" lon="-0.15618">
        <ele>2182</ele>
        <time>2023-08-01T03:29:15Z</time>
      </trkpt>
      <trkpt lat="42.81947" lon="-0.1562">
        <ele>2185</ele>
        <time>2023-08-01T03:29:28Z</time>
      </trkpt>
      <trkpt lat="42.8194" lon="-0.1563">
        <ele>2185</ele>
        <time>2023-08-01T03:29:42Z</time>
      </trkpt>
      <trkpt lat="42.81936" lon="-0.15639">
        <ele>2185</ele>
        <time>2023-08-01T03:29:52Z</time>
      </trkpt>
      <trkpt lat="42.81922" lon="-0.15649">
        <ele>2188</ele>
        <time>2023-08-01T03:30:13Z</time>
      </trkpt>
      <trkpt lat="42.81921" lon="-0.15664">
        <ele>2186</ele>
        <time>2023-08-01T03:30:28Z</time>
      </trkpt>
      <trkpt lat="42.81925" lon="-0.15673">
        <ele>2183</ele>
        <time>2023-08-01T03:30:38Z</time>
      </trkpt>
      <trkpt lat="42.8193" lon="-0.15676">
        <ele>2180</ele>
        <time>2023-08-01T03:30:45Z</time>
      </trkpt>
      <trkpt lat="42.81934" lon="-0.15686">
        <ele>2176</ele>
        <time>2023-08-01T03:30:57Z</time>
      </trkpt>
      <trkpt lat="42.81935" lon="-0.15692">
        <ele>2174</ele>
        <time>2023-08-01T03:31:03Z</time>
      </trkpt>
      <trkpt lat="42.81941" lon="-0.15698">
        <ele>2171</ele>
        <time>2023-08-01T03:31:13Z</time>
      </trkpt>
      <trkpt lat="42.81944" lon="-0.1571">
        <ele>2167</ele>
        <time>2023-08-01T03:31:25Z</time>
      </trkpt>
      <trkpt lat="42.81942" lon="-0.15718">
        <ele>2165</ele>
        <time>2023-08-01T03:31:33Z</time>
      </trkpt>
      <trkpt lat="42.81945" lon="-0.15727">
        <ele>2162</ele>
        <time>2023-08-01T03:31:43Z</time>
      </trkpt>
      <trkpt lat="42.81949" lon="-0.15729">
        <ele>2160</ele>
        <time>2023-08-01T03:31:49Z</time>
      </trkpt>
      <trkpt lat="42.81951" lon="-0.15738">
        <ele>2157</ele>
        <time>2023-08-01T03:31:58Z</time>
      </trkpt>
      <trkpt lat="42.81958" lon="-0.15733">
        <ele>2156</ele>
        <time>2023-08-01T03:32:08Z</time>
      </trkpt>
      <trkpt lat="42.81971" lon="-0.15727">
        <ele>2154</ele>
        <time>2023-08-01T03:32:27Z</time>
      </trkpt>
      <trkpt lat="42.81982" lon="-0.15725">
        <ele>2151</ele>
        <time>2023-08-01T03:32:41Z</time>
      </trkpt>
      <trkpt lat="42.81998" lon="-0.15716">
        <ele>2148</ele>
        <time>2023-08-01T03:33:05Z</time>
      </trkpt>
      <trkpt lat="42.82011" lon="-0.15714">
        <ele>2145</ele>
        <time>2023-08-01T03:33:22Z</time>
      </trkpt>
      <trkpt lat="42.82017" lon="-0.15717">
        <ele>2143</ele>
        <time>2023-08-01T03:33:31Z</time>
      </trkpt>
      <trkpt lat="42.82022" lon="-0.15715">
        <ele>2142</ele>
        <time>2023-08-01T03:33:38Z</time>
      </trkpt>
      <trkpt lat="42.82028" lon="-0.15705">
        <ele>2142</ele>
        <time>2023-08-01T03:33:50Z</time>
      </trkpt>
      <trkpt lat="42.82038" lon="-0.15699">
        <ele>2139</ele>
        <time>2023-08-01T03:34:05Z</time>
      </trkpt>
      <trkpt lat="42.82044" lon="-0.15688">
        <ele>2138</ele>
        <time>2023-08-01T03:34:18Z</time>
      </trkpt>
      <trkpt lat="42.82054" lon="-0.15684">
        <ele>2134</ele>
        <time>2023-08-01T03:34:32Z</time>
      </trkpt>
      <trkpt lat="42.82071" lon="-0.15685">
        <ele>2127</ele>
        <time>2023-08-01T03:34:55Z</time>
      </trkpt>
      <trkpt lat="42.82088" lon="-0.15676">
        <ele>2121</ele>
        <time>2023-08-01T03:35:19Z</time>
      </trkpt>
      <trkpt lat="42.82159" lon="-0.15629">
        <ele>2103</ele>
        <time>2023-08-01T03:37:04Z</time>
      </trkpt>
      <trkpt lat="42.82199" lon="-0.15622">
        <ele>2100</ele>
        <time>2023-08-01T03:37:58Z</time>
      </trkpt>
      <trkpt lat="42.82207" lon="-0.15614">
        <ele>2098</ele>
        <time>2023-08-01T03:38:11Z</time>
      </trkpt>
      <trkpt lat="42.82226" lon="-0.15608">
        <ele>2097</ele>
        <time>2023-08-01T03:38:38Z</time>
      </trkpt>
      <trkpt lat="42.82237" lon="-0.15602">
        <ele>2095</ele>
        <time>2023-08-01T03:38:53Z</time>
      </trkpt>
      <trkpt lat="42.82246" lon="-0.15594">
        <ele>2093</ele>
        <time>2023-08-01T03:39:08Z</time>
      </trkpt>
      <trkpt lat="42.82265" lon="-0.15592">
        <ele>2092</ele>
        <time>2023-08-01T03:39:33Z</time>
      </trkpt>
      <trkpt lat="42.82275" lon="-0.15586">
        <ele>2089</ele>
        <time>2023-08-01T03:39:48Z</time>
      </trkpt>
      <trkpt lat="42.82304" lon="-0.15579">
        <ele>2085</ele>
        <time>2023-08-01T03:40:27Z</time>
      </trkpt>
      <trkpt lat="42.82309" lon="-0.15576">
        <ele>2085</ele>
        <time>2023-08-01T03:40:34Z</time>
      </trkpt>
      <trkpt lat="42.82313" lon="-0.15578">
        <ele>2084</ele>
        <time>2023-08-01T03:40:40Z</time>
      </trkpt>
      <trkpt lat="42.82343" lon="-0.15567">
        <ele>2079</ele>
        <time>2023-08-01T03:41:21Z</time>
      </trkpt>
      <trkpt lat="42.82352" lon="-0.15559">
        <ele>2077</ele>
        <time>2023-08-01T03:41:36Z</time>
      </trkpt>
      <trkpt lat="42.82369" lon="-0.15555">
        <ele>2072</ele>
        <time>2023-08-01T03:41:59Z</time>
      </trkpt>
      <trkpt lat="42.82383" lon="-0.15546">
        <ele>2067</ele>
        <time>2023-08-01T03:42:19Z</time>
      </trkpt>
      <trkpt lat="42.824" lon="-0.15521">
        <ele>2058</ele>
        <time>2023-08-01T03:42:53Z</time>
      </trkpt>
      <trkpt lat="42.82409" lon="-0.15513">
        <ele>2054</ele>
        <time>2023-08-01T03:43:07Z</time>
      </trkpt>
      <trkpt lat="42.82425" lon="-0.15505">
        <ele>2048</ele>
        <time>2023-08-01T03:43:30Z</time>
      </trkpt>
      <trkpt lat="42.82495" lon="-0.15494">
        <ele>2030</ele>
        <time>2023-08-01T03:45:04Z</time>
      </trkpt>
      <trkpt lat="42.82501" lon="-0.15496">
        <ele>2029</ele>
        <time>2023-08-01T03:45:12Z</time>
      </trkpt>
      <trkpt lat="42.82548" lon="-0.15494">
        <ele>2024</ele>
        <time>2023-08-01T03:46:15Z</time>
      </trkpt>
      <trkpt lat="42.82558" lon="-0.15496">
        <ele>2023</ele>
        <time>2023-08-01T03:46:28Z</time>
      </trkpt>
      <trkpt lat="42.82566" lon="-0.1549">
        <ele>2022</ele>
        <time>2023-08-01T03:46:41Z</time>
      </trkpt>
      <trkpt lat="42.82573" lon="-0.15481">
        <ele>2021</ele>
        <time>2023-08-01T03:46:53Z</time>
      </trkpt>
      <trkpt lat="42.82585" lon="-0.15477">
        <ele>2019</ele>
        <time>2023-08-01T03:47:10Z</time>
      </trkpt>
      <trkpt lat="42.8263" lon="-0.15478">
        <ele>2015</ele>
        <time>2023-08-01T03:48:10Z</time>
      </trkpt>
      <trkpt lat="42.82663" lon="-0.15486">
        <ele>2013</ele>
        <time>2023-08-01T03:48:55Z</time>
      </trkpt>
      <trkpt lat="42.82677" lon="-0.15479">
        <ele>2011</ele>
        <time>2023-08-01T03:49:15Z</time>
      </trkpt>
      <trkpt lat="42.8269" lon="-0.15476">
        <ele>2010</ele>
        <time>2023-08-01T03:49:32Z</time>
      </trkpt>
      <trkpt lat="42.82702" lon="-0.15469">
        <ele>2008</ele>
        <time>2023-08-01T03:49:50Z</time>
      </trkpt>
      <trkpt lat="42.82721" lon="-0.15467">
        <ele>2006</ele>
        <time>2023-08-01T03:50:15Z</time>
      </trkpt>
      <trkpt lat="42.82734" lon="-0.15464">
        <ele>2005</ele>
        <time>2023-08-01T03:50:33Z</time>
      </trkpt>
      <trkpt lat="42.82763" lon="-0.15464">
        <ele>2003</ele>
        <time>2023-08-01T03:51:11Z</time>
      </trkpt>
      <trkpt lat="42.82805" lon="-0.15473">
        <ele>2002</ele>
        <time>2023-08-01T03:52:08Z</time>
      </trkpt>
      <trkpt lat="42.82864" lon="-0.15519">
        <ele>2002</ele>
        <time>2023-08-01T03:53:39Z</time>
      </trkpt>
      <trkpt lat="42.82894" lon="-0.15535">
        <ele>2000</ele>
        <time>2023-08-01T03:54:22Z</time>
      </trkpt>
      <trkpt lat="42.82929" lon="-0.15538">
        <ele>1997</ele>
        <time>2023-08-01T03:55:09Z</time>
      </trkpt>
      <trkpt lat="42.8298" lon="-0.15532">
        <ele>1994</ele>
        <time>2023-08-01T03:56:17Z</time>
      </trkpt>
      <trkpt lat="42.83006" lon="-0.15537">
        <ele>1993</ele>
        <time>2023-08-01T03:56:52Z</time>
      </trkpt>
      <trkpt lat="42.83017" lon="-0.15536">
        <ele>1993</ele>
        <time>2023-08-01T03:57:07Z</time>
      </trkpt>
      <trkpt lat="42.83063" lon="-0.15519">
        <ele>1990</ele>
        <time>2023-08-01T03:58:10Z</time>
      </trkpt>
      <trkpt lat="42.8307" lon="-0.15519">
        <ele>1990</ele>
        <time>2023-08-01T03:58:20Z</time>
      </trkpt>
      <trkpt lat="42.8308" lon="-0.15526">
        <ele>1990</ele>
        <time>2023-08-01T03:58:35Z</time>
      </trkpt>
      <trkpt lat="42.83087" lon="-0.15534">
        <ele>1990</ele>
        <time>2023-08-01T03:58:47Z</time>
      </trkpt>
      <trkpt lat="42.831" lon="-0.15537">
        <ele>1988</ele>
        <time>2023-08-01T03:59:04Z</time>
      </trkpt>
      <trkpt lat="42.83121" lon="-0.15548">
        <ele>1986</ele>
        <time>2023-08-01T03:59:34Z</time>
      </trkpt>
      <trkpt lat="42.83127" lon="-0.15542">
        <ele>1986</ele>
        <time>2023-08-01T03:59:44Z</time>
      </trkpt>
      <trkpt lat="42.83134" lon="-0.15531">
        <ele>1985</ele>
        <time>2023-08-01T03:59:59Z</time>
      </trkpt>
      <trkpt lat="42.83143" lon="-0.15522">
        <ele>1984</ele>
        <time>2023-08-01T04:00:13Z</time>
      </trkpt>
      <trkpt lat="42.83154" lon="-0.15524">
        <ele>1983</ele>
        <time>2023-08-01T04:00:28Z</time>
      </trkpt>
      <trkpt lat="42.8316" lon="-0.15531">
        <ele>1982</ele>
        <time>2023-08-01T04:00:39Z</time>
      </trkpt>
      <trkpt lat="42.83166" lon="-0.15526">
        <ele>1981</ele>
        <time>2023-08-01T04:00:48Z</time>
      </trkpt>
      <trkpt lat="42.83169" lon="-0.15528">
        <ele>1981</ele>
        <time>2023-08-01T04:00:53Z</time>
      </trkpt>
      <trkpt lat="42.83164" lon="-0.15545">
        <ele>1981</ele>
        <time>2023-08-01T04:01:11Z</time>
      </trkpt>
      <trkpt lat="42.83165" lon="-0.15549">
        <ele>1981</ele>
        <time>2023-08-01T04:01:15Z</time>
      </trkpt>
      <trkpt lat="42.83177" lon="-0.15552">
        <ele>1980</ele>
        <time>2023-08-01T04:01:31Z</time>
      </trkpt>
      <trkpt lat="42.83181" lon="-0.15557">
        <ele>1979</ele>
        <time>2023-08-01T04:01:38Z</time>
      </trkpt>
      <trkpt lat="42.83195" lon="-0.15566">
        <ele>1977</ele>
        <time>2023-08-01T04:01:59Z</time>
      </trkpt>
      <trkpt lat="42.8321" lon="-0.15583">
        <ele>1975</ele>
        <time>2023-08-01T04:02:25Z</time>
      </trkpt>
      <trkpt lat="42.83222" lon="-0.15604">
        <ele>1975</ele>
        <time>2023-08-01T04:02:51Z</time>
      </trkpt>
      <trkpt lat="42.83229" lon="-0.15613">
        <ele>1974</ele>
        <time>2023-08-01T04:03:04Z</time>
      </trkpt>
      <trkpt lat="42.83236" lon="-0.15618">
        <ele>1973</ele>
        <time>2023-08-01T04:03:14Z</time>
      </trkpt>
      <trkpt lat="42.83245" lon="-0.15606">
        <ele>1971</ele>
        <time>2023-08-01T04:03:31Z</time>
      </trkpt>
      <trkpt lat="42.8325" lon="-0.15608">
        <ele>1970</ele>
        <time>2023-08-01T04:03:38Z</time>
      </trkpt>
      <trkpt lat="42.83257" lon="-0.15613">
        <ele>1970</ele>
        <time>2023-08-01T04:03:49Z</time>
      </trkpt>
      <trkpt lat="42.83279" lon="-0.1562">
        <ele>1969</ele>
        <time>2023-08-01T04:04:19Z</time>
      </trkpt>
      <trkpt lat="42.83286" lon="-0.15629">
        <ele>1968</ele>
        <time>2023-08-01T04:04:32Z</time>
      </trkpt>
      <trkpt lat="42.83303" lon="-0.15635">
        <ele>1967</ele>
        <time>2023-08-01T04:04:55Z</time>
      </trkpt>
      <trkpt lat="42.83307" lon="-0.15645">
        <ele>1966</ele>
        <time>2023-08-01T04:05:06Z</time>
      </trkpt>
      <trkpt lat="42.83312" lon="-0.1565">
        <ele>1965</ele>
        <time>2023-08-01T04:05:14Z</time>
      </trkpt>
      <trkpt lat="42.83316" lon="-0.15667">
        <ele>1964</ele>
        <time>2023-08-01T04:05:32Z</time>
      </trkpt>
      <trkpt lat="42.83326" lon="-0.15681">
        <ele>1962</ele>
        <time>2023-08-01T04:05:51Z</time>
      </trkpt>
      <trkpt lat="42.8333" lon="-0.15693">
        <ele>1960</ele>
        <time>2023-08-01T04:06:04Z</time>
      </trkpt>
      <trkpt lat="42.83335" lon="-0.15701">
        <ele>1959</ele>
        <time>2023-08-01T04:06:14Z</time>
      </trkpt>
      <trkpt lat="42.8334" lon="-0.15704">
        <ele>1959</ele>
        <time>2023-08-01T04:06:22Z</time>
      </trkpt>
      <trkpt lat="42.83351" lon="-0.15701">
        <ele>1960</ele>
        <time>2023-08-01T04:06:36Z</time>
      </trkpt>
      <trkpt lat="42.8336" lon="-0.15705">
        <ele>1960</ele>
        <time>2023-08-01T04:06:49Z</time>
      </trkpt>
      <trkpt lat="42.83365" lon="-0.15711">
        <ele>1960</ele>
        <time>2023-08-01T04:06:58Z</time>
      </trkpt>
      <trkpt lat="42.83368" lon="-0.1572">
        <ele>1959</ele>
        <time>2023-08-01T04:07:08Z</time>
      </trkpt>
      <trkpt lat="42.83369" lon="-0.1573">
        <ele>1958</ele>
        <time>2023-08-01T04:07:18Z</time>
      </trkpt>
      <trkpt lat="42.83374" lon="-0.1574">
        <ele>1956</ele>
        <time>2023-08-01T04:07:29Z</time>
      </trkpt>
      <trkpt lat="42.83396" lon="-0.15764">
        <ele>1953</ele>
        <time>2023-08-01T04:08:07Z</time>
      </trkpt>
      <trkpt lat="42.83398" lon="-0.15769">
        <ele>1952</ele>
        <time>2023-08-01T04:08:13Z</time>
      </trkpt>
      <trkpt lat="42.83402" lon="-0.15767">
        <ele>1952</ele>
        <time>2023-08-01T04:08:18Z</time>
      </trkpt>
      <trkpt lat="42.8343" lon="-0.15787">
        <ele>1947</ele>
        <time>2023-08-01T04:09:00Z</time>
      </trkpt>
      <trkpt lat="42.83462" lon="-0.15781">
        <ele>1948</ele>
        <time>2023-08-01T04:09:44Z</time>
      </trkpt>
      <trkpt lat="42.83467" lon="-0.15797">
        <ele>1945</ele>
        <time>2023-08-01T04:10:01Z</time>
      </trkpt>
      <trkpt lat="42.83484" lon="-0.15816">
        <ele>1940</ele>
        <time>2023-08-01T04:10:30Z</time>
      </trkpt>
      <trkpt lat="42.83489" lon="-0.15846">
        <ele>1934</ele>
        <time>2023-08-01T04:11:00Z</time>
      </trkpt>
      <trkpt lat="42.8351" lon="-0.15889">
        <ele>1928</ele>
        <time>2023-08-01T04:11:51Z</time>
      </trkpt>
      <trkpt lat="42.83515" lon="-0.15919">
        <ele>1924</ele>
        <time>2023-08-01T04:12:21Z</time>
      </trkpt>
      <trkpt lat="42.83541" lon="-0.15959">
        <ele>1925</ele>
        <time>2023-08-01T04:13:13Z</time>
      </trkpt>
      <trkpt lat="42.83554" lon="-0.16">
        <ele>1921</ele>
        <time>2023-08-01T04:13:57Z</time>
      </trkpt>
      <trkpt lat="42.83568" lon="-0.16025">
        <ele>1919</ele>
        <time>2023-08-01T04:14:27Z</time>
      </trkpt>
      <trkpt lat="42.8357" lon="-0.1608">
        <ele>1911</ele>
        <time>2023-08-01T04:15:21Z</time>
      </trkpt>
      <trkpt lat="42.83583" lon="-0.16106">
        <ele>1900</ele>
        <time>2023-08-01T04:15:52Z</time>
      </trkpt>
      <trkpt lat="42.83617" lon="-0.16135">
        <ele>1894</ele>
        <time>2023-08-01T04:16:46Z</time>
      </trkpt>
      <trkpt lat="42.83618" lon="-0.16171">
        <ele>1879</ele>
        <time>2023-08-01T04:17:21Z</time>
      </trkpt>
      <trkpt lat="42.83638" lon="-0.16201">
        <ele>1868</ele>
        <time>2023-08-01T04:18:01Z</time>
      </trkpt>
      <trkpt lat="42.83647" lon="-0.16227">
        <ele>1857</ele>
        <time>2023-08-01T04:18:29Z</time>
      </trkpt>
      <trkpt lat="42.83671" lon="-0.16242">
        <ele>1850</ele>
        <time>2023-08-01T04:19:04Z</time>
      </trkpt>
      <trkpt lat="42.83668" lon="-0.16256">
        <ele>1842</ele>
        <time>2023-08-01T04:19:18Z</time>
      </trkpt>
      <trkpt lat="42.83677" lon="-0.16288">
        <ele>1828</ele>
        <time>2023-08-01T04:19:52Z</time>
      </trkpt>
      <trkpt lat="42.83692" lon="-0.16301">
        <ele>1822</ele>
        <time>2023-08-01T04:20:15Z</time>
      </trkpt>
      <trkpt lat="42.83682" lon="-0.16322">
        <ele>1812</ele>
        <time>2023-08-01T04:20:40Z</time>
      </trkpt>
      <trkpt lat="42.83686" lon="-0.16345">
        <ele>1803</ele>
        <time>2023-08-01T04:21:03Z</time>
      </trkpt>
      <trkpt lat="42.83698" lon="-0.16343">
        <ele>1803</ele>
        <time>2023-08-01T04:21:19Z</time>
      </trkpt>
      <trkpt lat="42.8372" lon="-0.16355">
        <ele>1798</ele>
        <time>2023-08-01T04:21:51Z</time>
      </trkpt>
      <trkpt lat="42.83745" lon="-0.16404">
        <ele>1775</ele>
        <time>2023-08-01T04:22:49Z</time>
      </trkpt>
      <trkpt lat="42.83741" lon="-0.16436">
        <ele>1764</ele>
        <time>2023-08-01T04:23:21Z</time>
      </trkpt>
      <trkpt lat="42.83758" lon="-0.16454">
        <ele>1754</ele>
        <time>2023-08-01T04:23:50Z</time>
      </trkpt>
      <trkpt lat="42.83756" lon="-0.16479">
        <ele>1745</ele>
        <time>2023-08-01T04:24:14Z</time>
      </trkpt>
      <trkpt lat="42.83765" lon="-0.16482">
        <ele>1741</ele>
        <time>2023-08-01T04:24:27Z</time>
      </trkpt>
      <trkpt lat="42.83769" lon="-0.16501">
        <ele>1733</ele>
        <time>2023-08-01T04:24:46Z</time>
      </trkpt>
      <trkpt lat="42.83778" lon="-0.16502">
        <ele>1730</ele>
        <time>2023-08-01T04:24:58Z</time>
      </trkpt>
      <trkpt lat="42.83782" lon="-0.16512">
        <ele>1726</ele>
        <time>2023-08-01T04:25:09Z</time>
      </trkpt>
      <trkpt lat="42.83789" lon="-0.16518">
        <ele>1723</ele>
        <time>2023-08-01T04:25:20Z</time>
      </trkpt>
      <trkpt lat="42.83786" lon="-0.16526">
        <ele>1721</ele>
        <time>2023-08-01T04:25:29Z</time>
      </trkpt>
      <trkpt lat="42.83793" lon="-0.16533">
        <ele>1717</ele>
        <time>2023-08-01T04:25:41Z</time>
      </trkpt>
      <trkpt lat="42.8379" lon="-0.16539">
        <ele>1716</ele>
        <time>2023-08-01T04:25:48Z</time>
      </trkpt>
      <trkpt lat="42.83801" lon="-0.16549">
        <ele>1711</ele>
        <time>2023-08-01T04:26:05Z</time>
      </trkpt>
      <trkpt lat="42.83809" lon="-0.16567">
        <ele>1703</ele>
        <time>2023-08-01T04:26:26Z</time>
      </trkpt>
      <trkpt lat="42.83818" lon="-0.16571">
        <ele>1699</ele>
        <time>2023-08-01T04:26:39Z</time>
      </trkpt>
      <trkpt lat="42.83821" lon="-0.16587">
        <ele>1694</ele>
        <time>2023-08-01T04:26:55Z</time>
      </trkpt>
      <trkpt lat="42.83807" lon="-0.16599">
        <ele>1696</ele>
        <time>2023-08-01T04:27:17Z</time>
      </trkpt>
      <trkpt lat="42.83803" lon="-0.16605">
        <ele>1696</ele>
        <time>2023-08-01T04:27:25Z</time>
      </trkpt>
      <trkpt lat="42.83796" lon="-0.16628">
        <ele>1694</ele>
        <time>2023-08-01T04:27:49Z</time>
      </trkpt>
      <trkpt lat="42.83792" lon="-0.16668">
        <ele>1689</ele>
        <time>2023-08-01T04:28:29Z</time>
      </trkpt>
      <trkpt lat="42.83781" lon="-0.16684">
        <ele>1692</ele>
        <time>2023-08-01T04:28:50Z</time>
      </trkpt>
      <trkpt lat="42.83774" lon="-0.16692">
        <ele>1694</ele>
        <time>2023-08-01T04:29:02Z</time>
      </trkpt>
      <trkpt lat="42.83766" lon="-0.1669">
        <ele>1696</ele>
        <time>2023-08-01T04:29:13Z</time>
      </trkpt>
      <trkpt lat="42.83726" lon="-0.1665">
        <ele>1711</ele>
        <time>2023-08-01T04:30:19Z</time>
      </trkpt>
      <trkpt lat="42.83719" lon="-0.16651">
        <ele>1713</ele>
        <time>2023-08-01T04:30:29Z</time>
      </trkpt>
      <trkpt lat="42.83714" lon="-0.16657">
        <ele>1714</ele>
        <time>2023-08-01T04:30:38Z</time>
      </trkpt>
      <trkpt lat="42.83715" lon="-0.16667">
        <ele>1712</ele>
        <time>2023-08-01T04:30:48Z</time>
      </trkpt>
      <trkpt lat="42.83722" lon="-0.16685">
        <ele>1710</ele>
        <time>2023-08-01T04:31:07Z</time>
      </trkpt>
      <trkpt lat="42.83728" lon="-0.16723">
        <ele>1709</ele>
        <time>2023-08-01T04:31:46Z</time>
      </trkpt>
      <trkpt lat="42.83724" lon="-0.16731">
        <ele>1711</ele>
        <time>2023-08-01T04:31:55Z</time>
      </trkpt>
      <trkpt lat="42.83713" lon="-0.16736">
        <ele>1715</ele>
        <time>2023-08-01T04:32:10Z</time>
      </trkpt>
      <trkpt lat="42.83706" lon="-0.16742">
        <ele>1718</ele>
        <time>2023-08-01T04:32:22Z</time>
      </trkpt>
      <trkpt lat="42.83697" lon="-0.16766">
        <ele>1722</ele>
        <time>2023-08-01T04:32:48Z</time>
      </trkpt>
      <trkpt lat="42.83696" lon="-0.16781">
        <ele>1723</ele>
        <time>2023-08-01T04:33:03Z</time>
      </trkpt>
      <trkpt lat="42.83709" lon="-0.16825">
        <ele>1724</ele>
        <time>2023-08-01T04:33:49Z</time>
      </trkpt>
      <trkpt lat="42.83705" lon="-0.16837">
        <ele>1725</ele>
        <time>2023-08-01T04:34:02Z</time>
      </trkpt>
      <trkpt lat="42.83681" lon="-0.16874">
        <ele>1727</ele>
        <time>2023-08-01T04:34:50Z</time>
      </trkpt>
      <trkpt lat="42.83661" lon="-0.16919">
        <ele>1727</ele>
        <time>2023-08-01T04:35:42Z</time>
      </trkpt>
      <trkpt lat="42.8365" lon="-0.16953">
        <ele>1728</ele>
        <time>2023-08-01T04:36:18Z</time>
      </trkpt>
      <trkpt lat="42.83641" lon="-0.16993">
        <ele>1729</ele>
        <time>2023-08-01T04:36:59Z</time>
      </trkpt>
      <trkpt lat="42.83624" lon="-0.17011">
        <ele>1729</ele>
        <time>2023-08-01T04:37:28Z</time>
      </trkpt>
      <trkpt lat="42.8358" lon="-0.1707">
        <ele>1726</ele>
        <time>2023-08-01T04:38:50Z</time>
      </trkpt>
      <trkpt lat="42.83576" lon="-0.17085">
        <ele>1725</ele>
        <time>2023-08-01T04:39:06Z</time>
      </trkpt>
      <trkpt lat="42.83578" lon="-0.17109">
        <ele>1726</ele>
        <time>2023-08-01T04:39:29Z</time>
      </trkpt>
      <trkpt lat="42.83579" lon="-0.17168">
        <ele>1728</ele>
        <time>2023-08-01T04:40:27Z</time>
      </trkpt>
      <trkpt lat="42.83577" lon="-0.17178">
        <ele>1728</ele>
        <time>2023-08-01T04:40:37Z</time>
      </trkpt>
      <trkpt lat="42.83574" lon="-0.17188">
        <ele>1728</ele>
        <time>2023-08-01T04:40:48Z</time>
      </trkpt>
      <trkpt lat="42.83562" lon="-0.17201">
        <ele>1729</ele>
        <time>2023-08-01T04:41:08Z</time>
      </trkpt>
      <trkpt lat="42.83531" lon="-0.17209">
        <ele>1733</ele>
        <time>2023-08-01T04:41:50Z</time>
      </trkpt>
      <trkpt lat="42.83471" lon="-0.17231">
        <ele>1740</ele>
        <time>2023-08-01T04:43:13Z</time>
      </trkpt>
      <trkpt lat="42.83409" lon="-0.17279">
        <ele>1737</ele>
        <time>2023-08-01T04:44:48Z</time>
      </trkpt>
      <trkpt lat="42.83381" lon="-0.17289">
        <ele>1736</ele>
        <time>2023-08-01T04:45:27Z</time>
      </trkpt>
      <trkpt lat="42.83335" lon="-0.17294">
        <ele>1737</ele>
        <time>2023-08-01T04:46:29Z</time>
      </trkpt>
      <trkpt lat="42.83309" lon="-0.17287">
        <ele>1739</ele>
        <time>2023-08-01T04:47:04Z</time>
      </trkpt>
      <trkpt lat="42.83244" lon="-0.17314">
        <ele>1735</ele>
        <time>2023-08-01T04:48:35Z</time>
      </trkpt>
      <trkpt lat="42.83239" lon="-0.17318">
        <ele>1734</ele>
        <time>2023-08-01T04:48:42Z</time>
      </trkpt>
      <trkpt lat="42.83214" lon="-0.17323">
        <ele>1735</ele>
        <time>2023-08-01T04:49:16Z</time>
      </trkpt>
      <trkpt lat="42.83205" lon="-0.17329">
        <ele>1733</ele>
        <time>2023-08-01T04:49:30Z</time>
      </trkpt>
      <trkpt lat="42.83177" lon="-0.17338">
        <ele>1733</ele>
        <time>2023-08-01T04:50:08Z</time>
      </trkpt>
      <trkpt lat="42.83149" lon="-0.17351">
        <ele>1738</ele>
        <time>2023-08-01T04:50:47Z</time>
      </trkpt>
      <trkpt lat="42.83134" lon="-0.17379">
        <ele>1739</ele>
        <time>2023-08-01T04:51:21Z</time>
      </trkpt>
      <trkpt lat="42.83133" lon="-0.17388">
        <ele>1738</ele>
        <time>2023-08-01T04:51:30Z</time>
      </trkpt>
      <trkpt lat="42.83136" lon="-0.17403">
        <ele>1737</ele>
        <time>2023-08-01T04:51:45Z</time>
      </trkpt>
      <trkpt lat="42.83134" lon="-0.17409">
        <ele>1736</ele>
        <time>2023-08-01T04:51:52Z</time>
      </trkpt>
      <trkpt lat="42.83121" lon="-0.17422">
        <ele>1736</ele>
        <time>2023-08-01T04:52:13Z</time>
      </trkpt>
      <trkpt lat="42.83105" lon="-0.17449">
        <ele>1739</ele>
        <time>2023-08-01T04:52:47Z</time>
      </trkpt>
      <trkpt lat="42.83071" lon="-0.17516">
        <ele>1744</ele>
        <time>2023-08-01T04:54:07Z</time>
      </trkpt>
      <trkpt lat="42.83064" lon="-0.1752">
        <ele>1744</ele>
        <time>2023-08-01T04:54:17Z</time>
      </trkpt>
      <trkpt lat="42.83044" lon="-0.17536">
        <ele>1743</ele>
        <time>2023-08-01T04:54:48Z</time>
      </trkpt>
      <trkpt lat="42.83026" lon="-0.17555">
        <ele>1740</ele>
        <time>2023-08-01T04:55:19Z</time>
      </trkpt>
      <trkpt lat="42.83005" lon="-0.17587">
        <ele>1733</ele>
        <time>2023-08-01T04:56:01Z</time>
      </trkpt>
      <trkpt lat="42.82966" lon="-0.17613">
        <ele>1734</ele>
        <time>2023-08-01T04:56:59Z</time>
      </trkpt>
      <trkpt lat="42.82957" lon="-0.17628">
        <ele>1734</ele>
        <time>2023-08-01T04:57:18Z</time>
      </trkpt>
      <trkpt lat="42.82935" lon="-0.17656">
        <ele>1732</ele>
        <time>2023-08-01T04:57:58Z</time>
      </trkpt>
      <trkpt lat="42.82907" lon="-0.17703">
        <ele>1734</ele>
        <time>2023-08-01T04:58:57Z</time>
      </trkpt>
      <trkpt lat="42.82892" lon="-0.17724">
        <ele>1737</ele>
        <time>2023-08-01T04:59:26Z</time>
      </trkpt>
      <trkpt lat="42.82878" lon="-0.1774">
        <ele>1737</ele>
        <time>2023-08-01T04:59:50Z</time>
      </trkpt>
      <trkpt lat="42.8287" lon="-0.17765">
        <ele>1740</ele>
        <time>2023-08-01T05:00:17Z</time>
      </trkpt>
      <trkpt lat="42.82863" lon="-0.17776">
        <ele>1741</ele>
        <time>2023-08-01T05:00:31Z</time>
      </trkpt>
      <trkpt lat="42.82837" lon="-0.17808">
        <ele>1739</ele>
        <time>2023-08-01T05:01:18Z</time>
      </trkpt>
      <trkpt lat="42.828" lon="-0.17859">
        <ele>1745</ele>
        <time>2023-08-01T05:02:28Z</time>
      </trkpt>
      <trkpt lat="42.82801" lon="-0.17864">
        <ele>1747</ele>
        <time>2023-08-01T05:02:33Z</time>
      </trkpt>
      <trkpt lat="42.82822" lon="-0.17867">
        <ele>1751</ele>
        <time>2023-08-01T05:03:01Z</time>
      </trkpt>
      <trkpt lat="42.82843" lon="-0.17862">
        <ele>1756</ele>
        <time>2023-08-01T05:03:30Z</time>
      </trkpt>
      <trkpt lat="42.82854" lon="-0.17862">
        <ele>1761</ele>
        <time>2023-08-01T05:03:44Z</time>
      </trkpt>
      <trkpt lat="42.82854" lon="-0.17872">
        <ele>1765</ele>
        <time>2023-08-01T05:03:54Z</time>
      </trkpt>
      <trkpt lat="42.82803" lon="-0.17928">
        <ele>1767</ele>
        <time>2023-08-01T05:05:21Z</time>
      </trkpt>
      <trkpt lat="42.82774" lon="-0.17956">
        <ele>1769</ele>
        <time>2023-08-01T05:06:09Z</time>
      </trkpt>
      <trkpt lat="42.82758" lon="-0.17967">
        <ele>1769</ele>
        <time>2023-08-01T05:06:33Z</time>
      </trkpt>
      <trkpt lat="42.82752" lon="-0.17969">
        <ele>1767</ele>
        <time>2023-08-01T05:06:41Z</time>
      </trkpt>
      <trkpt lat="42.82747" lon="-0.17975">
        <ele>1769</ele>
        <time>2023-08-01T05:06:50Z</time>
      </trkpt>
      <trkpt lat="42.82753" lon="-0.17984">
        <ele>1773</ele>
        <time>2023-08-01T05:07:02Z</time>
      </trkpt>
      <trkpt lat="42.82754" lon="-0.17993">
        <ele>1777</ele>
        <time>2023-08-01T05:07:11Z</time>
      </trkpt>
      <trkpt lat="42.82731" lon="-0.18008">
        <ele>1778</ele>
        <time>2023-08-01T05:07:45Z</time>
      </trkpt>
      <trkpt lat="42.82716" lon="-0.1806">
        <ele>1788</ele>
        <time>2023-08-01T05:08:39Z</time>
      </trkpt>
      <trkpt lat="42.82706" lon="-0.18084">
        <ele>1791</ele>
        <time>2023-08-01T05:09:06Z</time>
      </trkpt>
      <trkpt lat="42.82689" lon="-0.18101">
        <ele>1791</ele>
        <time>2023-08-01T05:09:35Z</time>
      </trkpt>
      <trkpt lat="42.82659" lon="-0.18137">
        <ele>1792</ele>
        <time>2023-08-01T05:10:28Z</time>
      </trkpt>
      <trkpt lat="42.82648" lon="-0.18161">
        <ele>1795</ele>
        <time>2023-08-01T05:10:56Z</time>
      </trkpt>
      <trkpt lat="42.82645" lon="-0.18173">
        <ele>1798</ele>
        <time>2023-08-01T05:11:08Z</time>
      </trkpt>
      <trkpt lat="42.82612" lon="-0.18194">
        <ele>1796</ele>
        <time>2023-08-01T05:11:57Z</time>
      </trkpt>
      <trkpt lat="42.82586" lon="-0.1822">
        <ele>1797</ele>
        <time>2023-08-01T05:12:40Z</time>
      </trkpt>
      <trkpt lat="42.82548" lon="-0.18267">
        <ele>1801</ele>
        <time>2023-08-01T05:13:48Z</time>
      </trkpt>
      <trkpt lat="42.82536" lon="-0.18288">
        <ele>1801</ele>
        <time>2023-08-01T05:14:14Z</time>
      </trkpt>
      <trkpt lat="42.82535" lon="-0.18303">
        <ele>1802</ele>
        <time>2023-08-01T05:14:29Z</time>
      </trkpt>
      <trkpt lat="42.8253" lon="-0.1832">
        <ele>1803</ele>
        <time>2023-08-01T05:14:47Z</time>
      </trkpt>
      <trkpt lat="42.82515" lon="-0.18337">
        <ele>1801</ele>
        <time>2023-08-01T05:15:13Z</time>
      </trkpt>
      <trkpt lat="42.82499" lon="-0.18346">
        <ele>1799</ele>
        <time>2023-08-01T05:15:36Z</time>
      </trkpt>
      <trkpt lat="42.8247" lon="-0.18346">
        <ele>1797</ele>
        <time>2023-08-01T05:16:15Z</time>
      </trkpt>
      <trkpt lat="42.82461" lon="-0.18381">
        <ele>1803</ele>
        <time>2023-08-01T05:16:51Z</time>
      </trkpt>
      <trkpt lat="42.82445" lon="-0.18394">
        <ele>1803</ele>
        <time>2023-08-01T05:17:16Z</time>
      </trkpt>
      <trkpt lat="42.82436" lon="-0.18389">
        <ele>1801</ele>
        <time>2023-08-01T05:17:29Z</time>
      </trkpt>
      <trkpt lat="42.82419" lon="-0.18397">
        <ele>1799</ele>
        <time>2023-08-01T05:17:53Z</time>
      </trkpt>
      <trkpt lat="42.82408" lon="-0.18414">
        <ele>1799</ele>
        <time>2023-08-01T05:18:15Z</time>
      </trkpt>
      <trkpt lat="42.82392" lon="-0.18434">
        <ele>1800</ele>
        <time>2023-08-01T05:18:44Z</time>
      </trkpt>
      <trkpt lat="42.82371" lon="-0.1848">
        <ele>1804</ele>
        <time>2023-08-01T05:19:37Z</time>
      </trkpt>
      <trkpt lat="42.82321" lon="-0.18524">
        <ele>1806</ele>
        <time>2023-08-01T05:20:56Z</time>
      </trkpt>
      <trkpt lat="42.823" lon="-0.18533">
        <ele>1808</ele>
        <time>2023-08-01T05:21:26Z</time>
      </trkpt>
      <trkpt lat="42.82283" lon="-0.18531">
        <ele>1807</ele>
        <time>2023-08-01T05:21:49Z</time>
      </trkpt>
      <trkpt lat="42.82239" lon="-0.18558">
        <ele>1815</ele>
        <time>2023-08-01T05:22:53Z</time>
      </trkpt>
      <trkpt lat="42.8221" lon="-0.18565">
        <ele>1814</ele>
        <time>2023-08-01T05:23:32Z</time>
      </trkpt>
      <trkpt lat="42.82189" lon="-0.18579">
        <ele>1814</ele>
        <time>2023-08-01T05:24:03Z</time>
      </trkpt>
      <trkpt lat="42.8217" lon="-0.18595">
        <ele>1813</ele>
        <time>2023-08-01T05:24:33Z</time>
      </trkpt>
      <trkpt lat="42.82154" lon="-0.18618">
        <ele>1816</ele>
        <time>2023-08-01T05:25:04Z</time>
      </trkpt>
      <trkpt lat="42.82145" lon="-0.18648">
        <ele>1819</ele>
        <time>2023-08-01T05:25:36Z</time>
      </trkpt>
      <trkpt lat="42.8213" lon="-0.18683">
        <ele>1821</ele>
        <time>2023-08-01T05:26:16Z</time>
      </trkpt>
      <trkpt lat="42.82117" lon="-0.18705">
        <ele>1823</ele>
        <time>2023-08-01T05:26:43Z</time>
      </trkpt>
      <trkpt lat="42.8211" lon="-0.18735">
        <ele>1827</ele>
        <time>2023-08-01T05:27:14Z</time>
      </trkpt>
      <trkpt lat="42.82057" lon="-0.18796">
        <ele>1827</ele>
        <time>2023-08-01T05:28:47Z</time>
      </trkpt>
      <trkpt lat="42.8205" lon="-0.18819">
        <ele>1828</ele>
        <time>2023-08-01T05:29:11Z</time>
      </trkpt>
      <trkpt lat="42.82039" lon="-0.18836">
        <ele>1828</ele>
        <time>2023-08-01T05:29:33Z</time>
      </trkpt>
      <trkpt lat="42.82002" lon="-0.18879">
        <ele>1823</ele>
        <time>2023-08-01T05:30:38Z</time>
      </trkpt>
      <trkpt lat="42.81978" lon="-0.18922">
        <ele>1822</ele>
        <time>2023-08-01T05:31:31Z</time>
      </trkpt>
      <trkpt lat="42.81973" lon="-0.18944">
        <ele>1824</ele>
        <time>2023-08-01T05:31:54Z</time>
      </trkpt>
      <trkpt lat="42.81956" lon="-0.18992">
        <ele>1826</ele>
        <time>2023-08-01T05:32:46Z</time>
      </trkpt>
      <trkpt lat="42.81933" lon="-0.19035">
        <ele>1828</ele>
        <time>2023-08-01T05:33:38Z</time>
      </trkpt>
      <trkpt lat="42.81927" lon="-0.19061">
        <ele>1830</ele>
        <time>2023-08-01T05:34:04Z</time>
      </trkpt>
      <trkpt lat="42.81933" lon="-0.19118">
        <ele>1836</ele>
        <time>2023-08-01T05:35:01Z</time>
      </trkpt>
      <trkpt lat="42.81929" lon="-0.19143">
        <ele>1837</ele>
        <time>2023-08-01T05:35:26Z</time>
      </trkpt>
      <trkpt lat="42.81923" lon="-0.19164">
        <ele>1836</ele>
        <time>2023-08-01T05:35:48Z</time>
      </trkpt>
      <trkpt lat="42.81908" lon="-0.19183">
        <ele>1836</ele>
        <time>2023-08-01T05:36:15Z</time>
      </trkpt>
      <trkpt lat="42.81908" lon="-0.19188">
        <ele>1836</ele>
        <time>2023-08-01T05:36:20Z</time>
      </trkpt>
      <trkpt lat="42.81919" lon="-0.19206">
        <ele>1838</ele>
        <time>2023-08-01T05:36:43Z</time>
      </trkpt>
      <trkpt lat="42.8192" lon="-0.19226">
        <ele>1840</ele>
        <time>2023-08-01T05:37:03Z</time>
      </trkpt>
      <trkpt lat="42.81923" lon="-0.19237">
        <ele>1841</ele>
        <time>2023-08-01T05:37:14Z</time>
      </trkpt>
      <trkpt lat="42.81923" lon="-0.19249">
        <ele>1842</ele>
        <time>2023-08-01T05:37:26Z</time>
      </trkpt>
      <trkpt lat="42.81921" lon="-0.19258">
        <ele>1842</ele>
        <time>2023-08-01T05:37:35Z</time>
      </trkpt>
      <trkpt lat="42.8192" lon="-0.19269">
        <ele>1843</ele>
        <time>2023-08-01T05:37:46Z</time>
      </trkpt>
      <trkpt lat="42.81909" lon="-0.19299">
        <ele>1844</ele>
        <time>2023-08-01T05:38:19Z</time>
      </trkpt>
      <trkpt lat="42.81908" lon="-0.19323">
        <ele>1846</ele>
        <time>2023-08-01T05:38:42Z</time>
      </trkpt>
      <trkpt lat="42.81916" lon="-0.19331">
        <ele>1847</ele>
        <time>2023-08-01T05:38:56Z</time>
      </trkpt>
      <trkpt lat="42.81928" lon="-0.19327">
        <ele>1849</ele>
        <time>2023-08-01T05:39:12Z</time>
      </trkpt>
      <trkpt lat="42.81932" lon="-0.1933">
        <ele>1850</ele>
        <time>2023-08-01T05:39:18Z</time>
      </trkpt>
      <trkpt lat="42.81932" lon="-0.19346">
        <ele>1850</ele>
        <time>2023-08-01T05:39:34Z</time>
      </trkpt>
      <trkpt lat="42.81931" lon="-0.19354">
        <ele>1850</ele>
        <time>2023-08-01T05:39:42Z</time>
      </trkpt>
      <trkpt lat="42.81931" lon="-0.19359">
        <ele>1851</ele>
        <time>2023-08-01T05:39:47Z</time>
      </trkpt>
      <trkpt lat="42.81933" lon="-0.1936">
        <ele>1851</ele>
        <time>2023-08-01T05:39:50Z</time>
      </trkpt>
      <trkpt lat="42.81945" lon="-0.19352">
        <ele>1853</ele>
        <time>2023-08-01T05:40:07Z</time>
      </trkpt>
      <trkpt lat="42.81952" lon="-0.1936">
        <ele>1855</ele>
        <time>2023-08-01T05:40:20Z</time>
      </trkpt>
      <trkpt lat="42.8196" lon="-0.19384">
        <ele>1856</ele>
        <time>2023-08-01T05:40:45Z</time>
      </trkpt>
      <trkpt lat="42.81956" lon="-0.19401">
        <ele>1856</ele>
        <time>2023-08-01T05:41:03Z</time>
      </trkpt>
      <trkpt lat="42.81956" lon="-0.19408">
        <ele>1856</ele>
        <time>2023-08-01T05:41:10Z</time>
      </trkpt>
      <trkpt lat="42.81961" lon="-0.1942">
        <ele>1857</ele>
        <time>2023-08-01T05:41:23Z</time>
      </trkpt>
      <trkpt lat="42.8197" lon="-0.19439">
        <ele>1860</ele>
        <time>2023-08-01T05:41:45Z</time>
      </trkpt>
      <trkpt lat="42.81978" lon="-0.19446">
        <ele>1861</ele>
        <time>2023-08-01T05:41:58Z</time>
      </trkpt>
      <trkpt lat="42.81983" lon="-0.19458">
        <ele>1862</ele>
        <time>2023-08-01T05:42:12Z</time>
      </trkpt>
      <trkpt lat="42.81986" lon="-0.19462">
        <ele>1863</ele>
        <time>2023-08-01T05:42:17Z</time>
      </trkpt>
      <trkpt lat="42.81988" lon="-0.19473">
        <ele>1864</ele>
        <time>2023-08-01T05:42:28Z</time>
      </trkpt>
      <trkpt lat="42.81991" lon="-0.19478">
        <ele>1864</ele>
        <time>2023-08-01T05:42:35Z</time>
      </trkpt>
      <trkpt lat="42.81988" lon="-0.19473">
        <ele>1864</ele>
        <time>2023-08-01T05:42:41Z</time>
      </trkpt>
      <trkpt lat="42.81986" lon="-0.19462">
        <ele>1863</ele>
        <time>2023-08-01T05:42:52Z</time>
      </trkpt>
      <trkpt lat="42.81983" lon="-0.19458">
        <ele>1862</ele>
        <time>2023-08-01T05:42:58Z</time>
      </trkpt>
      <trkpt lat="42.81983" lon="-0.19476">
        <ele>1863</ele>
        <time>2023-08-01T05:43:15Z</time>
      </trkpt>
      <trkpt lat="42.81986" lon="-0.19522">
        <ele>1864</ele>
        <time>2023-08-01T05:44:00Z</time>
      </trkpt>
      <trkpt lat="42.8198" lon="-0.19535">
        <ele>1864</ele>
        <time>2023-08-01T05:44:15Z</time>
      </trkpt>
      <trkpt lat="42.81965" lon="-0.19546">
        <ele>1863</ele>
        <time>2023-08-01T05:44:38Z</time>
      </trkpt>
      <trkpt lat="42.81937" lon="-0.19561">
        <ele>1860</ele>
        <time>2023-08-01T05:45:18Z</time>
      </trkpt>
      <trkpt lat="42.81928" lon="-0.19577">
        <ele>1860</ele>
        <time>2023-08-01T05:45:38Z</time>
      </trkpt>
      <trkpt lat="42.81921" lon="-0.19586">
        <ele>1859</ele>
        <time>2023-08-01T05:45:51Z</time>
      </trkpt>
      <trkpt lat="42.81905" lon="-0.1962">
        <ele>1858</ele>
        <time>2023-08-01T05:46:30Z</time>
      </trkpt>
      <trkpt lat="42.81896" lon="-0.19623">
        <ele>1858</ele>
        <time>2023-08-01T05:46:43Z</time>
      </trkpt>
      <trkpt lat="42.81892" lon="-0.19618">
        <ele>1858</ele>
        <time>2023-08-01T05:46:50Z</time>
      </trkpt>
      <trkpt lat="42.81885" lon="-0.19614">
        <ele>1858</ele>
        <time>2023-08-01T05:47:00Z</time>
      </trkpt>
      <trkpt lat="42.81882" lon="-0.19615">
        <ele>1858</ele>
        <time>2023-08-01T05:47:04Z</time>
      </trkpt>
      <trkpt lat="42.81878" lon="-0.19625">
        <ele>1858</ele>
        <time>2023-08-01T05:47:15Z</time>
      </trkpt>
      <trkpt lat="42.81878" lon="-0.19636">
        <ele>1859</ele>
        <time>2023-08-01T05:47:26Z</time>
      </trkpt>
      <trkpt lat="42.81876" lon="-0.19639">
        <ele>1859</ele>
        <time>2023-08-01T05:47:30Z</time>
      </trkpt>
      <trkpt lat="42.81858" lon="-0.19665">
        <ele>1862</ele>
        <time>2023-08-01T05:48:05Z</time>
      </trkpt>
      <trkpt lat="42.81855" lon="-0.19675">
        <ele>1863</ele>
        <time>2023-08-01T05:48:16Z</time>
      </trkpt>
      <trkpt lat="42.81856" lon="-0.19699">
        <ele>1865</ele>
        <time>2023-08-01T05:48:39Z</time>
      </trkpt>
      <trkpt lat="42.81863" lon="-0.19728">
        <ele>1866</ele>
        <time>2023-08-01T05:49:09Z</time>
      </trkpt>
      <trkpt lat="42.81862" lon="-0.19748">
        <ele>1868</ele>
        <time>2023-08-01T05:49:29Z</time>
      </trkpt>
      <trkpt lat="42.81844" lon="-0.19799">
        <ele>1877</ele>
        <time>2023-08-01T05:50:24Z</time>
      </trkpt>
      <trkpt lat="42.81841" lon="-0.19819">
        <ele>1880</ele>
        <time>2023-08-01T05:50:44Z</time>
      </trkpt>
      <trkpt lat="42.81842" lon="-0.19831">
        <ele>1881</ele>
        <time>2023-08-01T05:50:56Z</time>
      </trkpt>
      <trkpt lat="42.81838" lon="-0.19845">
        <ele>1882</ele>
        <time>2023-08-01T05:51:11Z</time>
      </trkpt>
      <trkpt lat="42.81825" lon="-0.19894">
        <ele>1888</ele>
        <time>2023-08-01T05:52:02Z</time>
      </trkpt>
      <trkpt lat="42.8182" lon="-0.19932">
        <ele>1891</ele>
        <time>2023-08-01T05:52:39Z</time>
      </trkpt>
      <trkpt lat="42.81809" lon="-0.19959">
        <ele>1896</ele>
        <time>2023-08-01T05:53:10Z</time>
      </trkpt>
      <trkpt lat="42.81806" lon="-0.19973">
        <ele>1897</ele>
        <time>2023-08-01T05:53:24Z</time>
      </trkpt>
      <trkpt lat="42.81798" lon="-0.19985">
        <ele>1899</ele>
        <time>2023-08-01T05:53:40Z</time>
      </trkpt>
      <trkpt lat="42.81793" lon="-0.20019">
        <ele>1901</ele>
        <time>2023-08-01T05:54:14Z</time>
      </trkpt>
      <trkpt lat="42.81801" lon="-0.2004">
        <ele>1899</ele>
        <time>2023-08-01T05:54:37Z</time>
      </trkpt>
      <trkpt lat="42.81797" lon="-0.20096">
        <ele>1900</ele>
        <time>2023-08-01T05:55:32Z</time>
      </trkpt>
      <trkpt lat="42.8179" lon="-0.20101">
        <ele>1902</ele>
        <time>2023-08-01T05:55:43Z</time>
      </trkpt>
      <trkpt lat="42.8178" lon="-0.20098">
        <ele>1906</ele>
        <time>2023-08-01T05:55:56Z</time>
      </trkpt>
      <trkpt lat="42.81776" lon="-0.20101">
        <ele>1907</ele>
        <time>2023-08-01T05:56:02Z</time>
      </trkpt>
      <trkpt lat="42.81773" lon="-0.20115">
        <ele>1907</ele>
        <time>2023-08-01T05:56:17Z</time>
      </trkpt>
      <trkpt lat="42.81763" lon="-0.2015">
        <ele>1907</ele>
        <time>2023-08-01T05:56:53Z</time>
      </trkpt>
      <trkpt lat="42.81733" lon="-0.20189">
        <ele>1913</ele>
        <time>2023-08-01T05:57:49Z</time>
      </trkpt>
      <trkpt lat="42.81693" lon="-0.20226">
        <ele>1917</ele>
        <time>2023-08-01T05:58:53Z</time>
      </trkpt>
      <trkpt lat="42.81665" lon="-0.20254">
        <ele>1918</ele>
        <time>2023-08-01T05:59:40Z</time>
      </trkpt>
      <trkpt lat="42.81632" lon="-0.20272">
        <ele>1929</ele>
        <time>2023-08-01T06:00:27Z</time>
      </trkpt>
      <trkpt lat="42.81628" lon="-0.20283">
        <ele>1930</ele>
        <time>2023-08-01T06:00:39Z</time>
      </trkpt>
      <trkpt lat="42.81628" lon="-0.20295">
        <ele>1930</ele>
        <time>2023-08-01T06:00:51Z</time>
      </trkpt>
      <trkpt lat="42.8163" lon="-0.20301">
        <ele>1929</ele>
        <time>2023-08-01T06:00:57Z</time>
      </trkpt>
      <trkpt lat="42.8163" lon="-0.20307">
        <ele>1929</ele>
        <time>2023-08-01T06:01:03Z</time>
      </trkpt>
      <trkpt lat="42.81624" lon="-0.20335">
        <ele>1930</ele>
        <time>2023-08-01T06:01:32Z</time>
      </trkpt>
      <trkpt lat="42.81622" lon="-0.20376">
        <ele>1933</ele>
        <time>2023-08-01T06:02:12Z</time>
      </trkpt>
      <trkpt lat="42.81618" lon="-0.20394">
        <ele>1934</ele>
        <time>2023-08-01T06:02:30Z</time>
      </trkpt>
      <trkpt lat="42.81617" lon="-0.2042">
        <ele>1936</ele>
        <time>2023-08-01T06:02:56Z</time>
      </trkpt>
      <trkpt lat="42.81617" lon="-0.20427">
        <ele>1937</ele>
        <time>2023-08-01T06:03:03Z</time>
      </trkpt>
      <trkpt lat="42.81617" lon="-0.20429">
        <ele>1938</ele>
        <time>2023-08-01T06:03:05Z</time>
      </trkpt>
      <trkpt lat="42.8165" lon="-0.20415">
        <ele>1936</ele>
        <time>2023-08-01T06:03:51Z</time>
      </trkpt>
      <trkpt lat="42.81664" lon="-0.20423">
        <ele>1938</ele>
        <time>2023-08-01T06:04:11Z</time>
      </trkpt>
      <trkpt lat="42.81666" lon="-0.20433">
        <ele>1940</ele>
        <time>2023-08-01T06:04:21Z</time>
      </trkpt>
      <trkpt lat="42.81677" lon="-0.20441">
        <ele>1944</ele>
        <time>2023-08-01T06:04:38Z</time>
      </trkpt>
      <trkpt lat="42.81686" lon="-0.20453">
        <ele>1949</ele>
        <time>2023-08-01T06:04:54Z</time>
      </trkpt>
      <trkpt lat="42.81677" lon="-0.2049">
        <ele>1958</ele>
        <time>2023-08-01T06:05:33Z</time>
      </trkpt>
      <trkpt lat="42.8168" lon="-0.20503">
        <ele>1963</ele>
        <time>2023-08-01T06:05:46Z</time>
      </trkpt>
      <trkpt lat="42.81699" lon="-0.20501">
        <ele>1966</ele>
        <time>2023-08-01T06:06:11Z</time>
      </trkpt>
      <trkpt lat="42.81731" lon="-0.20506">
        <ele>1976</ele>
        <time>2023-08-01T06:06:54Z</time>
      </trkpt>
      <trkpt lat="42.81774" lon="-0.20506">
        <ele>1985</ele>
        <time>2023-08-01T06:07:52Z</time>
      </trkpt>
      <trkpt lat="42.81754" lon="-0.20554">
        <ele>2001</ele>
        <time>2023-08-01T06:08:46Z</time>
      </trkpt>
      <trkpt lat="42.81802" lon="-0.20523">
        <ele>2000</ele>
        <time>2023-08-01T06:09:57Z</time>
      </trkpt>
      <trkpt lat="42.81775" lon="-0.20584">
        <ele>2022</ele>
        <time>2023-08-01T06:11:06Z</time>
      </trkpt>
      <trkpt lat="42.81703" lon="-0.20694">
        <ele>2047</ele>
        <time>2023-08-01T06:13:31Z</time>
      </trkpt>
      <trkpt lat="42.81675" lon="-0.20732">
        <ele>2051</ele>
        <time>2023-08-01T06:14:23Z</time>
      </trkpt>
      <trkpt lat="42.81659" lon="-0.20735">
        <ele>2045</ele>
        <time>2023-08-01T06:14:45Z</time>
      </trkpt>
      <trkpt lat="42.8164" lon="-0.20753">
        <ele>2045</ele>
        <time>2023-08-01T06:15:16Z</time>
      </trkpt>
      <trkpt lat="42.81618" lon="-0.20846">
        <ele>2064</ele>
        <time>2023-08-01T06:16:52Z</time>
      </trkpt>
      <trkpt lat="42.81709" lon="-0.20796">
        <ele>2096</ele>
        <time>2023-08-01T06:19:02Z</time>
      </trkpt>
      <trkpt lat="42.81689" lon="-0.20844">
        <ele>2103</ele>
        <time>2023-08-01T06:19:57Z</time>
      </trkpt>
      <trkpt lat="42.81656" lon="-0.20974">
        <ele>2128</ele>
        <time>2023-08-01T06:22:11Z</time>
      </trkpt>
      <trkpt lat="42.81693" lon="-0.20946">
        <ele>2136</ele>
        <time>2023-08-01T06:23:08Z</time>
      </trkpt>
      <trkpt lat="42.81662" lon="-0.21066">
        <ele>2158</ele>
        <time>2023-08-01T06:25:12Z</time>
      </trkpt>
      <trkpt lat="42.81715" lon="-0.21014">
        <ele>2172</ele>
        <time>2023-08-01T06:26:39Z</time>
      </trkpt>
      <trkpt lat="42.81709" lon="-0.21083">
        <ele>2187</ele>
        <time>2023-08-01T06:27:47Z</time>
      </trkpt>
      <trkpt lat="42.81701" lon="-0.21099">
        <ele>2186</ele>
        <time>2023-08-01T06:28:06Z</time>
      </trkpt>
      <trkpt lat="42.81699" lon="-0.21136">
        <ele>2194</ele>
        <time>2023-08-01T06:28:43Z</time>
      </trkpt>
      <trkpt lat="42.817" lon="-0.21165">
        <ele>2201</ele>
        <time>2023-08-01T06:29:11Z</time>
      </trkpt>
      <trkpt lat="42.8169" lon="-0.21245">
        <ele>2213</ele>
        <time>2023-08-01T06:30:30Z</time>
      </trkpt>
      <trkpt lat="42.81672" lon="-0.21254">
        <ele>2210</ele>
        <time>2023-08-01T06:30:56Z</time>
      </trkpt>
      <trkpt lat="42.81657" lon="-0.21254">
        <ele>2209</ele>
        <time>2023-08-01T06:31:16Z</time>
      </trkpt>
      <trkpt lat="42.81644" lon="-0.21274">
        <ele>2215</ele>
        <time>2023-08-01T06:31:42Z</time>
      </trkpt>
      <trkpt lat="42.81627" lon="-0.21295">
        <ele>2220</ele>
        <time>2023-08-01T06:32:13Z</time>
      </trkpt>
      <trkpt lat="42.81623" lon="-0.21326">
        <ele>2227</ele>
        <time>2023-08-01T06:32:44Z</time>
      </trkpt>
      <trkpt lat="42.81617" lon="-0.21338">
        <ele>2230</ele>
        <time>2023-08-01T06:32:58Z</time>
      </trkpt>
      <trkpt lat="42.81611" lon="-0.21343">
        <ele>2230</ele>
        <time>2023-08-01T06:33:07Z</time>
      </trkpt>
      <trkpt lat="42.81603" lon="-0.21344">
        <ele>2230</ele>
        <time>2023-08-01T06:33:18Z</time>
      </trkpt>
      <trkpt lat="42.81594" lon="-0.21341">
        <ele>2228</ele>
        <time>2023-08-01T06:33:30Z</time>
      </trkpt>
      <trkpt lat="42.81596" lon="-0.21354">
        <ele>2232</ele>
        <time>2023-08-01T06:33:43Z</time>
      </trkpt>
      <trkpt lat="42.81608" lon="-0.21382">
        <ele>2241</ele>
        <time>2023-08-01T06:34:15Z</time>
      </trkpt>
      <trkpt lat="42.8162" lon="-0.21401">
        <ele>2247</ele>
        <time>2023-08-01T06:34:40Z</time>
      </trkpt>
      <trkpt lat="42.81625" lon="-0.21407">
        <ele>2249</ele>
        <time>2023-08-01T06:34:49Z</time>
      </trkpt>
      <trkpt lat="42.81632" lon="-0.21409">
        <ele>2250</ele>
        <time>2023-08-01T06:34:58Z</time>
      </trkpt>
      <trkpt lat="42.8165" lon="-0.21396">
        <ele>2248</ele>
        <time>2023-08-01T06:35:25Z</time>
      </trkpt>
      <trkpt lat="42.81644" lon="-0.21418">
        <ele>2254</ele>
        <time>2023-08-01T06:35:48Z</time>
      </trkpt>
      <trkpt lat="42.81626" lon="-0.21436">
        <ele>2259</ele>
        <time>2023-08-01T06:36:18Z</time>
      </trkpt>
      <trkpt lat="42.81618" lon="-0.21446">
        <ele>2262</ele>
        <time>2023-08-01T06:36:32Z</time>
      </trkpt>
      <trkpt lat="42.81593" lon="-0.21447">
        <ele>2260</ele>
        <time>2023-08-01T06:37:06Z</time>
      </trkpt>
      <trkpt lat="42.81591" lon="-0.21453">
        <ele>2262</ele>
        <time>2023-08-01T06:37:12Z</time>
      </trkpt>
      <trkpt lat="42.81599" lon="-0.21468">
        <ele>2268</ele>
        <time>2023-08-01T06:37:30Z</time>
      </trkpt>
      <trkpt lat="42.81598" lon="-0.21473">
        <ele>2269</ele>
        <time>2023-08-01T06:37:36Z</time>
      </trkpt>
      <trkpt lat="42.81595" lon="-0.21481">
        <ele>2272</ele>
        <time>2023-08-01T06:37:44Z</time>
      </trkpt>
      <trkpt lat="42.81579" lon="-0.21489">
        <ele>2273</ele>
        <time>2023-08-01T06:38:07Z</time>
      </trkpt>
      <trkpt lat="42.81546" lon="-0.21497">
        <ele>2271</ele>
        <time>2023-08-01T06:38:52Z</time>
      </trkpt>
      <trkpt lat="42.81543" lon="-0.2151">
        <ele>2273</ele>
        <time>2023-08-01T06:39:05Z</time>
      </trkpt>
      <trkpt lat="42.81532" lon="-0.21524">
        <ele>2274</ele>
        <time>2023-08-01T06:39:25Z</time>
      </trkpt>
      <trkpt lat="42.81526" lon="-0.21544">
        <ele>2277</ele>
        <time>2023-08-01T06:39:46Z</time>
      </trkpt>
      <trkpt lat="42.81521" lon="-0.21574">
        <ele>2282</ele>
        <time>2023-08-01T06:40:16Z</time>
      </trkpt>
      <trkpt lat="42.81533" lon="-0.21625">
        <ele>2292</ele>
        <time>2023-08-01T06:41:09Z</time>
      </trkpt>
      <trkpt lat="42.81537" lon="-0.21645">
        <ele>2295</ele>
        <time>2023-08-01T06:41:29Z</time>
      </trkpt>
      <trkpt lat="42.81536" lon="-0.21657">
        <ele>2297</ele>
        <time>2023-08-01T06:41:41Z</time>
      </trkpt>
      <trkpt lat="42.81546" lon="-0.21673">
        <ele>2300</ele>
        <time>2023-08-01T06:42:02Z</time>
      </trkpt>
      <trkpt lat="42.81549" lon="-0.21688">
        <ele>2302</ele>
        <time>2023-08-01T06:42:17Z</time>
      </trkpt>
      <trkpt lat="42.81552" lon="-0.21728">
        <ele>2305</ele>
        <time>2023-08-01T06:42:56Z</time>
      </trkpt>
      <trkpt lat="42.8155" lon="-0.21731">
        <ele>2306</ele>
        <time>2023-08-01T06:43:00Z</time>
      </trkpt>
      <trkpt lat="42.81539" lon="-0.21715">
        <ele>2305</ele>
        <time>2023-08-01T06:43:22Z</time>
      </trkpt>
      <trkpt lat="42.81538" lon="-0.21749">
        <ele>2309</ele>
        <time>2023-08-01T06:43:55Z</time>
      </trkpt>
      <trkpt lat="42.81536" lon="-0.21755">
        <ele>2310</ele>
        <time>2023-08-01T06:44:01Z</time>
      </trkpt>
      <trkpt lat="42.81537" lon="-0.21765">
        <ele>2311</ele>
        <time>2023-08-01T06:44:11Z</time>
      </trkpt>
      <trkpt lat="42.81532" lon="-0.21778">
        <ele>2314</ele>
        <time>2023-08-01T06:44:26Z</time>
      </trkpt>
      <trkpt lat="42.81529" lon="-0.21814">
        <ele>2320</ele>
        <time>2023-08-01T06:45:01Z</time>
      </trkpt>
      <trkpt lat="42.81526" lon="-0.21827">
        <ele>2323</ele>
        <time>2023-08-01T06:45:14Z</time>
      </trkpt>
      <trkpt lat="42.81522" lon="-0.21835">
        <ele>2326</ele>
        <time>2023-08-01T06:45:24Z</time>
      </trkpt>
      <trkpt lat="42.81518" lon="-0.2185">
        <ele>2331</ele>
        <time>2023-08-01T06:45:40Z</time>
      </trkpt>
      <trkpt lat="42.81515" lon="-0.2187">
        <ele>2338</ele>
        <time>2023-08-01T06:46:00Z</time>
      </trkpt>
      <trkpt lat="42.81516" lon="-0.21885">
        <ele>2342</ele>
        <time>2023-08-01T06:46:14Z</time>
      </trkpt>
      <trkpt lat="42.81513" lon="-0.21909">
        <ele>2349</ele>
        <time>2023-08-01T06:46:38Z</time>
      </trkpt>
      <trkpt lat="42.81523" lon="-0.21939">
        <ele>2355</ele>
        <time>2023-08-01T06:47:10Z</time>
      </trkpt>
      <trkpt lat="42.81529" lon="-0.21947">
        <ele>2357</ele>
        <time>2023-08-01T06:47:22Z</time>
      </trkpt>
      <trkpt lat="42.81522" lon="-0.21971">
        <ele>2362</ele>
        <time>2023-08-01T06:47:47Z</time>
      </trkpt>
      <trkpt lat="42.81518" lon="-0.21999">
        <ele>2368</ele>
        <time>2023-08-01T06:48:15Z</time>
      </trkpt>
      <trkpt lat="42.81516" lon="-0.22004">
        <ele>2369</ele>
        <time>2023-08-01T06:48:20Z</time>
      </trkpt>
      <trkpt lat="42.81517" lon="-0.22021">
        <ele>2373</ele>
        <time>2023-08-01T06:48:37Z</time>
      </trkpt>
      <trkpt lat="42.81506" lon="-0.22083">
        <ele>2385</ele>
        <time>2023-08-01T06:49:39Z</time>
      </trkpt>
      <trkpt lat="42.81508" lon="-0.22096">
        <ele>2389</ele>
        <time>2023-08-01T06:49:52Z</time>
      </trkpt>
      <trkpt lat="42.8149" lon="-0.22213">
        <ele>2430</ele>
        <time>2023-08-01T06:51:50Z</time>
      </trkpt>
      <trkpt lat="42.81489" lon="-0.22239">
        <ele>2438</ele>
        <time>2023-08-01T06:52:15Z</time>
      </trkpt>
      <trkpt lat="42.81484" lon="-0.22264">
        <ele>2445</ele>
        <time>2023-08-01T06:52:40Z</time>
      </trkpt>
      <trkpt lat="42.8148" lon="-0.2227">
        <ele>2446</ele>
        <time>2023-08-01T06:52:48Z</time>
      </trkpt>
      <trkpt lat="42.81466" lon="-0.22275">
        <ele>2448</ele>
        <time>2023-08-01T06:53:08Z</time>
      </trkpt>
      <trkpt lat="42.81464" lon="-0.2228">
        <ele>2448</ele>
        <time>2023-08-01T06:53:13Z</time>
      </trkpt>
      <trkpt lat="42.81462" lon="-0.22329">
        <ele>2453</ele>
        <time>2023-08-01T06:54:01Z</time>
      </trkpt>
      <trkpt lat="42.81458" lon="-0.22353">
        <ele>2456</ele>
        <time>2023-08-01T06:54:25Z</time>
      </trkpt>
      <trkpt lat="42.81454" lon="-0.2236">
        <ele>2456</ele>
        <time>2023-08-01T06:54:34Z</time>
      </trkpt>
      <trkpt lat="42.81445" lon="-0.22367">
        <ele>2454</ele>
        <time>2023-08-01T06:54:48Z</time>
      </trkpt>
      <trkpt lat="42.81436" lon="-0.2238">
        <ele>2453</ele>
        <time>2023-08-01T06:55:05Z</time>
      </trkpt>
      <trkpt lat="42.81419" lon="-0.22415">
        <ele>2448</ele>
        <time>2023-08-01T06:55:46Z</time>
      </trkpt>
      <trkpt lat="42.81417" lon="-0.22424">
        <ele>2449</ele>
        <time>2023-08-01T06:55:56Z</time>
      </trkpt>
      <trkpt lat="42.81412" lon="-0.22427">
        <ele>2449</ele>
        <time>2023-08-01T06:56:03Z</time>
      </trkpt>
      <trkpt lat="42.81396" lon="-0.22427">
        <ele>2449</ele>
        <time>2023-08-01T06:56:24Z</time>
      </trkpt>
      <trkpt lat="42.8139" lon="-0.22436">
        <ele>2450</ele>
        <time>2023-08-01T06:56:36Z</time>
      </trkpt>
      <trkpt lat="42.81387" lon="-0.22439">
        <ele>2451</ele>
        <time>2023-08-01T06:56:41Z</time>
      </trkpt>
      <trkpt lat="42.81387" lon="-0.22446">
        <ele>2452</ele>
        <time>2023-08-01T06:56:48Z</time>
      </trkpt>
      <trkpt lat="42.8138" lon="-0.22468">
        <ele>2455</ele>
        <time>2023-08-01T06:57:11Z</time>
      </trkpt>
      <trkpt lat="42.81374" lon="-0.22504">
        <ele>2459</ele>
        <time>2023-08-01T06:57:48Z</time>
      </trkpt>
      <trkpt lat="42.81371" lon="-0.22514">
        <ele>2462</ele>
        <time>2023-08-01T06:57:58Z</time>
      </trkpt>
      <trkpt lat="42.81359" lon="-0.22535">
        <ele>2465</ele>
        <time>2023-08-01T06:58:24Z</time>
      </trkpt>
      <trkpt lat="42.81355" lon="-0.22546">
        <ele>2467</ele>
        <time>2023-08-01T06:58:36Z</time>
      </trkpt>
      <trkpt lat="42.81335" lon="-0.22575">
        <ele>2469</ele>
        <time>2023-08-01T06:59:15Z</time>
      </trkpt>
      <trkpt lat="42.81327" lon="-0.22577">
        <ele>2466</ele>
        <time>2023-08-01T06:59:26Z</time>
      </trkpt>
      <trkpt lat="42.81308" lon="-0.22593">
        <ele>2459</ele>
        <time>2023-08-01T06:59:56Z</time>
      </trkpt>
      <trkpt lat="42.81299" lon="-0.22613">
        <ele>2456</ele>
        <time>2023-08-01T07:00:19Z</time>
      </trkpt>
      <trkpt lat="42.81299" lon="-0.22624">
        <ele>2456</ele>
        <time>2023-08-01T07:00:30Z</time>
      </trkpt>
      <trkpt lat="42.81292" lon="-0.22659">
        <ele>2454</ele>
        <time>2023-08-01T07:01:05Z</time>
      </trkpt>
      <trkpt lat="42.81295" lon="-0.2269">
        <ele>2455</ele>
        <time>2023-08-01T07:01:36Z</time>
      </trkpt>
      <trkpt lat="42.81303" lon="-0.22732">
        <ele>2457</ele>
        <time>2023-08-01T07:02:18Z</time>
      </trkpt>
      <trkpt lat="42.81304" lon="-0.22745">
        <ele>2457</ele>
        <time>2023-08-01T07:02:31Z</time>
      </trkpt>
      <trkpt lat="42.81315" lon="-0.22796">
        <ele>2464</ele>
        <time>2023-08-01T07:03:23Z</time>
      </trkpt>
      <trkpt lat="42.81317" lon="-0.22821">
        <ele>2466</ele>
        <time>2023-08-01T07:03:48Z</time>
      </trkpt>
      <trkpt lat="42.81309" lon="-0.22897">
        <ele>2473</ele>
        <time>2023-08-01T07:05:03Z</time>
      </trkpt>
      <trkpt lat="42.81303" lon="-0.22939">
        <ele>2482</ele>
        <time>2023-08-01T07:05:45Z</time>
      </trkpt>
      <trkpt lat="42.81305" lon="-0.22959">
        <ele>2490</ele>
        <time>2023-08-01T07:06:04Z</time>
      </trkpt>
      <trkpt lat="42.81305" lon="-0.22991">
        <ele>2501</ele>
        <time>2023-08-01T07:06:36Z</time>
      </trkpt>
      <trkpt lat="42.813" lon="-0.2301">
        <ele>2505</ele>
        <time>2023-08-01T07:06:56Z</time>
      </trkpt>
      <trkpt lat="42.81295" lon="-0.23013">
        <ele>2504</ele>
        <time>2023-08-01T07:07:03Z</time>
      </trkpt>
      <trkpt lat="42.81289" lon="-0.23066">
        <ele>2515</ele>
        <time>2023-08-01T07:07:55Z</time>
      </trkpt>
      <trkpt lat="42.81277" lon="-0.23146">
        <ele>2527</ele>
        <time>2023-08-01T07:09:15Z</time>
      </trkpt>
      <trkpt lat="42.81274" lon="-0.23188">
        <ele>2535</ele>
        <time>2023-08-01T07:09:57Z</time>
      </trkpt>
      <trkpt lat="42.81279" lon="-0.23221">
        <ele>2545</ele>
        <time>2023-08-01T07:10:30Z</time>
      </trkpt>
      <trkpt lat="42.8128" lon="-0.23253">
        <ele>2553</ele>
        <time>2023-08-01T07:11:01Z</time>
      </trkpt>
      <trkpt lat="42.81269" lon="-0.23412">
        <ele>2576</ele>
        <time>2023-08-01T07:13:37Z</time>
      </trkpt>
      <trkpt lat="42.8127" lon="-0.23438">
        <ele>2579</ele>
        <time>2023-08-01T07:14:03Z</time>
      </trkpt>
      <trkpt lat="42.81268" lon="-0.23448">
        <ele>2579</ele>
        <time>2023-08-01T07:14:13Z</time>
      </trkpt>
      <trkpt lat="42.81269" lon="-0.23452">
        <ele>2580</ele>
        <time>2023-08-01T07:14:17Z</time>
      </trkpt>
      <trkpt lat="42.81275" lon="-0.23461">
        <ele>2584</ele>
        <time>2023-08-01T07:14:29Z</time>
      </trkpt>
      <trkpt lat="42.81272" lon="-0.23473">
        <ele>2583</ele>
        <time>2023-08-01T07:14:41Z</time>
      </trkpt>
      <trkpt lat="42.81272" lon="-0.23499">
        <ele>2586</ele>
        <time>2023-08-01T07:15:07Z</time>
      </trkpt>
      <trkpt lat="42.81269" lon="-0.23509">
        <ele>2586</ele>
        <time>2023-08-01T07:15:17Z</time>
      </trkpt>
      <trkpt lat="42.81269" lon="-0.2352">
        <ele>2588</ele>
        <time>2023-08-01T07:15:28Z</time>
      </trkpt>
      <trkpt lat="42.8127" lon="-0.23569">
        <ele>2596</ele>
        <time>2023-08-01T07:16:16Z</time>
      </trkpt>
      <trkpt lat="42.81269" lon="-0.23586">
        <ele>2599</ele>
        <time>2023-08-01T07:16:33Z</time>
      </trkpt>
      <trkpt lat="42.81277" lon="-0.23616">
        <ele>2606</ele>
        <time>2023-08-01T07:17:04Z</time>
      </trkpt>
      <trkpt lat="42.81277" lon="-0.23635">
        <ele>2608</ele>
        <time>2023-08-01T07:17:23Z</time>
      </trkpt>
      <trkpt lat="42.81279" lon="-0.23649">
        <ele>2611</ele>
        <time>2023-08-01T07:17:37Z</time>
      </trkpt>
      <trkpt lat="42.81283" lon="-0.23657">
        <ele>2614</ele>
        <time>2023-08-01T07:17:46Z</time>
      </trkpt>
      <trkpt lat="42.8128" lon="-0.23694">
        <ele>2618</ele>
        <time>2023-08-01T07:18:23Z</time>
      </trkpt>
      <trkpt lat="42.81282" lon="-0.23717">
        <ele>2623</ele>
        <time>2023-08-01T07:18:45Z</time>
      </trkpt>
      <trkpt lat="42.81292" lon="-0.23752">
        <ele>2634</ele>
        <time>2023-08-01T07:19:22Z</time>
      </trkpt>
      <trkpt lat="42.81297" lon="-0.23785">
        <ele>2642</ele>
        <time>2023-08-01T07:19:55Z</time>
      </trkpt>
      <trkpt lat="42.81299" lon="-0.23821">
        <ele>2650</ele>
        <time>2023-08-01T07:20:30Z</time>
      </trkpt>
      <trkpt lat="42.81309" lon="-0.23858">
        <ele>2657</ele>
        <time>2023-08-01T07:21:09Z</time>
      </trkpt>
      <trkpt lat="42.81312" lon="-0.23895">
        <ele>2663</ele>
        <time>2023-08-01T07:21:45Z</time>
      </trkpt>
      <trkpt lat="42.81318" lon="-0.23904">
        <ele>2664</ele>
        <time>2023-08-01T07:21:57Z</time>
      </trkpt>
      <trkpt lat="42.81323" lon="-0.23919">
        <ele>2665</ele>
        <time>2023-08-01T07:22:13Z</time>
      </trkpt>
      <trkpt lat="42.81324" lon="-0.2393">
        <ele>2664</ele>
        <time>2023-08-01T07:22:24Z</time>
      </trkpt>
      <trkpt lat="42.81319" lon="-0.23931">
        <ele>2663</ele>
        <time>2023-08-01T07:22:31Z</time>
      </trkpt>
      <trkpt lat="42.81316" lon="-0.2393">
        <ele>2663</ele>
        <time>2023-08-01T07:22:35Z</time>
      </trkpt>
      <trkpt lat="42.81319" lon="-0.23931">
        <ele>2663</ele>
        <time>2023-08-01T07:22:39Z</time>
      </trkpt>
      <trkpt lat="42.81291" lon="-0.23996">
        <ele>2651</ele>
        <time>2023-08-01T07:23:53Z</time>
      </trkpt>
      <trkpt lat="42.81267" lon="-0.24041">
        <ele>2637</ele>
        <time>2023-08-01T07:24:48Z</time>
      </trkpt>
      <trkpt lat="42.81245" lon="-0.24051">
        <ele>2635</ele>
        <time>2023-08-01T07:25:18Z</time>
      </trkpt>
      <trkpt lat="42.81226" lon="-0.24124">
        <ele>2620</ele>
        <time>2023-08-01T07:26:34Z</time>
      </trkpt>
      <trkpt lat="42.81241" lon="-0.24158">
        <ele>2604</ele>
        <time>2023-08-01T07:27:13Z</time>
      </trkpt>
      <trkpt lat="42.81212" lon="-0.24226">
        <ele>2578</ele>
        <time>2023-08-01T07:28:30Z</time>
      </trkpt>
      <trkpt lat="42.81199" lon="-0.24246">
        <ele>2569</ele>
        <time>2023-08-01T07:28:56Z</time>
      </trkpt>
      <trkpt lat="42.81194" lon="-0.24261">
        <ele>2563</ele>
        <time>2023-08-01T07:29:12Z</time>
      </trkpt>
      <trkpt lat="42.81163" lon="-0.24296">
        <ele>2551</ele>
        <time>2023-08-01T07:30:06Z</time>
      </trkpt>
      <trkpt lat="42.81149" lon="-0.24326">
        <ele>2546</ele>
        <time>2023-08-01T07:30:41Z</time>
      </trkpt>
      <trkpt lat="42.81135" lon="-0.2438">
        <ele>2546</ele>
        <time>2023-08-01T07:31:37Z</time>
      </trkpt>
      <trkpt lat="42.81132" lon="-0.24412">
        <ele>2545</ele>
        <time>2023-08-01T07:32:09Z</time>
      </trkpt>
      <trkpt lat="42.81134" lon="-0.24433">
        <ele>2543</ele>
        <time>2023-08-01T07:32:29Z</time>
      </trkpt>
      <trkpt lat="42.81143" lon="-0.2446">
        <ele>2539</ele>
        <time>2023-08-01T07:32:58Z</time>
      </trkpt>
      <trkpt lat="42.81145" lon="-0.24472">
        <ele>2539</ele>
        <time>2023-08-01T07:33:10Z</time>
      </trkpt>
      <trkpt lat="42.81141" lon="-0.24483">
        <ele>2542</ele>
        <time>2023-08-01T07:33:22Z</time>
      </trkpt>
      <trkpt lat="42.81146" lon="-0.24511">
        <ele>2539</ele>
        <time>2023-08-01T07:33:51Z</time>
      </trkpt>
      <trkpt lat="42.81146" lon="-0.24527">
        <ele>2539</ele>
        <time>2023-08-01T07:34:06Z</time>
      </trkpt>
      <trkpt lat="42.81151" lon="-0.24554">
        <ele>2534</ele>
        <time>2023-08-01T07:34:34Z</time>
      </trkpt>
      <trkpt lat="42.81149" lon="-0.24568">
        <ele>2535</ele>
        <time>2023-08-01T07:34:48Z</time>
      </trkpt>
      <trkpt lat="42.81154" lon="-0.24636">
        <ele>2521</ele>
        <time>2023-08-01T07:35:54Z</time>
      </trkpt>
      <trkpt lat="42.8115" lon="-0.24656">
        <ele>2520</ele>
        <time>2023-08-01T07:36:15Z</time>
      </trkpt>
      <trkpt lat="42.81134" lon="-0.24708">
        <ele>2507</ele>
        <time>2023-08-01T07:37:10Z</time>
      </trkpt>
      <trkpt lat="42.81134" lon="-0.24723">
        <ele>2500</ele>
        <time>2023-08-01T07:37:25Z</time>
      </trkpt>
      <trkpt lat="42.81122" lon="-0.24739">
        <ele>2496</ele>
        <time>2023-08-01T07:37:47Z</time>
      </trkpt>
      <trkpt lat="42.81125" lon="-0.2475">
        <ele>2490</ele>
        <time>2023-08-01T07:37:58Z</time>
      </trkpt>
      <trkpt lat="42.81123" lon="-0.24754">
        <ele>2488</ele>
        <time>2023-08-01T07:38:03Z</time>
      </trkpt>
      <trkpt lat="42.81129" lon="-0.24757">
        <ele>2485</ele>
        <time>2023-08-01T07:38:12Z</time>
      </trkpt>
      <trkpt lat="42.81124" lon="-0.24801">
        <ele>2461</ele>
        <time>2023-08-01T07:38:55Z</time>
      </trkpt>
      <trkpt lat="42.81123" lon="-0.24836">
        <ele>2442</ele>
        <time>2023-08-01T07:39:30Z</time>
      </trkpt>
      <trkpt lat="42.81131" lon="-0.24866">
        <ele>2431</ele>
        <time>2023-08-01T07:40:01Z</time>
      </trkpt>
      <trkpt lat="42.8113" lon="-0.24879">
        <ele>2427</ele>
        <time>2023-08-01T07:40:14Z</time>
      </trkpt>
      <trkpt lat="42.81135" lon="-0.24894">
        <ele>2421</ele>
        <time>2023-08-01T07:40:30Z</time>
      </trkpt>
      <trkpt lat="42.81133" lon="-0.24911">
        <ele>2416</ele>
        <time>2023-08-01T07:40:47Z</time>
      </trkpt>
      <trkpt lat="42.81115" lon="-0.24967">
        <ele>2402</ele>
        <time>2023-08-01T07:41:47Z</time>
      </trkpt>
      <trkpt lat="42.81098" lon="-0.25149">
        <ele>2363</ele>
        <time>2023-08-01T07:44:46Z</time>
      </trkpt>
      <trkpt lat="42.81105" lon="-0.25176">
        <ele>2362</ele>
        <time>2023-08-01T07:45:14Z</time>
      </trkpt>
      <trkpt lat="42.8111" lon="-0.25188">
        <ele>2361</ele>
        <time>2023-08-01T07:45:28Z</time>
      </trkpt>
      <trkpt lat="42.81109" lon="-0.25339">
        <ele>2329</ele>
        <time>2023-08-01T07:47:55Z</time>
      </trkpt>
      <trkpt lat="42.81117" lon="-0.25478">
        <ele>2306</ele>
        <time>2023-08-01T07:50:12Z</time>
      </trkpt>
      <trkpt lat="42.81115" lon="-0.25584">
        <ele>2297</ele>
        <time>2023-08-01T07:51:56Z</time>
      </trkpt>
      <trkpt lat="42.8114" lon="-0.25623">
        <ele>2292</ele>
        <time>2023-08-01T07:52:46Z</time>
      </trkpt>
      <trkpt lat="42.81145" lon="-0.2567">
        <ele>2287</ele>
        <time>2023-08-01T07:53:33Z</time>
      </trkpt>
      <trkpt lat="42.8117" lon="-0.25733">
        <ele>2278</ele>
        <time>2023-08-01T07:54:43Z</time>
      </trkpt>
      <trkpt lat="42.81213" lon="-0.25871">
        <ele>2260</ele>
        <time>2023-08-01T07:57:10Z</time>
      </trkpt>
      <trkpt lat="42.81217" lon="-0.25962">
        <ele>2249</ele>
        <time>2023-08-01T07:58:39Z</time>
      </trkpt>
      <trkpt lat="42.81224" lon="-0.25983">
        <ele>2247</ele>
        <time>2023-08-01T07:59:02Z</time>
      </trkpt>
      <trkpt lat="42.81226" lon="-0.26045">
        <ele>2244</ele>
        <time>2023-08-01T08:00:02Z</time>
      </trkpt>
      <trkpt lat="42.81266" lon="-0.26122">
        <ele>2236</ele>
        <time>2023-08-01T08:01:35Z</time>
      </trkpt>
      <trkpt lat="42.81259" lon="-0.26188">
        <ele>2230</ele>
        <time>2023-08-01T08:02:40Z</time>
      </trkpt>
      <trkpt lat="42.81315" lon="-0.26332">
        <ele>2221</ele>
        <time>2023-08-01T08:05:20Z</time>
      </trkpt>
      <trkpt lat="42.81325" lon="-0.26378">
        <ele>2215</ele>
        <time>2023-08-01T08:06:07Z</time>
      </trkpt>
      <trkpt lat="42.81332" lon="-0.26419">
        <ele>2208</ele>
        <time>2023-08-01T08:06:48Z</time>
      </trkpt>
      <trkpt lat="42.81327" lon="-0.26512">
        <ele>2202</ele>
        <time>2023-08-01T08:08:19Z</time>
      </trkpt>
      <trkpt lat="42.8133" lon="-0.26524">
        <ele>2200</ele>
        <time>2023-08-01T08:08:32Z</time>
      </trkpt>
      <trkpt lat="42.81322" lon="-0.26542">
        <ele>2203</ele>
        <time>2023-08-01T08:08:52Z</time>
      </trkpt>
      <trkpt lat="42.81321" lon="-0.26563">
        <ele>2203</ele>
        <time>2023-08-01T08:09:13Z</time>
      </trkpt>
      <trkpt lat="42.81334" lon="-0.2669">
        <ele>2189</ele>
        <time>2023-08-01T08:11:18Z</time>
      </trkpt>
      <trkpt lat="42.81348" lon="-0.26774">
        <ele>2178</ele>
        <time>2023-08-01T08:12:43Z</time>
      </trkpt>
      <trkpt lat="42.81334" lon="-0.26864">
        <ele>2170</ele>
        <time>2023-08-01T08:14:13Z</time>
      </trkpt>
      <trkpt lat="42.81353" lon="-0.26938">
        <ele>2153</ele>
        <time>2023-08-01T08:15:29Z</time>
      </trkpt>
      <trkpt lat="42.81321" lon="-0.26965">
        <ele>2159</ele>
        <time>2023-08-01T08:16:20Z</time>
      </trkpt>
      <trkpt lat="42.81321" lon="-0.27006">
        <ele>2153</ele>
        <time>2023-08-01T08:17:00Z</time>
      </trkpt>
      <trkpt lat="42.81313" lon="-0.27016">
        <ele>2155</ele>
        <time>2023-08-01T08:17:14Z</time>
      </trkpt>
      <trkpt lat="42.81308" lon="-0.27086">
        <ele>2152</ele>
        <time>2023-08-01T08:18:23Z</time>
      </trkpt>
      <trkpt lat="42.81311" lon="-0.27114">
        <ele>2152</ele>
        <time>2023-08-01T08:18:51Z</time>
      </trkpt>
      <trkpt lat="42.81311" lon="-0.27146">
        <ele>2154</ele>
        <time>2023-08-01T08:19:22Z</time>
      </trkpt>
      <trkpt lat="42.81302" lon="-0.27164">
        <ele>2158</ele>
        <time>2023-08-01T08:19:43Z</time>
      </trkpt>
      <trkpt lat="42.81308" lon="-0.27182">
        <ele>2156</ele>
        <time>2023-08-01T08:20:03Z</time>
      </trkpt>
      <trkpt lat="42.81305" lon="-0.27202">
        <ele>2158</ele>
        <time>2023-08-01T08:20:23Z</time>
      </trkpt>
      <trkpt lat="42.81299" lon="-0.27217">
        <ele>2160</ele>
        <time>2023-08-01T08:20:39Z</time>
      </trkpt>
      <trkpt lat="42.81291" lon="-0.27228">
        <ele>2163</ele>
        <time>2023-08-01T08:20:55Z</time>
      </trkpt>
      <trkpt lat="42.81287" lon="-0.27237">
        <ele>2164</ele>
        <time>2023-08-01T08:21:05Z</time>
      </trkpt>
      <trkpt lat="42.81297" lon="-0.27256">
        <ele>2161</ele>
        <time>2023-08-01T08:21:28Z</time>
      </trkpt>
      <trkpt lat="42.81295" lon="-0.27344">
        <ele>2160</ele>
        <time>2023-08-01T08:22:54Z</time>
      </trkpt>
      <trkpt lat="42.8128" lon="-0.27408">
        <ele>2162</ele>
        <time>2023-08-01T08:24:00Z</time>
      </trkpt>
      <trkpt lat="42.81281" lon="-0.27444">
        <ele>2159</ele>
        <time>2023-08-01T08:24:35Z</time>
      </trkpt>
      <trkpt lat="42.8128" lon="-0.27483">
        <ele>2156</ele>
        <time>2023-08-01T08:25:13Z</time>
      </trkpt>
      <trkpt lat="42.81288" lon="-0.27517">
        <ele>2152</ele>
        <time>2023-08-01T08:25:48Z</time>
      </trkpt>
      <trkpt lat="42.81303" lon="-0.27504">
        <ele>2150</ele>
        <time>2023-08-01T08:26:12Z</time>
      </trkpt>
      <trkpt lat="42.81309" lon="-0.27509">
        <ele>2148</ele>
        <time>2023-08-01T08:26:21Z</time>
      </trkpt>
      <trkpt lat="42.81321" lon="-0.27532">
        <ele>2145</ele>
        <time>2023-08-01T08:26:49Z</time>
      </trkpt>
      <trkpt lat="42.81343" lon="-0.27566">
        <ele>2144</ele>
        <time>2023-08-01T08:27:33Z</time>
      </trkpt>
      <trkpt lat="42.81361" lon="-0.276">
        <ele>2146</ele>
        <time>2023-08-01T08:28:14Z</time>
      </trkpt>
      <trkpt lat="42.81378" lon="-0.27604">
        <ele>2149</ele>
        <time>2023-08-01T08:28:37Z</time>
      </trkpt>
      <trkpt lat="42.81396" lon="-0.276">
        <ele>2153</ele>
        <time>2023-08-01T08:29:02Z</time>
      </trkpt>
      <trkpt lat="42.8141" lon="-0.27607">
        <ele>2156</ele>
        <time>2023-08-01T08:29:22Z</time>
      </trkpt>
      <trkpt lat="42.81423" lon="-0.2762">
        <ele>2160</ele>
        <time>2023-08-01T08:29:43Z</time>
      </trkpt>
      <trkpt lat="42.81436" lon="-0.27651">
        <ele>2165</ele>
        <time>2023-08-01T08:30:18Z</time>
      </trkpt>
      <trkpt lat="42.81438" lon="-0.27674">
        <ele>2169</ele>
        <time>2023-08-01T08:30:41Z</time>
      </trkpt>
      <trkpt lat="42.81437" lon="-0.27697">
        <ele>2172</ele>
        <time>2023-08-01T08:31:03Z</time>
      </trkpt>
      <trkpt lat="42.81411" lon="-0.27749">
        <ele>2172</ele>
        <time>2023-08-01T08:32:05Z</time>
      </trkpt>
      <trkpt lat="42.81409" lon="-0.27767">
        <ele>2171</ele>
        <time>2023-08-01T08:32:23Z</time>
      </trkpt>
      <trkpt lat="42.8141" lon="-0.27791">
        <ele>2172</ele>
        <time>2023-08-01T08:32:46Z</time>
      </trkpt>
      <trkpt lat="42.81418" lon="-0.27818">
        <ele>2174</ele>
        <time>2023-08-01T08:33:15Z</time>
      </trkpt>
      <trkpt lat="42.81423" lon="-0.27829">
        <ele>2176</ele>
        <time>2023-08-01T08:33:27Z</time>
      </trkpt>
      <trkpt lat="42.81435" lon="-0.27832">
        <ele>2179</ele>
        <time>2023-08-01T08:33:44Z</time>
      </trkpt>
      <trkpt lat="42.81457" lon="-0.27853">
        <ele>2182</ele>
        <time>2023-08-01T08:34:20Z</time>
      </trkpt>
      <trkpt lat="42.81464" lon="-0.27876">
        <ele>2181</ele>
        <time>2023-08-01T08:34:44Z</time>
      </trkpt>
      <trkpt lat="42.81465" lon="-0.27892">
        <ele>2179</ele>
        <time>2023-08-01T08:35:00Z</time>
      </trkpt>
      <trkpt lat="42.81463" lon="-0.27898">
        <ele>2178</ele>
        <time>2023-08-01T08:35:06Z</time>
      </trkpt>
      <trkpt lat="42.8145" lon="-0.27912">
        <ele>2173</ele>
        <time>2023-08-01T08:35:28Z</time>
      </trkpt>
      <trkpt lat="42.81431" lon="-0.27916">
        <ele>2168</ele>
        <time>2023-08-01T08:35:54Z</time>
      </trkpt>
      <trkpt lat="42.81418" lon="-0.27924">
        <ele>2163</ele>
        <time>2023-08-01T08:36:13Z</time>
      </trkpt>
      <trkpt lat="42.81416" lon="-0.2793">
        <ele>2161</ele>
        <time>2023-08-01T08:36:19Z</time>
      </trkpt>
      <trkpt lat="42.81417" lon="-0.27938">
        <ele>2159</ele>
        <time>2023-08-01T08:36:27Z</time>
      </trkpt>
      <trkpt lat="42.81419" lon="-0.27947">
        <ele>2158</ele>
        <time>2023-08-01T08:36:37Z</time>
      </trkpt>
      <trkpt lat="42.81427" lon="-0.27954">
        <ele>2158</ele>
        <time>2023-08-01T08:36:49Z</time>
      </trkpt>
      <trkpt lat="42.81445" lon="-0.2796">
        <ele>2163</ele>
        <time>2023-08-01T08:37:14Z</time>
      </trkpt>
      <trkpt lat="42.81463" lon="-0.2798">
        <ele>2164</ele>
        <time>2023-08-01T08:37:45Z</time>
      </trkpt>
      <trkpt lat="42.81486" lon="-0.27997">
        <ele>2170</ele>
        <time>2023-08-01T08:38:20Z</time>
      </trkpt>
      <trkpt lat="42.81491" lon="-0.28003">
        <ele>2171</ele>
        <time>2023-08-01T08:38:29Z</time>
      </trkpt>
      <trkpt lat="42.81488" lon="-0.28042">
        <ele>2167</ele>
        <time>2023-08-01T08:39:07Z</time>
      </trkpt>
      <trkpt lat="42.81486" lon="-0.28117">
        <ele>2161</ele>
        <time>2023-08-01T08:40:21Z</time>
      </trkpt>
      <trkpt lat="42.815" lon="-0.28162">
        <ele>2163</ele>
        <time>2023-08-01T08:41:08Z</time>
      </trkpt>
      <trkpt lat="42.81506" lon="-0.28198">
        <ele>2162</ele>
        <time>2023-08-01T08:41:45Z</time>
      </trkpt>
      <trkpt lat="42.81524" lon="-0.2823">
        <ele>2167</ele>
        <time>2023-08-01T08:42:24Z</time>
      </trkpt>
      <trkpt lat="42.81532" lon="-0.28288">
        <ele>2161</ele>
        <time>2023-08-01T08:43:22Z</time>
      </trkpt>
      <trkpt lat="42.8154" lon="-0.28294">
        <ele>2164</ele>
        <time>2023-08-01T08:43:34Z</time>
      </trkpt>
      <trkpt lat="42.81548" lon="-0.28297">
        <ele>2167</ele>
        <time>2023-08-01T08:43:45Z</time>
      </trkpt>
      <trkpt lat="42.81568" lon="-0.28292">
        <ele>2177</ele>
        <time>2023-08-01T08:44:12Z</time>
      </trkpt>
      <trkpt lat="42.81584" lon="-0.28309">
        <ele>2180</ele>
        <time>2023-08-01T08:44:39Z</time>
      </trkpt>
      <trkpt lat="42.81587" lon="-0.28316">
        <ele>2180</ele>
        <time>2023-08-01T08:44:47Z</time>
      </trkpt>
      <trkpt lat="42.81588" lon="-0.28326">
        <ele>2178</ele>
        <time>2023-08-01T08:44:57Z</time>
      </trkpt>
      <trkpt lat="42.81587" lon="-0.28344">
        <ele>2175</ele>
        <time>2023-08-01T08:45:15Z</time>
      </trkpt>
      <trkpt lat="42.81584" lon="-0.2836">
        <ele>2173</ele>
        <time>2023-08-01T08:45:31Z</time>
      </trkpt>
      <trkpt lat="42.81585" lon="-0.28366">
        <ele>2173</ele>
        <time>2023-08-01T08:45:37Z</time>
      </trkpt>
      <trkpt lat="42.81588" lon="-0.2837">
        <ele>2173</ele>
        <time>2023-08-01T08:45:43Z</time>
      </trkpt>
      <trkpt lat="42.81598" lon="-0.28372">
        <ele>2176</ele>
        <time>2023-08-01T08:45:56Z</time>
      </trkpt>
      <trkpt lat="42.81601" lon="-0.28377">
        <ele>2177</ele>
        <time>2023-08-01T08:46:02Z</time>
      </trkpt>
      <trkpt lat="42.81605" lon="-0.28396">
        <ele>2177</ele>
        <time>2023-08-01T08:46:22Z</time>
      </trkpt>
      <trkpt lat="42.81612" lon="-0.28409">
        <ele>2178</ele>
        <time>2023-08-01T08:46:38Z</time>
      </trkpt>
      <trkpt lat="42.81611" lon="-0.28434">
        <ele>2175</ele>
        <time>2023-08-01T08:47:02Z</time>
      </trkpt>
      <trkpt lat="42.81616" lon="-0.28457">
        <ele>2174</ele>
        <time>2023-08-01T08:47:26Z</time>
      </trkpt>
      <trkpt lat="42.81615" lon="-0.28481">
        <ele>2171</ele>
        <time>2023-08-01T08:47:49Z</time>
      </trkpt>
      <trkpt lat="42.81617" lon="-0.28495">
        <ele>2170</ele>
        <time>2023-08-01T08:48:03Z</time>
      </trkpt>
      <trkpt lat="42.81625" lon="-0.2851">
        <ele>2171</ele>
        <time>2023-08-01T08:48:21Z</time>
      </trkpt>
      <trkpt lat="42.81629" lon="-0.28525">
        <ele>2170</ele>
        <time>2023-08-01T08:48:37Z</time>
      </trkpt>
      <trkpt lat="42.81631" lon="-0.28545">
        <ele>2167</ele>
        <time>2023-08-01T08:48:57Z</time>
      </trkpt>
      <trkpt lat="42.81635" lon="-0.28558">
        <ele>2167</ele>
        <time>2023-08-01T08:49:10Z</time>
      </trkpt>
      <trkpt lat="42.8165" lon="-0.28589">
        <ele>2166</ele>
        <time>2023-08-01T08:49:47Z</time>
      </trkpt>
      <trkpt lat="42.81656" lon="-0.28587">
        <ele>2169</ele>
        <time>2023-08-01T08:49:55Z</time>
      </trkpt>
      <trkpt lat="42.8166" lon="-0.28583">
        <ele>2171</ele>
        <time>2023-08-01T08:50:02Z</time>
      </trkpt>
      <trkpt lat="42.81669" lon="-0.28578">
        <ele>2175</ele>
        <time>2023-08-01T08:50:15Z</time>
      </trkpt>
      <trkpt lat="42.81671" lon="-0.28583">
        <ele>2175</ele>
        <time>2023-08-01T08:50:20Z</time>
      </trkpt>
      <trkpt lat="42.81676" lon="-0.28603">
        <ele>2172</ele>
        <time>2023-08-01T08:50:41Z</time>
      </trkpt>
      <trkpt lat="42.81668" lon="-0.28607">
        <ele>2168</ele>
        <time>2023-08-01T08:50:52Z</time>
      </trkpt>
      <trkpt lat="42.81665" lon="-0.28611">
        <ele>2166</ele>
        <time>2023-08-01T08:50:58Z</time>
      </trkpt>
      <trkpt lat="42.81663" lon="-0.28616">
        <ele>2164</ele>
        <time>2023-08-01T08:51:03Z</time>
      </trkpt>
      <trkpt lat="42.81662" lon="-0.28637">
        <ele>2159</ele>
        <time>2023-08-01T08:51:24Z</time>
      </trkpt>
      <trkpt lat="42.81664" lon="-0.28641">
        <ele>2159</ele>
        <time>2023-08-01T08:51:29Z</time>
      </trkpt>
      <trkpt lat="42.81661" lon="-0.28663">
        <ele>2153</ele>
        <time>2023-08-01T08:51:51Z</time>
      </trkpt>
      <trkpt lat="42.81667" lon="-0.28674">
        <ele>2153</ele>
        <time>2023-08-01T08:52:04Z</time>
      </trkpt>
      <trkpt lat="42.81665" lon="-0.287">
        <ele>2148</ele>
        <time>2023-08-01T08:52:30Z</time>
      </trkpt>
      <trkpt lat="42.81666" lon="-0.28715">
        <ele>2146</ele>
        <time>2023-08-01T08:52:44Z</time>
      </trkpt>
      <trkpt lat="42.81673" lon="-0.2872">
        <ele>2146</ele>
        <time>2023-08-01T08:52:55Z</time>
      </trkpt>
      <trkpt lat="42.8168" lon="-0.28719">
        <ele>2148</ele>
        <time>2023-08-01T08:53:04Z</time>
      </trkpt>
      <trkpt lat="42.81683" lon="-0.2873">
        <ele>2147</ele>
        <time>2023-08-01T08:53:16Z</time>
      </trkpt>
      <trkpt lat="42.81684" lon="-0.28742">
        <ele>2145</ele>
        <time>2023-08-01T08:53:28Z</time>
      </trkpt>
      <trkpt lat="42.81686" lon="-0.28753">
        <ele>2143</ele>
        <time>2023-08-01T08:53:39Z</time>
      </trkpt>
      <trkpt lat="42.81685" lon="-0.28757">
        <ele>2143</ele>
        <time>2023-08-01T08:53:43Z</time>
      </trkpt>
      <trkpt lat="42.81683" lon="-0.28765">
        <ele>2141</ele>
        <time>2023-08-01T08:53:51Z</time>
      </trkpt>
      <trkpt lat="42.81686" lon="-0.28783">
        <ele>2140</ele>
        <time>2023-08-01T08:54:09Z</time>
      </trkpt>
      <trkpt lat="42.81701" lon="-0.28784">
        <ele>2143</ele>
        <time>2023-08-01T08:54:29Z</time>
      </trkpt>
      <trkpt lat="42.81716" lon="-0.28813">
        <ele>2145</ele>
        <time>2023-08-01T08:55:04Z</time>
      </trkpt>
      <trkpt lat="42.81736" lon="-0.28812">
        <ele>2150</ele>
        <time>2023-08-01T08:55:31Z</time>
      </trkpt>
      <trkpt lat="42.81741" lon="-0.28814">
        <ele>2152</ele>
        <time>2023-08-01T08:55:38Z</time>
      </trkpt>
      <trkpt lat="42.81746" lon="-0.28822">
        <ele>2153</ele>
        <time>2023-08-01T08:55:48Z</time>
      </trkpt>
      <trkpt lat="42.81748" lon="-0.28842">
        <ele>2152</ele>
        <time>2023-08-01T08:56:08Z</time>
      </trkpt>
      <trkpt lat="42.81762" lon="-0.28874">
        <ele>2158</ele>
        <time>2023-08-01T08:56:44Z</time>
      </trkpt>
      <trkpt lat="42.81768" lon="-0.28912">
        <ele>2160</ele>
        <time>2023-08-01T08:57:22Z</time>
      </trkpt>
      <trkpt lat="42.81769" lon="-0.28941">
        <ele>2160</ele>
        <time>2023-08-01T08:57:51Z</time>
      </trkpt>
      <trkpt lat="42.81766" lon="-0.28971">
        <ele>2156</ele>
        <time>2023-08-01T08:58:20Z</time>
      </trkpt>
      <trkpt lat="42.81771" lon="-0.29001">
        <ele>2159</ele>
        <time>2023-08-01T08:58:50Z</time>
      </trkpt>
      <trkpt lat="42.81769" lon="-0.29019">
        <ele>2157</ele>
        <time>2023-08-01T08:59:08Z</time>
      </trkpt>
      <trkpt lat="42.81771" lon="-0.29041">
        <ele>2158</ele>
        <time>2023-08-01T08:59:30Z</time>
      </trkpt>
      <trkpt lat="42.81763" lon="-0.29095">
        <ele>2150</ele>
        <time>2023-08-01T09:00:24Z</time>
      </trkpt>
      <trkpt lat="42.81761" lon="-0.29113">
        <ele>2150</ele>
        <time>2023-08-01T09:00:42Z</time>
      </trkpt>
      <trkpt lat="42.8177" lon="-0.29137">
        <ele>2160</ele>
        <time>2023-08-01T09:01:08Z</time>
      </trkpt>
      <trkpt lat="42.8177" lon="-0.29151">
        <ele>2161</ele>
        <time>2023-08-01T09:01:22Z</time>
      </trkpt>
      <trkpt lat="42.81775" lon="-0.29184">
        <ele>2165</ele>
        <time>2023-08-01T09:01:55Z</time>
      </trkpt>
      <trkpt lat="42.81775" lon="-0.29204">
        <ele>2163</ele>
        <time>2023-08-01T09:02:14Z</time>
      </trkpt>
      <trkpt lat="42.81782" lon="-0.29242">
        <ele>2166</ele>
        <time>2023-08-01T09:02:53Z</time>
      </trkpt>
      <trkpt lat="42.81783" lon="-0.29269">
        <ele>2168</ele>
        <time>2023-08-01T09:03:19Z</time>
      </trkpt>
      <trkpt lat="42.81779" lon="-0.29312">
        <ele>2167</ele>
        <time>2023-08-01T09:04:01Z</time>
      </trkpt>
      <trkpt lat="42.81771" lon="-0.29343">
        <ele>2163</ele>
        <time>2023-08-01T09:04:34Z</time>
      </trkpt>
      <trkpt lat="42.8177" lon="-0.29353">
        <ele>2163</ele>
        <time>2023-08-01T09:04:44Z</time>
      </trkpt>
      <trkpt lat="42.81773" lon="-0.29392">
        <ele>2168</ele>
        <time>2023-08-01T09:05:22Z</time>
      </trkpt>
      <trkpt lat="42.8177" lon="-0.29413">
        <ele>2168</ele>
        <time>2023-08-01T09:05:43Z</time>
      </trkpt>
      <trkpt lat="42.81765" lon="-0.29433">
        <ele>2163</ele>
        <time>2023-08-01T09:06:04Z</time>
      </trkpt>
      <trkpt lat="42.81761" lon="-0.29469">
        <ele>2158</ele>
        <time>2023-08-01T09:06:39Z</time>
      </trkpt>
      <trkpt lat="42.8176" lon="-0.29474">
        <ele>2157</ele>
        <time>2023-08-01T09:06:44Z</time>
      </trkpt>
      <trkpt lat="42.81756" lon="-0.29472">
        <ele>2154</ele>
        <time>2023-08-01T09:06:50Z</time>
      </trkpt>
      <trkpt lat="42.81754" lon="-0.29466">
        <ele>2153</ele>
        <time>2023-08-01T09:06:56Z</time>
      </trkpt>
      <trkpt lat="42.81756" lon="-0.29422">
        <ele>2157</ele>
        <time>2023-08-01T09:07:40Z</time>
      </trkpt>
      <trkpt lat="42.81754" lon="-0.29384">
        <ele>2153</ele>
        <time>2023-08-01T09:08:17Z</time>
      </trkpt>
      <trkpt lat="42.81749" lon="-0.29357">
        <ele>2147</ele>
        <time>2023-08-01T09:08:44Z</time>
      </trkpt>
      <trkpt lat="42.81746" lon="-0.29362">
        <ele>2145</ele>
        <time>2023-08-01T09:08:50Z</time>
      </trkpt>
      <trkpt lat="42.81745" lon="-0.29423">
        <ele>2149</ele>
        <time>2023-08-01T09:09:50Z</time>
      </trkpt>
      <trkpt lat="42.81739" lon="-0.29441">
        <ele>2144</ele>
        <time>2023-08-01T09:10:09Z</time>
      </trkpt>
      <trkpt lat="42.81739" lon="-0.29458">
        <ele>2144</ele>
        <time>2023-08-01T09:10:26Z</time>
      </trkpt>
      <trkpt lat="42.81732" lon="-0.29475">
        <ele>2140</ele>
        <time>2023-08-01T09:10:45Z</time>
      </trkpt>
      <trkpt lat="42.81733" lon="-0.29499">
        <ele>2140</ele>
        <time>2023-08-01T09:11:09Z</time>
      </trkpt>
      <trkpt lat="42.81731" lon="-0.29516">
        <ele>2138</ele>
        <time>2023-08-01T09:11:26Z</time>
      </trkpt>
      <trkpt lat="42.81725" lon="-0.29533">
        <ele>2135</ele>
        <time>2023-08-01T09:11:44Z</time>
      </trkpt>
      <trkpt lat="42.81721" lon="-0.29555">
        <ele>2134</ele>
        <time>2023-08-01T09:12:06Z</time>
      </trkpt>
      <trkpt lat="42.81728" lon="-0.2957">
        <ele>2135</ele>
        <time>2023-08-01T09:12:24Z</time>
      </trkpt>
      <trkpt lat="42.81737" lon="-0.29604">
        <ele>2133</ele>
        <time>2023-08-01T09:12:59Z</time>
      </trkpt>
      <trkpt lat="42.81759" lon="-0.29652">
        <ele>2131</ele>
        <time>2023-08-01T09:13:54Z</time>
      </trkpt>
      <trkpt lat="42.8178" lon="-0.29735">
        <ele>2122</ele>
        <time>2023-08-01T09:15:20Z</time>
      </trkpt>
      <trkpt lat="42.81786" lon="-0.29739">
        <ele>2123</ele>
        <time>2023-08-01T09:15:29Z</time>
      </trkpt>
      <trkpt lat="42.81801" lon="-0.29739">
        <ele>2127</ele>
        <time>2023-08-01T09:15:49Z</time>
      </trkpt>
      <trkpt lat="42.81807" lon="-0.29755">
        <ele>2125</ele>
        <time>2023-08-01T09:16:07Z</time>
      </trkpt>
      <trkpt lat="42.81808" lon="-0.29765">
        <ele>2123</ele>
        <time>2023-08-01T09:16:17Z</time>
      </trkpt>
      <trkpt lat="42.81814" lon="-0.29777">
        <ele>2121</ele>
        <time>2023-08-01T09:16:31Z</time>
      </trkpt>
      <trkpt lat="42.81826" lon="-0.29783">
        <ele>2123</ele>
        <time>2023-08-01T09:16:48Z</time>
      </trkpt>
      <trkpt lat="42.81841" lon="-0.29783">
        <ele>2129</ele>
        <time>2023-08-01T09:17:08Z</time>
      </trkpt>
      <trkpt lat="42.81864" lon="-0.29813">
        <ele>2135</ele>
        <time>2023-08-01T09:17:51Z</time>
      </trkpt>
      <trkpt lat="42.81895" lon="-0.29916">
        <ele>2133</ele>
        <time>2023-08-01T09:19:40Z</time>
      </trkpt>
      <trkpt lat="42.81905" lon="-0.29985">
        <ele>2131</ele>
        <time>2023-08-01T09:20:48Z</time>
      </trkpt>
      <trkpt lat="42.81932" lon="-0.30054">
        <ele>2139</ele>
        <time>2023-08-01T09:22:05Z</time>
      </trkpt>
      <trkpt lat="42.81967" lon="-0.30126">
        <ele>2147</ele>
        <time>2023-08-01T09:23:29Z</time>
      </trkpt>
      <trkpt lat="42.81982" lon="-0.30177">
        <ele>2145</ele>
        <time>2023-08-01T09:24:23Z</time>
      </trkpt>
      <trkpt lat="42.81988" lon="-0.3021">
        <ele>2141</ele>
        <time>2023-08-01T09:24:57Z</time>
      </trkpt>
      <trkpt lat="42.81996" lon="-0.30229">
        <ele>2141</ele>
        <time>2023-08-01T09:25:18Z</time>
      </trkpt>
      <trkpt lat="42.82001" lon="-0.30255">
        <ele>2137</ele>
        <time>2023-08-01T09:25:44Z</time>
      </trkpt>
      <trkpt lat="42.82009" lon="-0.3028">
        <ele>2134</ele>
        <time>2023-08-01T09:26:11Z</time>
      </trkpt>
      <trkpt lat="42.82027" lon="-0.30297">
        <ele>2141</ele>
        <time>2023-08-01T09:26:40Z</time>
      </trkpt>
      <trkpt lat="42.82044" lon="-0.30347">
        <ele>2136</ele>
        <time>2023-08-01T09:27:34Z</time>
      </trkpt>
      <trkpt lat="42.8206" lon="-0.30378">
        <ele>2136</ele>
        <time>2023-08-01T09:28:11Z</time>
      </trkpt>
      <trkpt lat="42.82076" lon="-0.30392">
        <ele>2146</ele>
        <time>2023-08-01T09:28:37Z</time>
      </trkpt>
      <trkpt lat="42.82114" lon="-0.30419">
        <ele>2169</ele>
        <time>2023-08-01T09:29:34Z</time>
      </trkpt>
      <trkpt lat="42.82105" lon="-0.30398">
        <ele>2168</ele>
        <time>2023-08-01T09:29:58Z</time>
      </trkpt>
      <trkpt lat="42.82101" lon="-0.30371">
        <ele>2174</ele>
        <time>2023-08-01T09:30:25Z</time>
      </trkpt>
      <trkpt lat="42.82124" lon="-0.30399">
        <ele>2183</ele>
        <time>2023-08-01T09:31:06Z</time>
      </trkpt>
      <trkpt lat="42.8214" lon="-0.30433">
        <ele>2187</ele>
        <time>2023-08-01T09:31:45Z</time>
      </trkpt>
      <trkpt lat="42.82146" lon="-0.30456">
        <ele>2188</ele>
        <time>2023-08-01T09:32:09Z</time>
      </trkpt>
      <trkpt lat="42.82156" lon="-0.30476">
        <ele>2194</ele>
        <time>2023-08-01T09:32:33Z</time>
      </trkpt>
      <trkpt lat="42.82165" lon="-0.30507">
        <ele>2198</ele>
        <time>2023-08-01T09:33:05Z</time>
      </trkpt>
      <trkpt lat="42.82173" lon="-0.30518">
        <ele>2203</ele>
        <time>2023-08-01T09:33:21Z</time>
      </trkpt>
      <trkpt lat="42.82182" lon="-0.30529">
        <ele>2210</ele>
        <time>2023-08-01T09:33:37Z</time>
      </trkpt>
      <trkpt lat="42.82184" lon="-0.30543">
        <ele>2209</ele>
        <time>2023-08-01T09:33:51Z</time>
      </trkpt>
      <trkpt lat="42.82175" lon="-0.30594">
        <ele>2193</ele>
        <time>2023-08-01T09:34:42Z</time>
      </trkpt>
      <trkpt lat="42.82178" lon="-0.30607">
        <ele>2196</ele>
        <time>2023-08-01T09:34:55Z</time>
      </trkpt>
      <trkpt lat="42.82183" lon="-0.30616">
        <ele>2200</ele>
        <time>2023-08-01T09:35:06Z</time>
      </trkpt>
      <trkpt lat="42.82186" lon="-0.30635">
        <ele>2202</ele>
        <time>2023-08-01T09:35:25Z</time>
      </trkpt>
      <trkpt lat="42.82186" lon="-0.30676">
        <ele>2200</ele>
        <time>2023-08-01T09:36:06Z</time>
      </trkpt>
      <trkpt lat="42.82181" lon="-0.30792">
        <ele>2195</ele>
        <time>2023-08-01T09:37:59Z</time>
      </trkpt>
      <trkpt lat="42.82186" lon="-0.30835">
        <ele>2196</ele>
        <time>2023-08-01T09:38:42Z</time>
      </trkpt>
      <trkpt lat="42.82207" lon="-0.30907">
        <ele>2200</ele>
        <time>2023-08-01T09:39:58Z</time>
      </trkpt>
      <trkpt lat="42.82282" lon="-0.31135">
        <ele>2207</ele>
        <time>2023-08-01T09:44:02Z</time>
      </trkpt>
      <trkpt lat="42.82295" lon="-0.31201">
        <ele>2199</ele>
        <time>2023-08-01T09:45:09Z</time>
      </trkpt>
      <trkpt lat="42.82306" lon="-0.31275">
        <ele>2188</ele>
        <time>2023-08-01T09:46:23Z</time>
      </trkpt>
      <trkpt lat="42.82316" lon="-0.31293">
        <ele>2193</ele>
        <time>2023-08-01T09:46:45Z</time>
      </trkpt>
      <trkpt lat="42.82331" lon="-0.31364">
        <ele>2187</ele>
        <time>2023-08-01T09:47:58Z</time>
      </trkpt>
      <trkpt lat="42.82338" lon="-0.31424">
        <ele>2174</ele>
        <time>2023-08-01T09:48:57Z</time>
      </trkpt>
      <trkpt lat="42.82365" lon="-0.31496">
        <ele>2178</ele>
        <time>2023-08-01T09:50:16Z</time>
      </trkpt>
      <trkpt lat="42.8238" lon="-0.31593">
        <ele>2163</ele>
        <time>2023-08-01T09:51:53Z</time>
      </trkpt>
      <trkpt lat="42.8239" lon="-0.31609">
        <ele>2167</ele>
        <time>2023-08-01T09:52:14Z</time>
      </trkpt>
      <trkpt lat="42.8239" lon="-0.31633">
        <ele>2159</ele>
        <time>2023-08-01T09:52:37Z</time>
      </trkpt>
      <trkpt lat="42.82424" lon="-0.31706">
        <ele>2166</ele>
        <time>2023-08-01T09:54:02Z</time>
      </trkpt>
      <trkpt lat="42.82464" lon="-0.31843">
        <ele>2161</ele>
        <time>2023-08-01T09:56:26Z</time>
      </trkpt>
      <trkpt lat="42.82493" lon="-0.3191">
        <ele>2177</ele>
        <time>2023-08-01T09:57:42Z</time>
      </trkpt>
      <trkpt lat="42.825" lon="-0.31995">
        <ele>2174</ele>
        <time>2023-08-01T09:59:06Z</time>
      </trkpt>
      <trkpt lat="42.82509" lon="-0.31996">
        <ele>2178</ele>
        <time>2023-08-01T09:59:18Z</time>
      </trkpt>
      <trkpt lat="42.82537" lon="-0.32047">
        <ele>2173</ele>
        <time>2023-08-01T10:00:21Z</time>
      </trkpt>
      <trkpt lat="42.8258" lon="-0.32096">
        <ele>2173</ele>
        <time>2023-08-01T10:01:35Z</time>
      </trkpt>
      <trkpt lat="42.82637" lon="-0.32109">
        <ele>2171</ele>
        <time>2023-08-01T10:02:52Z</time>
      </trkpt>
      <trkpt lat="42.8264" lon="-0.32074">
        <ele>2182</ele>
        <time>2023-08-01T10:03:27Z</time>
      </trkpt>
      <trkpt lat="42.82674" lon="-0.32055">
        <ele>2187</ele>
        <time>2023-08-01T10:04:16Z</time>
      </trkpt>
      <trkpt lat="42.82692" lon="-0.32059">
        <ele>2186</ele>
        <time>2023-08-01T10:04:40Z</time>
      </trkpt>
      <trkpt lat="42.8272" lon="-0.32096">
        <ele>2177</ele>
        <time>2023-08-01T10:05:32Z</time>
      </trkpt>
      <trkpt lat="42.82741" lon="-0.32131">
        <ele>2168</ele>
        <time>2023-08-01T10:06:17Z</time>
      </trkpt>
      <trkpt lat="42.82745" lon="-0.32142">
        <ele>2165</ele>
        <time>2023-08-01T10:06:29Z</time>
      </trkpt>
      <trkpt lat="42.82754" lon="-0.32148">
        <ele>2164</ele>
        <time>2023-08-01T10:06:42Z</time>
      </trkpt>
      <trkpt lat="42.82765" lon="-0.32148">
        <ele>2165</ele>
        <time>2023-08-01T10:06:57Z</time>
      </trkpt>
      <trkpt lat="42.82775" lon="-0.32156">
        <ele>2164</ele>
        <time>2023-08-01T10:07:12Z</time>
      </trkpt>
      <trkpt lat="42.82783" lon="-0.3216">
        <ele>2164</ele>
        <time>2023-08-01T10:07:23Z</time>
      </trkpt>
      <trkpt lat="42.82787" lon="-0.32168">
        <ele>2163</ele>
        <time>2023-08-01T10:07:33Z</time>
      </trkpt>
      <trkpt lat="42.82795" lon="-0.32171">
        <ele>2163</ele>
        <time>2023-08-01T10:07:44Z</time>
      </trkpt>
      <trkpt lat="42.82802" lon="-0.32166">
        <ele>2165</ele>
        <time>2023-08-01T10:07:55Z</time>
      </trkpt>
      <trkpt lat="42.82817" lon="-0.32177">
        <ele>2165</ele>
        <time>2023-08-01T10:08:17Z</time>
      </trkpt>
      <trkpt lat="42.82829" lon="-0.32168">
        <ele>2167</ele>
        <time>2023-08-01T10:08:36Z</time>
      </trkpt>
      <trkpt lat="42.82876" lon="-0.3209">
        <ele>2167</ele>
        <time>2023-08-01T10:10:14Z</time>
      </trkpt>
      <trkpt lat="42.82883" lon="-0.3209">
        <ele>2167</ele>
        <time>2023-08-01T10:10:24Z</time>
      </trkpt>
      <trkpt lat="42.82898" lon="-0.3212">
        <ele>2166</ele>
        <time>2023-08-01T10:10:59Z</time>
      </trkpt>
      <trkpt lat="42.82901" lon="-0.32151">
        <ele>2165</ele>
        <time>2023-08-01T10:11:30Z</time>
      </trkpt>
      <trkpt lat="42.82923" lon="-0.32094">
        <ele>2167</ele>
        <time>2023-08-01T10:12:33Z</time>
      </trkpt>
      <trkpt lat="42.82929" lon="-0.32039">
        <ele>2170</ele>
        <time>2023-08-01T10:13:27Z</time>
      </trkpt>
      <trkpt lat="42.82942" lon="-0.32009">
        <ele>2172</ele>
        <time>2023-08-01T10:14:01Z</time>
      </trkpt>
      <trkpt lat="42.82951" lon="-0.31973">
        <ele>2177</ele>
        <time>2023-08-01T10:14:39Z</time>
      </trkpt>
      <trkpt lat="42.82971" lon="-0.31941">
        <ele>2180</ele>
        <time>2023-08-01T10:15:20Z</time>
      </trkpt>
      <trkpt lat="42.82987" lon="-0.31944">
        <ele>2179</ele>
        <time>2023-08-01T10:15:41Z</time>
      </trkpt>
      <trkpt lat="42.82997" lon="-0.31952">
        <ele>2177</ele>
        <time>2023-08-01T10:15:57Z</time>
      </trkpt>
      <trkpt lat="42.83019" lon="-0.31895">
        <ele>2185</ele>
        <time>2023-08-01T10:17:00Z</time>
      </trkpt>
      <trkpt lat="42.8302" lon="-0.31868">
        <ele>2184</ele>
        <time>2023-08-01T10:17:26Z</time>
      </trkpt>
      <trkpt lat="42.83023" lon="-0.31849">
        <ele>2184</ele>
        <time>2023-08-01T10:17:45Z</time>
      </trkpt>
      <trkpt lat="42.83026" lon="-0.31838">
        <ele>2184</ele>
        <time>2023-08-01T10:17:57Z</time>
      </trkpt>
      <trkpt lat="42.8302" lon="-0.31825">
        <ele>2184</ele>
        <time>2023-08-01T10:18:12Z</time>
      </trkpt>
      <trkpt lat="42.83019" lon="-0.31815">
        <ele>2186</ele>
        <time>2023-08-01T10:18:22Z</time>
      </trkpt>
      <trkpt lat="42.83041" lon="-0.31761">
        <ele>2188</ele>
        <time>2023-08-01T10:19:22Z</time>
      </trkpt>
      <trkpt lat="42.83057" lon="-0.31744">
        <ele>2186</ele>
        <time>2023-08-01T10:19:49Z</time>
      </trkpt>
      <trkpt lat="42.83072" lon="-0.31736">
        <ele>2183</ele>
        <time>2023-08-01T10:20:11Z</time>
      </trkpt>
      <trkpt lat="42.83077" lon="-0.31718">
        <ele>2186</ele>
        <time>2023-08-01T10:20:30Z</time>
      </trkpt>
      <trkpt lat="42.83095" lon="-0.31685">
        <ele>2187</ele>
        <time>2023-08-01T10:21:10Z</time>
      </trkpt>
      <trkpt lat="42.83126" lon="-0.31614">
        <ele>2191</ele>
        <time>2023-08-01T10:22:31Z</time>
      </trkpt>
      <trkpt lat="42.83131" lon="-0.31598">
        <ele>2192</ele>
        <time>2023-08-01T10:22:48Z</time>
      </trkpt>
      <trkpt lat="42.83168" lon="-0.31572">
        <ele>2176</ele>
        <time>2023-08-01T10:23:43Z</time>
      </trkpt>
      <trkpt lat="42.83173" lon="-0.31565">
        <ele>2177</ele>
        <time>2023-08-01T10:23:53Z</time>
      </trkpt>
      <trkpt lat="42.83177" lon="-0.31549">
        <ele>2179</ele>
        <time>2023-08-01T10:24:09Z</time>
      </trkpt>
      <trkpt lat="42.83183" lon="-0.31545">
        <ele>2180</ele>
        <time>2023-08-01T10:24:18Z</time>
      </trkpt>
      <trkpt lat="42.8319" lon="-0.31549">
        <ele>2179</ele>
        <time>2023-08-01T10:24:28Z</time>
      </trkpt>
      <trkpt lat="42.83198" lon="-0.31557">
        <ele>2179</ele>
        <time>2023-08-01T10:24:42Z</time>
      </trkpt>
      <trkpt lat="42.83206" lon="-0.31559">
        <ele>2179</ele>
        <time>2023-08-01T10:24:52Z</time>
      </trkpt>
      <trkpt lat="42.83219" lon="-0.31556">
        <ele>2180</ele>
        <time>2023-08-01T10:25:10Z</time>
      </trkpt>
      <trkpt lat="42.8323" lon="-0.3155">
        <ele>2181</ele>
        <time>2023-08-01T10:25:26Z</time>
      </trkpt>
      <trkpt lat="42.83236" lon="-0.31539">
        <ele>2181</ele>
        <time>2023-08-01T10:25:39Z</time>
      </trkpt>
      <trkpt lat="42.83245" lon="-0.31529">
        <ele>2181</ele>
        <time>2023-08-01T10:25:55Z</time>
      </trkpt>
      <trkpt lat="42.83256" lon="-0.31523">
        <ele>2182</ele>
        <time>2023-08-01T10:26:11Z</time>
      </trkpt>
      <trkpt lat="42.8326" lon="-0.31517">
        <ele>2182</ele>
        <time>2023-08-01T10:26:19Z</time>
      </trkpt>
      <trkpt lat="42.83268" lon="-0.31516">
        <ele>2184</ele>
        <time>2023-08-01T10:26:29Z</time>
      </trkpt>
      <trkpt lat="42.83276" lon="-0.31511">
        <ele>2185</ele>
        <time>2023-08-01T10:26:41Z</time>
      </trkpt>
      <trkpt lat="42.83288" lon="-0.31512">
        <ele>2187</ele>
        <time>2023-08-01T10:26:57Z</time>
      </trkpt>
      <trkpt lat="42.83297" lon="-0.31508">
        <ele>2188</ele>
        <time>2023-08-01T10:27:10Z</time>
      </trkpt>
      <trkpt lat="42.83306" lon="-0.31511">
        <ele>2190</ele>
        <time>2023-08-01T10:27:22Z</time>
      </trkpt>
      <trkpt lat="42.83322" lon="-0.31511">
        <ele>2192</ele>
        <time>2023-08-01T10:27:43Z</time>
      </trkpt>
      <trkpt lat="42.83338" lon="-0.31504">
        <ele>2194</ele>
        <time>2023-08-01T10:28:06Z</time>
      </trkpt>
      <trkpt lat="42.83344" lon="-0.31496">
        <ele>2195</ele>
        <time>2023-08-01T10:28:17Z</time>
      </trkpt>
      <trkpt lat="42.83356" lon="-0.31487">
        <ele>2197</ele>
        <time>2023-08-01T10:28:35Z</time>
      </trkpt>
      <trkpt lat="42.83364" lon="-0.31467">
        <ele>2197</ele>
        <time>2023-08-01T10:28:58Z</time>
      </trkpt>
      <trkpt lat="42.83374" lon="-0.31456">
        <ele>2198</ele>
        <time>2023-08-01T10:29:15Z</time>
      </trkpt>
      <trkpt lat="42.83394" lon="-0.31445">
        <ele>2202</ele>
        <time>2023-08-01T10:29:44Z</time>
      </trkpt>
      <trkpt lat="42.83407" lon="-0.31445">
        <ele>2205</ele>
        <time>2023-08-01T10:30:01Z</time>
      </trkpt>
      <trkpt lat="42.83408" lon="-0.31463">
        <ele>2209</ele>
        <time>2023-08-01T10:30:19Z</time>
      </trkpt>
      <trkpt lat="42.83402" lon="-0.31492">
        <ele>2212</ele>
        <time>2023-08-01T10:30:48Z</time>
      </trkpt>
      <trkpt lat="42.8339" lon="-0.31507">
        <ele>2211</ele>
        <time>2023-08-01T10:31:10Z</time>
      </trkpt>
      <trkpt lat="42.83385" lon="-0.31523">
        <ele>2213</ele>
        <time>2023-08-01T10:31:27Z</time>
      </trkpt>
      <trkpt lat="42.83382" lon="-0.31534">
        <ele>2214</ele>
        <time>2023-08-01T10:31:38Z</time>
      </trkpt>
      <trkpt lat="42.83385" lon="-0.31541">
        <ele>2217</ele>
        <time>2023-08-01T10:31:46Z</time>
      </trkpt>
      <trkpt lat="42.83398" lon="-0.31534">
        <ele>2219</ele>
        <time>2023-08-01T10:32:05Z</time>
      </trkpt>
      <trkpt lat="42.83411" lon="-0.31544">
        <ele>2226</ele>
        <time>2023-08-01T10:32:25Z</time>
      </trkpt>
      <trkpt lat="42.83422" lon="-0.31546">
        <ele>2228</ele>
        <time>2023-08-01T10:32:40Z</time>
      </trkpt>
      <trkpt lat="42.83431" lon="-0.31541">
        <ele>2227</ele>
        <time>2023-08-01T10:32:53Z</time>
      </trkpt>
      <trkpt lat="42.83431" lon="-0.31547">
        <ele>2228</ele>
        <time>2023-08-01T10:32:58Z</time>
      </trkpt>
      <trkpt lat="42.83438" lon="-0.3154">
        <ele>2226</ele>
        <time>2023-08-01T10:33:10Z</time>
      </trkpt>
      <trkpt lat="42.83441" lon="-0.3157">
        <ele>2232</ele>
        <time>2023-08-01T10:33:40Z</time>
      </trkpt>
      <trkpt lat="42.83439" lon="-0.31606">
        <ele>2237</ele>
        <time>2023-08-01T10:34:15Z</time>
      </trkpt>
      <trkpt lat="42.83449" lon="-0.31627">
        <ele>2239</ele>
        <time>2023-08-01T10:34:39Z</time>
      </trkpt>
      <trkpt lat="42.8344" lon="-0.31656">
        <ele>2244</ele>
        <time>2023-08-01T10:35:10Z</time>
      </trkpt>
      <trkpt lat="42.83443" lon="-0.31673">
        <ele>2245</ele>
        <time>2023-08-01T10:35:27Z</time>
      </trkpt>
      <trkpt lat="42.83442" lon="-0.31686">
        <ele>2247</ele>
        <time>2023-08-01T10:35:40Z</time>
      </trkpt>
      <trkpt lat="42.83436" lon="-0.31708">
        <ele>2249</ele>
        <time>2023-08-01T10:36:03Z</time>
      </trkpt>
      <trkpt lat="42.83434" lon="-0.31727">
        <ele>2251</ele>
        <time>2023-08-01T10:36:22Z</time>
      </trkpt>
      <trkpt lat="42.83437" lon="-0.31749">
        <ele>2253</ele>
        <time>2023-08-01T10:36:44Z</time>
      </trkpt>
      <trkpt lat="42.83441" lon="-0.31752">
        <ele>2254</ele>
        <time>2023-08-01T10:36:50Z</time>
      </trkpt>
      <trkpt lat="42.83484" lon="-0.3174">
        <ele>2256</ele>
        <time>2023-08-01T10:37:48Z</time>
      </trkpt>
      <trkpt lat="42.83522" lon="-0.3171">
        <ele>2256</ele>
        <time>2023-08-01T10:38:47Z</time>
      </trkpt>
      <trkpt lat="42.83539" lon="-0.3169">
        <ele>2256</ele>
        <time>2023-08-01T10:39:17Z</time>
      </trkpt>
      <trkpt lat="42.83554" lon="-0.31675">
        <ele>2256</ele>
        <time>2023-08-01T10:39:42Z</time>
      </trkpt>
      <trkpt lat="42.83561" lon="-0.31663">
        <ele>2255</ele>
        <time>2023-08-01T10:39:57Z</time>
      </trkpt>
      <trkpt lat="42.83587" lon="-0.31626">
        <ele>2251</ele>
        <time>2023-08-01T10:40:47Z</time>
      </trkpt>
      <trkpt lat="42.83648" lon="-0.31572">
        <ele>2252</ele>
        <time>2023-08-01T10:42:24Z</time>
      </trkpt>
      <trkpt lat="42.83687" lon="-0.31513">
        <ele>2239</ele>
        <time>2023-08-01T10:43:42Z</time>
      </trkpt>
      <trkpt lat="42.83712" lon="-0.31487">
        <ele>2235</ele>
        <time>2023-08-01T10:44:24Z</time>
      </trkpt>
      <trkpt lat="42.83722" lon="-0.31487">
        <ele>2235</ele>
        <time>2023-08-01T10:44:37Z</time>
      </trkpt>
      <trkpt lat="42.83743" lon="-0.31499">
        <ele>2236</ele>
        <time>2023-08-01T10:45:07Z</time>
      </trkpt>
      <trkpt lat="42.83767" lon="-0.31535">
        <ele>2240</ele>
        <time>2023-08-01T10:45:55Z</time>
      </trkpt>
      <trkpt lat="42.83786" lon="-0.31618">
        <ele>2248</ele>
        <time>2023-08-01T10:47:20Z</time>
      </trkpt>
      <trkpt lat="42.83839" lon="-0.3172">
        <ele>2258</ele>
        <time>2023-08-01T10:49:23Z</time>
      </trkpt>
      <trkpt lat="42.83923" lon="-0.31772">
        <ele>2285</ele>
        <time>2023-08-01T10:51:26Z</time>
      </trkpt>
      <trkpt lat="42.83941" lon="-0.31766">
        <ele>2293</ele>
        <time>2023-08-01T10:51:50Z</time>
      </trkpt>
      <trkpt lat="42.83959" lon="-0.31786">
        <ele>2306</ele>
        <time>2023-08-01T10:52:21Z</time>
      </trkpt>
      <trkpt lat="42.83964" lon="-0.31812">
        <ele>2315</ele>
        <time>2023-08-01T10:52:48Z</time>
      </trkpt>
      <trkpt lat="42.83984" lon="-0.31818">
        <ele>2326</ele>
        <time>2023-08-01T10:53:15Z</time>
      </trkpt>
      <trkpt lat="42.83988" lon="-0.3184">
        <ele>2333</ele>
        <time>2023-08-01T10:53:37Z</time>
      </trkpt>
      <trkpt lat="42.83993" lon="-0.31853">
        <ele>2341</ele>
        <time>2023-08-01T10:53:51Z</time>
      </trkpt>
      <trkpt lat="42.84009" lon="-0.31858">
        <ele>2352</ele>
        <time>2023-08-01T10:54:13Z</time>
      </trkpt>
      <trkpt lat="42.8401" lon="-0.31865">
        <ele>2356</ele>
        <time>2023-08-01T10:54:20Z</time>
      </trkpt>
      <trkpt lat="42.83997" lon="-0.31883">
        <ele>2356</ele>
        <time>2023-08-01T10:54:45Z</time>
      </trkpt>
      <trkpt lat="42.83986" lon="-0.31905">
        <ele>2360</ele>
        <time>2023-08-01T10:55:11Z</time>
      </trkpt>
      <trkpt lat="42.83976" lon="-0.3192">
        <ele>2362</ele>
        <time>2023-08-01T10:55:31Z</time>
      </trkpt>
      <trkpt lat="42.83961" lon="-0.3196">
        <ele>2384</ele>
        <time>2023-08-01T10:56:15Z</time>
      </trkpt>
      <trkpt lat="42.8395" lon="-0.31972">
        <ele>2389</ele>
        <time>2023-08-01T10:56:34Z</time>
      </trkpt>
      <trkpt lat="42.83942" lon="-0.31987">
        <ele>2397</ele>
        <time>2023-08-01T10:56:52Z</time>
      </trkpt>
      <trkpt lat="42.83943" lon="-0.31993">
        <ele>2402</ele>
        <time>2023-08-01T10:56:58Z</time>
      </trkpt>
      <trkpt lat="42.8394" lon="-0.31998">
        <ele>2405</ele>
        <time>2023-08-01T10:57:04Z</time>
      </trkpt>
      <trkpt lat="42.83941" lon="-0.32004">
        <ele>2409</ele>
        <time>2023-08-01T10:57:10Z</time>
      </trkpt>
      <trkpt lat="42.83939" lon="-0.32006">
        <ele>2409</ele>
        <time>2023-08-01T10:57:14Z</time>
      </trkpt>
      <trkpt lat="42.8394" lon="-0.32008">
        <ele>2410</ele>
        <time>2023-08-01T10:57:16Z</time>
      </trkpt>
      <trkpt lat="42.83938" lon="-0.32014">
        <ele>2412</ele>
        <time>2023-08-01T10:57:22Z</time>
      </trkpt>
      <trkpt lat="42.83939" lon="-0.32022">
        <ele>2416</ele>
        <time>2023-08-01T10:57:30Z</time>
      </trkpt>
      <trkpt lat="42.83937" lon="-0.32025">
        <ele>2416</ele>
        <time>2023-08-01T10:57:34Z</time>
      </trkpt>
      <trkpt lat="42.83943" lon="-0.32027">
        <ele>2419</ele>
        <time>2023-08-01T10:57:43Z</time>
      </trkpt>
      <trkpt lat="42.83942" lon="-0.32033">
        <ele>2421</ele>
        <time>2023-08-01T10:57:49Z</time>
      </trkpt>
      <trkpt lat="42.83945" lon="-0.32032">
        <ele>2421</ele>
        <time>2023-08-01T10:57:53Z</time>
      </trkpt>
      <trkpt lat="42.83949" lon="-0.32034">
        <ele>2423</ele>
        <time>2023-08-01T10:57:58Z</time>
      </trkpt>
      <trkpt lat="42.83954" lon="-0.32042">
        <ele>2428</ele>
        <time>2023-08-01T10:58:09Z</time>
      </trkpt>
      <trkpt lat="42.83944" lon="-0.32068">
        <ele>2436</ele>
        <time>2023-08-01T10:58:37Z</time>
      </trkpt>
      <trkpt lat="42.83938" lon="-0.3207">
        <ele>2436</ele>
        <time>2023-08-01T10:58:46Z</time>
      </trkpt>
      <trkpt lat="42.83941" lon="-0.32088">
        <ele>2442</ele>
        <time>2023-08-01T10:59:04Z</time>
      </trkpt>
      <trkpt lat="42.83948" lon="-0.32106">
        <ele>2445</ele>
        <time>2023-08-01T10:59:24Z</time>
      </trkpt>
      <trkpt lat="42.83956" lon="-0.32114">
        <ele>2446</ele>
        <time>2023-08-01T10:59:37Z</time>
      </trkpt>
      <trkpt lat="42.83958" lon="-0.3212">
        <ele>2447</ele>
        <time>2023-08-01T10:59:43Z</time>
      </trkpt>
      <trkpt lat="42.83956" lon="-0.32131">
        <ele>2447</ele>
        <time>2023-08-01T10:59:54Z</time>
      </trkpt>
      <trkpt lat="42.83963" lon="-0.32148">
        <ele>2447</ele>
        <time>2023-08-01T11:00:13Z</time>
      </trkpt>
      <trkpt lat="42.83969" lon="-0.32158">
        <ele>2447</ele>
        <time>2023-08-01T11:00:26Z</time>
      </trkpt>
      <trkpt lat="42.83973" lon="-0.32156">
        <ele>2447</ele>
        <time>2023-08-01T11:00:32Z</time>
      </trkpt>
      <trkpt lat="42.83975" lon="-0.32161">
        <ele>2447</ele>
        <time>2023-08-01T11:00:37Z</time>
      </trkpt>
      <trkpt lat="42.83991" lon="-0.32164">
        <ele>2446</ele>
        <time>2023-08-01T11:00:59Z</time>
      </trkpt>
      <trkpt lat="42.83989" lon="-0.32171">
        <ele>2445</ele>
        <time>2023-08-01T11:01:06Z</time>
      </trkpt>
      <trkpt lat="42.84002" lon="-0.32174">
        <ele>2443</ele>
        <time>2023-08-01T11:01:24Z</time>
      </trkpt>
      <trkpt lat="42.84007" lon="-0.32186">
        <ele>2439</ele>
        <time>2023-08-01T11:01:37Z</time>
      </trkpt>
      <trkpt lat="42.84038" lon="-0.32226">
        <ele>2425</ele>
        <time>2023-08-01T11:02:34Z</time>
      </trkpt>
      <trkpt lat="42.84077" lon="-0.32251">
        <ele>2412</ele>
        <time>2023-08-01T11:03:32Z</time>
      </trkpt>
      <trkpt lat="42.84105" lon="-0.32253">
        <ele>2407</ele>
        <time>2023-08-01T11:04:09Z</time>
      </trkpt>
      <trkpt lat="42.8411" lon="-0.3228">
        <ele>2400</ele>
        <time>2023-08-01T11:04:37Z</time>
      </trkpt>
      <trkpt lat="42.8413" lon="-0.32285">
        <ele>2395</ele>
        <time>2023-08-01T11:05:04Z</time>
      </trkpt>
      <trkpt lat="42.84141" lon="-0.3228">
        <ele>2394</ele>
        <time>2023-08-01T11:05:19Z</time>
      </trkpt>
      <trkpt lat="42.84148" lon="-0.32291">
        <ele>2392</ele>
        <time>2023-08-01T11:05:33Z</time>
      </trkpt>
      <trkpt lat="42.84191" lon="-0.32318">
        <ele>2381</ele>
        <time>2023-08-01T11:06:37Z</time>
      </trkpt>
      <trkpt lat="42.84256" lon="-0.32379">
        <ele>2354</ele>
        <time>2023-08-01T11:08:22Z</time>
      </trkpt>
      <trkpt lat="42.84299" lon="-0.32442">
        <ele>2330</ele>
        <time>2023-08-01T11:09:46Z</time>
      </trkpt>
      <trkpt lat="42.84313" lon="-0.32451">
        <ele>2326</ele>
        <time>2023-08-01T11:10:07Z</time>
      </trkpt>
      <trkpt lat="42.84317" lon="-0.32451">
        <ele>2325</ele>
        <time>2023-08-01T11:10:12Z</time>
      </trkpt>
      <trkpt lat="42.84321" lon="-0.32454">
        <ele>2324</ele>
        <time>2023-08-01T11:10:18Z</time>
      </trkpt>
      <trkpt lat="42.84325" lon="-0.32456">
        <ele>2323</ele>
        <time>2023-08-01T11:10:24Z</time>
      </trkpt>
      <trkpt lat="42.84327" lon="-0.32463">
        <ele>2320</ele>
        <time>2023-08-01T11:10:31Z</time>
      </trkpt>
      <trkpt lat="42.84331" lon="-0.32466">
        <ele>2318</ele>
        <time>2023-08-01T11:10:37Z</time>
      </trkpt>
      <trkpt lat="42.84332" lon="-0.32474">
        <ele>2316</ele>
        <time>2023-08-01T11:10:45Z</time>
      </trkpt>
      <trkpt lat="42.84336" lon="-0.32475">
        <ele>2315</ele>
        <time>2023-08-01T11:10:51Z</time>
      </trkpt>
      <trkpt lat="42.84338" lon="-0.32478">
        <ele>2313</ele>
        <time>2023-08-01T11:10:55Z</time>
      </trkpt>
      <trkpt lat="42.84341" lon="-0.32479">
        <ele>2312</ele>
        <time>2023-08-01T11:10:59Z</time>
      </trkpt>
      <trkpt lat="42.84344" lon="-0.32485">
        <ele>2310</ele>
        <time>2023-08-01T11:11:06Z</time>
      </trkpt>
      <trkpt lat="42.8436" lon="-0.32488">
        <ele>2306</ele>
        <time>2023-08-01T11:11:27Z</time>
      </trkpt>
      <trkpt lat="42.84373" lon="-0.32486">
        <ele>2304</ele>
        <time>2023-08-01T11:11:45Z</time>
      </trkpt>
      <trkpt lat="42.84377" lon="-0.32489">
        <ele>2302</ele>
        <time>2023-08-01T11:11:51Z</time>
      </trkpt>
      <trkpt lat="42.8439" lon="-0.32483">
        <ele>2301</ele>
        <time>2023-08-01T11:12:09Z</time>
      </trkpt>
      <trkpt lat="42.84398" lon="-0.32488">
        <ele>2298</ele>
        <time>2023-08-01T11:12:21Z</time>
      </trkpt>
      <trkpt lat="42.84406" lon="-0.32499">
        <ele>2293</ele>
        <time>2023-08-01T11:12:36Z</time>
      </trkpt>
      <trkpt lat="42.84415" lon="-0.32506">
        <ele>2290</ele>
        <time>2023-08-01T11:12:50Z</time>
      </trkpt>
      <trkpt lat="42.8442" lon="-0.32515">
        <ele>2288</ele>
        <time>2023-08-01T11:13:01Z</time>
      </trkpt>
      <trkpt lat="42.84451" lon="-0.32535">
        <ele>2287</ele>
        <time>2023-08-01T11:13:47Z</time>
      </trkpt>
      <trkpt lat="42.84482" lon="-0.32547">
        <ele>2285</ele>
        <time>2023-08-01T11:14:30Z</time>
      </trkpt>
      <trkpt lat="42.84507" lon="-0.32578">
        <ele>2282</ele>
        <time>2023-08-01T11:15:15Z</time>
      </trkpt>
      <trkpt lat="42.84525" lon="-0.32593">
        <ele>2283</ele>
        <time>2023-08-01T11:15:43Z</time>
      </trkpt>
      <trkpt lat="42.84536" lon="-0.32591">
        <ele>2285</ele>
        <time>2023-08-01T11:15:58Z</time>
      </trkpt>
      <trkpt lat="42.84542" lon="-0.326">
        <ele>2285</ele>
        <time>2023-08-01T11:16:10Z</time>
      </trkpt>
      <trkpt lat="42.84551" lon="-0.32608">
        <ele>2286</ele>
        <time>2023-08-01T11:16:24Z</time>
      </trkpt>
      <trkpt lat="42.84562" lon="-0.32627">
        <ele>2286</ele>
        <time>2023-08-01T11:16:48Z</time>
      </trkpt>
      <trkpt lat="42.8457" lon="-0.32645">
        <ele>2286</ele>
        <time>2023-08-01T11:17:08Z</time>
      </trkpt>
      <trkpt lat="42.84576" lon="-0.32651">
        <ele>2287</ele>
        <time>2023-08-01T11:17:18Z</time>
      </trkpt>
      <trkpt lat="42.8459" lon="-0.32653">
        <ele>2289</ele>
        <time>2023-08-01T11:17:37Z</time>
      </trkpt>
      <trkpt lat="42.84585" lon="-0.32664">
        <ele>2287</ele>
        <time>2023-08-01T11:17:50Z</time>
      </trkpt>
      <trkpt lat="42.84584" lon="-0.32672">
        <ele>2287</ele>
        <time>2023-08-01T11:17:58Z</time>
      </trkpt>
      <trkpt lat="42.84572" lon="-0.32685">
        <ele>2284</ele>
        <time>2023-08-01T11:18:18Z</time>
      </trkpt>
      <trkpt lat="42.8456" lon="-0.32718">
        <ele>2280</ele>
        <time>2023-08-01T11:18:54Z</time>
      </trkpt>
      <trkpt lat="42.84552" lon="-0.32762">
        <ele>2275</ele>
        <time>2023-08-01T11:19:39Z</time>
      </trkpt>
      <trkpt lat="42.84553" lon="-0.32767">
        <ele>2275</ele>
        <time>2023-08-01T11:19:44Z</time>
      </trkpt>
      <trkpt lat="42.84552" lon="-0.32777">
        <ele>2274</ele>
        <time>2023-08-01T11:19:53Z</time>
      </trkpt>
      <trkpt lat="42.84555" lon="-0.32794">
        <ele>2273</ele>
        <time>2023-08-01T11:20:11Z</time>
      </trkpt>
      <trkpt lat="42.84565" lon="-0.32811">
        <ele>2274</ele>
        <time>2023-08-01T11:20:32Z</time>
      </trkpt>
      <trkpt lat="42.84568" lon="-0.32829">
        <ele>2273</ele>
        <time>2023-08-01T11:20:50Z</time>
      </trkpt>
      <trkpt lat="42.84574" lon="-0.32847">
        <ele>2273</ele>
        <time>2023-08-01T11:21:09Z</time>
      </trkpt>
      <trkpt lat="42.84574" lon="-0.32868">
        <ele>2271</ele>
        <time>2023-08-01T11:21:30Z</time>
      </trkpt>
      <trkpt lat="42.84593" lon="-0.32917">
        <ele>2266</ele>
        <time>2023-08-01T11:22:24Z</time>
      </trkpt>
      <trkpt lat="42.84599" lon="-0.32929">
        <ele>2266</ele>
        <time>2023-08-01T11:22:38Z</time>
      </trkpt>
      <trkpt lat="42.84604" lon="-0.32931">
        <ele>2266</ele>
        <time>2023-08-01T11:22:45Z</time>
      </trkpt>
      <trkpt lat="42.84606" lon="-0.32938">
        <ele>2266</ele>
        <time>2023-08-01T11:22:53Z</time>
      </trkpt>
      <trkpt lat="42.84609" lon="-0.32942">
        <ele>2266</ele>
        <time>2023-08-01T11:22:58Z</time>
      </trkpt>
      <trkpt lat="42.84612" lon="-0.32957">
        <ele>2267</ele>
        <time>2023-08-01T11:23:13Z</time>
      </trkpt>
      <trkpt lat="42.84607" lon="-0.32968">
        <ele>2269</ele>
        <time>2023-08-01T11:23:26Z</time>
      </trkpt>
      <trkpt lat="42.8461" lon="-0.32973">
        <ele>2269</ele>
        <time>2023-08-01T11:23:32Z</time>
      </trkpt>
      <trkpt lat="42.84614" lon="-0.3298">
        <ele>2268</ele>
        <time>2023-08-01T11:23:41Z</time>
      </trkpt>
      <trkpt lat="42.84624" lon="-0.32993">
        <ele>2267</ele>
        <time>2023-08-01T11:24:00Z</time>
      </trkpt>
      <trkpt lat="42.8463" lon="-0.32997">
        <ele>2266</ele>
        <time>2023-08-01T11:24:08Z</time>
      </trkpt>
      <trkpt lat="42.84643" lon="-0.33016">
        <ele>2266</ele>
        <time>2023-08-01T11:24:34Z</time>
      </trkpt>
      <trkpt lat="42.84651" lon="-0.33021">
        <ele>2265</ele>
        <time>2023-08-01T11:24:46Z</time>
      </trkpt>
      <trkpt lat="42.84672" lon="-0.33047">
        <ele>2265</ele>
        <time>2023-08-01T11:25:23Z</time>
      </trkpt>
      <trkpt lat="42.84688" lon="-0.33063">
        <ele>2266</ele>
        <time>2023-08-01T11:25:50Z</time>
      </trkpt>
      <trkpt lat="42.84705" lon="-0.3307">
        <ele>2265</ele>
        <time>2023-08-01T11:26:14Z</time>
      </trkpt>
      <trkpt lat="42.8471" lon="-0.33074">
        <ele>2264</ele>
        <time>2023-08-01T11:26:21Z</time>
      </trkpt>
      <trkpt lat="42.84719" lon="-0.33077">
        <ele>2263</ele>
        <time>2023-08-01T11:26:34Z</time>
      </trkpt>
      <trkpt lat="42.84727" lon="-0.33077">
        <ele>2262</ele>
        <time>2023-08-01T11:26:44Z</time>
      </trkpt>
      <trkpt lat="42.8473" lon="-0.33068">
        <ele>2260</ele>
        <time>2023-08-01T11:26:54Z</time>
      </trkpt>
      <trkpt lat="42.84729" lon="-0.3306">
        <ele>2260</ele>
        <time>2023-08-01T11:27:02Z</time>
      </trkpt>
      <trkpt lat="42.84733" lon="-0.33054">
        <ele>2258</ele>
        <time>2023-08-01T11:27:10Z</time>
      </trkpt>
      <trkpt lat="42.84738" lon="-0.33055">
        <ele>2258</ele>
        <time>2023-08-01T11:27:17Z</time>
      </trkpt>
      <trkpt lat="42.84749" lon="-0.33041">
        <ele>2255</ele>
        <time>2023-08-01T11:27:37Z</time>
      </trkpt>
      <trkpt lat="42.84753" lon="-0.33038">
        <ele>2254</ele>
        <time>2023-08-01T11:27:43Z</time>
      </trkpt>
      <trkpt lat="42.84764" lon="-0.3304">
        <ele>2255</ele>
        <time>2023-08-01T11:27:58Z</time>
      </trkpt>
      <trkpt lat="42.84769" lon="-0.33037">
        <ele>2255</ele>
        <time>2023-08-01T11:28:05Z</time>
      </trkpt>
      <trkpt lat="42.84773" lon="-0.33053">
        <ele>2257</ele>
        <time>2023-08-01T11:28:21Z</time>
      </trkpt>
      <trkpt lat="42.84775" lon="-0.33067">
        <ele>2258</ele>
        <time>2023-08-01T11:28:35Z</time>
      </trkpt>
      <trkpt lat="42.84784" lon="-0.33094">
        <ele>2262</ele>
        <time>2023-08-01T11:29:04Z</time>
      </trkpt>
      <trkpt lat="42.84805" lon="-0.33083">
        <ele>2261</ele>
        <time>2023-08-01T11:29:34Z</time>
      </trkpt>
      <trkpt lat="42.84811" lon="-0.33083">
        <ele>2261</ele>
        <time>2023-08-01T11:29:42Z</time>
      </trkpt>
      <trkpt lat="42.84817" lon="-0.33102">
        <ele>2262</ele>
        <time>2023-08-01T11:30:03Z</time>
      </trkpt>
      <trkpt lat="42.8483" lon="-0.33115">
        <ele>2263</ele>
        <time>2023-08-01T11:30:24Z</time>
      </trkpt>
      <trkpt lat="42.84839" lon="-0.33137">
        <ele>2262</ele>
        <time>2023-08-01T11:30:49Z</time>
      </trkpt>
      <trkpt lat="42.84859" lon="-0.33152">
        <ele>2258</ele>
        <time>2023-08-01T11:31:19Z</time>
      </trkpt>
      <trkpt lat="42.84861" lon="-0.33157">
        <ele>2258</ele>
        <time>2023-08-01T11:31:25Z</time>
      </trkpt>
      <trkpt lat="42.84864" lon="-0.33158">
        <ele>2257</ele>
        <time>2023-08-01T11:31:29Z</time>
      </trkpt>
      <trkpt lat="42.84861" lon="-0.33182">
        <ele>2257</ele>
        <time>2023-08-01T11:31:53Z</time>
      </trkpt>
      <trkpt lat="42.8487" lon="-0.33185">
        <ele>2255</ele>
        <time>2023-08-01T11:32:05Z</time>
      </trkpt>
      <trkpt lat="42.84875" lon="-0.33181">
        <ele>2254</ele>
        <time>2023-08-01T11:32:13Z</time>
      </trkpt>
      <trkpt lat="42.84884" lon="-0.33187">
        <ele>2251</ele>
        <time>2023-08-01T11:32:26Z</time>
      </trkpt>
      <trkpt lat="42.84894" lon="-0.33186">
        <ele>2249</ele>
        <time>2023-08-01T11:32:40Z</time>
      </trkpt>
      <trkpt lat="42.84898" lon="-0.33197">
        <ele>2247</ele>
        <time>2023-08-01T11:32:52Z</time>
      </trkpt>
      <trkpt lat="42.84912" lon="-0.33199">
        <ele>2243</ele>
        <time>2023-08-01T11:33:11Z</time>
      </trkpt>
      <trkpt lat="42.84916" lon="-0.33205">
        <ele>2241</ele>
        <time>2023-08-01T11:33:18Z</time>
      </trkpt>
      <trkpt lat="42.84933" lon="-0.33219">
        <ele>2235</ele>
        <time>2023-08-01T11:33:45Z</time>
      </trkpt>
      <trkpt lat="42.84927" lon="-0.33225">
        <ele>2235</ele>
        <time>2023-08-01T11:33:55Z</time>
      </trkpt>
      <trkpt lat="42.84941" lon="-0.33239">
        <ele>2229</ele>
        <time>2023-08-01T11:34:18Z</time>
      </trkpt>
      <trkpt lat="42.8494" lon="-0.33248">
        <ele>2228</ele>
        <time>2023-08-01T11:34:27Z</time>
      </trkpt>
      <trkpt lat="42.84944" lon="-0.33253">
        <ele>2226</ele>
        <time>2023-08-01T11:34:34Z</time>
      </trkpt>
      <trkpt lat="42.8495" lon="-0.33257">
        <ele>2222</ele>
        <time>2023-08-01T11:34:43Z</time>
      </trkpt>
      <trkpt lat="42.84965" lon="-0.33254">
        <ele>2219</ele>
        <time>2023-08-01T11:35:03Z</time>
      </trkpt>
      <trkpt lat="42.84993" lon="-0.33247">
        <ele>2214</ele>
        <time>2023-08-01T11:35:41Z</time>
      </trkpt>
      <trkpt lat="42.84993" lon="-0.33252">
        <ele>2212</ele>
        <time>2023-08-01T11:35:46Z</time>
      </trkpt>
      <trkpt lat="42.85001" lon="-0.3325">
        <ele>2210</ele>
        <time>2023-08-01T11:35:57Z</time>
      </trkpt>
      <trkpt lat="42.85004" lon="-0.3324">
        <ele>2211</ele>
        <time>2023-08-01T11:36:08Z</time>
      </trkpt>
      <trkpt lat="42.85012" lon="-0.33253">
        <ele>2203</ele>
        <time>2023-08-01T11:36:24Z</time>
      </trkpt>
      <trkpt lat="42.85019" lon="-0.33255">
        <ele>2199</ele>
        <time>2023-08-01T11:36:34Z</time>
      </trkpt>
      <trkpt lat="42.85017" lon="-0.33269">
        <ele>2195</ele>
        <time>2023-08-01T11:36:48Z</time>
      </trkpt>
      <trkpt lat="42.85001" lon="-0.33292">
        <ele>2192</ele>
        <time>2023-08-01T11:37:19Z</time>
      </trkpt>
      <trkpt lat="42.85024" lon="-0.33294">
        <ele>2183</ele>
        <time>2023-08-01T11:37:50Z</time>
      </trkpt>
      <trkpt lat="42.85013" lon="-0.33306">
        <ele>2182</ele>
        <time>2023-08-01T11:38:08Z</time>
      </trkpt>
      <trkpt lat="42.85038" lon="-0.33306">
        <ele>2174</ele>
        <time>2023-08-01T11:38:42Z</time>
      </trkpt>
      <trkpt lat="42.85021" lon="-0.33324">
        <ele>2173</ele>
        <time>2023-08-01T11:39:10Z</time>
      </trkpt>
      <trkpt lat="42.85038" lon="-0.33329">
        <ele>2167</ele>
        <time>2023-08-01T11:39:34Z</time>
      </trkpt>
      <trkpt lat="42.85023" lon="-0.33341">
        <ele>2166</ele>
        <time>2023-08-01T11:39:57Z</time>
      </trkpt>
      <trkpt lat="42.85041" lon="-0.33344">
        <ele>2162</ele>
        <time>2023-08-01T11:40:21Z</time>
      </trkpt>
      <trkpt lat="42.8503" lon="-0.33354">
        <ele>2161</ele>
        <time>2023-08-01T11:40:39Z</time>
      </trkpt>
      <trkpt lat="42.85054" lon="-0.33356">
        <ele>2155</ele>
        <time>2023-08-01T11:41:11Z</time>
      </trkpt>
      <trkpt lat="42.85049" lon="-0.33361">
        <ele>2155</ele>
        <time>2023-08-01T11:41:19Z</time>
      </trkpt>
      <trkpt lat="42.85075" lon="-0.3336">
        <ele>2150</ele>
        <time>2023-08-01T11:41:54Z</time>
      </trkpt>
      <trkpt lat="42.85083" lon="-0.33368">
        <ele>2146</ele>
        <time>2023-08-01T11:42:07Z</time>
      </trkpt>
      <trkpt lat="42.85088" lon="-0.33367">
        <ele>2144</ele>
        <time>2023-08-01T11:42:14Z</time>
      </trkpt>
      <trkpt lat="42.85093" lon="-0.33375">
        <ele>2140</ele>
        <time>2023-08-01T11:42:24Z</time>
      </trkpt>
      <trkpt lat="42.85086" lon="-0.33386">
        <ele>2140</ele>
        <time>2023-08-01T11:42:38Z</time>
      </trkpt>
      <trkpt lat="42.85093" lon="-0.33398">
        <ele>2134</ele>
        <time>2023-08-01T11:42:53Z</time>
      </trkpt>
      <trkpt lat="42.85074" lon="-0.33408">
        <ele>2137</ele>
        <time>2023-08-01T11:43:20Z</time>
      </trkpt>
      <trkpt lat="42.85068" lon="-0.33414">
        <ele>2136</ele>
        <time>2023-08-01T11:43:30Z</time>
      </trkpt>
      <trkpt lat="42.85068" lon="-0.3343">
        <ele>2131</ele>
        <time>2023-08-01T11:43:46Z</time>
      </trkpt>
      <trkpt lat="42.85077" lon="-0.33426">
        <ele>2131</ele>
        <time>2023-08-01T11:43:59Z</time>
      </trkpt>
      <trkpt lat="42.85086" lon="-0.33432">
        <ele>2127</ele>
        <time>2023-08-01T11:44:12Z</time>
      </trkpt>
      <trkpt lat="42.85091" lon="-0.33435">
        <ele>2125</ele>
        <time>2023-08-01T11:44:19Z</time>
      </trkpt>
      <trkpt lat="42.85102" lon="-0.33452">
        <ele>2117</ele>
        <time>2023-08-01T11:44:41Z</time>
      </trkpt>
      <trkpt lat="42.85128" lon="-0.33431">
        <ele>2115</ele>
        <time>2023-08-01T11:45:22Z</time>
      </trkpt>
      <trkpt lat="42.85151" lon="-0.33429">
        <ele>2108</ele>
        <time>2023-08-01T11:45:53Z</time>
      </trkpt>
      <trkpt lat="42.8514" lon="-0.33446">
        <ele>2108</ele>
        <time>2023-08-01T11:46:15Z</time>
      </trkpt>
      <trkpt lat="42.85152" lon="-0.33447">
        <ele>2104</ele>
        <time>2023-08-01T11:46:31Z</time>
      </trkpt>
      <trkpt lat="42.85157" lon="-0.33444">
        <ele>2103</ele>
        <time>2023-08-01T11:46:38Z</time>
      </trkpt>
      <trkpt lat="42.85154" lon="-0.33468">
        <ele>2099</ele>
        <time>2023-08-01T11:47:02Z</time>
      </trkpt>
      <trkpt lat="42.85167" lon="-0.33455">
        <ele>2098</ele>
        <time>2023-08-01T11:47:23Z</time>
      </trkpt>
      <trkpt lat="42.8517" lon="-0.33502">
        <ele>2087</ele>
        <time>2023-08-01T11:48:10Z</time>
      </trkpt>
      <trkpt lat="42.85166" lon="-0.33528">
        <ele>2081</ele>
        <time>2023-08-01T11:48:36Z</time>
      </trkpt>
      <trkpt lat="42.85171" lon="-0.33522">
        <ele>2081</ele>
        <time>2023-08-01T11:48:44Z</time>
      </trkpt>
      <trkpt lat="42.85169" lon="-0.33543">
        <ele>2076</ele>
        <time>2023-08-01T11:49:05Z</time>
      </trkpt>
      <trkpt lat="42.85173" lon="-0.33547">
        <ele>2073</ele>
        <time>2023-08-01T11:49:12Z</time>
      </trkpt>
      <trkpt lat="42.85184" lon="-0.33551">
        <ele>2068</ele>
        <time>2023-08-01T11:49:27Z</time>
      </trkpt>
      <trkpt lat="42.8519" lon="-0.33566">
        <ele>2062</ele>
        <time>2023-08-01T11:49:44Z</time>
      </trkpt>
      <trkpt lat="42.85205" lon="-0.33574">
        <ele>2056</ele>
        <time>2023-08-01T11:50:05Z</time>
      </trkpt>
      <trkpt lat="42.85209" lon="-0.33587">
        <ele>2052</ele>
        <time>2023-08-01T11:50:19Z</time>
      </trkpt>
      <trkpt lat="42.85212" lon="-0.33586">
        <ele>2051</ele>
        <time>2023-08-01T11:50:23Z</time>
      </trkpt>
      <trkpt lat="42.85218" lon="-0.33566">
        <ele>2053</ele>
        <time>2023-08-01T11:50:44Z</time>
      </trkpt>
      <trkpt lat="42.85218" lon="-0.33553">
        <ele>2056</ele>
        <time>2023-08-01T11:50:57Z</time>
      </trkpt>
      <trkpt lat="42.85221" lon="-0.33536">
        <ele>2059</ele>
        <time>2023-08-01T11:51:14Z</time>
      </trkpt>
      <trkpt lat="42.85233" lon="-0.33511">
        <ele>2059</ele>
        <time>2023-08-01T11:51:43Z</time>
      </trkpt>
      <trkpt lat="42.85234" lon="-0.33513">
        <ele>2058</ele>
        <time>2023-08-01T11:51:46Z</time>
      </trkpt>
      <trkpt lat="42.85236" lon="-0.33547">
        <ele>2051</ele>
        <time>2023-08-01T11:52:19Z</time>
      </trkpt>
      <trkpt lat="42.85243" lon="-0.33572">
        <ele>2044</ele>
        <time>2023-08-01T11:52:45Z</time>
      </trkpt>
      <trkpt lat="42.85241" lon="-0.3359">
        <ele>2042</ele>
        <time>2023-08-01T11:53:03Z</time>
      </trkpt>
      <trkpt lat="42.85233" lon="-0.33608">
        <ele>2043</ele>
        <time>2023-08-01T11:53:24Z</time>
      </trkpt>
      <trkpt lat="42.85222" lon="-0.33646">
        <ele>2043</ele>
        <time>2023-08-01T11:54:04Z</time>
      </trkpt>
      <trkpt lat="42.8522" lon="-0.3366">
        <ele>2043</ele>
        <time>2023-08-01T11:54:18Z</time>
      </trkpt>
      <trkpt lat="42.85221" lon="-0.33669">
        <ele>2043</ele>
        <time>2023-08-01T11:54:26Z</time>
      </trkpt>
      <trkpt lat="42.85224" lon="-0.3367">
        <ele>2041</ele>
        <time>2023-08-01T11:54:31Z</time>
      </trkpt>
      <trkpt lat="42.85229" lon="-0.33665">
        <ele>2039</ele>
        <time>2023-08-01T11:54:39Z</time>
      </trkpt>
      <trkpt lat="42.85235" lon="-0.33664">
        <ele>2036</ele>
        <time>2023-08-01T11:54:47Z</time>
      </trkpt>
      <trkpt lat="42.85239" lon="-0.33667">
        <ele>2034</ele>
        <time>2023-08-01T11:54:53Z</time>
      </trkpt>
      <trkpt lat="42.8526" lon="-0.3366">
        <ele>2027</ele>
        <time>2023-08-01T11:55:22Z</time>
      </trkpt>
      <trkpt lat="42.85264" lon="-0.33653">
        <ele>2027</ele>
        <time>2023-08-01T11:55:30Z</time>
      </trkpt>
      <trkpt lat="42.85266" lon="-0.33666">
        <ele>2025</ele>
        <time>2023-08-01T11:55:43Z</time>
      </trkpt>
      <trkpt lat="42.85272" lon="-0.33681">
        <ele>2027</ele>
        <time>2023-08-01T11:56:00Z</time>
      </trkpt>
      <trkpt lat="42.85282" lon="-0.33686">
        <ele>2025</ele>
        <time>2023-08-01T11:56:14Z</time>
      </trkpt>
      <trkpt lat="42.8534" lon="-0.33695">
        <ele>2015</ele>
        <time>2023-08-01T11:57:32Z</time>
      </trkpt>
      <trkpt lat="42.85369" lon="-0.33692">
        <ele>2013</ele>
        <time>2023-08-01T11:58:11Z</time>
      </trkpt>
      <trkpt lat="42.85398" lon="-0.33685">
        <ele>2009</ele>
        <time>2023-08-01T11:58:50Z</time>
      </trkpt>
      <trkpt lat="42.8546" lon="-0.3365">
        <ele>2000</ele>
        <time>2023-08-01T12:00:20Z</time>
      </trkpt>
      <trkpt lat="42.85472" lon="-0.33646">
        <ele>2000</ele>
        <time>2023-08-01T12:00:36Z</time>
      </trkpt>
      <trkpt lat="42.85478" lon="-0.33654">
        <ele>2002</ele>
        <time>2023-08-01T12:00:48Z</time>
      </trkpt>
      <trkpt lat="42.85484" lon="-0.33654">
        <ele>2002</ele>
        <time>2023-08-01T12:00:56Z</time>
      </trkpt>
      <trkpt lat="42.85547" lon="-0.33609">
        <ele>1997</ele>
        <time>2023-08-01T12:02:31Z</time>
      </trkpt>
      <trkpt lat="42.85561" lon="-0.33605">
        <ele>1997</ele>
        <time>2023-08-01T12:02:50Z</time>
      </trkpt>
      <trkpt lat="42.85582" lon="-0.33592">
        <ele>1996</ele>
        <time>2023-08-01T12:03:20Z</time>
      </trkpt>
      <trkpt lat="42.8561" lon="-0.33597">
        <ele>2002</ele>
        <time>2023-08-01T12:03:58Z</time>
      </trkpt>
      <trkpt lat="42.85629" lon="-0.33608">
        <ele>2007</ele>
        <time>2023-08-01T12:04:26Z</time>
      </trkpt>
      <trkpt lat="42.85645" lon="-0.33604">
        <ele>2009</ele>
        <time>2023-08-01T12:04:47Z</time>
      </trkpt>
      <trkpt lat="42.85658" lon="-0.3361">
        <ele>2012</ele>
        <time>2023-08-01T12:05:06Z</time>
      </trkpt>
      <trkpt lat="42.85682" lon="-0.33599">
        <ele>2012</ele>
        <time>2023-08-01T12:05:39Z</time>
      </trkpt>
      <trkpt lat="42.85724" lon="-0.33606">
        <ele>2019</ele>
        <time>2023-08-01T12:06:36Z</time>
      </trkpt>
      <trkpt lat="42.85739" lon="-0.33604">
        <ele>2020</ele>
        <time>2023-08-01T12:06:56Z</time>
      </trkpt>
      <trkpt lat="42.85757" lon="-0.33595">
        <ele>2017</ele>
        <time>2023-08-01T12:07:22Z</time>
      </trkpt>
      <trkpt lat="42.85772" lon="-0.33583">
        <ele>2013</ele>
        <time>2023-08-01T12:07:45Z</time>
      </trkpt>
      <trkpt lat="42.8579" lon="-0.33573">
        <ele>2010</ele>
        <time>2023-08-01T12:08:11Z</time>
      </trkpt>
      <trkpt lat="42.85811" lon="-0.33555">
        <ele>2001</ele>
        <time>2023-08-01T12:08:44Z</time>
      </trkpt>
      <trkpt lat="42.85833" lon="-0.33549">
        <ele>1997</ele>
        <time>2023-08-01T12:09:14Z</time>
      </trkpt>
      <trkpt lat="42.85847" lon="-0.33552">
        <ele>1998</ele>
        <time>2023-08-01T12:09:33Z</time>
      </trkpt>
      <trkpt lat="42.85858" lon="-0.3355">
        <ele>1996</ele>
        <time>2023-08-01T12:09:48Z</time>
      </trkpt>
      <trkpt lat="42.85896" lon="-0.3357">
        <ele>2006</ele>
        <time>2023-08-01T12:10:42Z</time>
      </trkpt>
      <trkpt lat="42.8594" lon="-0.33566">
        <ele>2000</ele>
        <time>2023-08-01T12:11:41Z</time>
      </trkpt>
      <trkpt lat="42.85977" lon="-0.33596">
        <ele>2012</ele>
        <time>2023-08-01T12:12:38Z</time>
      </trkpt>
      <trkpt lat="42.86002" lon="-0.33596">
        <ele>2007</ele>
        <time>2023-08-01T12:13:12Z</time>
      </trkpt>
      <trkpt lat="42.86016" lon="-0.33591">
        <ele>2002</ele>
        <time>2023-08-01T12:13:31Z</time>
      </trkpt>
      <trkpt lat="42.86024" lon="-0.3358">
        <ele>1996</ele>
        <time>2023-08-01T12:13:46Z</time>
      </trkpt>
      <trkpt lat="42.86033" lon="-0.33579">
        <ele>1994</ele>
        <time>2023-08-01T12:13:58Z</time>
      </trkpt>
      <trkpt lat="42.86044" lon="-0.33576">
        <ele>1991</ele>
        <time>2023-08-01T12:14:13Z</time>
      </trkpt>
      <trkpt lat="42.86056" lon="-0.33589">
        <ele>1993</ele>
        <time>2023-08-01T12:14:33Z</time>
      </trkpt>
      <trkpt lat="42.86058" lon="-0.33579">
        <ele>1990</ele>
        <time>2023-08-01T12:14:44Z</time>
      </trkpt>
      <trkpt lat="42.86063" lon="-0.3358">
        <ele>1989</ele>
        <time>2023-08-01T12:14:50Z</time>
      </trkpt>
      <trkpt lat="42.86069" lon="-0.33616">
        <ele>1996</ele>
        <time>2023-08-01T12:15:26Z</time>
      </trkpt>
      <trkpt lat="42.86075" lon="-0.33627">
        <ele>1996</ele>
        <time>2023-08-01T12:15:40Z</time>
      </trkpt>
      <trkpt lat="42.86086" lon="-0.33632">
        <ele>1994</ele>
        <time>2023-08-01T12:15:55Z</time>
      </trkpt>
      <trkpt lat="42.86097" lon="-0.33648">
        <ele>1996</ele>
        <time>2023-08-01T12:16:17Z</time>
      </trkpt>
      <trkpt lat="42.86129" lon="-0.33658">
        <ele>1994</ele>
        <time>2023-08-01T12:17:01Z</time>
      </trkpt>
      <trkpt lat="42.86147" lon="-0.3366">
        <ele>1993</ele>
        <time>2023-08-01T12:17:25Z</time>
      </trkpt>
      <trkpt lat="42.86158" lon="-0.33666">
        <ele>1992</ele>
        <time>2023-08-01T12:17:41Z</time>
      </trkpt>
      <trkpt lat="42.86168" lon="-0.33676">
        <ele>1993</ele>
        <time>2023-08-01T12:17:57Z</time>
      </trkpt>
      <trkpt lat="42.86186" lon="-0.3368">
        <ele>1995</ele>
        <time>2023-08-01T12:18:21Z</time>
      </trkpt>
      <trkpt lat="42.86195" lon="-0.33673">
        <ele>1993</ele>
        <time>2023-08-01T12:18:35Z</time>
      </trkpt>
      <trkpt lat="42.86209" lon="-0.33644">
        <ele>1990</ele>
        <time>2023-08-01T12:19:09Z</time>
      </trkpt>
      <trkpt lat="42.86228" lon="-0.33616">
        <ele>1987</ele>
        <time>2023-08-01T12:19:47Z</time>
      </trkpt>
      <trkpt lat="42.86237" lon="-0.33609">
        <ele>1987</ele>
        <time>2023-08-01T12:20:00Z</time>
      </trkpt>
      <trkpt lat="42.86235" lon="-0.33603">
        <ele>1986</ele>
        <time>2023-08-01T12:20:07Z</time>
      </trkpt>
      <trkpt lat="42.86234" lon="-0.33595">
        <ele>1985</ele>
        <time>2023-08-01T12:20:15Z</time>
      </trkpt>
      <trkpt lat="42.86233" lon="-0.33586">
        <ele>1984</ele>
        <time>2023-08-01T12:20:24Z</time>
      </trkpt>
      <trkpt lat="42.86228" lon="-0.33577">
        <ele>1984</ele>
        <time>2023-08-01T12:20:35Z</time>
      </trkpt>
      <trkpt lat="42.86221" lon="-0.33566">
        <ele>1984</ele>
        <time>2023-08-01T12:20:49Z</time>
      </trkpt>
      <trkpt lat="42.86207" lon="-0.33556">
        <ele>1984</ele>
        <time>2023-08-01T12:21:10Z</time>
      </trkpt>
      <trkpt lat="42.86203" lon="-0.33549">
        <ele>1984</ele>
        <time>2023-08-01T12:21:19Z</time>
      </trkpt>
      <trkpt lat="42.86203" lon="-0.33544">
        <ele>1984</ele>
        <time>2023-08-01T12:21:24Z</time>
      </trkpt>
      <trkpt lat="42.86205" lon="-0.3353">
        <ele>1984</ele>
        <time>2023-08-01T12:21:38Z</time>
      </trkpt>
      <trkpt lat="42.86219" lon="-0.3351">
        <ele>1984</ele>
        <time>2023-08-01T12:22:05Z</time>
      </trkpt>
      <trkpt lat="42.86215" lon="-0.33477">
        <ele>1982</ele>
        <time>2023-08-01T12:22:37Z</time>
      </trkpt>
      <trkpt lat="42.86228" lon="-0.33435">
        <ele>1979</ele>
        <time>2023-08-01T12:23:22Z</time>
      </trkpt>
      <trkpt lat="42.86238" lon="-0.33434">
        <ele>1980</ele>
        <time>2023-08-01T12:23:35Z</time>
      </trkpt>
      <trkpt lat="42.86245" lon="-0.33421">
        <ele>1980</ele>
        <time>2023-08-01T12:23:51Z</time>
      </trkpt>
      <trkpt lat="42.86253" lon="-0.33411">
        <ele>1978</ele>
        <time>2023-08-01T12:24:06Z</time>
      </trkpt>
      <trkpt lat="42.86261" lon="-0.33406">
        <ele>1973</ele>
        <time>2023-08-01T12:24:17Z</time>
      </trkpt>
      <trkpt lat="42.86262" lon="-0.33372">
        <ele>1969</ele>
        <time>2023-08-01T12:24:51Z</time>
      </trkpt>
      <trkpt lat="42.86267" lon="-0.33335">
        <ele>1964</ele>
        <time>2023-08-01T12:25:27Z</time>
      </trkpt>
      <trkpt lat="42.86275" lon="-0.333">
        <ele>1967</ele>
        <time>2023-08-01T12:26:03Z</time>
      </trkpt>
      <trkpt lat="42.86287" lon="-0.33258">
        <ele>1975</ele>
        <time>2023-08-01T12:26:47Z</time>
      </trkpt>
      <trkpt lat="42.86298" lon="-0.33231">
        <ele>1982</ele>
        <time>2023-08-01T12:27:18Z</time>
      </trkpt>
      <trkpt lat="42.863" lon="-0.3323">
        <ele>1983</ele>
        <time>2023-08-01T12:27:20Z</time>
      </trkpt>
      <trkpt lat="42.86311" lon="-0.33232">
        <ele>1986</ele>
        <time>2023-08-01T12:27:35Z</time>
      </trkpt>
      <trkpt lat="42.86293" lon="-0.33206">
        <ele>1985</ele>
        <time>2023-08-01T12:28:10Z</time>
      </trkpt>
      <trkpt lat="42.86288" lon="-0.33181">
        <ele>1988</ele>
        <time>2023-08-01T12:28:36Z</time>
      </trkpt>
      <trkpt lat="42.86285" lon="-0.33128">
        <ele>1997</ele>
        <time>2023-08-01T12:29:28Z</time>
      </trkpt>
      <trkpt lat="42.86282" lon="-0.33112">
        <ele>1999</ele>
        <time>2023-08-01T12:29:44Z</time>
      </trkpt>
      <trkpt lat="42.8628" lon="-0.33089">
        <ele>2002</ele>
        <time>2023-08-01T12:30:06Z</time>
      </trkpt>
      <trkpt lat="42.86281" lon="-0.33066">
        <ele>2005</ele>
        <time>2023-08-01T12:30:29Z</time>
      </trkpt>
      <trkpt lat="42.86283" lon="-0.33065">
        <ele>2006</ele>
        <time>2023-08-01T12:30:32Z</time>
      </trkpt>
      <trkpt lat="42.86286" lon="-0.33057">
        <ele>2009</ele>
        <time>2023-08-01T12:30:40Z</time>
      </trkpt>
      <trkpt lat="42.86287" lon="-0.33059">
        <ele>2009</ele>
        <time>2023-08-01T12:30:43Z</time>
      </trkpt>
      <trkpt lat="42.86287" lon="-0.33063">
        <ele>2009</ele>
        <time>2023-08-01T12:30:47Z</time>
      </trkpt>
      <trkpt lat="42.86289" lon="-0.33061">
        <ele>2010</ele>
        <time>2023-08-01T12:30:50Z</time>
      </trkpt>
      <trkpt lat="42.86307" lon="-0.32957">
        <ele>2034</ele>
        <time>2023-08-01T12:32:35Z</time>
      </trkpt>
      <trkpt lat="42.86319" lon="-0.3292">
        <ele>2047</ele>
        <time>2023-08-01T12:33:14Z</time>
      </trkpt>
      <trkpt lat="42.86332" lon="-0.32854">
        <ele>2067</ele>
        <time>2023-08-01T12:34:21Z</time>
      </trkpt>
      <trkpt lat="42.86334" lon="-0.32772">
        <ele>2083</ele>
        <time>2023-08-01T12:35:41Z</time>
      </trkpt>
      <trkpt lat="42.86348" lon="-0.32749">
        <ele>2096</ele>
        <time>2023-08-01T12:36:11Z</time>
      </trkpt>
      <trkpt lat="42.86363" lon="-0.32706">
        <ele>2104</ele>
        <time>2023-08-01T12:36:57Z</time>
      </trkpt>
      <trkpt lat="42.86371" lon="-0.32688">
        <ele>2107</ele>
        <time>2023-08-01T12:37:18Z</time>
      </trkpt>
      <trkpt lat="42.86373" lon="-0.32663">
        <ele>2105</ele>
        <time>2023-08-01T12:37:42Z</time>
      </trkpt>
      <trkpt lat="42.86371" lon="-0.3264">
        <ele>2100</ele>
        <time>2023-08-01T12:38:05Z</time>
      </trkpt>
      <trkpt lat="42.86393" lon="-0.32586">
        <ele>2095</ele>
        <time>2023-08-01T12:39:05Z</time>
      </trkpt>
      <trkpt lat="42.86389" lon="-0.32566">
        <ele>2095</ele>
        <time>2023-08-01T12:39:26Z</time>
      </trkpt>
      <trkpt lat="42.86394" lon="-0.32554">
        <ele>2097</ele>
        <time>2023-08-01T12:39:39Z</time>
      </trkpt>
      <trkpt lat="42.86413" lon="-0.32528">
        <ele>2100</ele>
        <time>2023-08-01T12:40:15Z</time>
      </trkpt>
      <trkpt lat="42.86436" lon="-0.32509">
        <ele>2104</ele>
        <time>2023-08-01T12:40:51Z</time>
      </trkpt>
      <trkpt lat="42.86449" lon="-0.32492">
        <ele>2106</ele>
        <time>2023-08-01T12:41:15Z</time>
      </trkpt>
      <trkpt lat="42.86455" lon="-0.32474">
        <ele>2109</ele>
        <time>2023-08-01T12:41:34Z</time>
      </trkpt>
      <trkpt lat="42.86457" lon="-0.32437">
        <ele>2115</ele>
        <time>2023-08-01T12:42:11Z</time>
      </trkpt>
      <trkpt lat="42.86463" lon="-0.32422">
        <ele>2116</ele>
        <time>2023-08-01T12:42:27Z</time>
      </trkpt>
      <trkpt lat="42.86471" lon="-0.32391">
        <ele>2117</ele>
        <time>2023-08-01T12:42:59Z</time>
      </trkpt>
      <trkpt lat="42.86479" lon="-0.3233">
        <ele>2117</ele>
        <time>2023-08-01T12:44:00Z</time>
      </trkpt>
      <trkpt lat="42.86479" lon="-0.32305">
        <ele>2117</ele>
        <time>2023-08-01T12:44:25Z</time>
      </trkpt>
      <trkpt lat="42.86481" lon="-0.32286">
        <ele>2116</ele>
        <time>2023-08-01T12:44:43Z</time>
      </trkpt>
      <trkpt lat="42.86488" lon="-0.32276">
        <ele>2111</ele>
        <time>2023-08-01T12:44:57Z</time>
      </trkpt>
      <trkpt lat="42.86487" lon="-0.32233">
        <ele>2111</ele>
        <time>2023-08-01T12:45:39Z</time>
      </trkpt>
      <trkpt lat="42.86498" lon="-0.3215">
        <ele>2103</ele>
        <time>2023-08-01T12:47:01Z</time>
      </trkpt>
      <trkpt lat="42.86499" lon="-0.32127">
        <ele>2105</ele>
        <time>2023-08-01T12:47:24Z</time>
      </trkpt>
      <trkpt lat="42.86504" lon="-0.3211">
        <ele>2107</ele>
        <time>2023-08-01T12:47:42Z</time>
      </trkpt>
      <trkpt lat="42.86514" lon="-0.32103">
        <ele>2107</ele>
        <time>2023-08-01T12:47:57Z</time>
      </trkpt>
      <trkpt lat="42.86522" lon="-0.32093">
        <ele>2107</ele>
        <time>2023-08-01T12:48:11Z</time>
      </trkpt>
      <trkpt lat="42.86529" lon="-0.3206">
        <ele>2111</ele>
        <time>2023-08-01T12:48:45Z</time>
      </trkpt>
      <trkpt lat="42.8653" lon="-0.32046">
        <ele>2114</ele>
        <time>2023-08-01T12:48:59Z</time>
      </trkpt>
      <trkpt lat="42.86527" lon="-0.32015">
        <ele>2119</ele>
        <time>2023-08-01T12:49:29Z</time>
      </trkpt>
      <trkpt lat="42.8653" lon="-0.32005">
        <ele>2121</ele>
        <time>2023-08-01T12:49:40Z</time>
      </trkpt>
      <trkpt lat="42.86545" lon="-0.31984">
        <ele>2124</ele>
        <time>2023-08-01T12:50:09Z</time>
      </trkpt>
      <trkpt lat="42.8655" lon="-0.31968">
        <ele>2128</ele>
        <time>2023-08-01T12:50:26Z</time>
      </trkpt>
      <trkpt lat="42.86561" lon="-0.31957">
        <ele>2132</ele>
        <time>2023-08-01T12:50:44Z</time>
      </trkpt>
      <trkpt lat="42.86567" lon="-0.31931">
        <ele>2140</ele>
        <time>2023-08-01T12:51:10Z</time>
      </trkpt>
      <trkpt lat="42.86577" lon="-0.31903">
        <ele>2156</ele>
        <time>2023-08-01T12:51:41Z</time>
      </trkpt>
      <trkpt lat="42.8658" lon="-0.31879">
        <ele>2171</ele>
        <time>2023-08-01T12:52:05Z</time>
      </trkpt>
      <trkpt lat="42.86578" lon="-0.31828">
        <ele>2204</ele>
        <time>2023-08-01T12:52:55Z</time>
      </trkpt>
      <trkpt lat="42.86571" lon="-0.31814">
        <ele>2213</ele>
        <time>2023-08-01T12:53:11Z</time>
      </trkpt>
      <trkpt lat="42.86571" lon="-0.31765">
        <ele>2233</ele>
        <time>2023-08-01T12:53:59Z</time>
      </trkpt>
      <trkpt lat="42.86567" lon="-0.31749">
        <ele>2243</ele>
        <time>2023-08-01T12:54:16Z</time>
      </trkpt>
      <trkpt lat="42.86566" lon="-0.31727">
        <ele>2245</ele>
        <time>2023-08-01T12:54:37Z</time>
      </trkpt>
      <trkpt lat="42.8656" lon="-0.31708">
        <ele>2251</ele>
        <time>2023-08-01T12:54:57Z</time>
      </trkpt>
      <trkpt lat="42.86557" lon="-0.31675">
        <ele>2256</ele>
        <time>2023-08-01T12:55:30Z</time>
      </trkpt>
      <trkpt lat="42.86557" lon="-0.31661">
        <ele>2257</ele>
        <time>2023-08-01T12:55:44Z</time>
      </trkpt>
      <trkpt lat="42.86553" lon="-0.31649">
        <ele>2262</ele>
        <time>2023-08-01T12:55:57Z</time>
      </trkpt>
      <trkpt lat="42.8655" lon="-0.31623">
        <ele>2268</ele>
        <time>2023-08-01T12:56:22Z</time>
      </trkpt>
      <trkpt lat="42.86551" lon="-0.31606">
        <ele>2270</ele>
        <time>2023-08-01T12:56:39Z</time>
      </trkpt>
      <trkpt lat="42.86556" lon="-0.31577">
        <ele>2275</ele>
        <time>2023-08-01T12:57:08Z</time>
      </trkpt>
      <trkpt lat="42.86555" lon="-0.31564">
        <ele>2280</ele>
        <time>2023-08-01T12:57:21Z</time>
      </trkpt>
      <trkpt lat="42.8655" lon="-0.31551">
        <ele>2285</ele>
        <time>2023-08-01T12:57:35Z</time>
      </trkpt>
      <trkpt lat="42.86543" lon="-0.31546">
        <ele>2288</ele>
        <time>2023-08-01T12:57:46Z</time>
      </trkpt>
      <trkpt lat="42.86535" lon="-0.31538">
        <ele>2291</ele>
        <time>2023-08-01T12:57:59Z</time>
      </trkpt>
      <trkpt lat="42.8653" lon="-0.31527">
        <ele>2294</ele>
        <time>2023-08-01T12:58:12Z</time>
      </trkpt>
      <trkpt lat="42.86528" lon="-0.31519">
        <ele>2297</ele>
        <time>2023-08-01T12:58:20Z</time>
      </trkpt>
      <trkpt lat="42.86529" lon="-0.31508">
        <ele>2300</ele>
        <time>2023-08-01T12:58:31Z</time>
      </trkpt>
      <trkpt lat="42.86527" lon="-0.31433">
        <ele>2312</ele>
        <time>2023-08-01T12:59:44Z</time>
      </trkpt>
      <trkpt lat="42.86522" lon="-0.31414">
        <ele>2314</ele>
        <time>2023-08-01T13:00:04Z</time>
      </trkpt>
      <trkpt lat="42.86504" lon="-0.31368">
        <ele>2319</ele>
        <time>2023-08-01T13:00:55Z</time>
      </trkpt>
      <trkpt lat="42.86491" lon="-0.31347">
        <ele>2328</ele>
        <time>2023-08-01T13:01:22Z</time>
      </trkpt>
      <trkpt lat="42.86463" lon="-0.31324">
        <ele>2351</ele>
        <time>2023-08-01T13:02:05Z</time>
      </trkpt>
      <trkpt lat="42.86458" lon="-0.31313">
        <ele>2356</ele>
        <time>2023-08-01T13:02:18Z</time>
      </trkpt>
      <trkpt lat="42.8646" lon="-0.31298">
        <ele>2359</ele>
        <time>2023-08-01T13:02:33Z</time>
      </trkpt>
      <trkpt lat="42.86455" lon="-0.31259">
        <ele>2370</ele>
        <time>2023-08-01T13:03:12Z</time>
      </trkpt>
      <trkpt lat="42.86455" lon="-0.31245">
        <ele>2375</ele>
        <time>2023-08-01T13:03:25Z</time>
      </trkpt>
      <trkpt lat="42.86446" lon="-0.31219">
        <ele>2389</ele>
        <time>2023-08-01T13:03:54Z</time>
      </trkpt>
      <trkpt lat="42.86444" lon="-0.31208">
        <ele>2394</ele>
        <time>2023-08-01T13:04:05Z</time>
      </trkpt>
      <trkpt lat="42.8645" lon="-0.3119">
        <ele>2400</ele>
        <time>2023-08-01T13:04:24Z</time>
      </trkpt>
      <trkpt lat="42.86457" lon="-0.31178">
        <ele>2404</ele>
        <time>2023-08-01T13:04:39Z</time>
      </trkpt>
      <trkpt lat="42.86467" lon="-0.31172">
        <ele>2405</ele>
        <time>2023-08-01T13:04:54Z</time>
      </trkpt>
      <trkpt lat="42.8647" lon="-0.31164">
        <ele>2408</ele>
        <time>2023-08-01T13:05:02Z</time>
      </trkpt>
      <trkpt lat="42.86469" lon="-0.31153">
        <ele>2414</ele>
        <time>2023-08-01T13:05:13Z</time>
      </trkpt>
      <trkpt lat="42.86466" lon="-0.31148">
        <ele>2418</ele>
        <time>2023-08-01T13:05:20Z</time>
      </trkpt>
      <trkpt lat="42.86465" lon="-0.31143">
        <ele>2420</ele>
        <time>2023-08-01T13:05:25Z</time>
      </trkpt>
      <trkpt lat="42.86468" lon="-0.31137">
        <ele>2423</ele>
        <time>2023-08-01T13:05:32Z</time>
      </trkpt>
      <trkpt lat="42.86467" lon="-0.31128">
        <ele>2428</ele>
        <time>2023-08-01T13:05:41Z</time>
      </trkpt>
      <trkpt lat="42.86462" lon="-0.31114">
        <ele>2436</ele>
        <time>2023-08-01T13:05:56Z</time>
      </trkpt>
      <trkpt lat="42.86455" lon="-0.31106">
        <ele>2441</ele>
        <time>2023-08-01T13:06:08Z</time>
      </trkpt>
      <trkpt lat="42.86433" lon="-0.31102">
        <ele>2444</ele>
        <time>2023-08-01T13:06:38Z</time>
      </trkpt>
      <trkpt lat="42.86427" lon="-0.31094">
        <ele>2448</ele>
        <time>2023-08-01T13:06:49Z</time>
      </trkpt>
      <trkpt lat="42.86424" lon="-0.31087">
        <ele>2451</ele>
        <time>2023-08-01T13:06:57Z</time>
      </trkpt>
      <trkpt lat="42.8642" lon="-0.31073">
        <ele>2455</ele>
        <time>2023-08-01T13:07:12Z</time>
      </trkpt>
      <trkpt lat="42.86418" lon="-0.31054">
        <ele>2458</ele>
        <time>2023-08-01T13:07:30Z</time>
      </trkpt>
      <trkpt lat="42.86426" lon="-0.31041">
        <ele>2461</ele>
        <time>2023-08-01T13:07:47Z</time>
      </trkpt>
      <trkpt lat="42.8643" lon="-0.30997">
        <ele>2469</ele>
        <time>2023-08-01T13:08:30Z</time>
      </trkpt>
      <trkpt lat="42.86425" lon="-0.30982">
        <ele>2466</ele>
        <time>2023-08-01T13:08:46Z</time>
      </trkpt>
      <trkpt lat="42.86416" lon="-0.30977">
        <ele>2465</ele>
        <time>2023-08-01T13:08:59Z</time>
      </trkpt>
      <trkpt lat="42.86405" lon="-0.30953">
        <ele>2463</ele>
        <time>2023-08-01T13:09:27Z</time>
      </trkpt>
      <trkpt lat="42.86395" lon="-0.30946">
        <ele>2462</ele>
        <time>2023-08-01T13:09:42Z</time>
      </trkpt>
      <trkpt lat="42.86393" lon="-0.30939">
        <ele>2460</ele>
        <time>2023-08-01T13:09:49Z</time>
      </trkpt>
      <trkpt lat="42.86387" lon="-0.30937">
        <ele>2459</ele>
        <time>2023-08-01T13:09:58Z</time>
      </trkpt>
      <trkpt lat="42.86389" lon="-0.3093">
        <ele>2457</ele>
        <time>2023-08-01T13:10:05Z</time>
      </trkpt>
      <trkpt lat="42.86385" lon="-0.30926">
        <ele>2455</ele>
        <time>2023-08-01T13:10:12Z</time>
      </trkpt>
      <trkpt lat="42.86387" lon="-0.30918">
        <ele>2453</ele>
        <time>2023-08-01T13:10:20Z</time>
      </trkpt>
      <trkpt lat="42.86383" lon="-0.30911">
        <ele>2449</ele>
        <time>2023-08-01T13:10:29Z</time>
      </trkpt>
      <trkpt lat="42.86385" lon="-0.30904">
        <ele>2445</ele>
        <time>2023-08-01T13:10:36Z</time>
      </trkpt>
      <trkpt lat="42.8638" lon="-0.30898">
        <ele>2441</ele>
        <time>2023-08-01T13:10:45Z</time>
      </trkpt>
      <trkpt lat="42.86381" lon="-0.30889">
        <ele>2437</ele>
        <time>2023-08-01T13:10:54Z</time>
      </trkpt>
      <trkpt lat="42.86376" lon="-0.30882">
        <ele>2433</ele>
        <time>2023-08-01T13:11:03Z</time>
      </trkpt>
      <trkpt lat="42.86377" lon="-0.30871">
        <ele>2427</ele>
        <time>2023-08-01T13:11:14Z</time>
      </trkpt>
      <trkpt lat="42.86371" lon="-0.30861">
        <ele>2422</ele>
        <time>2023-08-01T13:11:27Z</time>
      </trkpt>
      <trkpt lat="42.86372" lon="-0.30848">
        <ele>2415</ele>
        <time>2023-08-01T13:11:39Z</time>
      </trkpt>
      <trkpt lat="42.86368" lon="-0.30837">
        <ele>2410</ele>
        <time>2023-08-01T13:11:52Z</time>
      </trkpt>
      <trkpt lat="42.86372" lon="-0.30824">
        <ele>2402</ele>
        <time>2023-08-01T13:12:05Z</time>
      </trkpt>
      <trkpt lat="42.86367" lon="-0.30807">
        <ele>2390</ele>
        <time>2023-08-01T13:12:23Z</time>
      </trkpt>
      <trkpt lat="42.86356" lon="-0.30811">
        <ele>2393</ele>
        <time>2023-08-01T13:12:38Z</time>
      </trkpt>
      <trkpt lat="42.86346" lon="-0.3082">
        <ele>2399</ele>
        <time>2023-08-01T13:12:54Z</time>
      </trkpt>
      <trkpt lat="42.86331" lon="-0.30838">
        <ele>2410</ele>
        <time>2023-08-01T13:13:21Z</time>
      </trkpt>
      <trkpt lat="42.86279" lon="-0.30819">
        <ele>2407</ele>
        <time>2023-08-01T13:14:33Z</time>
      </trkpt>
      <trkpt lat="42.86203" lon="-0.30727">
        <ele>2398</ele>
        <time>2023-08-01T13:16:48Z</time>
      </trkpt>
      <trkpt lat="42.86191" lon="-0.30659">
        <ele>2387</ele>
        <time>2023-08-01T13:17:57Z</time>
      </trkpt>
      <trkpt lat="42.86171" lon="-0.3064">
        <ele>2391</ele>
        <time>2023-08-01T13:18:29Z</time>
      </trkpt>
      <trkpt lat="42.86148" lon="-0.30581">
        <ele>2393</ele>
        <time>2023-08-01T13:19:35Z</time>
      </trkpt>
      <trkpt lat="42.86125" lon="-0.30537">
        <ele>2403</ele>
        <time>2023-08-01T13:20:28Z</time>
      </trkpt>
      <trkpt lat="42.86082" lon="-0.30444">
        <ele>2415</ele>
        <time>2023-08-01T13:22:15Z</time>
      </trkpt>
      <trkpt lat="42.86063" lon="-0.30391">
        <ele>2415</ele>
        <time>2023-08-01T13:23:13Z</time>
      </trkpt>
      <trkpt lat="42.86042" lon="-0.30371">
        <ele>2422</ele>
        <time>2023-08-01T13:23:47Z</time>
      </trkpt>
      <trkpt lat="42.86036" lon="-0.30334">
        <ele>2419</ele>
        <time>2023-08-01T13:24:24Z</time>
      </trkpt>
      <trkpt lat="42.86041" lon="-0.30303">
        <ele>2418</ele>
        <time>2023-08-01T13:24:55Z</time>
      </trkpt>
      <trkpt lat="42.86041" lon="-0.30274">
        <ele>2420</ele>
        <time>2023-08-01T13:25:24Z</time>
      </trkpt>
      <trkpt lat="42.86043" lon="-0.30247">
        <ele>2420</ele>
        <time>2023-08-01T13:25:50Z</time>
      </trkpt>
      <trkpt lat="42.86058" lon="-0.30213">
        <ele>2421</ele>
        <time>2023-08-01T13:26:29Z</time>
      </trkpt>
      <trkpt lat="42.86077" lon="-0.30194">
        <ele>2416</ele>
        <time>2023-08-01T13:27:00Z</time>
      </trkpt>
      <trkpt lat="42.86083" lon="-0.30172">
        <ele>2420</ele>
        <time>2023-08-01T13:27:23Z</time>
      </trkpt>
      <trkpt lat="42.86096" lon="-0.30141">
        <ele>2420</ele>
        <time>2023-08-01T13:27:58Z</time>
      </trkpt>
      <trkpt lat="42.86115" lon="-0.30116">
        <ele>2418</ele>
        <time>2023-08-01T13:28:33Z</time>
      </trkpt>
      <trkpt lat="42.86136" lon="-0.30103">
        <ele>2415</ele>
        <time>2023-08-01T13:29:04Z</time>
      </trkpt>
      <trkpt lat="42.86141" lon="-0.30098">
        <ele>2415</ele>
        <time>2023-08-01T13:29:13Z</time>
      </trkpt>
      <trkpt lat="42.86167" lon="-0.30042">
        <ele>2422</ele>
        <time>2023-08-01T13:30:17Z</time>
      </trkpt>
      <trkpt lat="42.86182" lon="-0.29993">
        <ele>2429</ele>
        <time>2023-08-01T13:31:09Z</time>
      </trkpt>
      <trkpt lat="42.86176" lon="-0.29955">
        <ele>2430</ele>
        <time>2023-08-01T13:31:47Z</time>
      </trkpt>
      <trkpt lat="42.8618" lon="-0.29882">
        <ele>2419</ele>
        <time>2023-08-01T13:32:59Z</time>
      </trkpt>
      <trkpt lat="42.86189" lon="-0.29829">
        <ele>2406</ele>
        <time>2023-08-01T13:33:52Z</time>
      </trkpt>
      <trkpt lat="42.86187" lon="-0.29808">
        <ele>2396</ele>
        <time>2023-08-01T13:34:13Z</time>
      </trkpt>
      <trkpt lat="42.86184" lon="-0.29785">
        <ele>2385</ele>
        <time>2023-08-01T13:34:36Z</time>
      </trkpt>
      <trkpt lat="42.86172" lon="-0.29742">
        <ele>2363</ele>
        <time>2023-08-01T13:35:21Z</time>
      </trkpt>
      <trkpt lat="42.86164" lon="-0.29707">
        <ele>2352</ele>
        <time>2023-08-01T13:35:57Z</time>
      </trkpt>
      <trkpt lat="42.86162" lon="-0.29671">
        <ele>2342</ele>
        <time>2023-08-01T13:36:32Z</time>
      </trkpt>
      <trkpt lat="42.86156" lon="-0.29646">
        <ele>2332</ele>
        <time>2023-08-01T13:36:58Z</time>
      </trkpt>
      <trkpt lat="42.86149" lon="-0.29597">
        <ele>2309</ele>
        <time>2023-08-01T13:37:46Z</time>
      </trkpt>
      <trkpt lat="42.86154" lon="-0.29545">
        <ele>2296</ele>
        <time>2023-08-01T13:38:38Z</time>
      </trkpt>
      <trkpt lat="42.86166" lon="-0.29494">
        <ele>2287</ele>
        <time>2023-08-01T13:39:30Z</time>
      </trkpt>
      <trkpt lat="42.86163" lon="-0.29466">
        <ele>2276</ele>
        <time>2023-08-01T13:39:58Z</time>
      </trkpt>
      <trkpt lat="42.86158" lon="-0.29451">
        <ele>2270</ele>
        <time>2023-08-01T13:40:14Z</time>
      </trkpt>
      <trkpt lat="42.86141" lon="-0.29433">
        <ele>2261</ele>
        <time>2023-08-01T13:40:43Z</time>
      </trkpt>
      <trkpt lat="42.86107" lon="-0.29419">
        <ele>2253</ele>
        <time>2023-08-01T13:41:30Z</time>
      </trkpt>
      <trkpt lat="42.86075" lon="-0.29423">
        <ele>2252</ele>
        <time>2023-08-01T13:42:13Z</time>
      </trkpt>
      <trkpt lat="42.86021" lon="-0.29447">
        <ele>2258</ele>
        <time>2023-08-01T13:43:29Z</time>
      </trkpt>
      <trkpt lat="42.86009" lon="-0.29445">
        <ele>2257</ele>
        <time>2023-08-01T13:43:45Z</time>
      </trkpt>
      <trkpt lat="42.85963" lon="-0.29451">
        <ele>2251</ele>
        <time>2023-08-01T13:44:47Z</time>
      </trkpt>
      <trkpt lat="42.85951" lon="-0.29444">
        <ele>2244</ele>
        <time>2023-08-01T13:45:04Z</time>
      </trkpt>
      <trkpt lat="42.85946" lon="-0.29427">
        <ele>2235</ele>
        <time>2023-08-01T13:45:22Z</time>
      </trkpt>
      <trkpt lat="42.8595" lon="-0.29416">
        <ele>2231</ele>
        <time>2023-08-01T13:45:34Z</time>
      </trkpt>
      <trkpt lat="42.85949" lon="-0.29409">
        <ele>2227</ele>
        <time>2023-08-01T13:45:41Z</time>
      </trkpt>
      <trkpt lat="42.85933" lon="-0.29415">
        <ele>2227</ele>
        <time>2023-08-01T13:46:03Z</time>
      </trkpt>
      <trkpt lat="42.85923" lon="-0.29411">
        <ele>2223</ele>
        <time>2023-08-01T13:46:17Z</time>
      </trkpt>
      <trkpt lat="42.85907" lon="-0.29388">
        <ele>2204</ele>
        <time>2023-08-01T13:46:48Z</time>
      </trkpt>
      <trkpt lat="42.85884" lon="-0.29366">
        <ele>2180</ele>
        <time>2023-08-01T13:47:25Z</time>
      </trkpt>
      <trkpt lat="42.85868" lon="-0.29362">
        <ele>2169</ele>
        <time>2023-08-01T13:47:47Z</time>
      </trkpt>
      <trkpt lat="42.85851" lon="-0.29369">
        <ele>2163</ele>
        <time>2023-08-01T13:48:11Z</time>
      </trkpt>
      <trkpt lat="42.85837" lon="-0.29393">
        <ele>2166</ele>
        <time>2023-08-01T13:48:41Z</time>
      </trkpt>
      <trkpt lat="42.85829" lon="-0.29396">
        <ele>2163</ele>
        <time>2023-08-01T13:48:52Z</time>
      </trkpt>
      <trkpt lat="42.85816" lon="-0.29388">
        <ele>2154</ele>
        <time>2023-08-01T13:49:11Z</time>
      </trkpt>
      <trkpt lat="42.85801" lon="-0.2937">
        <ele>2142</ele>
        <time>2023-08-01T13:49:38Z</time>
      </trkpt>
      <trkpt lat="42.85787" lon="-0.29347">
        <ele>2131</ele>
        <time>2023-08-01T13:50:07Z</time>
      </trkpt>
      <trkpt lat="42.85793" lon="-0.29322">
        <ele>2129</ele>
        <time>2023-08-01T13:50:33Z</time>
      </trkpt>
      <trkpt lat="42.85788" lon="-0.29321">
        <ele>2129</ele>
        <time>2023-08-01T13:50:39Z</time>
      </trkpt>
      <trkpt lat="42.8576" lon="-0.29334">
        <ele>2122</ele>
        <time>2023-08-01T13:51:19Z</time>
      </trkpt>
      <trkpt lat="42.85715" lon="-0.29351">
        <ele>2135</ele>
        <time>2023-08-01T13:52:21Z</time>
      </trkpt>
      <trkpt lat="42.85693" lon="-0.29352">
        <ele>2144</ele>
        <time>2023-08-01T13:52:50Z</time>
      </trkpt>
      <trkpt lat="42.85676" lon="-0.29357">
        <ele>2149</ele>
        <time>2023-08-01T13:53:14Z</time>
      </trkpt>
      <trkpt lat="42.85681" lon="-0.29343">
        <ele>2151</ele>
        <time>2023-08-01T13:53:29Z</time>
      </trkpt>
      <trkpt lat="42.85689" lon="-0.29334">
        <ele>2149</ele>
        <time>2023-08-01T13:53:43Z</time>
      </trkpt>
      <trkpt lat="42.85673" lon="-0.29326">
        <ele>2159</ele>
        <time>2023-08-01T13:54:05Z</time>
      </trkpt>
      <trkpt lat="42.85641" lon="-0.29326">
        <ele>2171</ele>
        <time>2023-08-01T13:54:48Z</time>
      </trkpt>
      <trkpt lat="42.85698" lon="-0.29276">
        <ele>2162</ele>
        <time>2023-08-01T13:56:19Z</time>
      </trkpt>
      <trkpt lat="42.85717" lon="-0.29254">
        <ele>2162</ele>
        <time>2023-08-01T13:56:52Z</time>
      </trkpt>
      <trkpt lat="42.85731" lon="-0.29242">
        <ele>2158</ele>
        <time>2023-08-01T13:57:14Z</time>
      </trkpt>
      <trkpt lat="42.85749" lon="-0.29215">
        <ele>2154</ele>
        <time>2023-08-01T13:57:50Z</time>
      </trkpt>
      <trkpt lat="42.85759" lon="-0.29203">
        <ele>2151</ele>
        <time>2023-08-01T13:58:07Z</time>
      </trkpt>
      <trkpt lat="42.85765" lon="-0.2919">
        <ele>2150</ele>
        <time>2023-08-01T13:58:22Z</time>
      </trkpt>
      <trkpt lat="42.8579" lon="-0.29163">
        <ele>2144</ele>
        <time>2023-08-01T13:59:05Z</time>
      </trkpt>
      <trkpt lat="42.85801" lon="-0.29148">
        <ele>2140</ele>
        <time>2023-08-01T13:59:26Z</time>
      </trkpt>
      <trkpt lat="42.85817" lon="-0.2913">
        <ele>2137</ele>
        <time>2023-08-01T13:59:53Z</time>
      </trkpt>
      <trkpt lat="42.85831" lon="-0.29119">
        <ele>2137</ele>
        <time>2023-08-01T14:00:15Z</time>
      </trkpt>
      <trkpt lat="42.85847" lon="-0.29099">
        <ele>2132</ele>
        <time>2023-08-01T14:00:44Z</time>
      </trkpt>
      <trkpt lat="42.85847" lon="-0.29086">
        <ele>2133</ele>
        <time>2023-08-01T14:00:57Z</time>
      </trkpt>
      <trkpt lat="42.85844" lon="-0.29071">
        <ele>2130</ele>
        <time>2023-08-01T14:01:12Z</time>
      </trkpt>
      <trkpt lat="42.85842" lon="-0.29068">
        <ele>2130</ele>
        <time>2023-08-01T14:01:16Z</time>
      </trkpt>
      <trkpt lat="42.85831" lon="-0.29065">
        <ele>2133</ele>
        <time>2023-08-01T14:01:31Z</time>
      </trkpt>
      <trkpt lat="42.85827" lon="-0.29054">
        <ele>2128</ele>
        <time>2023-08-01T14:01:43Z</time>
      </trkpt>
      <trkpt lat="42.8581" lon="-0.29054">
        <ele>2126</ele>
        <time>2023-08-01T14:02:06Z</time>
      </trkpt>
      <trkpt lat="42.85801" lon="-0.29044">
        <ele>2120</ele>
        <time>2023-08-01T14:02:21Z</time>
      </trkpt>
      <trkpt lat="42.85794" lon="-0.29042">
        <ele>2119</ele>
        <time>2023-08-01T14:02:31Z</time>
      </trkpt>
      <trkpt lat="42.85793" lon="-0.29037">
        <ele>2116</ele>
        <time>2023-08-01T14:02:36Z</time>
      </trkpt>
      <trkpt lat="42.85784" lon="-0.29035">
        <ele>2114</ele>
        <time>2023-08-01T14:02:48Z</time>
      </trkpt>
      <trkpt lat="42.85781" lon="-0.2903">
        <ele>2111</ele>
        <time>2023-08-01T14:02:54Z</time>
      </trkpt>
      <trkpt lat="42.85779" lon="-0.29024">
        <ele>2108</ele>
        <time>2023-08-01T14:03:01Z</time>
      </trkpt>
      <trkpt lat="42.8578" lon="-0.2902">
        <ele>2107</ele>
        <time>2023-08-01T14:03:05Z</time>
      </trkpt>
      <trkpt lat="42.85794" lon="-0.29">
        <ele>2099</ele>
        <time>2023-08-01T14:03:32Z</time>
      </trkpt>
      <trkpt lat="42.85796" lon="-0.28974">
        <ele>2090</ele>
        <time>2023-08-01T14:03:57Z</time>
      </trkpt>
      <trkpt lat="42.85807" lon="-0.28935">
        <ele>2076</ele>
        <time>2023-08-01T14:04:38Z</time>
      </trkpt>
      <trkpt lat="42.85813" lon="-0.28926">
        <ele>2073</ele>
        <time>2023-08-01T14:04:50Z</time>
      </trkpt>
      <trkpt lat="42.85817" lon="-0.2891">
        <ele>2068</ele>
        <time>2023-08-01T14:05:07Z</time>
      </trkpt>
      <trkpt lat="42.85815" lon="-0.28904">
        <ele>2067</ele>
        <time>2023-08-01T14:05:13Z</time>
      </trkpt>
      <trkpt lat="42.85815" lon="-0.28898">
        <ele>2065</ele>
        <time>2023-08-01T14:05:19Z</time>
      </trkpt>
      <trkpt lat="42.8581" lon="-0.28891">
        <ele>2063</ele>
        <time>2023-08-01T14:05:28Z</time>
      </trkpt>
      <trkpt lat="42.8581" lon="-0.28884">
        <ele>2061</ele>
        <time>2023-08-01T14:05:35Z</time>
      </trkpt>
      <trkpt lat="42.85809" lon="-0.2888">
        <ele>2060</ele>
        <time>2023-08-01T14:05:39Z</time>
      </trkpt>
      <trkpt lat="42.85797" lon="-0.28864">
        <ele>2056</ele>
        <time>2023-08-01T14:06:02Z</time>
      </trkpt>
      <trkpt lat="42.85794" lon="-0.28863">
        <ele>2056</ele>
        <time>2023-08-01T14:06:06Z</time>
      </trkpt>
      <trkpt lat="42.8579" lon="-0.28865">
        <ele>2056</ele>
        <time>2023-08-01T14:06:12Z</time>
      </trkpt>
      <trkpt lat="42.85788" lon="-0.28862">
        <ele>2055</ele>
        <time>2023-08-01T14:06:16Z</time>
      </trkpt>
      <trkpt lat="42.8578" lon="-0.28862">
        <ele>2055</ele>
        <time>2023-08-01T14:06:26Z</time>
      </trkpt>
      <trkpt lat="42.85776" lon="-0.28859">
        <ele>2054</ele>
        <time>2023-08-01T14:06:32Z</time>
      </trkpt>
      <trkpt lat="42.85775" lon="-0.28855">
        <ele>2053</ele>
        <time>2023-08-01T14:06:37Z</time>
      </trkpt>
      <trkpt lat="42.85778" lon="-0.28842">
        <ele>2050</ele>
        <time>2023-08-01T14:06:50Z</time>
      </trkpt>
      <trkpt lat="42.85784" lon="-0.28836">
        <ele>2049</ele>
        <time>2023-08-01T14:07:00Z</time>
      </trkpt>
      <trkpt lat="42.85792" lon="-0.2882">
        <ele>2048</ele>
        <time>2023-08-01T14:07:19Z</time>
      </trkpt>
      <trkpt lat="42.858" lon="-0.28811">
        <ele>2047</ele>
        <time>2023-08-01T14:07:33Z</time>
      </trkpt>
      <trkpt lat="42.85815" lon="-0.2881">
        <ele>2047</ele>
        <time>2023-08-01T14:07:53Z</time>
      </trkpt>
      <trkpt lat="42.85832" lon="-0.28798">
        <ele>2045</ele>
        <time>2023-08-01T14:08:18Z</time>
      </trkpt>
      <trkpt lat="42.85837" lon="-0.28791">
        <ele>2042</ele>
        <time>2023-08-01T14:08:28Z</time>
      </trkpt>
      <trkpt lat="42.85848" lon="-0.28791">
        <ele>2039</ele>
        <time>2023-08-01T14:08:42Z</time>
      </trkpt>
      <trkpt lat="42.85853" lon="-0.28785">
        <ele>2036</ele>
        <time>2023-08-01T14:08:51Z</time>
      </trkpt>
      <trkpt lat="42.85857" lon="-0.28784">
        <ele>2035</ele>
        <time>2023-08-01T14:08:57Z</time>
      </trkpt>
      <trkpt lat="42.85862" lon="-0.28774">
        <ele>2032</ele>
        <time>2023-08-01T14:09:09Z</time>
      </trkpt>
      <trkpt lat="42.85868" lon="-0.28775">
        <ele>2030</ele>
        <time>2023-08-01T14:09:17Z</time>
      </trkpt>
      <trkpt lat="42.85876" lon="-0.28771">
        <ele>2027</ele>
        <time>2023-08-01T14:09:28Z</time>
      </trkpt>
      <trkpt lat="42.85877" lon="-0.28764">
        <ele>2025</ele>
        <time>2023-08-01T14:09:35Z</time>
      </trkpt>
      <trkpt lat="42.85888" lon="-0.28759">
        <ele>2021</ele>
        <time>2023-08-01T14:09:50Z</time>
      </trkpt>
      <trkpt lat="42.85893" lon="-0.28754">
        <ele>2019</ele>
        <time>2023-08-01T14:09:59Z</time>
      </trkpt>
      <trkpt lat="42.85899" lon="-0.28732">
        <ele>2016</ele>
        <time>2023-08-01T14:10:22Z</time>
      </trkpt>
      <trkpt lat="42.85896" lon="-0.28718">
        <ele>2016</ele>
        <time>2023-08-01T14:10:36Z</time>
      </trkpt>
      <trkpt lat="42.8589" lon="-0.28712">
        <ele>2018</ele>
        <time>2023-08-01T14:10:46Z</time>
      </trkpt>
      <trkpt lat="42.85893" lon="-0.28701">
        <ele>2016</ele>
        <time>2023-08-01T14:10:57Z</time>
      </trkpt>
      <trkpt lat="42.85888" lon="-0.28693">
        <ele>2017</ele>
        <time>2023-08-01T14:11:08Z</time>
      </trkpt>
      <trkpt lat="42.85892" lon="-0.28679">
        <ele>2015</ele>
        <time>2023-08-01T14:11:22Z</time>
      </trkpt>
      <trkpt lat="42.859" lon="-0.28674">
        <ele>2012</ele>
        <time>2023-08-01T14:11:34Z</time>
      </trkpt>
      <trkpt lat="42.85912" lon="-0.28658">
        <ele>2009</ele>
        <time>2023-08-01T14:11:56Z</time>
      </trkpt>
      <trkpt lat="42.85922" lon="-0.28631">
        <ele>2009</ele>
        <time>2023-08-01T14:12:26Z</time>
      </trkpt>
      <trkpt lat="42.85934" lon="-0.2863">
        <ele>2004</ele>
        <time>2023-08-01T14:12:42Z</time>
      </trkpt>
      <trkpt lat="42.8594" lon="-0.28638">
        <ele>2001</ele>
        <time>2023-08-01T14:12:53Z</time>
      </trkpt>
      <trkpt lat="42.85946" lon="-0.28631">
        <ele>1999</ele>
        <time>2023-08-01T14:13:04Z</time>
      </trkpt>
      <trkpt lat="42.85962" lon="-0.2864">
        <ele>1992</ele>
        <time>2023-08-01T14:13:27Z</time>
      </trkpt>
      <trkpt lat="42.85968" lon="-0.28638">
        <ele>1989</ele>
        <time>2023-08-01T14:13:35Z</time>
      </trkpt>
      <trkpt lat="42.85967" lon="-0.28619">
        <ele>1992</ele>
        <time>2023-08-01T14:13:54Z</time>
      </trkpt>
      <trkpt lat="42.85976" lon="-0.286">
        <ele>1991</ele>
        <time>2023-08-01T14:14:16Z</time>
      </trkpt>
      <trkpt lat="42.85995" lon="-0.2859">
        <ele>1983</ele>
        <time>2023-08-01T14:14:43Z</time>
      </trkpt>
      <trkpt lat="42.86005" lon="-0.2859">
        <ele>1979</ele>
        <time>2023-08-01T14:14:56Z</time>
      </trkpt>
      <trkpt lat="42.86006" lon="-0.28595">
        <ele>1977</ele>
        <time>2023-08-01T14:15:02Z</time>
      </trkpt>
      <trkpt lat="42.86008" lon="-0.28606">
        <ele>1975</ele>
        <time>2023-08-01T14:15:13Z</time>
      </trkpt>
      <trkpt lat="42.86" lon="-0.28617">
        <ele>1978</ele>
        <time>2023-08-01T14:15:28Z</time>
      </trkpt>
      <trkpt lat="42.86001" lon="-0.28622">
        <ele>1977</ele>
        <time>2023-08-01T14:15:33Z</time>
      </trkpt>
      <trkpt lat="42.86006" lon="-0.28626">
        <ele>1974</ele>
        <time>2023-08-01T14:15:41Z</time>
      </trkpt>
      <trkpt lat="42.86007" lon="-0.28634">
        <ele>1973</ele>
        <time>2023-08-01T14:15:49Z</time>
      </trkpt>
      <trkpt lat="42.8601" lon="-0.28639">
        <ele>1971</ele>
        <time>2023-08-01T14:15:55Z</time>
      </trkpt>
      <trkpt lat="42.86014" lon="-0.2864">
        <ele>1968</ele>
        <time>2023-08-01T14:16:00Z</time>
      </trkpt>
      <trkpt lat="42.86012" lon="-0.28649">
        <ele>1969</ele>
        <time>2023-08-01T14:16:09Z</time>
      </trkpt>
      <trkpt lat="42.86017" lon="-0.28683">
        <ele>1962</ele>
        <time>2023-08-01T14:16:43Z</time>
      </trkpt>
      <trkpt lat="42.86021" lon="-0.28675">
        <ele>1961</ele>
        <time>2023-08-01T14:16:53Z</time>
      </trkpt>
      <trkpt lat="42.86027" lon="-0.28686">
        <ele>1957</ele>
        <time>2023-08-01T14:17:06Z</time>
      </trkpt>
      <trkpt lat="42.8603" lon="-0.28677">
        <ele>1956</ele>
        <time>2023-08-01T14:17:16Z</time>
      </trkpt>
      <trkpt lat="42.86034" lon="-0.28689">
        <ele>1952</ele>
        <time>2023-08-01T14:17:29Z</time>
      </trkpt>
      <trkpt lat="42.8604" lon="-0.28688">
        <ele>1949</ele>
        <time>2023-08-01T14:17:37Z</time>
      </trkpt>
      <trkpt lat="42.86046" lon="-0.28716">
        <ele>1943</ele>
        <time>2023-08-01T14:18:05Z</time>
      </trkpt>
      <trkpt lat="42.86049" lon="-0.28716">
        <ele>1941</ele>
        <time>2023-08-01T14:18:09Z</time>
      </trkpt>
      <trkpt lat="42.8605" lon="-0.28707">
        <ele>1942</ele>
        <time>2023-08-01T14:18:18Z</time>
      </trkpt>
      <trkpt lat="42.86053" lon="-0.28704">
        <ele>1940</ele>
        <time>2023-08-01T14:18:23Z</time>
      </trkpt>
      <trkpt lat="42.86057" lon="-0.2871">
        <ele>1938</ele>
        <time>2023-08-01T14:18:31Z</time>
      </trkpt>
      <trkpt lat="42.86059" lon="-0.28719">
        <ele>1935</ele>
        <time>2023-08-01T14:18:40Z</time>
      </trkpt>
      <trkpt lat="42.86066" lon="-0.28712">
        <ele>1932</ele>
        <time>2023-08-01T14:18:52Z</time>
      </trkpt>
      <trkpt lat="42.86068" lon="-0.287">
        <ele>1933</ele>
        <time>2023-08-01T14:19:04Z</time>
      </trkpt>
      <trkpt lat="42.86071" lon="-0.28704">
        <ele>1931</ele>
        <time>2023-08-01T14:19:10Z</time>
      </trkpt>
      <trkpt lat="42.86073" lon="-0.28704">
        <ele>1930</ele>
        <time>2023-08-01T14:19:12Z</time>
      </trkpt>
      <trkpt lat="42.86075" lon="-0.287">
        <ele>1929</ele>
        <time>2023-08-01T14:19:17Z</time>
      </trkpt>
      <trkpt lat="42.86078" lon="-0.28705">
        <ele>1927</ele>
        <time>2023-08-01T14:19:23Z</time>
      </trkpt>
      <trkpt lat="42.86081" lon="-0.28706">
        <ele>1925</ele>
        <time>2023-08-01T14:19:28Z</time>
      </trkpt>
      <trkpt lat="42.86084" lon="-0.28697">
        <ele>1925</ele>
        <time>2023-08-01T14:19:37Z</time>
      </trkpt>
      <trkpt lat="42.86084" lon="-0.28686">
        <ele>1926</ele>
        <time>2023-08-01T14:19:48Z</time>
      </trkpt>
      <trkpt lat="42.86087" lon="-0.28682">
        <ele>1925</ele>
        <time>2023-08-01T14:19:54Z</time>
      </trkpt>
      <trkpt lat="42.86094" lon="-0.28697">
        <ele>1920</ele>
        <time>2023-08-01T14:20:11Z</time>
      </trkpt>
      <trkpt lat="42.861" lon="-0.28678">
        <ele>1918</ele>
        <time>2023-08-01T14:20:31Z</time>
      </trkpt>
      <trkpt lat="42.86103" lon="-0.28685">
        <ele>1916</ele>
        <time>2023-08-01T14:20:39Z</time>
      </trkpt>
      <trkpt lat="42.86106" lon="-0.28681">
        <ele>1915</ele>
        <time>2023-08-01T14:20:45Z</time>
      </trkpt>
      <trkpt lat="42.86108" lon="-0.28692">
        <ele>1913</ele>
        <time>2023-08-01T14:20:56Z</time>
      </trkpt>
      <trkpt lat="42.86113" lon="-0.28687">
        <ele>1911</ele>
        <time>2023-08-01T14:21:04Z</time>
      </trkpt>
      <trkpt lat="42.86116" lon="-0.28693">
        <ele>1909</ele>
        <time>2023-08-01T14:21:11Z</time>
      </trkpt>
      <trkpt lat="42.86121" lon="-0.28691">
        <ele>1906</ele>
        <time>2023-08-01T14:21:18Z</time>
      </trkpt>
      <trkpt lat="42.8613" lon="-0.28671">
        <ele>1903</ele>
        <time>2023-08-01T14:21:41Z</time>
      </trkpt>
      <trkpt lat="42.86146" lon="-0.28656">
        <ele>1896</ele>
        <time>2023-08-01T14:22:07Z</time>
      </trkpt>
      <trkpt lat="42.86155" lon="-0.28656">
        <ele>1891</ele>
        <time>2023-08-01T14:22:19Z</time>
      </trkpt>
      <trkpt lat="42.86174" lon="-0.28639">
        <ele>1885</ele>
        <time>2023-08-01T14:22:49Z</time>
      </trkpt>
      <trkpt lat="42.86192" lon="-0.28628">
        <ele>1882</ele>
        <time>2023-08-01T14:23:16Z</time>
      </trkpt>
      <trkpt lat="42.86206" lon="-0.2863">
        <ele>1877</ele>
        <time>2023-08-01T14:23:34Z</time>
      </trkpt>
      <trkpt lat="42.86215" lon="-0.28623">
        <ele>1875</ele>
        <time>2023-08-01T14:23:48Z</time>
      </trkpt>
      <trkpt lat="42.86223" lon="-0.28625">
        <ele>1872</ele>
        <time>2023-08-01T14:23:59Z</time>
      </trkpt>
      <trkpt lat="42.86234" lon="-0.28619">
        <ele>1869</ele>
        <time>2023-08-01T14:24:15Z</time>
      </trkpt>
      <trkpt lat="42.86237" lon="-0.28606">
        <ele>1870</ele>
        <time>2023-08-01T14:24:28Z</time>
      </trkpt>
      <trkpt lat="42.86242" lon="-0.28607">
        <ele>1868</ele>
        <time>2023-08-01T14:24:35Z</time>
      </trkpt>
      <trkpt lat="42.86249" lon="-0.28597">
        <ele>1867</ele>
        <time>2023-08-01T14:24:49Z</time>
      </trkpt>
      <trkpt lat="42.86264" lon="-0.28603">
        <ele>1861</ele>
        <time>2023-08-01T14:25:09Z</time>
      </trkpt>
      <trkpt lat="42.86272" lon="-0.28602">
        <ele>1858</ele>
        <time>2023-08-01T14:25:20Z</time>
      </trkpt>
      <trkpt lat="42.86284" lon="-0.28587">
        <ele>1855</ele>
        <time>2023-08-01T14:25:42Z</time>
      </trkpt>
      <trkpt lat="42.8629" lon="-0.28576">
        <ele>1855</ele>
        <time>2023-08-01T14:25:55Z</time>
      </trkpt>
      <trkpt lat="42.86306" lon="-0.2856">
        <ele>1852</ele>
        <time>2023-08-01T14:26:22Z</time>
      </trkpt>
      <trkpt lat="42.86336" lon="-0.28555">
        <ele>1841</ele>
        <time>2023-08-01T14:27:02Z</time>
      </trkpt>
      <trkpt lat="42.86339" lon="-0.28578">
        <ele>1837</ele>
        <time>2023-08-01T14:27:25Z</time>
      </trkpt>
      <trkpt lat="42.86346" lon="-0.2857">
        <ele>1836</ele>
        <time>2023-08-01T14:27:37Z</time>
      </trkpt>
      <trkpt lat="42.86349" lon="-0.28577">
        <ele>1834</ele>
        <time>2023-08-01T14:27:45Z</time>
      </trkpt>
      <trkpt lat="42.86355" lon="-0.28569">
        <ele>1834</ele>
        <time>2023-08-01T14:27:56Z</time>
      </trkpt>
      <trkpt lat="42.86358" lon="-0.28574">
        <ele>1833</ele>
        <time>2023-08-01T14:28:03Z</time>
      </trkpt>
      <trkpt lat="42.86365" lon="-0.28564">
        <ele>1832</ele>
        <time>2023-08-01T14:28:16Z</time>
      </trkpt>
      <trkpt lat="42.8637" lon="-0.28566">
        <ele>1830</ele>
        <time>2023-08-01T14:28:23Z</time>
      </trkpt>
      <trkpt lat="42.86371" lon="-0.28578">
        <ele>1829</ele>
        <time>2023-08-01T14:28:35Z</time>
      </trkpt>
      <trkpt lat="42.86377" lon="-0.28581">
        <ele>1828</ele>
        <time>2023-08-01T14:28:43Z</time>
      </trkpt>
      <trkpt lat="42.86379" lon="-0.28575">
        <ele>1827</ele>
        <time>2023-08-01T14:28:50Z</time>
      </trkpt>
      <trkpt lat="42.86377" lon="-0.28561">
        <ele>1828</ele>
        <time>2023-08-01T14:29:04Z</time>
      </trkpt>
      <trkpt lat="42.8638" lon="-0.28544">
        <ele>1828</ele>
        <time>2023-08-01T14:29:21Z</time>
      </trkpt>
      <trkpt lat="42.86386" lon="-0.28528">
        <ele>1826</ele>
        <time>2023-08-01T14:29:38Z</time>
      </trkpt>
      <trkpt lat="42.86396" lon="-0.28508">
        <ele>1822</ele>
        <time>2023-08-01T14:30:02Z</time>
      </trkpt>
      <trkpt lat="42.86405" lon="-0.28511">
        <ele>1818</ele>
        <time>2023-08-01T14:30:14Z</time>
      </trkpt>
      <trkpt lat="42.86422" lon="-0.28481">
        <ele>1810</ele>
        <time>2023-08-01T14:30:52Z</time>
      </trkpt>
      <trkpt lat="42.86418" lon="-0.28461">
        <ele>1809</ele>
        <time>2023-08-01T14:31:12Z</time>
      </trkpt>
      <trkpt lat="42.86424" lon="-0.28454">
        <ele>1808</ele>
        <time>2023-08-01T14:31:22Z</time>
      </trkpt>
      <trkpt lat="42.86446" lon="-0.28443">
        <ele>1805</ele>
        <time>2023-08-01T14:31:54Z</time>
      </trkpt>
      <trkpt lat="42.8646" lon="-0.28429">
        <ele>1801</ele>
        <time>2023-08-01T14:32:17Z</time>
      </trkpt>
      <trkpt lat="42.86453" lon="-0.28417">
        <ele>1800</ele>
        <time>2023-08-01T14:32:32Z</time>
      </trkpt>
      <trkpt lat="42.86451" lon="-0.28402">
        <ele>1801</ele>
        <time>2023-08-01T14:32:47Z</time>
      </trkpt>
      <trkpt lat="42.86455" lon="-0.28391">
        <ele>1801</ele>
        <time>2023-08-01T14:32:59Z</time>
      </trkpt>
      <trkpt lat="42.86466" lon="-0.28388">
        <ele>1798</ele>
        <time>2023-08-01T14:33:14Z</time>
      </trkpt>
      <trkpt lat="42.86465" lon="-0.2838">
        <ele>1798</ele>
        <time>2023-08-01T14:33:22Z</time>
      </trkpt>
      <trkpt lat="42.86471" lon="-0.28373">
        <ele>1796</ele>
        <time>2023-08-01T14:33:32Z</time>
      </trkpt>
      <trkpt lat="42.86478" lon="-0.28354">
        <ele>1793</ele>
        <time>2023-08-01T14:33:53Z</time>
      </trkpt>
      <trkpt lat="42.86481" lon="-0.28337">
        <ele>1791</ele>
        <time>2023-08-01T14:34:10Z</time>
      </trkpt>
      <trkpt lat="42.86507" lon="-0.28292">
        <ele>1785</ele>
        <time>2023-08-01T14:35:06Z</time>
      </trkpt>
      <trkpt lat="42.86512" lon="-0.28274">
        <ele>1785</ele>
        <time>2023-08-01T14:35:25Z</time>
      </trkpt>
      <trkpt lat="42.86533" lon="-0.28271">
        <ele>1783</ele>
        <time>2023-08-01T14:35:53Z</time>
      </trkpt>
      <trkpt lat="42.86538" lon="-0.28274">
        <ele>1782</ele>
        <time>2023-08-01T14:36:00Z</time>
      </trkpt>
      <trkpt lat="42.86541" lon="-0.28274">
        <ele>1782</ele>
        <time>2023-08-01T14:36:04Z</time>
      </trkpt>
      <trkpt lat="42.86576" lon="-0.28249">
        <ele>1774</ele>
        <time>2023-08-01T14:36:57Z</time>
      </trkpt>
      <trkpt lat="42.86587" lon="-0.28251">
        <ele>1774</ele>
        <time>2023-08-01T14:37:12Z</time>
      </trkpt>
      <trkpt lat="42.86607" lon="-0.2822">
        <ele>1780</ele>
        <time>2023-08-01T14:37:52Z</time>
      </trkpt>
      <trkpt lat="42.86625" lon="-0.28202">
        <ele>1780</ele>
        <time>2023-08-01T14:38:22Z</time>
      </trkpt>
      <trkpt lat="42.86635" lon="-0.28201">
        <ele>1780</ele>
        <time>2023-08-01T14:38:35Z</time>
      </trkpt>
      <trkpt lat="42.86643" lon="-0.28197">
        <ele>1780</ele>
        <time>2023-08-01T14:38:47Z</time>
      </trkpt>
      <trkpt lat="42.86648" lon="-0.28199">
        <ele>1780</ele>
        <time>2023-08-01T14:38:54Z</time>
      </trkpt>
      <trkpt lat="42.86658" lon="-0.28201">
        <ele>1781</ele>
        <time>2023-08-01T14:39:07Z</time>
      </trkpt>
      <trkpt lat="42.86668" lon="-0.28186">
        <ele>1778</ele>
        <time>2023-08-01T14:39:27Z</time>
      </trkpt>
      <trkpt lat="42.86676" lon="-0.28178">
        <ele>1778</ele>
        <time>2023-08-01T14:39:40Z</time>
      </trkpt>
      <trkpt lat="42.86676" lon="-0.28169">
        <ele>1776</ele>
        <time>2023-08-01T14:39:49Z</time>
      </trkpt>
      <trkpt lat="42.86689" lon="-0.28163">
        <ele>1779</ele>
        <time>2023-08-01T14:40:07Z</time>
      </trkpt>
      <trkpt lat="42.86701" lon="-0.28148">
        <ele>1782</ele>
        <time>2023-08-01T14:40:29Z</time>
      </trkpt>
      <trkpt lat="42.86703" lon="-0.28142">
        <ele>1782</ele>
        <time>2023-08-01T14:40:36Z</time>
      </trkpt>
      <trkpt lat="42.867" lon="-0.28131">
        <ele>1780</ele>
        <time>2023-08-01T14:40:47Z</time>
      </trkpt>
      <trkpt lat="42.867" lon="-0.28106">
        <ele>1779</ele>
        <time>2023-08-01T14:41:12Z</time>
      </trkpt>
      <trkpt lat="42.86705" lon="-0.28079">
        <ele>1778</ele>
        <time>2023-08-01T14:41:39Z</time>
      </trkpt>
      <trkpt lat="42.86713" lon="-0.28066">
        <ele>1780</ele>
        <time>2023-08-01T14:41:55Z</time>
      </trkpt>
      <trkpt lat="42.86727" lon="-0.28056">
        <ele>1780</ele>
        <time>2023-08-01T14:42:16Z</time>
      </trkpt>
      <trkpt lat="42.86745" lon="-0.27999">
        <ele>1778</ele>
        <time>2023-08-01T14:43:17Z</time>
      </trkpt>
      <trkpt lat="42.86755" lon="-0.27982">
        <ele>1779</ele>
        <time>2023-08-01T14:43:39Z</time>
      </trkpt>
      <trkpt lat="42.86761" lon="-0.27977">
        <ele>1780</ele>
        <time>2023-08-01T14:43:48Z</time>
      </trkpt>
      <trkpt lat="42.86777" lon="-0.27954">
        <ele>1782</ele>
        <time>2023-08-01T14:44:19Z</time>
      </trkpt>
      <trkpt lat="42.86793" lon="-0.27947">
        <ele>1781</ele>
        <time>2023-08-01T14:44:41Z</time>
      </trkpt>
      <trkpt lat="42.8681" lon="-0.2793">
        <ele>1779</ele>
        <time>2023-08-01T14:45:09Z</time>
      </trkpt>
      <trkpt lat="42.86819" lon="-0.27918">
        <ele>1777</ele>
        <time>2023-08-01T14:45:26Z</time>
      </trkpt>
      <trkpt lat="42.86826" lon="-0.27915">
        <ele>1775</ele>
        <time>2023-08-01T14:45:36Z</time>
      </trkpt>
      <trkpt lat="42.86833" lon="-0.27901">
        <ele>1773</ele>
        <time>2023-08-01T14:45:53Z</time>
      </trkpt>
      <trkpt lat="42.86841" lon="-0.27894">
        <ele>1775</ele>
        <time>2023-08-01T14:46:05Z</time>
      </trkpt>
      <trkpt lat="42.86856" lon="-0.27893">
        <ele>1779</ele>
        <time>2023-08-01T14:46:25Z</time>
      </trkpt>
      <trkpt lat="42.86861" lon="-0.27886">
        <ele>1780</ele>
        <time>2023-08-01T14:46:35Z</time>
      </trkpt>
      <trkpt lat="42.86879" lon="-0.27875">
        <ele>1783</ele>
        <time>2023-08-01T14:47:01Z</time>
      </trkpt>
      <trkpt lat="42.86898" lon="-0.27843">
        <ele>1782</ele>
        <time>2023-08-01T14:47:42Z</time>
      </trkpt>
      <trkpt lat="42.86898" lon="-0.2781">
        <ele>1780</ele>
        <time>2023-08-01T14:48:14Z</time>
      </trkpt>
      <trkpt lat="42.86888" lon="-0.27733">
        <ele>1787</ele>
        <time>2023-08-01T14:49:30Z</time>
      </trkpt>
      <trkpt lat="42.86893" lon="-0.2772">
        <ele>1786</ele>
        <time>2023-08-01T14:49:45Z</time>
      </trkpt>
      <trkpt lat="42.86894" lon="-0.27702">
        <ele>1788</ele>
        <time>2023-08-01T14:50:02Z</time>
      </trkpt>
      <trkpt lat="42.86901" lon="-0.27691">
        <ele>1786</ele>
        <time>2023-08-01T14:50:17Z</time>
      </trkpt>
      <trkpt lat="42.86917" lon="-0.27638">
        <ele>1778</ele>
        <time>2023-08-01T14:51:13Z</time>
      </trkpt>
      <trkpt lat="42.86922" lon="-0.27635">
        <ele>1779</ele>
        <time>2023-08-01T14:51:20Z</time>
      </trkpt>
      <trkpt lat="42.86934" lon="-0.27617">
        <ele>1781</ele>
        <time>2023-08-01T14:51:44Z</time>
      </trkpt>
      <trkpt lat="42.86937" lon="-0.27585">
        <ele>1779</ele>
        <time>2023-08-01T14:52:15Z</time>
      </trkpt>
      <trkpt lat="42.86942" lon="-0.27555">
        <ele>1776</ele>
        <time>2023-08-01T14:52:45Z</time>
      </trkpt>
      <trkpt lat="42.86948" lon="-0.27539">
        <ele>1776</ele>
        <time>2023-08-01T14:53:03Z</time>
      </trkpt>
      <trkpt lat="42.86946" lon="-0.27533">
        <ele>1774</ele>
        <time>2023-08-01T14:53:09Z</time>
      </trkpt>
      <trkpt lat="42.86953" lon="-0.27517">
        <ele>1774</ele>
        <time>2023-08-01T14:53:28Z</time>
      </trkpt>
      <trkpt lat="42.86951" lon="-0.27511">
        <ele>1773</ele>
        <time>2023-08-01T14:53:34Z</time>
      </trkpt>
      <trkpt lat="42.86942" lon="-0.27506">
        <ele>1770</ele>
        <time>2023-08-01T14:53:47Z</time>
      </trkpt>
      <trkpt lat="42.86941" lon="-0.27496">
        <ele>1768</ele>
        <time>2023-08-01T14:53:57Z</time>
      </trkpt>
      <trkpt lat="42.86935" lon="-0.27491">
        <ele>1766</ele>
        <time>2023-08-01T14:54:06Z</time>
      </trkpt>
      <trkpt lat="42.86928" lon="-0.2749">
        <ele>1764</ele>
        <time>2023-08-01T14:54:16Z</time>
      </trkpt>
      <trkpt lat="42.86902" lon="-0.2745">
        <ele>1760</ele>
        <time>2023-08-01T14:55:08Z</time>
      </trkpt>
      <trkpt lat="42.86906" lon="-0.27419">
        <ele>1755</ele>
        <time>2023-08-01T14:55:39Z</time>
      </trkpt>
      <trkpt lat="42.86898" lon="-0.27389">
        <ele>1757</ele>
        <time>2023-08-01T14:56:10Z</time>
      </trkpt>
      <trkpt lat="42.86901" lon="-0.27378">
        <ele>1755</ele>
        <time>2023-08-01T14:56:21Z</time>
      </trkpt>
      <trkpt lat="42.86898" lon="-0.27367">
        <ele>1756</ele>
        <time>2023-08-01T14:56:33Z</time>
      </trkpt>
      <trkpt lat="42.86899" lon="-0.27345">
        <ele>1755</ele>
        <time>2023-08-01T14:56:54Z</time>
      </trkpt>
      <trkpt lat="42.86898" lon="-0.27321">
        <ele>1754</ele>
        <time>2023-08-01T14:57:18Z</time>
      </trkpt>
      <trkpt lat="42.86909" lon="-0.27298">
        <ele>1744</ele>
        <time>2023-08-01T14:57:45Z</time>
      </trkpt>
      <trkpt lat="42.8691" lon="-0.27292">
        <ele>1743</ele>
        <time>2023-08-01T14:57:51Z</time>
      </trkpt>
      <trkpt lat="42.86915" lon="-0.27283">
        <ele>1738</ele>
        <time>2023-08-01T14:58:02Z</time>
      </trkpt>
      <trkpt lat="42.86929" lon="-0.27248">
        <ele>1733</ele>
        <time>2023-08-01T14:58:41Z</time>
      </trkpt>
      <trkpt lat="42.86933" lon="-0.27235">
        <ele>1730</ele>
        <time>2023-08-01T14:58:55Z</time>
      </trkpt>
      <trkpt lat="42.86929" lon="-0.27194">
        <ele>1722</ele>
        <time>2023-08-01T14:59:35Z</time>
      </trkpt>
      <trkpt lat="42.86933" lon="-0.27188">
        <ele>1720</ele>
        <time>2023-08-01T14:59:43Z</time>
      </trkpt>
      <trkpt lat="42.86937" lon="-0.2719">
        <ele>1720</ele>
        <time>2023-08-01T14:59:49Z</time>
      </trkpt>
      <trkpt lat="42.8694" lon="-0.27182">
        <ele>1718</ele>
        <time>2023-08-01T14:59:58Z</time>
      </trkpt>
      <trkpt lat="42.86938" lon="-0.2717">
        <ele>1716</ele>
        <time>2023-08-01T15:00:10Z</time>
      </trkpt>
      <trkpt lat="42.86939" lon="-0.27165">
        <ele>1714</ele>
        <time>2023-08-01T15:00:15Z</time>
      </trkpt>
      <trkpt lat="42.86935" lon="-0.27156">
        <ele>1712</ele>
        <time>2023-08-01T15:00:25Z</time>
      </trkpt>
      <trkpt lat="42.86934" lon="-0.27147">
        <ele>1710</ele>
        <time>2023-08-01T15:00:34Z</time>
      </trkpt>
      <trkpt lat="42.86932" lon="-0.27088">
        <ele>1694</ele>
        <time>2023-08-01T15:01:32Z</time>
      </trkpt>
      <trkpt lat="42.86928" lon="-0.27061">
        <ele>1687</ele>
        <time>2023-08-01T15:01:59Z</time>
      </trkpt>
      <trkpt lat="42.8693" lon="-0.27045">
        <ele>1683</ele>
        <time>2023-08-01T15:02:14Z</time>
      </trkpt>
      <trkpt lat="42.86933" lon="-0.27021">
        <ele>1676</ele>
        <time>2023-08-01T15:02:38Z</time>
      </trkpt>
      <trkpt lat="42.86949" lon="-0.27001">
        <ele>1667</ele>
        <time>2023-08-01T15:03:07Z</time>
      </trkpt>
      <trkpt lat="42.86948" lon="-0.26984">
        <ele>1663</ele>
        <time>2023-08-01T15:03:24Z</time>
      </trkpt>
      <trkpt lat="42.86944" lon="-0.2698">
        <ele>1662</ele>
        <time>2023-08-01T15:03:30Z</time>
      </trkpt>
      <trkpt lat="42.86942" lon="-0.26965">
        <ele>1658</ele>
        <time>2023-08-01T15:03:45Z</time>
      </trkpt>
      <trkpt lat="42.86943" lon="-0.26957">
        <ele>1656</ele>
        <time>2023-08-01T15:03:53Z</time>
      </trkpt>
      <trkpt lat="42.86957" lon="-0.2694">
        <ele>1649</ele>
        <time>2023-08-01T15:04:18Z</time>
      </trkpt>
      <trkpt lat="42.86961" lon="-0.26929">
        <ele>1646</ele>
        <time>2023-08-01T15:04:30Z</time>
      </trkpt>
      <trkpt lat="42.86959" lon="-0.26915">
        <ele>1642</ele>
        <time>2023-08-01T15:04:44Z</time>
      </trkpt>
      <trkpt lat="42.86952" lon="-0.26909">
        <ele>1641</ele>
        <time>2023-08-01T15:04:55Z</time>
      </trkpt>
      <trkpt lat="42.86933" lon="-0.26871">
        <ele>1632</ele>
        <time>2023-08-01T15:05:40Z</time>
      </trkpt>
      <trkpt lat="42.86924" lon="-0.26867">
        <ele>1631</ele>
        <time>2023-08-01T15:05:53Z</time>
      </trkpt>
      <trkpt lat="42.86918" lon="-0.26859">
        <ele>1628</ele>
        <time>2023-08-01T15:06:04Z</time>
      </trkpt>
      <trkpt lat="42.86917" lon="-0.26852">
        <ele>1626</ele>
        <time>2023-08-01T15:06:11Z</time>
      </trkpt>
      <trkpt lat="42.86919" lon="-0.26846">
        <ele>1624</ele>
        <time>2023-08-01T15:06:18Z</time>
      </trkpt>
      <trkpt lat="42.86925" lon="-0.26843">
        <ele>1623</ele>
        <time>2023-08-01T15:06:26Z</time>
      </trkpt>
      <trkpt lat="42.86924" lon="-0.26836">
        <ele>1621</ele>
        <time>2023-08-01T15:06:33Z</time>
      </trkpt>
      <trkpt lat="42.86917" lon="-0.26818">
        <ele>1616</ele>
        <time>2023-08-01T15:06:53Z</time>
      </trkpt>
      <trkpt lat="42.86908" lon="-0.26812">
        <ele>1615</ele>
        <time>2023-08-01T15:07:06Z</time>
      </trkpt>
      <trkpt lat="42.86904" lon="-0.26797">
        <ele>1611</ele>
        <time>2023-08-01T15:07:22Z</time>
      </trkpt>
      <trkpt lat="42.8689" lon="-0.26785">
        <ele>1609</ele>
        <time>2023-08-01T15:07:44Z</time>
      </trkpt>
      <trkpt lat="42.86876" lon="-0.26765">
        <ele>1605</ele>
        <time>2023-08-01T15:08:11Z</time>
      </trkpt>
      <trkpt lat="42.86867" lon="-0.26763">
        <ele>1605</ele>
        <time>2023-08-01T15:08:23Z</time>
      </trkpt>
      <trkpt lat="42.86852" lon="-0.26731">
        <ele>1599</ele>
        <time>2023-08-01T15:09:00Z</time>
      </trkpt>
      <trkpt lat="42.86845" lon="-0.2672">
        <ele>1597</ele>
        <time>2023-08-01T15:09:15Z</time>
      </trkpt>
      <trkpt lat="42.86836" lon="-0.26685">
        <ele>1591</ele>
        <time>2023-08-01T15:09:51Z</time>
      </trkpt>
      <trkpt lat="42.8683" lon="-0.26607">
        <ele>1580</ele>
        <time>2023-08-01T15:11:08Z</time>
      </trkpt>
      <trkpt lat="42.86848" lon="-0.2662">
        <ele>1578</ele>
        <time>2023-08-01T15:11:35Z</time>
      </trkpt>
      <trkpt lat="42.86848" lon="-0.26606">
        <ele>1576</ele>
        <time>2023-08-01T15:11:49Z</time>
      </trkpt>
      <trkpt lat="42.86851" lon="-0.26603">
        <ele>1575</ele>
        <time>2023-08-01T15:11:53Z</time>
      </trkpt>
      <trkpt lat="42.86856" lon="-0.26603">
        <ele>1575</ele>
        <time>2023-08-01T15:12:00Z</time>
      </trkpt>
      <trkpt lat="42.86853" lon="-0.26589">
        <ele>1573</ele>
        <time>2023-08-01T15:12:14Z</time>
      </trkpt>
      <trkpt lat="42.86841" lon="-0.26575">
        <ele>1575</ele>
        <time>2023-08-01T15:12:35Z</time>
      </trkpt>
      <trkpt lat="42.86818" lon="-0.26562">
        <ele>1582</ele>
        <time>2023-08-01T15:13:09Z</time>
      </trkpt>
      <trkpt lat="42.8681" lon="-0.26552">
        <ele>1585</ele>
        <time>2023-08-01T15:13:23Z</time>
      </trkpt>
      <trkpt lat="42.8681" lon="-0.26543">
        <ele>1585</ele>
        <time>2023-08-01T15:13:32Z</time>
      </trkpt>
      <trkpt lat="42.86802" lon="-0.26531">
        <ele>1588</ele>
        <time>2023-08-01T15:13:48Z</time>
      </trkpt>
      <trkpt lat="42.86794" lon="-0.26494">
        <ele>1592</ele>
        <time>2023-08-01T15:14:26Z</time>
      </trkpt>
      <trkpt lat="42.86787" lon="-0.26498">
        <ele>1593</ele>
        <time>2023-08-01T15:14:36Z</time>
      </trkpt>
      <trkpt lat="42.86777" lon="-0.26495">
        <ele>1596</ele>
        <time>2023-08-01T15:14:49Z</time>
      </trkpt>
      <trkpt lat="42.86771" lon="-0.26485">
        <ele>1599</ele>
        <time>2023-08-01T15:15:02Z</time>
      </trkpt>
      <trkpt lat="42.86753" lon="-0.26478">
        <ele>1606</ele>
        <time>2023-08-01T15:15:27Z</time>
      </trkpt>
      <trkpt lat="42.86758" lon="-0.26471">
        <ele>1606</ele>
        <time>2023-08-01T15:15:37Z</time>
      </trkpt>
      <trkpt lat="42.86755" lon="-0.26468">
        <ele>1607</ele>
        <time>2023-08-01T15:15:42Z</time>
      </trkpt>
      <trkpt lat="42.86752" lon="-0.26468">
        <ele>1608</ele>
        <time>2023-08-01T15:15:46Z</time>
      </trkpt>
      <trkpt lat="42.86752" lon="-0.26461">
        <ele>1609</ele>
        <time>2023-08-01T15:15:52Z</time>
      </trkpt>
      <trkpt lat="42.86748" lon="-0.2646">
        <ele>1611</ele>
        <time>2023-08-01T15:15:58Z</time>
      </trkpt>
      <trkpt lat="42.86762" lon="-0.26423">
        <ele>1614</ele>
        <time>2023-08-01T15:16:39Z</time>
      </trkpt>
      <trkpt lat="42.86761" lon="-0.26418">
        <ele>1616</ele>
        <time>2023-08-01T15:16:44Z</time>
      </trkpt>
      <trkpt lat="42.86734" lon="-0.26403">
        <ele>1629</ele>
        <time>2023-08-01T15:17:22Z</time>
      </trkpt>
      <trkpt lat="42.86729" lon="-0.26399">
        <ele>1631</ele>
        <time>2023-08-01T15:17:30Z</time>
      </trkpt>
      <trkpt lat="42.86727" lon="-0.26392">
        <ele>1634</ele>
        <time>2023-08-01T15:17:38Z</time>
      </trkpt>
      <trkpt lat="42.8671" lon="-0.26382">
        <ele>1642</ele>
        <time>2023-08-01T15:18:02Z</time>
      </trkpt>
      <trkpt lat="42.86708" lon="-0.26371">
        <ele>1644</ele>
        <time>2023-08-01T15:18:13Z</time>
      </trkpt>
      <trkpt lat="42.86703" lon="-0.26366">
        <ele>1647</ele>
        <time>2023-08-01T15:18:22Z</time>
      </trkpt>
      <trkpt lat="42.86688" lon="-0.26365">
        <ele>1652</ele>
        <time>2023-08-01T15:18:42Z</time>
      </trkpt>
      <trkpt lat="42.86685" lon="-0.26351">
        <ele>1655</ele>
        <time>2023-08-01T15:18:56Z</time>
      </trkpt>
      <trkpt lat="42.86681" lon="-0.26347">
        <ele>1656</ele>
        <time>2023-08-01T15:19:03Z</time>
      </trkpt>
      <trkpt lat="42.8668" lon="-0.26338">
        <ele>1658</ele>
        <time>2023-08-01T15:19:11Z</time>
      </trkpt>
      <trkpt lat="42.86675" lon="-0.26332">
        <ele>1660</ele>
        <time>2023-08-01T15:19:20Z</time>
      </trkpt>
      <trkpt lat="42.86673" lon="-0.26324">
        <ele>1662</ele>
        <time>2023-08-01T15:19:29Z</time>
      </trkpt>
      <trkpt lat="42.86663" lon="-0.26315">
        <ele>1667</ele>
        <time>2023-08-01T15:19:45Z</time>
      </trkpt>
      <trkpt lat="42.86661" lon="-0.26296">
        <ele>1671</ele>
        <time>2023-08-01T15:20:03Z</time>
      </trkpt>
      <trkpt lat="42.86657" lon="-0.2629">
        <ele>1673</ele>
        <time>2023-08-01T15:20:11Z</time>
      </trkpt>
      <trkpt lat="42.86649" lon="-0.26295">
        <ele>1676</ele>
        <time>2023-08-01T15:20:23Z</time>
      </trkpt>
      <trkpt lat="42.86643" lon="-0.26288">
        <ele>1679</ele>
        <time>2023-08-01T15:20:34Z</time>
      </trkpt>
      <trkpt lat="42.86639" lon="-0.26287">
        <ele>1680</ele>
        <time>2023-08-01T15:20:39Z</time>
      </trkpt>
      <trkpt lat="42.86634" lon="-0.26279">
        <ele>1683</ele>
        <time>2023-08-01T15:20:49Z</time>
      </trkpt>
      <trkpt lat="42.86628" lon="-0.26277">
        <ele>1685</ele>
        <time>2023-08-01T15:20:58Z</time>
      </trkpt>
      <trkpt lat="42.86628" lon="-0.26288">
        <ele>1685</ele>
        <time>2023-08-01T15:21:08Z</time>
      </trkpt>
      <trkpt lat="42.86619" lon="-0.26279">
        <ele>1689</ele>
        <time>2023-08-01T15:21:23Z</time>
      </trkpt>
      <trkpt lat="42.86612" lon="-0.26278">
        <ele>1691</ele>
        <time>2023-08-01T15:21:33Z</time>
      </trkpt>
      <trkpt lat="42.866" lon="-0.26268">
        <ele>1696</ele>
        <time>2023-08-01T15:21:51Z</time>
      </trkpt>
      <trkpt lat="42.86597" lon="-0.2626">
        <ele>1697</ele>
        <time>2023-08-01T15:22:00Z</time>
      </trkpt>
      <trkpt lat="42.86588" lon="-0.26259">
        <ele>1700</ele>
        <time>2023-08-01T15:22:12Z</time>
      </trkpt>
      <trkpt lat="42.86582" lon="-0.26249">
        <ele>1701</ele>
        <time>2023-08-01T15:22:25Z</time>
      </trkpt>
      <trkpt lat="42.86574" lon="-0.26242">
        <ele>1704</ele>
        <time>2023-08-01T15:22:38Z</time>
      </trkpt>
      <trkpt lat="42.86557" lon="-0.26239">
        <ele>1707</ele>
        <time>2023-08-01T15:23:00Z</time>
      </trkpt>
      <trkpt lat="42.86549" lon="-0.26218">
        <ele>1711</ele>
        <time>2023-08-01T15:23:24Z</time>
      </trkpt>
      <trkpt lat="42.86541" lon="-0.26208">
        <ele>1713</ele>
        <time>2023-08-01T15:23:38Z</time>
      </trkpt>
      <trkpt lat="42.8653" lon="-0.26208">
        <ele>1714</ele>
        <time>2023-08-01T15:23:53Z</time>
      </trkpt>
      <trkpt lat="42.86502" lon="-0.26203">
        <ele>1717</ele>
        <time>2023-08-01T15:24:30Z</time>
      </trkpt>
      <trkpt lat="42.86478" lon="-0.2619">
        <ele>1716</ele>
        <time>2023-08-01T15:25:05Z</time>
      </trkpt>
      <trkpt lat="42.86446" lon="-0.26163">
        <ele>1712</ele>
        <time>2023-08-01T15:25:55Z</time>
      </trkpt>
      <trkpt lat="42.86431" lon="-0.26157">
        <ele>1711</ele>
        <time>2023-08-01T15:26:16Z</time>
      </trkpt>
      <trkpt lat="42.86404" lon="-0.26126">
        <ele>1714</ele>
        <time>2023-08-01T15:27:03Z</time>
      </trkpt>
      <trkpt lat="42.86379" lon="-0.26104">
        <ele>1714</ele>
        <time>2023-08-01T15:27:43Z</time>
      </trkpt>
      <trkpt lat="42.86354" lon="-0.26087">
        <ele>1711</ele>
        <time>2023-08-01T15:28:20Z</time>
      </trkpt>
      <trkpt lat="42.86317" lon="-0.2608">
        <ele>1709</ele>
        <time>2023-08-01T15:29:10Z</time>
      </trkpt>
      <trkpt lat="42.86294" lon="-0.26063">
        <ele>1715</ele>
        <time>2023-08-01T15:29:45Z</time>
      </trkpt>
      <trkpt lat="42.86276" lon="-0.26053">
        <ele>1718</ele>
        <time>2023-08-01T15:30:11Z</time>
      </trkpt>
      <trkpt lat="42.86226" lon="-0.26036">
        <ele>1728</ele>
        <time>2023-08-01T15:31:19Z</time>
      </trkpt>
      <trkpt lat="42.862" lon="-0.26034">
        <ele>1734</ele>
        <time>2023-08-01T15:31:54Z</time>
      </trkpt>
      <trkpt lat="42.86163" lon="-0.26045">
        <ele>1738</ele>
        <time>2023-08-01T15:32:45Z</time>
      </trkpt>
      <trkpt lat="42.86118" lon="-0.2607">
        <ele>1737</ele>
        <time>2023-08-01T15:33:50Z</time>
      </trkpt>
      <trkpt lat="42.86094" lon="-0.26077">
        <ele>1739</ele>
        <time>2023-08-01T15:34:22Z</time>
      </trkpt>
      <trkpt lat="42.86087" lon="-0.26077">
        <ele>1740</ele>
        <time>2023-08-01T15:34:32Z</time>
      </trkpt>
      <trkpt lat="42.86037" lon="-0.2606">
        <ele>1739</ele>
        <time>2023-08-01T15:35:40Z</time>
      </trkpt>
      <trkpt lat="42.86009" lon="-0.26044">
        <ele>1738</ele>
        <time>2023-08-01T15:36:21Z</time>
      </trkpt>
      <trkpt lat="42.8599" lon="-0.26042">
        <ele>1737</ele>
        <time>2023-08-01T15:36:46Z</time>
      </trkpt>
      <trkpt lat="42.85963" lon="-0.26023">
        <ele>1738</ele>
        <time>2023-08-01T15:37:27Z</time>
      </trkpt>
      <trkpt lat="42.85954" lon="-0.26018">
        <ele>1738</ele>
        <time>2023-08-01T15:37:40Z</time>
      </trkpt>
      <trkpt lat="42.85942" lon="-0.26015">
        <ele>1738</ele>
        <time>2023-08-01T15:37:56Z</time>
      </trkpt>
      <trkpt lat="42.85917" lon="-0.26012">
        <ele>1738</ele>
        <time>2023-08-01T15:38:30Z</time>
      </trkpt>
      <trkpt lat="42.85863" lon="-0.2603">
        <ele>1745</ele>
        <time>2023-08-01T15:39:44Z</time>
      </trkpt>
      <trkpt lat="42.85856" lon="-0.26037">
        <ele>1745</ele>
        <time>2023-08-01T15:39:55Z</time>
      </trkpt>
      <trkpt lat="42.85848" lon="-0.26052">
        <ele>1744</ele>
        <time>2023-08-01T15:40:14Z</time>
      </trkpt>
      <trkpt lat="42.85841" lon="-0.26058">
        <ele>1743</ele>
        <time>2023-08-01T15:40:25Z</time>
      </trkpt>
      <trkpt lat="42.85827" lon="-0.26061">
        <ele>1744</ele>
        <time>2023-08-01T15:40:43Z</time>
      </trkpt>
      <trkpt lat="42.85822" lon="-0.26064">
        <ele>1743</ele>
        <time>2023-08-01T15:40:51Z</time>
      </trkpt>
      <trkpt lat="42.8582" lon="-0.26071">
        <ele>1742</ele>
        <time>2023-08-01T15:40:58Z</time>
      </trkpt>
      <trkpt lat="42.85821" lon="-0.26082">
        <ele>1740</ele>
        <time>2023-08-01T15:41:09Z</time>
      </trkpt>
      <trkpt lat="42.85817" lon="-0.26088">
        <ele>1741</ele>
        <time>2023-08-01T15:41:17Z</time>
      </trkpt>
      <trkpt lat="42.858" lon="-0.26098">
        <ele>1743</ele>
        <time>2023-08-01T15:41:42Z</time>
      </trkpt>
      <trkpt lat="42.85746" lon="-0.26088">
        <ele>1746</ele>
        <time>2023-08-01T15:42:54Z</time>
      </trkpt>
      <trkpt lat="42.85676" lon="-0.2608">
        <ele>1751</ele>
        <time>2023-08-01T15:44:28Z</time>
      </trkpt>
      <trkpt lat="42.85661" lon="-0.26104">
        <ele>1756</ele>
        <time>2023-08-01T15:44:59Z</time>
      </trkpt>
      <trkpt lat="42.85631" lon="-0.26073">
        <ele>1757</ele>
        <time>2023-08-01T15:45:49Z</time>
      </trkpt>
      <trkpt lat="42.85624" lon="-0.26019">
        <ele>1757</ele>
        <time>2023-08-01T15:46:43Z</time>
      </trkpt>
      <trkpt lat="42.85622" lon="-0.26012">
        <ele>1757</ele>
        <time>2023-08-01T15:46:50Z</time>
      </trkpt>
      <trkpt lat="42.85619" lon="-0.2601">
        <ele>1757</ele>
        <time>2023-08-01T15:46:55Z</time>
      </trkpt>
      <trkpt lat="42.85614" lon="-0.26009">
        <ele>1758</ele>
        <time>2023-08-01T15:47:01Z</time>
      </trkpt>
      <trkpt lat="42.8561" lon="-0.26011">
        <ele>1758</ele>
        <time>2023-08-01T15:47:07Z</time>
      </trkpt>
      <trkpt lat="42.85603" lon="-0.26009">
        <ele>1759</ele>
        <time>2023-08-01T15:47:17Z</time>
      </trkpt>
      <trkpt lat="42.85592" lon="-0.26005">
        <ele>1759</ele>
        <time>2023-08-01T15:47:32Z</time>
      </trkpt>
      <trkpt lat="42.85588" lon="-0.26">
        <ele>1760</ele>
        <time>2023-08-01T15:47:39Z</time>
      </trkpt>
      <trkpt lat="42.8559" lon="-0.25978">
        <ele>1760</ele>
        <time>2023-08-01T15:48:01Z</time>
      </trkpt>
      <trkpt lat="42.85583" lon="-0.25951">
        <ele>1761</ele>
        <time>2023-08-01T15:48:29Z</time>
      </trkpt>
      <trkpt lat="42.85581" lon="-0.25945">
        <ele>1761</ele>
        <time>2023-08-01T15:48:35Z</time>
      </trkpt>
      <trkpt lat="42.85577" lon="-0.2594">
        <ele>1762</ele>
        <time>2023-08-01T15:48:42Z</time>
      </trkpt>
      <trkpt lat="42.85507" lon="-0.25911">
        <ele>1780</ele>
        <time>2023-08-01T15:50:20Z</time>
      </trkpt>
      <trkpt lat="42.85492" lon="-0.25907">
        <ele>1784</ele>
        <time>2023-08-01T15:50:40Z</time>
      </trkpt>
      <trkpt lat="42.85491" lon="-0.25905">
        <ele>1785</ele>
        <time>2023-08-01T15:50:43Z</time>
      </trkpt>
      <trkpt lat="42.85518" lon="-0.2587">
        <ele>1788</ele>
        <time>2023-08-01T15:51:32Z</time>
      </trkpt>
      <trkpt lat="42.85528" lon="-0.25854">
        <ele>1789</ele>
        <time>2023-08-01T15:51:53Z</time>
      </trkpt>
      <trkpt lat="42.85537" lon="-0.25836">
        <ele>1791</ele>
        <time>2023-08-01T15:52:14Z</time>
      </trkpt>
      <trkpt lat="42.85557" lon="-0.25815">
        <ele>1798</ele>
        <time>2023-08-01T15:52:48Z</time>
      </trkpt>
      <trkpt lat="42.8554" lon="-0.25819">
        <ele>1799</ele>
        <time>2023-08-01T15:53:11Z</time>
      </trkpt>
      <trkpt lat="42.85513" lon="-0.25828">
        <ele>1801</ele>
        <time>2023-08-01T15:53:48Z</time>
      </trkpt>
      <trkpt lat="42.85498" lon="-0.25823">
        <ele>1806</ele>
        <time>2023-08-01T15:54:09Z</time>
      </trkpt>
      <trkpt lat="42.85491" lon="-0.25823">
        <ele>1808</ele>
        <time>2023-08-01T15:54:18Z</time>
      </trkpt>
      <trkpt lat="42.85505" lon="-0.25808">
        <ele>1812</ele>
        <time>2023-08-01T15:54:42Z</time>
      </trkpt>
      <trkpt lat="42.85506" lon="-0.25805">
        <ele>1813</ele>
        <time>2023-08-01T15:54:45Z</time>
      </trkpt>
      <trkpt lat="42.85503" lon="-0.25804">
        <ele>1814</ele>
        <time>2023-08-01T15:54:49Z</time>
      </trkpt>
      <trkpt lat="42.85487" lon="-0.25808">
        <ele>1816</ele>
        <time>2023-08-01T15:55:11Z</time>
      </trkpt>
      <trkpt lat="42.85482" lon="-0.25807">
        <ele>1817</ele>
        <time>2023-08-01T15:55:18Z</time>
      </trkpt>
      <trkpt lat="42.85468" lon="-0.25808">
        <ele>1820</ele>
        <time>2023-08-01T15:55:36Z</time>
      </trkpt>
      <trkpt lat="42.85422" lon="-0.25808">
        <ele>1830</ele>
        <time>2023-08-01T15:56:38Z</time>
      </trkpt>
      <trkpt lat="42.85407" lon="-0.2581">
        <ele>1832</ele>
        <time>2023-08-01T15:56:58Z</time>
      </trkpt>
      <trkpt lat="42.85394" lon="-0.25815">
        <ele>1833</ele>
        <time>2023-08-01T15:57:16Z</time>
      </trkpt>
      <trkpt lat="42.85393" lon="-0.25814">
        <ele>1833</ele>
        <time>2023-08-01T15:57:18Z</time>
      </trkpt>
      <trkpt lat="42.85396" lon="-0.25808">
        <ele>1835</ele>
        <time>2023-08-01T15:57:25Z</time>
      </trkpt>
      <trkpt lat="42.85428" lon="-0.25774">
        <ele>1842</ele>
        <time>2023-08-01T15:58:19Z</time>
      </trkpt>
      <trkpt lat="42.85439" lon="-0.25769">
        <ele>1842</ele>
        <time>2023-08-01T15:58:34Z</time>
      </trkpt>
      <trkpt lat="42.85444" lon="-0.25765">
        <ele>1843</ele>
        <time>2023-08-01T15:58:42Z</time>
      </trkpt>
      <trkpt lat="42.85427" lon="-0.25759">
        <ele>1848</ele>
        <time>2023-08-01T15:59:05Z</time>
      </trkpt>
      <trkpt lat="42.85419" lon="-0.2576">
        <ele>1849</ele>
        <time>2023-08-01T15:59:16Z</time>
      </trkpt>
      <trkpt lat="42.85403" lon="-0.25769">
        <ele>1848</ele>
        <time>2023-08-01T15:59:39Z</time>
      </trkpt>
      <trkpt lat="42.85392" lon="-0.25772">
        <ele>1849</ele>
        <time>2023-08-01T15:59:54Z</time>
      </trkpt>
      <trkpt lat="42.85383" lon="-0.25772">
        <ele>1851</ele>
        <time>2023-08-01T16:00:06Z</time>
      </trkpt>
      <trkpt lat="42.8538" lon="-0.2577">
        <ele>1852</ele>
        <time>2023-08-01T16:00:11Z</time>
      </trkpt>
      <trkpt lat="42.85399" lon="-0.25754">
        <ele>1855</ele>
        <time>2023-08-01T16:00:40Z</time>
      </trkpt>
      <trkpt lat="42.85412" lon="-0.25737">
        <ele>1859</ele>
        <time>2023-08-01T16:01:04Z</time>
      </trkpt>
      <trkpt lat="42.85419" lon="-0.25732">
        <ele>1860</ele>
        <time>2023-08-01T16:01:15Z</time>
      </trkpt>
      <trkpt lat="42.85435" lon="-0.25726">
        <ele>1860</ele>
        <time>2023-08-01T16:01:37Z</time>
      </trkpt>
      <trkpt lat="42.85439" lon="-0.25722">
        <ele>1861</ele>
        <time>2023-08-01T16:01:44Z</time>
      </trkpt>
      <trkpt lat="42.85427" lon="-0.25718">
        <ele>1865</ele>
        <time>2023-08-01T16:02:00Z</time>
      </trkpt>
      <trkpt lat="42.85419" lon="-0.25718">
        <ele>1866</ele>
        <time>2023-08-01T16:02:11Z</time>
      </trkpt>
      <trkpt lat="42.85412" lon="-0.25723">
        <ele>1865</ele>
        <time>2023-08-01T16:02:22Z</time>
      </trkpt>
      <trkpt lat="42.85384" lon="-0.25732">
        <ele>1868</ele>
        <time>2023-08-01T16:03:00Z</time>
      </trkpt>
      <trkpt lat="42.85381" lon="-0.25731">
        <ele>1869</ele>
        <time>2023-08-01T16:03:04Z</time>
      </trkpt>
      <trkpt lat="42.85413" lon="-0.25692">
        <ele>1878</ele>
        <time>2023-08-01T16:04:01Z</time>
      </trkpt>
      <trkpt lat="42.85429" lon="-0.25679">
        <ele>1881</ele>
        <time>2023-08-01T16:04:26Z</time>
      </trkpt>
      <trkpt lat="42.85416" lon="-0.2568">
        <ele>1883</ele>
        <time>2023-08-01T16:04:44Z</time>
      </trkpt>
      <trkpt lat="42.85399" lon="-0.25687">
        <ele>1885</ele>
        <time>2023-08-01T16:05:07Z</time>
      </trkpt>
      <trkpt lat="42.85376" lon="-0.25692">
        <ele>1889</ele>
        <time>2023-08-01T16:05:38Z</time>
      </trkpt>
      <trkpt lat="42.85349" lon="-0.25684">
        <ele>1901</ele>
        <time>2023-08-01T16:06:15Z</time>
      </trkpt>
      <trkpt lat="42.85342" lon="-0.25685">
        <ele>1903</ele>
        <time>2023-08-01T16:06:25Z</time>
      </trkpt>
      <trkpt lat="42.85334" lon="-0.25684">
        <ele>1906</ele>
        <time>2023-08-01T16:06:35Z</time>
      </trkpt>
      <trkpt lat="42.8532" lon="-0.25677">
        <ele>1913</ele>
        <time>2023-08-01T16:06:55Z</time>
      </trkpt>
      <trkpt lat="42.85296" lon="-0.25685">
        <ele>1914</ele>
        <time>2023-08-01T16:07:28Z</time>
      </trkpt>
      <trkpt lat="42.85293" lon="-0.25685">
        <ele>1914</ele>
        <time>2023-08-01T16:07:32Z</time>
      </trkpt>
      <trkpt lat="42.85311" lon="-0.25666">
        <ele>1920</ele>
        <time>2023-08-01T16:08:03Z</time>
      </trkpt>
      <trkpt lat="42.85342" lon="-0.25656">
        <ele>1920</ele>
        <time>2023-08-01T16:08:45Z</time>
      </trkpt>
      <trkpt lat="42.85328" lon="-0.25651">
        <ele>1928</ele>
        <time>2023-08-01T16:09:04Z</time>
      </trkpt>
      <trkpt lat="42.8531" lon="-0.25648">
        <ele>1933</ele>
        <time>2023-08-01T16:09:29Z</time>
      </trkpt>
      <trkpt lat="42.8529" lon="-0.25658">
        <ele>1930</ele>
        <time>2023-08-01T16:09:57Z</time>
      </trkpt>
      <trkpt lat="42.85269" lon="-0.25656">
        <ele>1935</ele>
        <time>2023-08-01T16:10:25Z</time>
      </trkpt>
      <trkpt lat="42.85237" lon="-0.25663">
        <ele>1934</ele>
        <time>2023-08-01T16:11:08Z</time>
      </trkpt>
      <trkpt lat="42.85217" lon="-0.25664">
        <ele>1935</ele>
        <time>2023-08-01T16:11:35Z</time>
      </trkpt>
      <trkpt lat="42.85172" lon="-0.25659">
        <ele>1942</ele>
        <time>2023-08-01T16:12:35Z</time>
      </trkpt>
      <trkpt lat="42.85148" lon="-0.25653">
        <ele>1946</ele>
        <time>2023-08-01T16:13:08Z</time>
      </trkpt>
      <trkpt lat="42.85201" lon="-0.2563">
        <ele>1958</ele>
        <time>2023-08-01T16:14:22Z</time>
      </trkpt>
      <trkpt lat="42.85235" lon="-0.25609">
        <ele>1972</ele>
        <time>2023-08-01T16:15:12Z</time>
      </trkpt>
      <trkpt lat="42.85236" lon="-0.25605">
        <ele>1975</ele>
        <time>2023-08-01T16:15:16Z</time>
      </trkpt>
      <trkpt lat="42.85234" lon="-0.25601">
        <ele>1978</ele>
        <time>2023-08-01T16:15:21Z</time>
      </trkpt>
      <trkpt lat="42.85201" lon="-0.25607">
        <ele>1972</ele>
        <time>2023-08-01T16:16:05Z</time>
      </trkpt>
      <trkpt lat="42.85168" lon="-0.25601">
        <ele>1974</ele>
        <time>2023-08-01T16:16:50Z</time>
      </trkpt>
      <trkpt lat="42.85147" lon="-0.25594">
        <ele>1976</ele>
        <time>2023-08-01T16:17:18Z</time>
      </trkpt>
      <trkpt lat="42.85137" lon="-0.25586">
        <ele>1978</ele>
        <time>2023-08-01T16:17:34Z</time>
      </trkpt>
      <trkpt lat="42.85111" lon="-0.2555">
        <ele>1993</ele>
        <time>2023-08-01T16:18:23Z</time>
      </trkpt>
      <trkpt lat="42.85101" lon="-0.25544">
        <ele>1995</ele>
        <time>2023-08-01T16:18:38Z</time>
      </trkpt>
      <trkpt lat="42.85089" lon="-0.25546">
        <ele>1992</ele>
        <time>2023-08-01T16:18:54Z</time>
      </trkpt>
      <trkpt lat="42.85078" lon="-0.25539">
        <ele>1995</ele>
        <time>2023-08-01T16:19:10Z</time>
      </trkpt>
      <trkpt lat="42.85063" lon="-0.25522">
        <ele>2003</ele>
        <time>2023-08-01T16:19:36Z</time>
      </trkpt>
      <trkpt lat="42.85051" lon="-0.25515">
        <ele>2005</ele>
        <time>2023-08-01T16:19:54Z</time>
      </trkpt>
      <trkpt lat="42.85039" lon="-0.25503">
        <ele>2010</ele>
        <time>2023-08-01T16:20:14Z</time>
      </trkpt>
      <trkpt lat="42.85022" lon="-0.25494">
        <ele>2013</ele>
        <time>2023-08-01T16:20:38Z</time>
      </trkpt>
      <trkpt lat="42.85003" lon="-0.255">
        <ele>2007</ele>
        <time>2023-08-01T16:21:04Z</time>
      </trkpt>
      <trkpt lat="42.84982" lon="-0.25504">
        <ele>2008</ele>
        <time>2023-08-01T16:21:32Z</time>
      </trkpt>
      <trkpt lat="42.84951" lon="-0.25505">
        <ele>2011</ele>
        <time>2023-08-01T16:22:14Z</time>
      </trkpt>
      <trkpt lat="42.8489" lon="-0.25522">
        <ele>2015</ele>
        <time>2023-08-01T16:23:37Z</time>
      </trkpt>
      <trkpt lat="42.84803" lon="-0.25517">
        <ele>2031</ele>
        <time>2023-08-01T16:25:33Z</time>
      </trkpt>
      <trkpt lat="42.84786" lon="-0.25527">
        <ele>2028</ele>
        <time>2023-08-01T16:25:58Z</time>
      </trkpt>
      <trkpt lat="42.84767" lon="-0.25533">
        <ele>2027</ele>
        <time>2023-08-01T16:26:24Z</time>
      </trkpt>
      <trkpt lat="42.84746" lon="-0.25537">
        <ele>2028</ele>
        <time>2023-08-01T16:26:52Z</time>
      </trkpt>
      <trkpt lat="42.84732" lon="-0.25536">
        <ele>2030</ele>
        <time>2023-08-01T16:27:11Z</time>
      </trkpt>
      <trkpt lat="42.84712" lon="-0.25542">
        <ele>2030</ele>
        <time>2023-08-01T16:27:38Z</time>
      </trkpt>
      <trkpt lat="42.84689" lon="-0.25546">
        <ele>2031</ele>
        <time>2023-08-01T16:28:09Z</time>
      </trkpt>
      <trkpt lat="42.84675" lon="-0.25546">
        <ele>2032</ele>
        <time>2023-08-01T16:28:28Z</time>
      </trkpt>
      <trkpt lat="42.84667" lon="-0.25542">
        <ele>2035</ele>
        <time>2023-08-01T16:28:39Z</time>
      </trkpt>
      <trkpt lat="42.84642" lon="-0.25547">
        <ele>2036</ele>
        <time>2023-08-01T16:29:13Z</time>
      </trkpt>
      <trkpt lat="42.84628" lon="-0.25554">
        <ele>2035</ele>
        <time>2023-08-01T16:29:33Z</time>
      </trkpt>
      <trkpt lat="42.84613" lon="-0.25556">
        <ele>2037</ele>
        <time>2023-08-01T16:29:53Z</time>
      </trkpt>
      <trkpt lat="42.84604" lon="-0.25557">
        <ele>2037</ele>
        <time>2023-08-01T16:30:05Z</time>
      </trkpt>
      <trkpt lat="42.84584" lon="-0.25554">
        <ele>2041</ele>
        <time>2023-08-01T16:30:32Z</time>
      </trkpt>
      <trkpt lat="42.84551" lon="-0.25537">
        <ele>2047</ele>
        <time>2023-08-01T16:31:19Z</time>
      </trkpt>
      <trkpt lat="42.84495" lon="-0.25526">
        <ele>2052</ele>
        <time>2023-08-01T16:32:34Z</time>
      </trkpt>
      <trkpt lat="42.84475" lon="-0.25525">
        <ele>2050</ele>
        <time>2023-08-01T16:33:01Z</time>
      </trkpt>
      <trkpt lat="42.84432" lon="-0.25503">
        <ele>2048</ele>
        <time>2023-08-01T16:34:02Z</time>
      </trkpt>
      <trkpt lat="42.84404" lon="-0.25484">
        <ele>2054</ele>
        <time>2023-08-01T16:34:44Z</time>
      </trkpt>
      <trkpt lat="42.84359" lon="-0.2547">
        <ele>2057</ele>
        <time>2023-08-01T16:35:45Z</time>
      </trkpt>
      <trkpt lat="42.84334" lon="-0.25457">
        <ele>2060</ele>
        <time>2023-08-01T16:36:21Z</time>
      </trkpt>
      <trkpt lat="42.84311" lon="-0.25435">
        <ele>2063</ele>
        <time>2023-08-01T16:36:59Z</time>
      </trkpt>
      <trkpt lat="42.84299" lon="-0.25422">
        <ele>2065</ele>
        <time>2023-08-01T16:37:19Z</time>
      </trkpt>
      <trkpt lat="42.84289" lon="-0.25403">
        <ele>2072</ele>
        <time>2023-08-01T16:37:42Z</time>
      </trkpt>
      <trkpt lat="42.84276" lon="-0.25388">
        <ele>2076</ele>
        <time>2023-08-01T16:38:05Z</time>
      </trkpt>
      <trkpt lat="42.84264" lon="-0.25378">
        <ele>2079</ele>
        <time>2023-08-01T16:38:23Z</time>
      </trkpt>
      <trkpt lat="42.84181" lon="-0.25356">
        <ele>2084</ele>
        <time>2023-08-01T16:40:16Z</time>
      </trkpt>
      <trkpt lat="42.84169" lon="-0.25355">
        <ele>2085</ele>
        <time>2023-08-01T16:40:32Z</time>
      </trkpt>
      <trkpt lat="42.84151" lon="-0.25366">
        <ele>2081</ele>
        <time>2023-08-01T16:40:59Z</time>
      </trkpt>
      <trkpt lat="42.84132" lon="-0.25367">
        <ele>2084</ele>
        <time>2023-08-01T16:41:24Z</time>
      </trkpt>
      <trkpt lat="42.84083" lon="-0.25393">
        <ele>2078</ele>
        <time>2023-08-01T16:42:34Z</time>
      </trkpt>
      <trkpt lat="42.84067" lon="-0.25395">
        <ele>2077</ele>
        <time>2023-08-01T16:42:56Z</time>
      </trkpt>
      <trkpt lat="42.84045" lon="-0.25393">
        <ele>2078</ele>
        <time>2023-08-01T16:43:25Z</time>
      </trkpt>
      <trkpt lat="42.84014" lon="-0.25383">
        <ele>2084</ele>
        <time>2023-08-01T16:44:08Z</time>
      </trkpt>
      <trkpt lat="42.84001" lon="-0.25377">
        <ele>2087</ele>
        <time>2023-08-01T16:44:26Z</time>
      </trkpt>
      <trkpt lat="42.83991" lon="-0.25361">
        <ele>2093</ele>
        <time>2023-08-01T16:44:46Z</time>
      </trkpt>
      <trkpt lat="42.83969" lon="-0.25363">
        <ele>2088</ele>
        <time>2023-08-01T16:45:16Z</time>
      </trkpt>
      <trkpt lat="42.83951" lon="-0.25356">
        <ele>2087</ele>
        <time>2023-08-01T16:45:41Z</time>
      </trkpt>
      <trkpt lat="42.83945" lon="-0.25358">
        <ele>2085</ele>
        <time>2023-08-01T16:45:49Z</time>
      </trkpt>
      <trkpt lat="42.83937" lon="-0.25364">
        <ele>2080</ele>
        <time>2023-08-01T16:46:01Z</time>
      </trkpt>
      <trkpt lat="42.83929" lon="-0.25366">
        <ele>2078</ele>
        <time>2023-08-01T16:46:12Z</time>
      </trkpt>
      <trkpt lat="42.83907" lon="-0.25377">
        <ele>2073</ele>
        <time>2023-08-01T16:46:43Z</time>
      </trkpt>
      <trkpt lat="42.83876" lon="-0.2538">
        <ele>2079</ele>
        <time>2023-08-01T16:47:25Z</time>
      </trkpt>
      <trkpt lat="42.83843" lon="-0.25359">
        <ele>2100</ele>
        <time>2023-08-01T16:48:13Z</time>
      </trkpt>
      <trkpt lat="42.83831" lon="-0.25365">
        <ele>2100</ele>
        <time>2023-08-01T16:48:31Z</time>
      </trkpt>
      <trkpt lat="42.83814" lon="-0.25368">
        <ele>2105</ele>
        <time>2023-08-01T16:48:53Z</time>
      </trkpt>
      <trkpt lat="42.83805" lon="-0.25376">
        <ele>2102</ele>
        <time>2023-08-01T16:49:08Z</time>
      </trkpt>
      <trkpt lat="42.83793" lon="-0.25383">
        <ele>2100</ele>
        <time>2023-08-01T16:49:25Z</time>
      </trkpt>
      <trkpt lat="42.8377" lon="-0.25375">
        <ele>2115</ele>
        <time>2023-08-01T16:49:57Z</time>
      </trkpt>
      <trkpt lat="42.8376" lon="-0.25378">
        <ele>2115</ele>
        <time>2023-08-01T16:50:10Z</time>
      </trkpt>
      <trkpt lat="42.83751" lon="-0.25374">
        <ele>2122</ele>
        <time>2023-08-01T16:50:23Z</time>
      </trkpt>
      <trkpt lat="42.83743" lon="-0.25374">
        <ele>2123</ele>
        <time>2023-08-01T16:50:34Z</time>
      </trkpt>
      <trkpt lat="42.83728" lon="-0.25378">
        <ele>2121</ele>
        <time>2023-08-01T16:50:54Z</time>
      </trkpt>
      <trkpt lat="42.83705" lon="-0.25397">
        <ele>2107</ele>
        <time>2023-08-01T16:51:30Z</time>
      </trkpt>
      <trkpt lat="42.83704" lon="-0.25405">
        <ele>2101</ele>
        <time>2023-08-01T16:51:38Z</time>
      </trkpt>
      <trkpt lat="42.83694" lon="-0.25414">
        <ele>2097</ele>
        <time>2023-08-01T16:51:54Z</time>
      </trkpt>
      <trkpt lat="42.83664" lon="-0.25425">
        <ele>2101</ele>
        <time>2023-08-01T16:52:35Z</time>
      </trkpt>
      <trkpt lat="42.83643" lon="-0.25444">
        <ele>2100</ele>
        <time>2023-08-01T16:53:09Z</time>
      </trkpt>
      <trkpt lat="42.83618" lon="-0.25459">
        <ele>2100</ele>
        <time>2023-08-01T16:53:46Z</time>
      </trkpt>
      <trkpt lat="42.83589" lon="-0.25474">
        <ele>2101</ele>
        <time>2023-08-01T16:54:27Z</time>
      </trkpt>
      <trkpt lat="42.83572" lon="-0.25477">
        <ele>2103</ele>
        <time>2023-08-01T16:54:50Z</time>
      </trkpt>
      <trkpt lat="42.83563" lon="-0.25476">
        <ele>2105</ele>
        <time>2023-08-01T16:55:02Z</time>
      </trkpt>
      <trkpt lat="42.83556" lon="-0.25473">
        <ele>2107</ele>
        <time>2023-08-01T16:55:12Z</time>
      </trkpt>
      <trkpt lat="42.83525" lon="-0.25479">
        <ele>2110</ele>
        <time>2023-08-01T16:55:53Z</time>
      </trkpt>
      <trkpt lat="42.83503" lon="-0.2549">
        <ele>2108</ele>
        <time>2023-08-01T16:56:25Z</time>
      </trkpt>
      <trkpt lat="42.8348" lon="-0.25497">
        <ele>2110</ele>
        <time>2023-08-01T16:56:56Z</time>
      </trkpt>
      <trkpt lat="42.83455" lon="-0.25499">
        <ele>2116</ele>
        <time>2023-08-01T16:57:30Z</time>
      </trkpt>
      <trkpt lat="42.83426" lon="-0.25524">
        <ele>2114</ele>
        <time>2023-08-01T16:58:15Z</time>
      </trkpt>
      <trkpt lat="42.83413" lon="-0.2553">
        <ele>2116</ele>
        <time>2023-08-01T16:58:34Z</time>
      </trkpt>
      <trkpt lat="42.83412" lon="-0.25534">
        <ele>2115</ele>
        <time>2023-08-01T16:58:38Z</time>
      </trkpt>
      <trkpt lat="42.83373" lon="-0.25555">
        <ele>2122</ele>
        <time>2023-08-01T16:59:34Z</time>
      </trkpt>
      <trkpt lat="42.8335" lon="-0.25579">
        <ele>2119</ele>
        <time>2023-08-01T17:00:12Z</time>
      </trkpt>
      <trkpt lat="42.83328" lon="-0.25585">
        <ele>2125</ele>
        <time>2023-08-01T17:00:42Z</time>
      </trkpt>
      <trkpt lat="42.8331" lon="-0.25595">
        <ele>2131</ele>
        <time>2023-08-01T17:01:08Z</time>
      </trkpt>
      <trkpt lat="42.83296" lon="-0.25608">
        <ele>2133</ele>
        <time>2023-08-01T17:01:31Z</time>
      </trkpt>
      <trkpt lat="42.83285" lon="-0.25624">
        <ele>2132</ele>
        <time>2023-08-01T17:01:52Z</time>
      </trkpt>
      <trkpt lat="42.83251" lon="-0.25641">
        <ele>2141</ele>
        <time>2023-08-01T17:02:41Z</time>
      </trkpt>
      <trkpt lat="42.83233" lon="-0.2566">
        <ele>2143</ele>
        <time>2023-08-01T17:03:11Z</time>
      </trkpt>
      <trkpt lat="42.83235" lon="-0.25639">
        <ele>2151</ele>
        <time>2023-08-01T17:03:32Z</time>
      </trkpt>
      <trkpt lat="42.83223" lon="-0.25655">
        <ele>2151</ele>
        <time>2023-08-01T17:03:54Z</time>
      </trkpt>
      <trkpt lat="42.8322" lon="-0.25656">
        <ele>2153</ele>
        <time>2023-08-01T17:03:58Z</time>
      </trkpt>
      <trkpt lat="42.83222" lon="-0.2564">
        <ele>2158</ele>
        <time>2023-08-01T17:04:14Z</time>
      </trkpt>
      <trkpt lat="42.832" lon="-0.25664">
        <ele>2161</ele>
        <time>2023-08-01T17:04:52Z</time>
      </trkpt>
      <trkpt lat="42.83194" lon="-0.25675">
        <ele>2159</ele>
        <time>2023-08-01T17:05:05Z</time>
      </trkpt>
      <trkpt lat="42.83163" lon="-0.25689">
        <ele>2169</ele>
        <time>2023-08-01T17:05:49Z</time>
      </trkpt>
      <trkpt lat="42.83138" lon="-0.25723">
        <ele>2165</ele>
        <time>2023-08-01T17:06:36Z</time>
      </trkpt>
      <trkpt lat="42.83137" lon="-0.25718">
        <ele>2168</ele>
        <time>2023-08-01T17:06:41Z</time>
      </trkpt>
      <trkpt lat="42.83143" lon="-0.25705">
        <ele>2172</ele>
        <time>2023-08-01T17:06:56Z</time>
      </trkpt>
      <trkpt lat="42.83143" lon="-0.25685">
        <ele>2182</ele>
        <time>2023-08-01T17:07:16Z</time>
      </trkpt>
      <trkpt lat="42.83141" lon="-0.25687">
        <ele>2182</ele>
        <time>2023-08-01T17:07:19Z</time>
      </trkpt>
      <trkpt lat="42.83134" lon="-0.25705">
        <ele>2176</ele>
        <time>2023-08-01T17:07:39Z</time>
      </trkpt>
      <trkpt lat="42.83123" lon="-0.25718">
        <ele>2176</ele>
        <time>2023-08-01T17:07:58Z</time>
      </trkpt>
      <trkpt lat="42.83126" lon="-0.25692">
        <ele>2187</ele>
        <time>2023-08-01T17:08:24Z</time>
      </trkpt>
      <trkpt lat="42.83115" lon="-0.25712">
        <ele>2183</ele>
        <time>2023-08-01T17:08:48Z</time>
      </trkpt>
      <trkpt lat="42.83113" lon="-0.25712">
        <ele>2184</ele>
        <time>2023-08-01T17:08:51Z</time>
      </trkpt>
      <trkpt lat="42.83117" lon="-0.25685">
        <ele>2196</ele>
        <time>2023-08-01T17:09:18Z</time>
      </trkpt>
      <trkpt lat="42.83093" lon="-0.2572">
        <ele>2191</ele>
        <time>2023-08-01T17:10:05Z</time>
      </trkpt>
      <trkpt lat="42.83095" lon="-0.25738">
        <ele>2181</ele>
        <time>2023-08-01T17:10:23Z</time>
      </trkpt>
      <trkpt lat="42.83091" lon="-0.25735">
        <ele>2184</ele>
        <time>2023-08-01T17:10:29Z</time>
      </trkpt>
      <trkpt lat="42.8309" lon="-0.25741">
        <ele>2182</ele>
        <time>2023-08-01T17:10:35Z</time>
      </trkpt>
      <trkpt lat="42.83064" lon="-0.2574">
        <ele>2192</ele>
        <time>2023-08-01T17:11:10Z</time>
      </trkpt>
      <trkpt lat="42.83027" lon="-0.2573">
        <ele>2208</ele>
        <time>2023-08-01T17:12:00Z</time>
      </trkpt>
      <trkpt lat="42.83018" lon="-0.25731">
        <ele>2210</ele>
        <time>2023-08-01T17:12:12Z</time>
      </trkpt>
      <trkpt lat="42.82973" lon="-0.25754">
        <ele>2211</ele>
        <time>2023-08-01T17:13:16Z</time>
      </trkpt>
      <trkpt lat="42.82962" lon="-0.25764">
        <ele>2210</ele>
        <time>2023-08-01T17:13:34Z</time>
      </trkpt>
      <trkpt lat="42.82945" lon="-0.25765">
        <ele>2213</ele>
        <time>2023-08-01T17:13:56Z</time>
      </trkpt>
      <trkpt lat="42.82894" lon="-0.25785">
        <ele>2216</ele>
        <time>2023-08-01T17:15:07Z</time>
      </trkpt>
      <trkpt lat="42.82837" lon="-0.25802">
        <ele>2219</ele>
        <time>2023-08-01T17:16:25Z</time>
      </trkpt>
      <trkpt lat="42.82781" lon="-0.25801">
        <ele>2232</ele>
        <time>2023-08-01T17:17:40Z</time>
      </trkpt>
      <trkpt lat="42.82706" lon="-0.25789">
        <ele>2253</ele>
        <time>2023-08-01T17:19:21Z</time>
      </trkpt>
      <trkpt lat="42.82676" lon="-0.25797">
        <ele>2254</ele>
        <time>2023-08-01T17:20:01Z</time>
      </trkpt>
      <trkpt lat="42.82651" lon="-0.25796">
        <ele>2259</ele>
        <time>2023-08-01T17:20:35Z</time>
      </trkpt>
      <trkpt lat="42.82639" lon="-0.25801">
        <ele>2258</ele>
        <time>2023-08-01T17:20:52Z</time>
      </trkpt>
      <trkpt lat="42.82623" lon="-0.25802">
        <ele>2260</ele>
        <time>2023-08-01T17:21:13Z</time>
      </trkpt>
      <trkpt lat="42.82616" lon="-0.25805">
        <ele>2260</ele>
        <time>2023-08-01T17:21:23Z</time>
      </trkpt>
      <trkpt lat="42.826" lon="-0.25802">
        <ele>2264</ele>
        <time>2023-08-01T17:21:44Z</time>
      </trkpt>
      <trkpt lat="42.82585" lon="-0.25802">
        <ele>2266</ele>
        <time>2023-08-01T17:22:04Z</time>
      </trkpt>
      <trkpt lat="42.82531" lon="-0.25806">
        <ele>2275</ele>
        <time>2023-08-01T17:23:16Z</time>
      </trkpt>
      <trkpt lat="42.82508" lon="-0.25821">
        <ele>2276</ele>
        <time>2023-08-01T17:23:51Z</time>
      </trkpt>
      <trkpt lat="42.82501" lon="-0.25833">
        <ele>2274</ele>
        <time>2023-08-01T17:24:06Z</time>
      </trkpt>
      <trkpt lat="42.82481" lon="-0.25843">
        <ele>2279</ele>
        <time>2023-08-01T17:24:34Z</time>
      </trkpt>
      <trkpt lat="42.82453" lon="-0.25867">
        <ele>2285</ele>
        <time>2023-08-01T17:25:18Z</time>
      </trkpt>
      <trkpt lat="42.82396" lon="-0.25921">
        <ele>2292</ele>
        <time>2023-08-01T17:26:51Z</time>
      </trkpt>
      <trkpt lat="42.82364" lon="-0.25946">
        <ele>2302</ele>
        <time>2023-08-01T17:27:40Z</time>
      </trkpt>
      <trkpt lat="42.82354" lon="-0.25961">
        <ele>2304</ele>
        <time>2023-08-01T17:28:00Z</time>
      </trkpt>
      <trkpt lat="42.82342" lon="-0.25967">
        <ele>2304</ele>
        <time>2023-08-01T17:28:17Z</time>
      </trkpt>
      <trkpt lat="42.82333" lon="-0.25978">
        <ele>2304</ele>
        <time>2023-08-01T17:28:33Z</time>
      </trkpt>
      <trkpt lat="42.82319" lon="-0.25987">
        <ele>2306</ele>
        <time>2023-08-01T17:28:54Z</time>
      </trkpt>
      <trkpt lat="42.82304" lon="-0.26005">
        <ele>2307</ele>
        <time>2023-08-01T17:29:20Z</time>
      </trkpt>
      <trkpt lat="42.82294" lon="-0.25998">
        <ele>2307</ele>
        <time>2023-08-01T17:29:35Z</time>
      </trkpt>
      <trkpt lat="42.82285" lon="-0.25979">
        <ele>2310</ele>
        <time>2023-08-01T17:29:57Z</time>
      </trkpt>
      <trkpt lat="42.82299" lon="-0.2595">
        <ele>2312</ele>
        <time>2023-08-01T17:30:31Z</time>
      </trkpt>
      <trkpt lat="42.8232" lon="-0.25892">
        <ele>2313</ele>
        <time>2023-08-01T17:31:35Z</time>
      </trkpt>
      <trkpt lat="42.82323" lon="-0.25871">
        <ele>2316</ele>
        <time>2023-08-01T17:31:56Z</time>
      </trkpt>
      <trkpt lat="42.82346" lon="-0.2581">
        <ele>2326</ele>
        <time>2023-08-01T17:33:03Z</time>
      </trkpt>
      <trkpt lat="42.82349" lon="-0.25789">
        <ele>2335</ele>
        <time>2023-08-01T17:33:24Z</time>
      </trkpt>
      <trkpt lat="42.82395" lon="-0.25737">
        <ele>2339</ele>
        <time>2023-08-01T17:34:43Z</time>
      </trkpt>
      <trkpt lat="42.8241" lon="-0.25705">
        <ele>2347</ele>
        <time>2023-08-01T17:35:21Z</time>
      </trkpt>
      <trkpt lat="42.82438" lon="-0.25679">
        <ele>2350</ele>
        <time>2023-08-01T17:36:06Z</time>
      </trkpt>
      <trkpt lat="42.82443" lon="-0.25659">
        <ele>2358</ele>
        <time>2023-08-01T17:36:27Z</time>
      </trkpt>
      <trkpt lat="42.82499" lon="-0.25623">
        <ele>2362</ele>
        <time>2023-08-01T17:37:49Z</time>
      </trkpt>
      <trkpt lat="42.82539" lon="-0.25613">
        <ele>2364</ele>
        <time>2023-08-01T17:38:43Z</time>
      </trkpt>
      <trkpt lat="42.82557" lon="-0.25586">
        <ele>2375</ele>
        <time>2023-08-01T17:39:19Z</time>
      </trkpt>
      <trkpt lat="42.8256" lon="-0.25572">
        <ele>2381</ele>
        <time>2023-08-01T17:39:33Z</time>
      </trkpt>
      <trkpt lat="42.82571" lon="-0.2556">
        <ele>2384</ele>
        <time>2023-08-01T17:39:52Z</time>
      </trkpt>
      <trkpt lat="42.82589" lon="-0.25547">
        <ele>2386</ele>
        <time>2023-08-01T17:40:19Z</time>
      </trkpt>
      <trkpt lat="42.826" lon="-0.25554">
        <ele>2383</ele>
        <time>2023-08-01T17:40:36Z</time>
      </trkpt>
      <trkpt lat="42.82616" lon="-0.25542">
        <ele>2385</ele>
        <time>2023-08-01T17:41:00Z</time>
      </trkpt>
      <trkpt lat="42.82665" lon="-0.25471">
        <ele>2399</ele>
        <time>2023-08-01T17:42:35Z</time>
      </trkpt>
      <trkpt lat="42.82731" lon="-0.25393">
        <ele>2411</ele>
        <time>2023-08-01T17:44:32Z</time>
      </trkpt>
      <trkpt lat="42.82759" lon="-0.25366">
        <ele>2409</ele>
        <time>2023-08-01T17:45:18Z</time>
      </trkpt>
      <trkpt lat="42.82776" lon="-0.2534">
        <ele>2407</ele>
        <time>2023-08-01T17:45:52Z</time>
      </trkpt>
      <trkpt lat="42.8277" lon="-0.25298">
        <ele>2418</ele>
        <time>2023-08-01T17:46:34Z</time>
      </trkpt>
      <trkpt lat="42.8277" lon="-0.25279">
        <ele>2422</ele>
        <time>2023-08-01T17:46:52Z</time>
      </trkpt>
      <trkpt lat="42.8278" lon="-0.25254">
        <ele>2425</ele>
        <time>2023-08-01T17:47:20Z</time>
      </trkpt>
      <trkpt lat="42.82784" lon="-0.25241">
        <ele>2427</ele>
        <time>2023-08-01T17:47:34Z</time>
      </trkpt>
      <trkpt lat="42.82799" lon="-0.25208">
        <ele>2432</ele>
        <time>2023-08-01T17:48:12Z</time>
      </trkpt>
      <trkpt lat="42.82806" lon="-0.25174">
        <ele>2440</ele>
        <time>2023-08-01T17:48:46Z</time>
      </trkpt>
      <trkpt lat="42.82814" lon="-0.25165">
        <ele>2439</ele>
        <time>2023-08-01T17:49:00Z</time>
      </trkpt>
      <trkpt lat="42.82818" lon="-0.2514">
        <ele>2441</ele>
        <time>2023-08-01T17:49:25Z</time>
      </trkpt>
      <trkpt lat="42.82809" lon="-0.25121">
        <ele>2448</ele>
        <time>2023-08-01T17:49:47Z</time>
      </trkpt>
      <trkpt lat="42.82786" lon="-0.251">
        <ele>2462</ele>
        <time>2023-08-01T17:50:24Z</time>
      </trkpt>
      <trkpt lat="42.82783" lon="-0.25087">
        <ele>2466</ele>
        <time>2023-08-01T17:50:38Z</time>
      </trkpt>
      <trkpt lat="42.82788" lon="-0.25064">
        <ele>2467</ele>
        <time>2023-08-01T17:51:01Z</time>
      </trkpt>
      <trkpt lat="42.82802" lon="-0.25044">
        <ele>2463</ele>
        <time>2023-08-01T17:51:28Z</time>
      </trkpt>
      <trkpt lat="42.8281" lon="-0.24986">
        <ele>2470</ele>
        <time>2023-08-01T17:52:26Z</time>
      </trkpt>
      <trkpt lat="42.82832" lon="-0.24913">
        <ele>2482</ele>
        <time>2023-08-01T17:53:43Z</time>
      </trkpt>
      <trkpt lat="42.8286" lon="-0.24879">
        <ele>2493</ele>
        <time>2023-08-01T17:54:33Z</time>
      </trkpt>
      <trkpt lat="42.82866" lon="-0.24856">
        <ele>2504</ele>
        <time>2023-08-01T17:54:57Z</time>
      </trkpt>
      <trkpt lat="42.82887" lon="-0.24841">
        <ele>2502</ele>
        <time>2023-08-01T17:55:29Z</time>
      </trkpt>
      <trkpt lat="42.82892" lon="-0.24808">
        <ele>2512</ele>
        <time>2023-08-01T17:56:02Z</time>
      </trkpt>
      <trkpt lat="42.82908" lon="-0.24786">
        <ele>2511</ele>
        <time>2023-08-01T17:56:32Z</time>
      </trkpt>
      <trkpt lat="42.82906" lon="-0.2477">
        <ele>2518</ele>
        <time>2023-08-01T17:56:48Z</time>
      </trkpt>
      <trkpt lat="42.82901" lon="-0.24752">
        <ele>2528</ele>
        <time>2023-08-01T17:57:07Z</time>
      </trkpt>
      <trkpt lat="42.82912" lon="-0.24712">
        <ele>2532</ele>
        <time>2023-08-01T17:57:49Z</time>
      </trkpt>
      <trkpt lat="42.82875" lon="-0.2473">
        <ele>2551</ele>
        <time>2023-08-01T17:58:41Z</time>
      </trkpt>
      <trkpt lat="42.8288" lon="-0.24708">
        <ele>2554</ele>
        <time>2023-08-01T17:59:04Z</time>
      </trkpt>
      <trkpt lat="42.82867" lon="-0.24721">
        <ele>2559</ele>
        <time>2023-08-01T17:59:25Z</time>
      </trkpt>
      <trkpt lat="42.8287" lon="-0.24705">
        <ele>2562</ele>
        <time>2023-08-01T17:59:41Z</time>
      </trkpt>
      <trkpt lat="42.82859" lon="-0.24712">
        <ele>2567</ele>
        <time>2023-08-01T17:59:58Z</time>
      </trkpt>
      <trkpt lat="42.82867" lon="-0.2465">
        <ele>2582</ele>
        <time>2023-08-01T18:00:59Z</time>
      </trkpt>
      <trkpt lat="42.82851" lon="-0.24595">
        <ele>2614</ele>
        <time>2023-08-01T18:01:57Z</time>
      </trkpt>
      <trkpt lat="42.82864" lon="-0.24555">
        <ele>2627</ele>
        <time>2023-08-01T18:02:40Z</time>
      </trkpt>
      <trkpt lat="42.82874" lon="-0.24547">
        <ele>2628</ele>
        <time>2023-08-01T18:02:55Z</time>
      </trkpt>
      <trkpt lat="42.8288" lon="-0.24517">
        <ele>2644</ele>
        <time>2023-08-01T18:03:26Z</time>
      </trkpt>
      <trkpt lat="42.82848" lon="-0.24525">
        <ele>2651</ele>
        <time>2023-08-01T18:04:09Z</time>
      </trkpt>
      <trkpt lat="42.82859" lon="-0.24508">
        <ele>2656</ele>
        <time>2023-08-01T18:04:31Z</time>
      </trkpt>
      <trkpt lat="42.82831" lon="-0.24521">
        <ele>2659</ele>
        <time>2023-08-01T18:05:11Z</time>
      </trkpt>
      <trkpt lat="42.82844" lon="-0.24501">
        <ele>2665</ele>
        <time>2023-08-01T18:05:37Z</time>
      </trkpt>
      <trkpt lat="42.82819" lon="-0.2451">
        <ele>2669</ele>
        <time>2023-08-01T18:06:12Z</time>
      </trkpt>
      <trkpt lat="42.82808" lon="-0.24521">
        <ele>2670</ele>
        <time>2023-08-01T18:06:30Z</time>
      </trkpt>
      <trkpt lat="42.82816" lon="-0.24484">
        <ele>2674</ele>
        <time>2023-08-01T18:07:07Z</time>
      </trkpt>
      <trkpt lat="42.82791" lon="-0.24497">
        <ele>2684</ele>
        <time>2023-08-01T18:07:43Z</time>
      </trkpt>
      <trkpt lat="42.82778" lon="-0.24511">
        <ele>2687</ele>
        <time>2023-08-01T18:08:05Z</time>
      </trkpt>
      <trkpt lat="42.82787" lon="-0.24473">
        <ele>2684</ele>
        <time>2023-08-01T18:08:44Z</time>
      </trkpt>
      <trkpt lat="42.82768" lon="-0.24488">
        <ele>2692</ele>
        <time>2023-08-01T18:09:14Z</time>
      </trkpt>
      <trkpt lat="42.82777" lon="-0.24471">
        <ele>2687</ele>
        <time>2023-08-01T18:09:34Z</time>
      </trkpt>
      <trkpt lat="42.82764" lon="-0.24482">
        <ele>2693</ele>
        <time>2023-08-01T18:09:55Z</time>
      </trkpt>
      <trkpt lat="42.8277" lon="-0.24469">
        <ele>2689</ele>
        <time>2023-08-01T18:10:10Z</time>
      </trkpt>
      <trkpt lat="42.82762" lon="-0.24474">
        <ele>2692</ele>
        <time>2023-08-01T18:10:21Z</time>
      </trkpt>
      <trkpt lat="42.82769" lon="-0.24463">
        <ele>2688</ele>
        <time>2023-08-01T18:10:36Z</time>
      </trkpt>
      <trkpt lat="42.82751" lon="-0.24449">
        <ele>2692</ele>
        <time>2023-08-01T18:11:03Z</time>
      </trkpt>
      <trkpt lat="42.82726" lon="-0.24443">
        <ele>2693</ele>
        <time>2023-08-01T18:11:37Z</time>
      </trkpt>
      <trkpt lat="42.82715" lon="-0.2444">
        <ele>2693</ele>
        <time>2023-08-01T18:11:52Z</time>
      </trkpt>
      <trkpt lat="42.82713" lon="-0.24424">
        <ele>2690</ele>
        <time>2023-08-01T18:12:08Z</time>
      </trkpt>
      <trkpt lat="42.8272" lon="-0.24402">
        <ele>2683</ele>
        <time>2023-08-01T18:12:31Z</time>
      </trkpt>
      <trkpt lat="42.8274" lon="-0.24397">
        <ele>2679</ele>
        <time>2023-08-01T18:12:59Z</time>
      </trkpt>
      <trkpt lat="42.82762" lon="-0.24374">
        <ele>2665</ele>
        <time>2023-08-01T18:13:36Z</time>
      </trkpt>
      <trkpt lat="42.82777" lon="-0.24356">
        <ele>2654</ele>
        <time>2023-08-01T18:14:02Z</time>
      </trkpt>
      <trkpt lat="42.82872" lon="-0.24362">
        <ele>2648</ele>
        <time>2023-08-01T18:16:09Z</time>
      </trkpt>
      <trkpt lat="42.82919" lon="-0.24347">
        <ele>2648</ele>
        <time>2023-08-01T18:17:14Z</time>
      </trkpt>
      <trkpt lat="42.82953" lon="-0.243">
        <ele>2634</ele>
        <time>2023-08-01T18:18:18Z</time>
      </trkpt>
      <trkpt lat="42.82941" lon="-0.24227">
        <ele>2610</ele>
        <time>2023-08-01T18:19:31Z</time>
      </trkpt>
      <trkpt lat="42.8294" lon="-0.24168">
        <ele>2603</ele>
        <time>2023-08-01T18:20:29Z</time>
      </trkpt>
      <trkpt lat="42.82963" lon="-0.24136">
        <ele>2598</ele>
        <time>2023-08-01T18:21:13Z</time>
      </trkpt>
      <trkpt lat="42.82972" lon="-0.24088">
        <ele>2593</ele>
        <time>2023-08-01T18:22:02Z</time>
      </trkpt>
      <trkpt lat="42.82977" lon="-0.24052">
        <ele>2589</ele>
        <time>2023-08-01T18:22:37Z</time>
      </trkpt>
      <trkpt lat="42.8299" lon="-0.24011">
        <ele>2585</ele>
        <time>2023-08-01T18:23:21Z</time>
      </trkpt>
      <trkpt lat="42.8299" lon="-0.2399">
        <ele>2583</ele>
        <time>2023-08-01T18:23:42Z</time>
      </trkpt>
      <trkpt lat="42.82986" lon="-0.23958">
        <ele>2580</ele>
        <time>2023-08-01T18:24:13Z</time>
      </trkpt>
      <trkpt lat="42.8298" lon="-0.2394">
        <ele>2578</ele>
        <time>2023-08-01T18:24:33Z</time>
      </trkpt>
      <trkpt lat="42.82959" lon="-0.23904">
        <ele>2575</ele>
        <time>2023-08-01T18:25:18Z</time>
      </trkpt>
      <trkpt lat="42.82958" lon="-0.23878">
        <ele>2573</ele>
        <time>2023-08-01T18:25:43Z</time>
      </trkpt>
      <trkpt lat="42.82966" lon="-0.2386">
        <ele>2573</ele>
        <time>2023-08-01T18:26:04Z</time>
      </trkpt>
      <trkpt lat="42.82977" lon="-0.23853">
        <ele>2573</ele>
        <time>2023-08-01T18:26:20Z</time>
      </trkpt>
      <trkpt lat="42.82997" lon="-0.23797">
        <ele>2567</ele>
        <time>2023-08-01T18:27:21Z</time>
      </trkpt>
      <trkpt lat="42.83011" lon="-0.23781">
        <ele>2560</ele>
        <time>2023-08-01T18:27:45Z</time>
      </trkpt>
      <trkpt lat="42.83011" lon="-0.23768">
        <ele>2558</ele>
        <time>2023-08-01T18:27:58Z</time>
      </trkpt>
      <trkpt lat="42.83025" lon="-0.23722">
        <ele>2544</ele>
        <time>2023-08-01T18:28:47Z</time>
      </trkpt>
      <trkpt lat="42.83025" lon="-0.23704">
        <ele>2541</ele>
        <time>2023-08-01T18:29:04Z</time>
      </trkpt>
      <trkpt lat="42.8304" lon="-0.23686">
        <ele>2533</ele>
        <time>2023-08-01T18:29:31Z</time>
      </trkpt>
      <trkpt lat="42.83035" lon="-0.23671">
        <ele>2532</ele>
        <time>2023-08-01T18:29:47Z</time>
      </trkpt>
      <trkpt lat="42.83025" lon="-0.2366">
        <ele>2532</ele>
        <time>2023-08-01T18:30:04Z</time>
      </trkpt>
      <trkpt lat="42.83022" lon="-0.23649">
        <ele>2530</ele>
        <time>2023-08-01T18:30:16Z</time>
      </trkpt>
      <trkpt lat="42.83042" lon="-0.23639">
        <ele>2523</ele>
        <time>2023-08-01T18:30:44Z</time>
      </trkpt>
      <trkpt lat="42.8303" lon="-0.23622">
        <ele>2521</ele>
        <time>2023-08-01T18:31:07Z</time>
      </trkpt>
      <trkpt lat="42.83011" lon="-0.23613">
        <ele>2522</ele>
        <time>2023-08-01T18:31:34Z</time>
      </trkpt>
      <trkpt lat="42.83" lon="-0.23615">
        <ele>2524</ele>
        <time>2023-08-01T18:31:49Z</time>
      </trkpt>
      <trkpt lat="42.82992" lon="-0.23608">
        <ele>2521</ele>
        <time>2023-08-01T18:32:02Z</time>
      </trkpt>
      <trkpt lat="42.82982" lon="-0.23612">
        <ele>2521</ele>
        <time>2023-08-01T18:32:16Z</time>
      </trkpt>
      <trkpt lat="42.8298" lon="-0.23602">
        <ele>2517</ele>
        <time>2023-08-01T18:32:26Z</time>
      </trkpt>
      <trkpt lat="42.82992" lon="-0.23542">
        <ele>2503</ele>
        <time>2023-08-01T18:33:27Z</time>
      </trkpt>
      <trkpt lat="42.83002" lon="-0.23506">
        <ele>2496</ele>
        <time>2023-08-01T18:34:04Z</time>
      </trkpt>
      <trkpt lat="42.83013" lon="-0.23448">
        <ele>2482</ele>
        <time>2023-08-01T18:35:03Z</time>
      </trkpt>
      <trkpt lat="42.83006" lon="-0.23417">
        <ele>2474</ele>
        <time>2023-08-01T18:35:35Z</time>
      </trkpt>
      <trkpt lat="42.83033" lon="-0.23404">
        <ele>2471</ele>
        <time>2023-08-01T18:36:13Z</time>
      </trkpt>
      <trkpt lat="42.83018" lon="-0.2339">
        <ele>2465</ele>
        <time>2023-08-01T18:36:37Z</time>
      </trkpt>
      <trkpt lat="42.83015" lon="-0.23374">
        <ele>2459</ele>
        <time>2023-08-01T18:36:53Z</time>
      </trkpt>
      <trkpt lat="42.83034" lon="-0.23377">
        <ele>2463</ele>
        <time>2023-08-01T18:37:19Z</time>
      </trkpt>
      <trkpt lat="42.83036" lon="-0.23362">
        <ele>2458</ele>
        <time>2023-08-01T18:37:34Z</time>
      </trkpt>
      <trkpt lat="42.83058" lon="-0.23333">
        <ele>2452</ele>
        <time>2023-08-01T18:38:15Z</time>
      </trkpt>
      <trkpt lat="42.83071" lon="-0.23258">
        <ele>2439</ele>
        <time>2023-08-01T18:39:30Z</time>
      </trkpt>
      <trkpt lat="42.83064" lon="-0.23254">
        <ele>2436</ele>
        <time>2023-08-01T18:39:40Z</time>
      </trkpt>
      <trkpt lat="42.83057" lon="-0.23215">
        <ele>2427</ele>
        <time>2023-08-01T18:40:19Z</time>
      </trkpt>
      <trkpt lat="42.83057" lon="-0.23199">
        <ele>2424</ele>
        <time>2023-08-01T18:40:35Z</time>
      </trkpt>
      <trkpt lat="42.83051" lon="-0.23186">
        <ele>2420</ele>
        <time>2023-08-01T18:40:50Z</time>
      </trkpt>
      <trkpt lat="42.83063" lon="-0.23162">
        <ele>2420</ele>
        <time>2023-08-01T18:41:19Z</time>
      </trkpt>
      <trkpt lat="42.83064" lon="-0.23132">
        <ele>2418</ele>
        <time>2023-08-01T18:41:48Z</time>
      </trkpt>
      <trkpt lat="42.83053" lon="-0.2308">
        <ele>2412</ele>
        <time>2023-08-01T18:42:41Z</time>
      </trkpt>
      <trkpt lat="42.83053" lon="-0.23064">
        <ele>2413</ele>
        <time>2023-08-01T18:42:57Z</time>
      </trkpt>
      <trkpt lat="42.83043" lon="-0.23043">
        <ele>2410</ele>
        <time>2023-08-01T18:43:21Z</time>
      </trkpt>
      <trkpt lat="42.83024" lon="-0.22958">
        <ele>2404</ele>
        <time>2023-08-01T18:44:48Z</time>
      </trkpt>
      <trkpt lat="42.83009" lon="-0.22839">
        <ele>2386</ele>
        <time>2023-08-01T18:46:46Z</time>
      </trkpt>
      <trkpt lat="42.82999" lon="-0.22803">
        <ele>2376</ele>
        <time>2023-08-01T18:47:24Z</time>
      </trkpt>
      <trkpt lat="42.83005" lon="-0.22778">
        <ele>2372</ele>
        <time>2023-08-01T18:47:50Z</time>
      </trkpt>
      <trkpt lat="42.82999" lon="-0.22758">
        <ele>2367</ele>
        <time>2023-08-01T18:48:11Z</time>
      </trkpt>
      <trkpt lat="42.83005" lon="-0.2273">
        <ele>2362</ele>
        <time>2023-08-01T18:48:39Z</time>
      </trkpt>
      <trkpt lat="42.82998" lon="-0.22703">
        <ele>2357</ele>
        <time>2023-08-01T18:49:07Z</time>
      </trkpt>
      <trkpt lat="42.83005" lon="-0.22691">
        <ele>2355</ele>
        <time>2023-08-01T18:49:22Z</time>
      </trkpt>
      <trkpt lat="42.83" lon="-0.22684">
        <ele>2353</ele>
        <time>2023-08-01T18:49:32Z</time>
      </trkpt>
      <trkpt lat="42.82983" lon="-0.22678">
        <ele>2352</ele>
        <time>2023-08-01T18:49:55Z</time>
      </trkpt>
      <trkpt lat="42.82977" lon="-0.22678">
        <ele>2352</ele>
        <time>2023-08-01T18:50:03Z</time>
      </trkpt>
      <trkpt lat="42.82962" lon="-0.22669">
        <ele>2350</ele>
        <time>2023-08-01T18:50:25Z</time>
      </trkpt>
      <trkpt lat="42.82948" lon="-0.22676">
        <ele>2352</ele>
        <time>2023-08-01T18:50:45Z</time>
      </trkpt>
      <trkpt lat="42.82929" lon="-0.22646">
        <ele>2350</ele>
        <time>2023-08-01T18:51:24Z</time>
      </trkpt>
      <trkpt lat="42.82917" lon="-0.22634">
        <ele>2350</ele>
        <time>2023-08-01T18:51:44Z</time>
      </trkpt>
      <trkpt lat="42.8291" lon="-0.22629">
        <ele>2351</ele>
        <time>2023-08-01T18:51:54Z</time>
      </trkpt>
      <trkpt lat="42.82903" lon="-0.22619">
        <ele>2352</ele>
        <time>2023-08-01T18:52:08Z</time>
      </trkpt>
      <trkpt lat="42.82898" lon="-0.22606">
        <ele>2353</ele>
        <time>2023-08-01T18:52:22Z</time>
      </trkpt>
      <trkpt lat="42.82891" lon="-0.22603">
        <ele>2354</ele>
        <time>2023-08-01T18:52:32Z</time>
      </trkpt>
      <trkpt lat="42.82868" lon="-0.22601">
        <ele>2358</ele>
        <time>2023-08-01T18:53:03Z</time>
      </trkpt>
      <trkpt lat="42.82849" lon="-0.22591">
        <ele>2361</ele>
        <time>2023-08-01T18:53:30Z</time>
      </trkpt>
      <trkpt lat="42.82836" lon="-0.22587">
        <ele>2362</ele>
        <time>2023-08-01T18:53:48Z</time>
      </trkpt>
      <trkpt lat="42.82828" lon="-0.22581">
        <ele>2364</ele>
        <time>2023-08-01T18:54:00Z</time>
      </trkpt>
      <trkpt lat="42.82822" lon="-0.2257">
        <ele>2366</ele>
        <time>2023-08-01T18:54:13Z</time>
      </trkpt>
      <trkpt lat="42.8282" lon="-0.22561">
        <ele>2366</ele>
        <time>2023-08-01T18:54:23Z</time>
      </trkpt>
      <trkpt lat="42.82824" lon="-0.22529">
        <ele>2362</ele>
        <time>2023-08-01T18:54:54Z</time>
      </trkpt>
      <trkpt lat="42.8281" lon="-0.22514">
        <ele>2363</ele>
        <time>2023-08-01T18:55:18Z</time>
      </trkpt>
      <trkpt lat="42.82798" lon="-0.22497">
        <ele>2363</ele>
        <time>2023-08-01T18:55:41Z</time>
      </trkpt>
      <trkpt lat="42.82794" lon="-0.22488">
        <ele>2362</ele>
        <time>2023-08-01T18:55:51Z</time>
      </trkpt>
      <trkpt lat="42.828" lon="-0.2247">
        <ele>2360</ele>
        <time>2023-08-01T18:56:11Z</time>
      </trkpt>
      <trkpt lat="42.82811" lon="-0.2245">
        <ele>2360</ele>
        <time>2023-08-01T18:56:35Z</time>
      </trkpt>
      <trkpt lat="42.82828" lon="-0.22434">
        <ele>2362</ele>
        <time>2023-08-01T18:57:03Z</time>
      </trkpt>
      <trkpt lat="42.82833" lon="-0.22427">
        <ele>2363</ele>
        <time>2023-08-01T18:57:12Z</time>
      </trkpt>
      <trkpt lat="42.82834" lon="-0.22423">
        <ele>2364</ele>
        <time>2023-08-01T18:57:17Z</time>
      </trkpt>
      <trkpt lat="42.82834" lon="-0.22418">
        <ele>2364</ele>
        <time>2023-08-01T18:57:21Z</time>
      </trkpt>
      <trkpt lat="42.82821" lon="-0.22407">
        <ele>2361</ele>
        <time>2023-08-01T18:57:42Z</time>
      </trkpt>
      <trkpt lat="42.82808" lon="-0.22398">
        <ele>2357</ele>
        <time>2023-08-01T18:58:01Z</time>
      </trkpt>
      <trkpt lat="42.828" lon="-0.22386">
        <ele>2355</ele>
        <time>2023-08-01T18:58:17Z</time>
      </trkpt>
      <trkpt lat="42.82797" lon="-0.22364">
        <ele>2353</ele>
        <time>2023-08-01T18:58:39Z</time>
      </trkpt>
      <trkpt lat="42.82792" lon="-0.22354">
        <ele>2351</ele>
        <time>2023-08-01T18:58:51Z</time>
      </trkpt>
      <trkpt lat="42.82789" lon="-0.22327">
        <ele>2349</ele>
        <time>2023-08-01T18:59:18Z</time>
      </trkpt>
      <trkpt lat="42.82796" lon="-0.22315">
        <ele>2351</ele>
        <time>2023-08-01T18:59:33Z</time>
      </trkpt>
      <trkpt lat="42.82807" lon="-0.22304">
        <ele>2355</ele>
        <time>2023-08-01T18:59:51Z</time>
      </trkpt>
      <trkpt lat="42.82815" lon="-0.22301">
        <ele>2358</ele>
        <time>2023-08-01T19:00:02Z</time>
      </trkpt>
      <trkpt lat="42.82826" lon="-0.22288">
        <ele>2362</ele>
        <time>2023-08-01T19:00:21Z</time>
      </trkpt>
      <trkpt lat="42.82825" lon="-0.22266">
        <ele>2360</ele>
        <time>2023-08-01T19:00:43Z</time>
      </trkpt>
      <trkpt lat="42.82821" lon="-0.22255">
        <ele>2358</ele>
        <time>2023-08-01T19:00:55Z</time>
      </trkpt>
      <trkpt lat="42.82811" lon="-0.2221">
        <ele>2351</ele>
        <time>2023-08-01T19:01:41Z</time>
      </trkpt>
      <trkpt lat="42.82805" lon="-0.22194">
        <ele>2347</ele>
        <time>2023-08-01T19:01:59Z</time>
      </trkpt>
      <trkpt lat="42.82793" lon="-0.22177">
        <ele>2341</ele>
        <time>2023-08-01T19:02:22Z</time>
      </trkpt>
      <trkpt lat="42.82789" lon="-0.22164">
        <ele>2338</ele>
        <time>2023-08-01T19:02:35Z</time>
      </trkpt>
      <trkpt lat="42.82787" lon="-0.22143">
        <ele>2337</ele>
        <time>2023-08-01T19:02:56Z</time>
      </trkpt>
      <trkpt lat="42.82788" lon="-0.2211">
        <ele>2335</ele>
        <time>2023-08-01T19:03:29Z</time>
      </trkpt>
      <trkpt lat="42.8278" lon="-0.22069">
        <ele>2331</ele>
        <time>2023-08-01T19:04:10Z</time>
      </trkpt>
      <trkpt lat="42.82769" lon="-0.2205">
        <ele>2328</ele>
        <time>2023-08-01T19:04:34Z</time>
      </trkpt>
      <trkpt lat="42.82761" lon="-0.2204">
        <ele>2326</ele>
        <time>2023-08-01T19:04:48Z</time>
      </trkpt>
      <trkpt lat="42.82762" lon="-0.22029">
        <ele>2325</ele>
        <time>2023-08-01T19:04:59Z</time>
      </trkpt>
      <trkpt lat="42.82769" lon="-0.22014">
        <ele>2326</ele>
        <time>2023-08-01T19:05:16Z</time>
      </trkpt>
      <trkpt lat="42.8279" lon="-0.21976">
        <ele>2324</ele>
        <time>2023-08-01T19:06:03Z</time>
      </trkpt>
      <trkpt lat="42.82794" lon="-0.21952">
        <ele>2319</ele>
        <time>2023-08-01T19:06:27Z</time>
      </trkpt>
      <trkpt lat="42.82794" lon="-0.21939">
        <ele>2316</ele>
        <time>2023-08-01T19:06:40Z</time>
      </trkpt>
      <trkpt lat="42.82801" lon="-0.21927">
        <ele>2315</ele>
        <time>2023-08-01T19:06:55Z</time>
      </trkpt>
      <trkpt lat="42.82804" lon="-0.21914">
        <ele>2312</ele>
        <time>2023-08-01T19:07:08Z</time>
      </trkpt>
      <trkpt lat="42.828" lon="-0.21887">
        <ele>2308</ele>
        <time>2023-08-01T19:07:35Z</time>
      </trkpt>
      <trkpt lat="42.82798" lon="-0.21854">
        <ele>2302</ele>
        <time>2023-08-01T19:08:08Z</time>
      </trkpt>
      <trkpt lat="42.8279" lon="-0.21835">
        <ele>2300</ele>
        <time>2023-08-01T19:08:29Z</time>
      </trkpt>
      <trkpt lat="42.82784" lon="-0.21831">
        <ele>2300</ele>
        <time>2023-08-01T19:08:38Z</time>
      </trkpt>
      <trkpt lat="42.82789" lon="-0.21814">
        <ele>2299</ele>
        <time>2023-08-01T19:08:56Z</time>
      </trkpt>
      <trkpt lat="42.82786" lon="-0.21799">
        <ele>2299</ele>
        <time>2023-08-01T19:09:11Z</time>
      </trkpt>
      <trkpt lat="42.82788" lon="-0.21784">
        <ele>2299</ele>
        <time>2023-08-01T19:09:26Z</time>
      </trkpt>
      <trkpt lat="42.82784" lon="-0.21767">
        <ele>2299</ele>
        <time>2023-08-01T19:09:43Z</time>
      </trkpt>
      <trkpt lat="42.82792" lon="-0.21737">
        <ele>2298</ele>
        <time>2023-08-01T19:10:15Z</time>
      </trkpt>
      <trkpt lat="42.82804" lon="-0.21709">
        <ele>2295</ele>
        <time>2023-08-01T19:10:46Z</time>
      </trkpt>
      <trkpt lat="42.82817" lon="-0.21693">
        <ele>2292</ele>
        <time>2023-08-01T19:11:10Z</time>
      </trkpt>
      <trkpt lat="42.82839" lon="-0.21628">
        <ele>2285</ele>
        <time>2023-08-01T19:12:20Z</time>
      </trkpt>
      <trkpt lat="42.8286" lon="-0.21589">
        <ele>2279</ele>
        <time>2023-08-01T19:13:07Z</time>
      </trkpt>
      <trkpt lat="42.82864" lon="-0.21572">
        <ele>2275</ele>
        <time>2023-08-01T19:13:25Z</time>
      </trkpt>
      <trkpt lat="42.82872" lon="-0.21551">
        <ele>2269</ele>
        <time>2023-08-01T19:13:48Z</time>
      </trkpt>
      <trkpt lat="42.82892" lon="-0.21514">
        <ele>2258</ele>
        <time>2023-08-01T19:14:33Z</time>
      </trkpt>
      <trkpt lat="42.82887" lon="-0.21439">
        <ele>2243</ele>
        <time>2023-08-01T19:15:47Z</time>
      </trkpt>
      <trkpt lat="42.8288" lon="-0.2139">
        <ele>2231</ele>
        <time>2023-08-01T19:16:35Z</time>
      </trkpt>
      <trkpt lat="42.82882" lon="-0.21382">
        <ele>2230</ele>
        <time>2023-08-01T19:16:44Z</time>
      </trkpt>
      <trkpt lat="42.82879" lon="-0.21368">
        <ele>2225</ele>
        <time>2023-08-01T19:16:58Z</time>
      </trkpt>
      <trkpt lat="42.82878" lon="-0.21357">
        <ele>2222</ele>
        <time>2023-08-01T19:17:09Z</time>
      </trkpt>
      <trkpt lat="42.82881" lon="-0.21331">
        <ele>2218</ele>
        <time>2023-08-01T19:17:35Z</time>
      </trkpt>
      <trkpt lat="42.82885" lon="-0.21318">
        <ele>2218</ele>
        <time>2023-08-01T19:17:48Z</time>
      </trkpt>
      <trkpt lat="42.82878" lon="-0.21312">
        <ele>2214</ele>
        <time>2023-08-01T19:17:59Z</time>
      </trkpt>
      <trkpt lat="42.82876" lon="-0.21287">
        <ele>2210</ele>
        <time>2023-08-01T19:18:24Z</time>
      </trkpt>
      <trkpt lat="42.82873" lon="-0.21267">
        <ele>2206</ele>
        <time>2023-08-01T19:18:44Z</time>
      </trkpt>
      <trkpt lat="42.8286" lon="-0.21238">
        <ele>2197</ele>
        <time>2023-08-01T19:19:17Z</time>
      </trkpt>
      <trkpt lat="42.82845" lon="-0.21223">
        <ele>2188</ele>
        <time>2023-08-01T19:19:42Z</time>
      </trkpt>
      <trkpt lat="42.82838" lon="-0.21211">
        <ele>2184</ele>
        <time>2023-08-01T19:19:57Z</time>
      </trkpt>
      <trkpt lat="42.82827" lon="-0.21201">
        <ele>2178</ele>
        <time>2023-08-01T19:20:15Z</time>
      </trkpt>
      <trkpt lat="42.82819" lon="-0.21177">
        <ele>2173</ele>
        <time>2023-08-01T19:20:40Z</time>
      </trkpt>
      <trkpt lat="42.82797" lon="-0.21139">
        <ele>2161</ele>
        <time>2023-08-01T19:21:28Z</time>
      </trkpt>
      <trkpt lat="42.82791" lon="-0.21119">
        <ele>2157</ele>
        <time>2023-08-01T19:21:49Z</time>
      </trkpt>
      <trkpt lat="42.82775" lon="-0.21097">
        <ele>2149</ele>
        <time>2023-08-01T19:22:19Z</time>
      </trkpt>
      <trkpt lat="42.82774" lon="-0.2108">
        <ele>2147</ele>
        <time>2023-08-01T19:22:36Z</time>
      </trkpt>
      <trkpt lat="42.82746" lon="-0.20999">
        <ele>2131</ele>
        <time>2023-08-01T19:24:04Z</time>
      </trkpt>
      <trkpt lat="42.82749" lon="-0.2097">
        <ele>2131</ele>
        <time>2023-08-01T19:24:32Z</time>
      </trkpt>
      <trkpt lat="42.82755" lon="-0.20954">
        <ele>2134</ele>
        <time>2023-08-01T19:24:50Z</time>
      </trkpt>
      <trkpt lat="42.82757" lon="-0.20941">
        <ele>2135</ele>
        <time>2023-08-01T19:25:03Z</time>
      </trkpt>
      <trkpt lat="42.82754" lon="-0.20919">
        <ele>2133</ele>
        <time>2023-08-01T19:25:25Z</time>
      </trkpt>
      <trkpt lat="42.82748" lon="-0.2091">
        <ele>2131</ele>
        <time>2023-08-01T19:25:37Z</time>
      </trkpt>
      <trkpt lat="42.82748" lon="-0.20898">
        <ele>2132</ele>
        <time>2023-08-01T19:25:48Z</time>
      </trkpt>
      <trkpt lat="42.82743" lon="-0.20884">
        <ele>2131</ele>
        <time>2023-08-01T19:26:04Z</time>
      </trkpt>
      <trkpt lat="42.82737" lon="-0.20875">
        <ele>2130</ele>
        <time>2023-08-01T19:26:16Z</time>
      </trkpt>
      <trkpt lat="42.82735" lon="-0.20863">
        <ele>2130</ele>
        <time>2023-08-01T19:26:28Z</time>
      </trkpt>
      <trkpt lat="42.82728" lon="-0.20849">
        <ele>2129</ele>
        <time>2023-08-01T19:26:44Z</time>
      </trkpt>
      <trkpt lat="42.82713" lon="-0.20799">
        <ele>2125</ele>
        <time>2023-08-01T19:27:37Z</time>
      </trkpt>
      <trkpt lat="42.82695" lon="-0.20784">
        <ele>2119</ele>
        <time>2023-08-01T19:28:05Z</time>
      </trkpt>
      <trkpt lat="42.82699" lon="-0.20776">
        <ele>2121</ele>
        <time>2023-08-01T19:28:15Z</time>
      </trkpt>
      <trkpt lat="42.82696" lon="-0.20765">
        <ele>2120</ele>
        <time>2023-08-01T19:28:26Z</time>
      </trkpt>
      <trkpt lat="42.82694" lon="-0.2075">
        <ele>2119</ele>
        <time>2023-08-01T19:28:41Z</time>
      </trkpt>
      <trkpt lat="42.82682" lon="-0.20723">
        <ele>2113</ele>
        <time>2023-08-01T19:29:12Z</time>
      </trkpt>
      <trkpt lat="42.82678" lon="-0.20708">
        <ele>2111</ele>
        <time>2023-08-01T19:29:28Z</time>
      </trkpt>
      <trkpt lat="42.82677" lon="-0.20688">
        <ele>2109</ele>
        <time>2023-08-01T19:29:47Z</time>
      </trkpt>
      <trkpt lat="42.8267" lon="-0.20644">
        <ele>2105</ele>
        <time>2023-08-01T19:30:31Z</time>
      </trkpt>
      <trkpt lat="42.82641" lon="-0.20559">
        <ele>2087</ele>
        <time>2023-08-01T19:32:03Z</time>
      </trkpt>
      <trkpt lat="42.82644" lon="-0.20549">
        <ele>2087</ele>
        <time>2023-08-01T19:32:14Z</time>
      </trkpt>
      <trkpt lat="42.8264" lon="-0.20505">
        <ele>2079</ele>
        <time>2023-08-01T19:32:57Z</time>
      </trkpt>
      <trkpt lat="42.82628" lon="-0.20536">
        <ele>2077</ele>
        <time>2023-08-01T19:33:31Z</time>
      </trkpt>
      <trkpt lat="42.82622" lon="-0.20481">
        <ele>2069</ele>
        <time>2023-08-01T19:34:26Z</time>
      </trkpt>
      <trkpt lat="42.82624" lon="-0.20477">
        <ele>2070</ele>
        <time>2023-08-01T19:34:31Z</time>
      </trkpt>
      <trkpt lat="42.8265" lon="-0.20468">
        <ele>2081</ele>
        <time>2023-08-01T19:35:06Z</time>
      </trkpt>
      <trkpt lat="42.82653" lon="-0.20461">
        <ele>2082</ele>
        <time>2023-08-01T19:35:14Z</time>
      </trkpt>
      <trkpt lat="42.82653" lon="-0.20452">
        <ele>2081</ele>
        <time>2023-08-01T19:35:23Z</time>
      </trkpt>
      <trkpt lat="42.82637" lon="-0.20427">
        <ele>2073</ele>
        <time>2023-08-01T19:35:56Z</time>
      </trkpt>
      <trkpt lat="42.82612" lon="-0.2038">
        <ele>2060</ele>
        <time>2023-08-01T19:36:52Z</time>
      </trkpt>
      <trkpt lat="42.82604" lon="-0.20356">
        <ele>2055</ele>
        <time>2023-08-01T19:37:18Z</time>
      </trkpt>
      <trkpt lat="42.82601" lon="-0.20336">
        <ele>2053</ele>
        <time>2023-08-01T19:37:38Z</time>
      </trkpt>
      <trkpt lat="42.82612" lon="-0.20311">
        <ele>2056</ele>
        <time>2023-08-01T19:38:07Z</time>
      </trkpt>
      <trkpt lat="42.82605" lon="-0.20282">
        <ele>2050</ele>
        <time>2023-08-01T19:38:37Z</time>
      </trkpt>
      <trkpt lat="42.82609" lon="-0.20242">
        <ele>2049</ele>
        <time>2023-08-01T19:39:16Z</time>
      </trkpt>
      <trkpt lat="42.8262" lon="-0.20199">
        <ele>2053</ele>
        <time>2023-08-01T19:40:01Z</time>
      </trkpt>
      <trkpt lat="42.8262" lon="-0.20194">
        <ele>2053</ele>
        <time>2023-08-01T19:40:06Z</time>
      </trkpt>
      <trkpt lat="42.82605" lon="-0.20155">
        <ele>2048</ele>
        <time>2023-08-01T19:40:49Z</time>
      </trkpt>
      <trkpt lat="42.82605" lon="-0.20146">
        <ele>2048</ele>
        <time>2023-08-01T19:40:57Z</time>
      </trkpt>
      <trkpt lat="42.82608" lon="-0.20143">
        <ele>2048</ele>
        <time>2023-08-01T19:41:02Z</time>
      </trkpt>
      <trkpt lat="42.82585" lon="-0.20116">
        <ele>2040</ele>
        <time>2023-08-01T19:41:43Z</time>
      </trkpt>
      <trkpt lat="42.82578" lon="-0.20089">
        <ele>2036</ele>
        <time>2023-08-01T19:42:11Z</time>
      </trkpt>
      <trkpt lat="42.8257" lon="-0.20043">
        <ele>2036</ele>
        <time>2023-08-01T19:42:57Z</time>
      </trkpt>
      <trkpt lat="42.82552" lon="-0.20034">
        <ele>2030</ele>
        <time>2023-08-01T19:43:23Z</time>
      </trkpt>
      <trkpt lat="42.82539" lon="-0.20031">
        <ele>2025</ele>
        <time>2023-08-01T19:43:40Z</time>
      </trkpt>
      <trkpt lat="42.82511" lon="-0.2">
        <ele>2018</ele>
        <time>2023-08-01T19:44:29Z</time>
      </trkpt>
      <trkpt lat="42.82498" lon="-0.1997">
        <ele>2020</ele>
        <time>2023-08-01T19:45:03Z</time>
      </trkpt>
      <trkpt lat="42.82475" lon="-0.19957">
        <ele>2014</ele>
        <time>2023-08-01T19:45:36Z</time>
      </trkpt>
      <trkpt lat="42.82454" lon="-0.19941">
        <ele>2010</ele>
        <time>2023-08-01T19:46:08Z</time>
      </trkpt>
      <trkpt lat="42.82443" lon="-0.19929">
        <ele>2009</ele>
        <time>2023-08-01T19:46:27Z</time>
      </trkpt>
      <trkpt lat="42.82423" lon="-0.19926">
        <ele>2002</ele>
        <time>2023-08-01T19:46:54Z</time>
      </trkpt>
      <trkpt lat="42.82409" lon="-0.19926">
        <ele>1997</ele>
        <time>2023-08-01T19:47:12Z</time>
      </trkpt>
      <trkpt lat="42.82393" lon="-0.19923">
        <ele>1992</ele>
        <time>2023-08-01T19:47:34Z</time>
      </trkpt>
      <trkpt lat="42.82372" lon="-0.19912">
        <ele>1988</ele>
        <time>2023-08-01T19:48:04Z</time>
      </trkpt>
      <trkpt lat="42.82363" lon="-0.19918">
        <ele>1984</ele>
        <time>2023-08-01T19:48:17Z</time>
      </trkpt>
      <trkpt lat="42.82358" lon="-0.19915">
        <ele>1983</ele>
        <time>2023-08-01T19:48:25Z</time>
      </trkpt>
      <trkpt lat="42.82349" lon="-0.1992">
        <ele>1978</ele>
        <time>2023-08-01T19:48:37Z</time>
      </trkpt>
      <trkpt lat="42.82327" lon="-0.1992">
        <ele>1971</ele>
        <time>2023-08-01T19:49:07Z</time>
      </trkpt>
      <trkpt lat="42.82323" lon="-0.19923">
        <ele>1968</ele>
        <time>2023-08-01T19:49:13Z</time>
      </trkpt>
      <trkpt lat="42.82326" lon="-0.19927">
        <ele>1969</ele>
        <time>2023-08-01T19:49:19Z</time>
      </trkpt>
      <trkpt lat="42.82324" lon="-0.19932">
        <ele>1967</ele>
        <time>2023-08-01T19:49:24Z</time>
      </trkpt>
      <trkpt lat="42.82307" lon="-0.19929">
        <ele>1961</ele>
        <time>2023-08-01T19:49:47Z</time>
      </trkpt>
      <trkpt lat="42.82299" lon="-0.19925">
        <ele>1958</ele>
        <time>2023-08-01T19:49:58Z</time>
      </trkpt>
      <trkpt lat="42.82296" lon="-0.19918">
        <ele>1959</ele>
        <time>2023-08-01T19:50:06Z</time>
      </trkpt>
      <trkpt lat="42.82295" lon="-0.19912">
        <ele>1959</ele>
        <time>2023-08-01T19:50:12Z</time>
      </trkpt>
      <trkpt lat="42.8229" lon="-0.19895">
        <ele>1958</ele>
        <time>2023-08-01T19:50:30Z</time>
      </trkpt>
      <trkpt lat="42.82285" lon="-0.19884">
        <ele>1957</ele>
        <time>2023-08-01T19:50:43Z</time>
      </trkpt>
      <trkpt lat="42.82273" lon="-0.19876">
        <ele>1953</ele>
        <time>2023-08-01T19:51:01Z</time>
      </trkpt>
      <trkpt lat="42.82263" lon="-0.19861">
        <ele>1950</ele>
        <time>2023-08-01T19:51:21Z</time>
      </trkpt>
      <trkpt lat="42.8225" lon="-0.19847">
        <ele>1945</ele>
        <time>2023-08-01T19:51:43Z</time>
      </trkpt>
      <trkpt lat="42.82249" lon="-0.19824">
        <ele>1947</ele>
        <time>2023-08-01T19:52:05Z</time>
      </trkpt>
      <trkpt lat="42.82241" lon="-0.19807">
        <ele>1945</ele>
        <time>2023-08-01T19:52:25Z</time>
      </trkpt>
      <trkpt lat="42.82234" lon="-0.19799">
        <ele>1942</ele>
        <time>2023-08-01T19:52:37Z</time>
      </trkpt>
      <trkpt lat="42.8223" lon="-0.19791">
        <ele>1941</ele>
        <time>2023-08-01T19:52:47Z</time>
      </trkpt>
      <trkpt lat="42.82228" lon="-0.19785">
        <ele>1940</ele>
        <time>2023-08-01T19:52:53Z</time>
      </trkpt>
      <trkpt lat="42.82229" lon="-0.19779">
        <ele>1942</ele>
        <time>2023-08-01T19:52:59Z</time>
      </trkpt>
      <trkpt lat="42.82224" lon="-0.19771">
        <ele>1940</ele>
        <time>2023-08-01T19:53:09Z</time>
      </trkpt>
      <trkpt lat="42.8222" lon="-0.19758">
        <ele>1939</ele>
        <time>2023-08-01T19:53:23Z</time>
      </trkpt>
      <trkpt lat="42.82199" lon="-0.19735">
        <ele>1930</ele>
        <time>2023-08-01T19:53:59Z</time>
      </trkpt>
      <trkpt lat="42.82192" lon="-0.1972">
        <ele>1928</ele>
        <time>2023-08-01T19:54:17Z</time>
      </trkpt>
      <trkpt lat="42.82186" lon="-0.19718">
        <ele>1925</ele>
        <time>2023-08-01T19:54:25Z</time>
      </trkpt>
      <trkpt lat="42.8218" lon="-0.19712">
        <ele>1923</ele>
        <time>2023-08-01T19:54:35Z</time>
      </trkpt>
      <trkpt lat="42.82174" lon="-0.19702">
        <ele>1921</ele>
        <time>2023-08-01T19:54:47Z</time>
      </trkpt>
      <trkpt lat="42.82172" lon="-0.1969">
        <ele>1921</ele>
        <time>2023-08-01T19:54:59Z</time>
      </trkpt>
      <trkpt lat="42.82165" lon="-0.19682">
        <ele>1918</ele>
        <time>2023-08-01T19:55:12Z</time>
      </trkpt>
      <trkpt lat="42.82164" lon="-0.19666">
        <ele>1920</ele>
        <time>2023-08-01T19:55:27Z</time>
      </trkpt>
      <trkpt lat="42.82152" lon="-0.19629">
        <ele>1919</ele>
        <time>2023-08-01T19:56:07Z</time>
      </trkpt>
      <trkpt lat="42.82147" lon="-0.19629">
        <ele>1916</ele>
        <time>2023-08-01T19:56:14Z</time>
      </trkpt>
      <trkpt lat="42.82143" lon="-0.19632">
        <ele>1914</ele>
        <time>2023-08-01T19:56:20Z</time>
      </trkpt>
      <trkpt lat="42.82126" lon="-0.19659">
        <ele>1905</ele>
        <time>2023-08-01T19:56:55Z</time>
      </trkpt>
      <trkpt lat="42.82123" lon="-0.19661">
        <ele>1904</ele>
        <time>2023-08-01T19:56:59Z</time>
      </trkpt>
      <trkpt lat="42.82114" lon="-0.19661">
        <ele>1900</ele>
        <time>2023-08-01T19:57:11Z</time>
      </trkpt>
      <trkpt lat="42.82112" lon="-0.19657">
        <ele>1899</ele>
        <time>2023-08-01T19:57:16Z</time>
      </trkpt>
      <trkpt lat="42.82109" lon="-0.1965">
        <ele>1898</ele>
        <time>2023-08-01T19:57:24Z</time>
      </trkpt>
      <trkpt lat="42.82092" lon="-0.1963">
        <ele>1892</ele>
        <time>2023-08-01T19:57:54Z</time>
      </trkpt>
      <trkpt lat="42.82093" lon="-0.1962">
        <ele>1893</ele>
        <time>2023-08-01T19:58:04Z</time>
      </trkpt>
      <trkpt lat="42.82091" lon="-0.19615">
        <ele>1892</ele>
        <time>2023-08-01T19:58:09Z</time>
      </trkpt>
      <trkpt lat="42.82089" lon="-0.19613">
        <ele>1892</ele>
        <time>2023-08-01T19:58:12Z</time>
      </trkpt>
      <trkpt lat="42.82086" lon="-0.19614">
        <ele>1890</ele>
        <time>2023-08-01T19:58:17Z</time>
      </trkpt>
      <trkpt lat="42.82085" lon="-0.1961">
        <ele>1890</ele>
        <time>2023-08-01T19:58:21Z</time>
      </trkpt>
      <trkpt lat="42.82082" lon="-0.19608">
        <ele>1889</ele>
        <time>2023-08-01T19:58:25Z</time>
      </trkpt>
      <trkpt lat="42.82084" lon="-0.19599">
        <ele>1890</ele>
        <time>2023-08-01T19:58:34Z</time>
      </trkpt>
      <trkpt lat="42.82075" lon="-0.19597">
        <ele>1887</ele>
        <time>2023-08-01T19:58:46Z</time>
      </trkpt>
      <trkpt lat="42.82071" lon="-0.19593">
        <ele>1886</ele>
        <time>2023-08-01T19:58:53Z</time>
      </trkpt>
      <trkpt lat="42.82073" lon="-0.19588">
        <ele>1887</ele>
        <time>2023-08-01T19:58:59Z</time>
      </trkpt>
      <trkpt lat="42.8207" lon="-0.19583">
        <ele>1886</ele>
        <time>2023-08-01T19:59:05Z</time>
      </trkpt>
      <trkpt lat="42.82059" lon="-0.19576">
        <ele>1883</ele>
        <time>2023-08-01T19:59:21Z</time>
      </trkpt>
      <trkpt lat="42.82047" lon="-0.19557">
        <ele>1880</ele>
        <time>2023-08-01T19:59:46Z</time>
      </trkpt>
      <trkpt lat="42.82035" lon="-0.19555">
        <ele>1876</ele>
        <time>2023-08-01T20:00:02Z</time>
      </trkpt>
      <trkpt lat="42.82035" lon="-0.1955">
        <ele>1876</ele>
        <time>2023-08-01T20:00:07Z</time>
      </trkpt>
      <trkpt lat="42.82025" lon="-0.19536">
        <ele>1874</ele>
        <time>2023-08-01T20:00:26Z</time>
      </trkpt>
      <trkpt lat="42.82015" lon="-0.19531">
        <ele>1870</ele>
        <time>2023-08-01T20:00:40Z</time>
      </trkpt>
      <trkpt lat="42.82013" lon="-0.19527">
        <ele>1870</ele>
        <time>2023-08-01T20:00:45Z</time>
      </trkpt>
      <trkpt lat="42.82002" lon="-0.19484">
        <ele>1866</ele>
        <time>2023-08-01T20:01:29Z</time>
      </trkpt>
      <trkpt lat="42.81994" lon="-0.19483">
        <ele>1865</ele>
        <time>2023-08-01T20:01:40Z</time>
      </trkpt>
      <trkpt lat="42.81987" lon="-0.19472">
        <ele>1863</ele>
        <time>2023-08-01T20:01:54Z</time>
      </trkpt>
      <trkpt lat="42.81986" lon="-0.19462">
        <ele>1863</ele>
        <time>2023-08-01T20:02:04Z</time>
      </trkpt>
      <trkpt lat="42.81978" lon="-0.19446">
        <ele>1861</ele>
        <time>2023-08-01T20:02:23Z</time>
      </trkpt>
      <trkpt lat="42.8197" lon="-0.19439">
        <ele>1860</ele>
        <time>2023-08-01T20:02:36Z</time>
      </trkpt>
      <trkpt lat="42.81961" lon="-0.1942">
        <ele>1857</ele>
        <time>2023-08-01T20:02:58Z</time>
      </trkpt>
      <trkpt lat="42.81956" lon="-0.19408">
        <ele>1856</ele>
        <time>2023-08-01T20:03:12Z</time>
      </trkpt>
      <trkpt lat="42.81956" lon="-0.19401">
        <ele>1856</ele>
        <time>2023-08-01T20:03:18Z</time>
      </trkpt>
      <trkpt lat="42.8196" lon="-0.19384">
        <ele>1856</ele>
        <time>2023-08-01T20:03:36Z</time>
      </trkpt>
      <trkpt lat="42.81952" lon="-0.1936">
        <ele>1855</ele>
        <time>2023-08-01T20:04:02Z</time>
      </trkpt>
      <trkpt lat="42.81945" lon="-0.19352">
        <ele>1853</ele>
        <time>2023-08-01T20:04:14Z</time>
      </trkpt>
      <trkpt lat="42.81933" lon="-0.1936">
        <ele>1851</ele>
        <time>2023-08-01T20:04:32Z</time>
      </trkpt>
      <trkpt lat="42.81931" lon="-0.19359">
        <ele>1851</ele>
        <time>2023-08-01T20:04:35Z</time>
      </trkpt>
      <trkpt lat="42.81931" lon="-0.19354">
        <ele>1850</ele>
        <time>2023-08-01T20:04:39Z</time>
      </trkpt>
      <trkpt lat="42.81932" lon="-0.19346">
        <ele>1850</ele>
        <time>2023-08-01T20:04:47Z</time>
      </trkpt>
      <trkpt lat="42.81932" lon="-0.1933">
        <ele>1850</ele>
        <time>2023-08-01T20:05:03Z</time>
      </trkpt>
      <trkpt lat="42.81928" lon="-0.19327">
        <ele>1849</ele>
        <time>2023-08-01T20:05:09Z</time>
      </trkpt>
      <trkpt lat="42.81916" lon="-0.19331">
        <ele>1847</ele>
        <time>2023-08-01T20:05:26Z</time>
      </trkpt>
      <trkpt lat="42.81908" lon="-0.19323">
        <ele>1846</ele>
        <time>2023-08-01T20:05:39Z</time>
      </trkpt>
      <trkpt lat="42.81909" lon="-0.19299">
        <ele>1844</ele>
        <time>2023-08-01T20:06:02Z</time>
      </trkpt>
      <trkpt lat="42.8192" lon="-0.19269">
        <ele>1843</ele>
        <time>2023-08-01T20:06:35Z</time>
      </trkpt>
      <trkpt lat="42.81921" lon="-0.19258">
        <ele>1842</ele>
        <time>2023-08-01T20:06:46Z</time>
      </trkpt>
      <trkpt lat="42.81923" lon="-0.19249">
        <ele>1842</ele>
        <time>2023-08-01T20:06:55Z</time>
      </trkpt>
      <trkpt lat="42.81923" lon="-0.19237">
        <ele>1841</ele>
        <time>2023-08-01T20:07:07Z</time>
      </trkpt>
      <trkpt lat="42.8192" lon="-0.19226">
        <ele>1840</ele>
        <time>2023-08-01T20:07:19Z</time>
      </trkpt>
      <trkpt lat="42.81919" lon="-0.19206">
        <ele>1838</ele>
        <time>2023-08-01T20:07:38Z</time>
      </trkpt>
      <trkpt lat="42.81908" lon="-0.19188">
        <ele>1836</ele>
        <time>2023-08-01T20:08:01Z</time>
      </trkpt>
      <trkpt lat="42.81908" lon="-0.19183">
        <ele>1836</ele>
        <time>2023-08-01T20:08:06Z</time>
      </trkpt>
      <trkpt lat="42.81923" lon="-0.19164">
        <ele>1836</ele>
        <time>2023-08-01T20:08:33Z</time>
      </trkpt>
      <trkpt lat="42.81929" lon="-0.19143">
        <ele>1837</ele>
        <time>2023-08-01T20:08:55Z</time>
      </trkpt>
      <trkpt lat="42.81933" lon="-0.19118">
        <ele>1836</ele>
        <time>2023-08-01T20:09:20Z</time>
      </trkpt>
      <trkpt lat="42.81927" lon="-0.19061">
        <ele>1830</ele>
        <time>2023-08-01T20:10:17Z</time>
      </trkpt>
      <trkpt lat="42.81933" lon="-0.19035">
        <ele>1828</ele>
        <time>2023-08-01T20:10:43Z</time>
      </trkpt>
      <trkpt lat="42.81956" lon="-0.18992">
        <ele>1826</ele>
        <time>2023-08-01T20:11:36Z</time>
      </trkpt>
      <trkpt lat="42.81973" lon="-0.18944">
        <ele>1824</ele>
        <time>2023-08-01T20:12:28Z</time>
      </trkpt>
      <trkpt lat="42.81978" lon="-0.18922">
        <ele>1822</ele>
        <time>2023-08-01T20:12:50Z</time>
      </trkpt>
      <trkpt lat="42.82002" lon="-0.18879">
        <ele>1823</ele>
        <time>2023-08-01T20:13:43Z</time>
      </trkpt>
      <trkpt lat="42.82039" lon="-0.18836">
        <ele>1828</ele>
        <time>2023-08-01T20:14:48Z</time>
      </trkpt>
      <trkpt lat="42.8205" lon="-0.18819">
        <ele>1828</ele>
        <time>2023-08-01T20:15:10Z</time>
      </trkpt>
      <trkpt lat="42.82057" lon="-0.18796">
        <ele>1827</ele>
        <time>2023-08-01T20:15:35Z</time>
      </trkpt>
      <trkpt lat="42.8211" lon="-0.18735">
        <ele>1827</ele>
        <time>2023-08-01T20:17:07Z</time>
      </trkpt>
      <trkpt lat="42.82117" lon="-0.18705">
        <ele>1823</ele>
        <time>2023-08-01T20:17:38Z</time>
      </trkpt>
      <trkpt lat="42.8213" lon="-0.18683">
        <ele>1821</ele>
        <time>2023-08-01T20:18:06Z</time>
      </trkpt>
      <trkpt lat="42.82145" lon="-0.18648">
        <ele>1819</ele>
        <time>2023-08-01T20:18:45Z</time>
      </trkpt>
      <trkpt lat="42.82154" lon="-0.18618">
        <ele>1816</ele>
        <time>2023-08-01T20:19:17Z</time>
      </trkpt>
      <trkpt lat="42.8217" lon="-0.18595">
        <ele>1813</ele>
        <time>2023-08-01T20:19:48Z</time>
      </trkpt>
      <trkpt lat="42.82189" lon="-0.18579">
        <ele>1814</ele>
        <time>2023-08-01T20:20:18Z</time>
      </trkpt>
      <trkpt lat="42.8221" lon="-0.18565">
        <ele>1814</ele>
        <time>2023-08-01T20:20:49Z</time>
      </trkpt>
      <trkpt lat="42.82239" lon="-0.18558">
        <ele>1815</ele>
        <time>2023-08-01T20:21:28Z</time>
      </trkpt>
      <trkpt lat="42.82283" lon="-0.18531">
        <ele>1807</ele>
        <time>2023-08-01T20:22:33Z</time>
      </trkpt>
      <trkpt lat="42.823" lon="-0.18533">
        <ele>1808</ele>
        <time>2023-08-01T20:22:56Z</time>
      </trkpt>
      <trkpt lat="42.82321" lon="-0.18524">
        <ele>1806</ele>
        <time>2023-08-01T20:23:25Z</time>
      </trkpt>
      <trkpt lat="42.82371" lon="-0.1848">
        <ele>1804</ele>
        <time>2023-08-01T20:24:44Z</time>
      </trkpt>
      <trkpt lat="42.82392" lon="-0.18434">
        <ele>1800</ele>
        <time>2023-08-01T20:25:37Z</time>
      </trkpt>
      <trkpt lat="42.82408" lon="-0.18414">
        <ele>1799</ele>
        <time>2023-08-01T20:26:06Z</time>
      </trkpt>
      <trkpt lat="42.82419" lon="-0.18397">
        <ele>1799</ele>
        <time>2023-08-01T20:26:28Z</time>
      </trkpt>
      <trkpt lat="42.82436" lon="-0.18389">
        <ele>1801</ele>
        <time>2023-08-01T20:26:52Z</time>
      </trkpt>
      <trkpt lat="42.82445" lon="-0.18394">
        <ele>1803</ele>
        <time>2023-08-01T20:27:05Z</time>
      </trkpt>
      <trkpt lat="42.82461" lon="-0.18381">
        <ele>1803</ele>
        <time>2023-08-01T20:27:30Z</time>
      </trkpt>
      <trkpt lat="42.8247" lon="-0.18346">
        <ele>1797</ele>
        <time>2023-08-01T20:28:07Z</time>
      </trkpt>
      <trkpt lat="42.82499" lon="-0.18346">
        <ele>1799</ele>
        <time>2023-08-01T20:28:45Z</time>
      </trkpt>
      <trkpt lat="42.82515" lon="-0.18337">
        <ele>1801</ele>
        <time>2023-08-01T20:29:08Z</time>
      </trkpt>
      <trkpt lat="42.8253" lon="-0.1832">
        <ele>1803</ele>
        <time>2023-08-01T20:29:34Z</time>
      </trkpt>
      <trkpt lat="42.82535" lon="-0.18303">
        <ele>1802</ele>
        <time>2023-08-01T20:29:52Z</time>
      </trkpt>
      <trkpt lat="42.82536" lon="-0.18288">
        <ele>1801</ele>
        <time>2023-08-01T20:30:07Z</time>
      </trkpt>
      <trkpt lat="42.82548" lon="-0.18267">
        <ele>1801</ele>
        <time>2023-08-01T20:30:33Z</time>
      </trkpt>
      <trkpt lat="42.82586" lon="-0.1822">
        <ele>1797</ele>
        <time>2023-08-01T20:31:42Z</time>
      </trkpt>
      <trkpt lat="42.82612" lon="-0.18194">
        <ele>1796</ele>
        <time>2023-08-01T20:32:25Z</time>
      </trkpt>
      <trkpt lat="42.82645" lon="-0.18173">
        <ele>1798</ele>
        <time>2023-08-01T20:33:13Z</time>
      </trkpt>
      <trkpt lat="42.82648" lon="-0.18161">
        <ele>1795</ele>
        <time>2023-08-01T20:33:26Z</time>
      </trkpt>
      <trkpt lat="42.82659" lon="-0.18137">
        <ele>1792</ele>
        <time>2023-08-01T20:33:53Z</time>
      </trkpt>
      <trkpt lat="42.82689" lon="-0.18101">
        <ele>1791</ele>
        <time>2023-08-01T20:34:47Z</time>
      </trkpt>
      <trkpt lat="42.82706" lon="-0.18084">
        <ele>1791</ele>
        <time>2023-08-01T20:35:15Z</time>
      </trkpt>
      <trkpt lat="42.82716" lon="-0.1806">
        <ele>1788</ele>
        <time>2023-08-01T20:35:42Z</time>
      </trkpt>
      <trkpt lat="42.82731" lon="-0.18008">
        <ele>1778</ele>
        <time>2023-08-01T20:36:37Z</time>
      </trkpt>
      <trkpt lat="42.82754" lon="-0.17993">
        <ele>1777</ele>
        <time>2023-08-01T20:37:11Z</time>
      </trkpt>
      <trkpt lat="42.82753" lon="-0.17984">
        <ele>1773</ele>
        <time>2023-08-01T20:37:19Z</time>
      </trkpt>
      <trkpt lat="42.82747" lon="-0.17975">
        <ele>1769</ele>
        <time>2023-08-01T20:37:31Z</time>
      </trkpt>
      <trkpt lat="42.82752" lon="-0.17969">
        <ele>1767</ele>
        <time>2023-08-01T20:37:40Z</time>
      </trkpt>
      <trkpt lat="42.82758" lon="-0.17967">
        <ele>1769</ele>
        <time>2023-08-01T20:37:48Z</time>
      </trkpt>
      <trkpt lat="42.82774" lon="-0.17956">
        <ele>1769</ele>
        <time>2023-08-01T20:38:12Z</time>
      </trkpt>
      <trkpt lat="42.82803" lon="-0.17928">
        <ele>1767</ele>
        <time>2023-08-01T20:39:00Z</time>
      </trkpt>
      <trkpt lat="42.82854" lon="-0.17872">
        <ele>1765</ele>
        <time>2023-08-01T20:40:27Z</time>
      </trkpt>
      <trkpt lat="42.82854" lon="-0.17862">
        <ele>1761</ele>
        <time>2023-08-01T20:40:37Z</time>
      </trkpt>
      <trkpt lat="42.82843" lon="-0.17862">
        <ele>1756</ele>
        <time>2023-08-01T20:40:52Z</time>
      </trkpt>
      <trkpt lat="42.82822" lon="-0.17867">
        <ele>1751</ele>
        <time>2023-08-01T20:41:20Z</time>
      </trkpt>
      <trkpt lat="42.82801" lon="-0.17864">
        <ele>1747</ele>
        <time>2023-08-01T20:41:48Z</time>
      </trkpt>
      <trkpt lat="42.828" lon="-0.17859">
        <ele>1745</ele>
        <time>2023-08-01T20:41:53Z</time>
      </trkpt>
      <trkpt lat="42.82837" lon="-0.17808">
        <ele>1739</ele>
        <time>2023-08-01T20:43:04Z</time>
      </trkpt>
      <trkpt lat="42.82863" lon="-0.17776">
        <ele>1741</ele>
        <time>2023-08-01T20:43:50Z</time>
      </trkpt>
      <trkpt lat="42.8287" lon="-0.17765">
        <ele>1740</ele>
        <time>2023-08-01T20:44:05Z</time>
      </trkpt>
      <trkpt lat="42.82878" lon="-0.1774">
        <ele>1737</ele>
        <time>2023-08-01T20:44:31Z</time>
      </trkpt>
      <trkpt lat="42.82892" lon="-0.17724">
        <ele>1737</ele>
        <time>2023-08-01T20:44:56Z</time>
      </trkpt>
      <trkpt lat="42.82907" lon="-0.17703">
        <ele>1734</ele>
        <time>2023-08-01T20:45:24Z</time>
      </trkpt>
      <trkpt lat="42.82935" lon="-0.17656">
        <ele>1732</ele>
        <time>2023-08-01T20:46:24Z</time>
      </trkpt>
      <trkpt lat="42.82957" lon="-0.17628">
        <ele>1734</ele>
        <time>2023-08-01T20:47:04Z</time>
      </trkpt>
      <trkpt lat="42.82966" lon="-0.17613">
        <ele>1734</ele>
        <time>2023-08-01T20:47:23Z</time>
      </trkpt>
      <trkpt lat="42.83005" lon="-0.17587">
        <ele>1733</ele>
        <time>2023-08-01T20:48:21Z</time>
      </trkpt>
      <trkpt lat="42.83026" lon="-0.17555">
        <ele>1740</ele>
        <time>2023-08-01T20:49:03Z</time>
      </trkpt>
      <trkpt lat="42.83044" lon="-0.17536">
        <ele>1743</ele>
        <time>2023-08-01T20:49:33Z</time>
      </trkpt>
      <trkpt lat="42.83064" lon="-0.1752">
        <ele>1744</ele>
        <time>2023-08-01T20:50:04Z</time>
      </trkpt>
      <trkpt lat="42.83071" lon="-0.17516">
        <ele>1744</ele>
        <time>2023-08-01T20:50:14Z</time>
      </trkpt>
      <trkpt lat="42.83105" lon="-0.17449">
        <ele>1739</ele>
        <time>2023-08-01T20:51:34Z</time>
      </trkpt>
      <trkpt lat="42.83121" lon="-0.17422">
        <ele>1736</ele>
        <time>2023-08-01T20:52:08Z</time>
      </trkpt>
      <trkpt lat="42.83134" lon="-0.17409">
        <ele>1736</ele>
        <time>2023-08-01T20:52:29Z</time>
      </trkpt>
      <trkpt lat="42.83136" lon="-0.17403">
        <ele>1737</ele>
        <time>2023-08-01T20:52:36Z</time>
      </trkpt>
      <trkpt lat="42.83133" lon="-0.17388">
        <ele>1738</ele>
        <time>2023-08-01T20:52:51Z</time>
      </trkpt>
      <trkpt lat="42.83134" lon="-0.17379">
        <ele>1739</ele>
        <time>2023-08-01T20:53:00Z</time>
      </trkpt>
      <trkpt lat="42.83149" lon="-0.17351">
        <ele>1738</ele>
        <time>2023-08-01T20:53:34Z</time>
      </trkpt>
      <trkpt lat="42.83177" lon="-0.17338">
        <ele>1733</ele>
        <time>2023-08-01T20:54:13Z</time>
      </trkpt>
      <trkpt lat="42.83205" lon="-0.17329">
        <ele>1733</ele>
        <time>2023-08-01T20:54:52Z</time>
      </trkpt>
      <trkpt lat="42.83214" lon="-0.17323">
        <ele>1735</ele>
        <time>2023-08-01T20:55:05Z</time>
      </trkpt>
      <trkpt lat="42.83239" lon="-0.17318">
        <ele>1734</ele>
        <time>2023-08-01T20:55:39Z</time>
      </trkpt>
      <trkpt lat="42.83244" lon="-0.17314">
        <ele>1735</ele>
        <time>2023-08-01T20:55:47Z</time>
      </trkpt>
      <trkpt lat="42.83309" lon="-0.17287">
        <ele>1739</ele>
        <time>2023-08-01T20:57:17Z</time>
      </trkpt>
      <trkpt lat="42.83335" lon="-0.17294">
        <ele>1737</ele>
        <time>2023-08-01T20:57:53Z</time>
      </trkpt>
      <trkpt lat="42.83381" lon="-0.17289">
        <ele>1736</ele>
        <time>2023-08-01T20:58:54Z</time>
      </trkpt>
      <trkpt lat="42.83409" lon="-0.17279">
        <ele>1737</ele>
        <time>2023-08-01T20:59:33Z</time>
      </trkpt>
      <trkpt lat="42.83471" lon="-0.17231">
        <ele>1740</ele>
        <time>2023-08-01T21:01:08Z</time>
      </trkpt>
      <trkpt lat="42.83531" lon="-0.17209">
        <ele>1733</ele>
        <time>2023-08-01T21:02:31Z</time>
      </trkpt>
      <trkpt lat="42.83562" lon="-0.17201">
        <ele>1729</ele>
        <time>2023-08-01T21:03:13Z</time>
      </trkpt>
      <trkpt lat="42.83574" lon="-0.17188">
        <ele>1728</ele>
        <time>2023-08-01T21:03:33Z</time>
      </trkpt>
      <trkpt lat="42.83577" lon="-0.17178">
        <ele>1728</ele>
        <time>2023-08-01T21:03:44Z</time>
      </trkpt>
      <trkpt lat="42.83579" lon="-0.17168">
        <ele>1728</ele>
        <time>2023-08-01T21:03:54Z</time>
      </trkpt>
      <trkpt lat="42.83578" lon="-0.17109">
        <ele>1726</ele>
        <time>2023-08-01T21:04:52Z</time>
      </trkpt>
      <trkpt lat="42.83576" lon="-0.17085">
        <ele>1725</ele>
        <time>2023-08-01T21:05:15Z</time>
      </trkpt>
      <trkpt lat="42.8358" lon="-0.1707">
        <ele>1726</ele>
        <time>2023-08-01T21:05:31Z</time>
      </trkpt>
      <trkpt lat="42.83624" lon="-0.17011">
        <ele>1729</ele>
        <time>2023-08-01T21:06:53Z</time>
      </trkpt>
      <trkpt lat="42.83641" lon="-0.16993">
        <ele>1729</ele>
        <time>2023-08-01T21:07:22Z</time>
      </trkpt>
      <trkpt lat="42.8365" lon="-0.16953">
        <ele>1728</ele>
        <time>2023-08-01T21:08:03Z</time>
      </trkpt>
      <trkpt lat="42.83661" lon="-0.16919">
        <ele>1727</ele>
        <time>2023-08-01T21:08:39Z</time>
      </trkpt>
      <trkpt lat="42.83681" lon="-0.16874">
        <ele>1727</ele>
        <time>2023-08-01T21:09:31Z</time>
      </trkpt>
      <trkpt lat="42.83705" lon="-0.16837">
        <ele>1725</ele>
        <time>2023-08-01T21:10:19Z</time>
      </trkpt>
      <trkpt lat="42.83709" lon="-0.16825">
        <ele>1724</ele>
        <time>2023-08-01T21:10:32Z</time>
      </trkpt>
      <trkpt lat="42.8372" lon="-0.16822">
        <ele>1721</ele>
        <time>2023-08-01T21:10:47Z</time>
      </trkpt>
      <trkpt lat="42.83722" lon="-0.16818">
        <ele>1720</ele>
        <time>2023-08-01T21:10:52Z</time>
      </trkpt>
      <trkpt lat="42.8372" lon="-0.16813">
        <ele>1720</ele>
        <time>2023-08-01T21:10:57Z</time>
      </trkpt>
      <trkpt lat="42.83713" lon="-0.16807">
        <ele>1721</ele>
        <time>2023-08-01T21:11:09Z</time>
      </trkpt>
      <trkpt lat="42.83715" lon="-0.16804">
        <ele>1720</ele>
        <time>2023-08-01T21:11:12Z</time>
      </trkpt>
      <trkpt lat="42.83721" lon="-0.16806">
        <ele>1719</ele>
        <time>2023-08-01T21:11:21Z</time>
      </trkpt>
      <trkpt lat="42.83721" lon="-0.16798">
        <ele>1718</ele>
        <time>2023-08-01T21:11:29Z</time>
      </trkpt>
      <trkpt lat="42.83723" lon="-0.16795">
        <ele>1717</ele>
        <time>2023-08-01T21:11:33Z</time>
      </trkpt>
      <trkpt lat="42.83735" lon="-0.16798">
        <ele>1715</ele>
        <time>2023-08-01T21:11:49Z</time>
      </trkpt>
      <trkpt lat="42.83745" lon="-0.16791">
        <ele>1711</ele>
        <time>2023-08-01T21:12:04Z</time>
      </trkpt>
      <trkpt lat="42.83752" lon="-0.16795">
        <ele>1710</ele>
        <time>2023-08-01T21:12:14Z</time>
      </trkpt>
      <trkpt lat="42.83755" lon="-0.16794">
        <ele>1709</ele>
        <time>2023-08-01T21:12:18Z</time>
      </trkpt>
      <trkpt lat="42.83756" lon="-0.16786">
        <ele>1707</ele>
        <time>2023-08-01T21:12:26Z</time>
      </trkpt>
      <trkpt lat="42.83753" lon="-0.16775">
        <ele>1706</ele>
        <time>2023-08-01T21:12:37Z</time>
      </trkpt>
      <trkpt lat="42.83755" lon="-0.16755">
        <ele>1702</ele>
        <time>2023-08-01T21:12:57Z</time>
      </trkpt>
      <trkpt lat="42.83759" lon="-0.16741">
        <ele>1699</ele>
        <time>2023-08-01T21:13:12Z</time>
      </trkpt>
      <trkpt lat="42.83767" lon="-0.16731">
        <ele>1697</ele>
        <time>2023-08-01T21:13:26Z</time>
      </trkpt>
      <trkpt lat="42.8377" lon="-0.16732">
        <ele>1696</ele>
        <time>2023-08-01T21:13:31Z</time>
      </trkpt>
      <trkpt lat="42.83772" lon="-0.16736">
        <ele>1695</ele>
        <time>2023-08-01T21:13:35Z</time>
      </trkpt>
      <trkpt lat="42.83775" lon="-0.16749">
        <ele>1695</ele>
        <time>2023-08-01T21:13:49Z</time>
      </trkpt>
      <trkpt lat="42.83783" lon="-0.16764">
        <ele>1695</ele>
        <time>2023-08-01T21:14:07Z</time>
      </trkpt>
      <trkpt lat="42.83792" lon="-0.1677">
        <ele>1693</ele>
        <time>2023-08-01T21:14:20Z</time>
      </trkpt>
      <trkpt lat="42.838" lon="-0.16774">
        <ele>1692</ele>
        <time>2023-08-01T21:14:32Z</time>
      </trkpt>
      <trkpt lat="42.83811" lon="-0.16775">
        <ele>1688</ele>
        <time>2023-08-01T21:14:46Z</time>
      </trkpt>
      <trkpt lat="42.83823" lon="-0.16773">
        <ele>1684</ele>
        <time>2023-08-01T21:15:02Z</time>
      </trkpt>
      <trkpt lat="42.83833" lon="-0.1677">
        <ele>1681</ele>
        <time>2023-08-01T21:15:16Z</time>
      </trkpt>
      <trkpt lat="42.83841" lon="-0.16761">
        <ele>1678</ele>
        <time>2023-08-01T21:15:30Z</time>
      </trkpt>
      <trkpt lat="42.83847" lon="-0.16757">
        <ele>1676</ele>
        <time>2023-08-01T21:15:39Z</time>
      </trkpt>
      <trkpt lat="42.83854" lon="-0.16757">
        <ele>1674</ele>
        <time>2023-08-01T21:15:48Z</time>
      </trkpt>
      <trkpt lat="42.83862" lon="-0.16761">
        <ele>1672</ele>
        <time>2023-08-01T21:15:59Z</time>
      </trkpt>
      <trkpt lat="42.83869" lon="-0.16768">
        <ele>1671</ele>
        <time>2023-08-01T21:16:11Z</time>
      </trkpt>
      <trkpt lat="42.83873" lon="-0.16776">
        <ele>1670</ele>
        <time>2023-08-01T21:16:21Z</time>
      </trkpt>
      <trkpt lat="42.83874" lon="-0.16784">
        <ele>1670</ele>
        <time>2023-08-01T21:16:28Z</time>
      </trkpt>
      <trkpt lat="42.8389" lon="-0.16794">
        <ele>1665</ele>
        <time>2023-08-01T21:16:52Z</time>
      </trkpt>
      <trkpt lat="42.83895" lon="-0.16801">
        <ele>1663</ele>
        <time>2023-08-01T21:17:02Z</time>
      </trkpt>
      <trkpt lat="42.83896" lon="-0.1682">
        <ele>1663</ele>
        <time>2023-08-01T21:17:20Z</time>
      </trkpt>
      <trkpt lat="42.83899" lon="-0.16838">
        <ele>1662</ele>
        <time>2023-08-01T21:17:38Z</time>
      </trkpt>
      <trkpt lat="42.83907" lon="-0.16845">
        <ele>1658</ele>
        <time>2023-08-01T21:17:51Z</time>
      </trkpt>
      <trkpt lat="42.83931" lon="-0.16864">
        <ele>1650</ele>
        <time>2023-08-01T21:18:28Z</time>
      </trkpt>
      <trkpt lat="42.83941" lon="-0.16877">
        <ele>1648</ele>
        <time>2023-08-01T21:18:46Z</time>
      </trkpt>
      <trkpt lat="42.83964" lon="-0.16895">
        <ele>1642</ele>
        <time>2023-08-01T21:19:22Z</time>
      </trkpt>
      <trkpt lat="42.8399" lon="-0.16889">
        <ele>1637</ele>
        <time>2023-08-01T21:19:57Z</time>
      </trkpt>
      <trkpt lat="42.83983" lon="-0.16946">
        <ele>1641</ele>
        <time>2023-08-01T21:20:54Z</time>
      </trkpt>
      <trkpt lat="42.83984" lon="-0.1696">
        <ele>1642</ele>
        <time>2023-08-01T21:21:07Z</time>
      </trkpt>
      <trkpt lat="42.83986" lon="-0.16971">
        <ele>1643</ele>
        <time>2023-08-01T21:21:18Z</time>
      </trkpt>
      <trkpt lat="42.83995" lon="-0.16984">
        <ele>1643</ele>
        <time>2023-08-01T21:21:36Z</time>
      </trkpt>
      <trkpt lat="42.84003" lon="-0.16995">
        <ele>1645</ele>
        <time>2023-08-01T21:21:51Z</time>
      </trkpt>
      <trkpt lat="42.84007" lon="-0.17">
        <ele>1646</ele>
        <time>2023-08-01T21:21:58Z</time>
      </trkpt>
      <trkpt lat="42.8402" lon="-0.16992">
        <ele>1647</ele>
        <time>2023-08-01T21:22:17Z</time>
      </trkpt>
      <trkpt lat="42.84057" lon="-0.16945">
        <ele>1643</ele>
        <time>2023-08-01T21:23:25Z</time>
      </trkpt>
      <trkpt lat="42.8408" lon="-0.16906">
        <ele>1639</ele>
        <time>2023-08-01T21:24:14Z</time>
      </trkpt>
      <trkpt lat="42.84089" lon="-0.16898">
        <ele>1638</ele>
        <time>2023-08-01T21:24:28Z</time>
      </trkpt>
      <trkpt lat="42.84135" lon="-0.16884">
        <ele>1637</ele>
        <time>2023-08-01T21:25:31Z</time>
      </trkpt>
      <trkpt lat="42.84138" lon="-0.16887">
        <ele>1637</ele>
        <time>2023-08-01T21:25:36Z</time>
      </trkpt>
      <trkpt lat="42.84166" lon="-0.16895">
        <ele>1640</ele>
        <time>2023-08-01T21:26:14Z</time>
      </trkpt>
      <trkpt lat="42.84199" lon="-0.16898">
        <ele>1639</ele>
        <time>2023-08-01T21:26:58Z</time>
      </trkpt>
      <trkpt lat="42.84208" lon="-0.16899">
        <ele>1639</ele>
        <time>2023-08-01T21:27:10Z</time>
      </trkpt>
      <trkpt lat="42.84251" lon="-0.169">
        <ele>1638</ele>
        <time>2023-08-01T21:28:08Z</time>
      </trkpt>
      <trkpt lat="42.8426" lon="-0.16897">
        <ele>1639</ele>
        <time>2023-08-01T21:28:20Z</time>
      </trkpt>
      <trkpt lat="42.84278" lon="-0.1688">
        <ele>1639</ele>
        <time>2023-08-01T21:28:49Z</time>
      </trkpt>
      <trkpt lat="42.8433" lon="-0.16859">
        <ele>1639</ele>
        <time>2023-08-01T21:30:02Z</time>
      </trkpt>
      <trkpt lat="42.8436" lon="-0.16852">
        <ele>1638</ele>
        <time>2023-08-01T21:30:42Z</time>
      </trkpt>
      <trkpt lat="42.84378" lon="-0.16844">
        <ele>1635</ele>
        <time>2023-08-01T21:31:08Z</time>
      </trkpt>
      <trkpt lat="42.8441" lon="-0.16825">
        <ele>1629</ele>
        <time>2023-08-01T21:31:54Z</time>
      </trkpt>
      <trkpt lat="42.84467" lon="-0.1681">
        <ele>1636</ele>
        <time>2023-08-01T21:33:12Z</time>
      </trkpt>
      <trkpt lat="42.84483" lon="-0.168">
        <ele>1636</ele>
        <time>2023-08-01T21:33:35Z</time>
      </trkpt>
      <trkpt lat="42.84493" lon="-0.16793">
        <ele>1636</ele>
        <time>2023-08-01T21:33:50Z</time>
      </trkpt>
      <trkpt lat="42.84512" lon="-0.16771">
        <ele>1633</ele>
        <time>2023-08-01T21:34:23Z</time>
      </trkpt>
      <trkpt lat="42.8453" lon="-0.16761">
        <ele>1632</ele>
        <time>2023-08-01T21:34:49Z</time>
      </trkpt>
      <trkpt lat="42.84545" lon="-0.16749">
        <ele>1631</ele>
        <time>2023-08-01T21:35:12Z</time>
      </trkpt>
      <trkpt lat="42.84559" lon="-0.16735">
        <ele>1631</ele>
        <time>2023-08-01T21:35:36Z</time>
      </trkpt>
      <trkpt lat="42.84587" lon="-0.16714">
        <ele>1631</ele>
        <time>2023-08-01T21:36:18Z</time>
      </trkpt>
      <trkpt lat="42.84612" lon="-0.16709">
        <ele>1634</ele>
        <time>2023-08-01T21:36:52Z</time>
      </trkpt>
      <trkpt lat="42.84635" lon="-0.16701">
        <ele>1636</ele>
        <time>2023-08-01T21:37:24Z</time>
      </trkpt>
      <trkpt lat="42.84676" lon="-0.16674">
        <ele>1635</ele>
        <time>2023-08-01T21:38:24Z</time>
      </trkpt>
      <trkpt lat="42.84682" lon="-0.16668">
        <ele>1634</ele>
        <time>2023-08-01T21:38:34Z</time>
      </trkpt>
      <trkpt lat="42.84702" lon="-0.16637">
        <ele>1634</ele>
        <time>2023-08-01T21:39:15Z</time>
      </trkpt>
      <trkpt lat="42.8471" lon="-0.16614">
        <ele>1632</ele>
        <time>2023-08-01T21:39:40Z</time>
      </trkpt>
      <trkpt lat="42.84719" lon="-0.16596">
        <ele>1631</ele>
        <time>2023-08-01T21:40:01Z</time>
      </trkpt>
      <trkpt lat="42.84731" lon="-0.1658">
        <ele>1629</ele>
        <time>2023-08-01T21:40:23Z</time>
      </trkpt>
      <trkpt lat="42.84737" lon="-0.16559">
        <ele>1627</ele>
        <time>2023-08-01T21:40:45Z</time>
      </trkpt>
      <trkpt lat="42.84748" lon="-0.1655">
        <ele>1627</ele>
        <time>2023-08-01T21:41:03Z</time>
      </trkpt>
      <trkpt lat="42.84761" lon="-0.16545">
        <ele>1629</ele>
        <time>2023-08-01T21:41:21Z</time>
      </trkpt>
      <trkpt lat="42.8477" lon="-0.16531">
        <ele>1628</ele>
        <time>2023-08-01T21:41:39Z</time>
      </trkpt>
      <trkpt lat="42.84783" lon="-0.16522">
        <ele>1628</ele>
        <time>2023-08-01T21:41:58Z</time>
      </trkpt>
      <trkpt lat="42.84798" lon="-0.16514">
        <ele>1628</ele>
        <time>2023-08-01T21:42:20Z</time>
      </trkpt>
      <trkpt lat="42.84816" lon="-0.16515">
        <ele>1630</ele>
        <time>2023-08-01T21:42:44Z</time>
      </trkpt>
      <trkpt lat="42.84831" lon="-0.16509">
        <ele>1630</ele>
        <time>2023-08-01T21:43:05Z</time>
      </trkpt>
      <trkpt lat="42.84867" lon="-0.1649">
        <ele>1627</ele>
        <time>2023-08-01T21:43:56Z</time>
      </trkpt>
      <trkpt lat="42.84891" lon="-0.16472">
        <ele>1626</ele>
        <time>2023-08-01T21:44:33Z</time>
      </trkpt>
      <trkpt lat="42.84898" lon="-0.16469">
        <ele>1626</ele>
        <time>2023-08-01T21:44:42Z</time>
      </trkpt>
      <trkpt lat="42.84904" lon="-0.1647">
        <ele>1626</ele>
        <time>2023-08-01T21:44:51Z</time>
      </trkpt>
      <trkpt lat="42.84909" lon="-0.16466">
        <ele>1626</ele>
        <time>2023-08-01T21:44:58Z</time>
      </trkpt>
      <trkpt lat="42.84933" lon="-0.16427">
        <ele>1624</ele>
        <time>2023-08-01T21:45:48Z</time>
      </trkpt>
      <trkpt lat="42.8494" lon="-0.16424">
        <ele>1625</ele>
        <time>2023-08-01T21:45:58Z</time>
      </trkpt>
      <trkpt lat="42.84947" lon="-0.16407">
        <ele>1624</ele>
        <time>2023-08-01T21:46:17Z</time>
      </trkpt>
      <trkpt lat="42.84952" lon="-0.16368">
        <ele>1623</ele>
        <time>2023-08-01T21:46:56Z</time>
      </trkpt>
      <trkpt lat="42.84952" lon="-0.1632">
        <ele>1621</ele>
        <time>2023-08-01T21:47:43Z</time>
      </trkpt>
      <trkpt lat="42.84959" lon="-0.16304">
        <ele>1621</ele>
        <time>2023-08-01T21:48:01Z</time>
      </trkpt>
      <trkpt lat="42.84989" lon="-0.16272">
        <ele>1621</ele>
        <time>2023-08-01T21:48:52Z</time>
      </trkpt>
      <trkpt lat="42.85049" lon="-0.16255">
        <ele>1621</ele>
        <time>2023-08-01T21:50:13Z</time>
      </trkpt>
      <trkpt lat="42.85056" lon="-0.1625">
        <ele>1621</ele>
        <time>2023-08-01T21:50:24Z</time>
      </trkpt>
      <trkpt lat="42.85085" lon="-0.16212">
        <ele>1617</ele>
        <time>2023-08-01T21:51:18Z</time>
      </trkpt>
      <trkpt lat="42.85099" lon="-0.16168">
        <ele>1615</ele>
        <time>2023-08-01T21:52:05Z</time>
      </trkpt>
      <trkpt lat="42.85118" lon="-0.16141">
        <ele>1616</ele>
        <time>2023-08-01T21:52:41Z</time>
      </trkpt>
      <trkpt lat="42.85139" lon="-0.1608">
        <ele>1612</ele>
        <time>2023-08-01T21:53:47Z</time>
      </trkpt>
      <trkpt lat="42.85146" lon="-0.1607">
        <ele>1612</ele>
        <time>2023-08-01T21:54:01Z</time>
      </trkpt>
      <trkpt lat="42.8517" lon="-0.15973">
        <ele>1608</ele>
        <time>2023-08-01T21:55:41Z</time>
      </trkpt>
      <trkpt lat="42.85171" lon="-0.15953">
        <ele>1606</ele>
        <time>2023-08-01T21:56:00Z</time>
      </trkpt>
      <trkpt lat="42.85174" lon="-0.15929">
        <ele>1605</ele>
        <time>2023-08-01T21:56:24Z</time>
      </trkpt>
      <trkpt lat="42.85181" lon="-0.15906">
        <ele>1604</ele>
        <time>2023-08-01T21:56:49Z</time>
      </trkpt>
      <trkpt lat="42.85207" lon="-0.1587">
        <ele>1605</ele>
        <time>2023-08-01T21:57:38Z</time>
      </trkpt>
      <trkpt lat="42.85218" lon="-0.15844">
        <ele>1604</ele>
        <time>2023-08-01T21:58:07Z</time>
      </trkpt>
      <trkpt lat="42.85219" lon="-0.15833">
        <ele>1603</ele>
        <time>2023-08-01T21:58:18Z</time>
      </trkpt>
      <trkpt lat="42.85206" lon="-0.15779">
        <ele>1593</ele>
        <time>2023-08-01T21:59:14Z</time>
      </trkpt>
      <trkpt lat="42.85205" lon="-0.15763">
        <ele>1590</ele>
        <time>2023-08-01T21:59:30Z</time>
      </trkpt>
      <trkpt lat="42.85223" lon="-0.15736">
        <ele>1595</ele>
        <time>2023-08-01T22:00:05Z</time>
      </trkpt>
      <trkpt lat="42.85231" lon="-0.15716">
        <ele>1598</ele>
        <time>2023-08-01T22:00:28Z</time>
      </trkpt>
      <trkpt lat="42.85232" lon="-0.15692">
        <ele>1598</ele>
        <time>2023-08-01T22:00:51Z</time>
      </trkpt>
      <trkpt lat="42.85227" lon="-0.1567">
        <ele>1597</ele>
        <time>2023-08-01T22:01:14Z</time>
      </trkpt>
      <trkpt lat="42.85212" lon="-0.15632">
        <ele>1592</ele>
        <time>2023-08-01T22:01:56Z</time>
      </trkpt>
      <trkpt lat="42.85206" lon="-0.15615">
        <ele>1590</ele>
        <time>2023-08-01T22:02:14Z</time>
      </trkpt>
      <trkpt lat="42.85207" lon="-0.15589">
        <ele>1590</ele>
        <time>2023-08-01T22:02:40Z</time>
      </trkpt>
      <trkpt lat="42.8521" lon="-0.15563">
        <ele>1590</ele>
        <time>2023-08-01T22:03:06Z</time>
      </trkpt>
      <trkpt lat="42.85211" lon="-0.15542">
        <ele>1589</ele>
        <time>2023-08-01T22:03:26Z</time>
      </trkpt>
      <trkpt lat="42.85202" lon="-0.15511">
        <ele>1585</ele>
        <time>2023-08-01T22:03:59Z</time>
      </trkpt>
      <trkpt lat="42.852" lon="-0.1548">
        <ele>1584</ele>
        <time>2023-08-01T22:04:29Z</time>
      </trkpt>
      <trkpt lat="42.852" lon="-0.15422">
        <ele>1583</ele>
        <time>2023-08-01T22:05:26Z</time>
      </trkpt>
      <trkpt lat="42.85204" lon="-0.15316">
        <ele>1585</ele>
        <time>2023-08-01T22:07:10Z</time>
      </trkpt>
      <trkpt lat="42.85218" lon="-0.15263">
        <ele>1587</ele>
        <time>2023-08-01T22:08:05Z</time>
      </trkpt>
      <trkpt lat="42.85234" lon="-0.15188">
        <ele>1588</ele>
        <time>2023-08-01T22:09:21Z</time>
      </trkpt>
      <trkpt lat="42.85248" lon="-0.15141">
        <ele>1583</ele>
        <time>2023-08-01T22:10:11Z</time>
      </trkpt>
      <trkpt lat="42.85246" lon="-0.15126">
        <ele>1579</ele>
        <time>2023-08-01T22:10:26Z</time>
      </trkpt>
      <trkpt lat="42.85218" lon="-0.15057">
        <ele>1568</ele>
        <time>2023-08-01T22:11:43Z</time>
      </trkpt>
      <trkpt lat="42.85184" lon="-0.1496">
        <ele>1549</ele>
        <time>2023-08-01T22:13:28Z</time>
      </trkpt>
      <trkpt lat="42.85179" lon="-0.14952">
        <ele>1547</ele>
        <time>2023-08-01T22:13:38Z</time>
      </trkpt>
      <trkpt lat="42.85172" lon="-0.14949">
        <ele>1544</ele>
        <time>2023-08-01T22:13:48Z</time>
      </trkpt>
      <trkpt lat="42.85169" lon="-0.1494">
        <ele>1542</ele>
        <time>2023-08-01T22:13:58Z</time>
      </trkpt>
      <trkpt lat="42.85169" lon="-0.14893">
        <ele>1538</ele>
        <time>2023-08-01T22:14:44Z</time>
      </trkpt>
      <trkpt lat="42.85166" lon="-0.14833">
        <ele>1533</ele>
        <time>2023-08-01T22:15:43Z</time>
      </trkpt>
      <trkpt lat="42.85162" lon="-0.14805">
        <ele>1531</ele>
        <time>2023-08-01T22:16:11Z</time>
      </trkpt>
      <trkpt lat="42.85164" lon="-0.14767">
        <ele>1529</ele>
        <time>2023-08-01T22:16:48Z</time>
      </trkpt>
      <trkpt lat="42.8517" lon="-0.14714">
        <ele>1531</ele>
        <time>2023-08-01T22:17:40Z</time>
      </trkpt>
      <trkpt lat="42.85164" lon="-0.14704">
        <ele>1531</ele>
        <time>2023-08-01T22:17:53Z</time>
      </trkpt>
      <trkpt lat="42.85158" lon="-0.14687">
        <ele>1532</ele>
        <time>2023-08-01T22:18:12Z</time>
      </trkpt>
      <trkpt lat="42.85155" lon="-0.14661">
        <ele>1532</ele>
        <time>2023-08-01T22:18:37Z</time>
      </trkpt>
      <trkpt lat="42.85212" lon="-0.14525">
        <ele>1527</ele>
        <time>2023-08-01T22:21:11Z</time>
      </trkpt>
      <trkpt lat="42.85234" lon="-0.1445">
        <ele>1526</ele>
        <time>2023-08-01T22:22:30Z</time>
      </trkpt>
      <trkpt lat="42.85259" lon="-0.14376">
        <ele>1526</ele>
        <time>2023-08-01T22:23:49Z</time>
      </trkpt>
      <trkpt lat="42.85261" lon="-0.14353">
        <ele>1526</ele>
        <time>2023-08-01T22:24:12Z</time>
      </trkpt>
      <trkpt lat="42.8526" lon="-0.14312">
        <ele>1528</ele>
        <time>2023-08-01T22:24:52Z</time>
      </trkpt>
      <trkpt lat="42.85257" lon="-0.14284">
        <ele>1529</ele>
        <time>2023-08-01T22:25:20Z</time>
      </trkpt>
      <trkpt lat="42.85253" lon="-0.14269">
        <ele>1530</ele>
        <time>2023-08-01T22:25:35Z</time>
      </trkpt>
      <trkpt lat="42.85245" lon="-0.14261">
        <ele>1530</ele>
        <time>2023-08-01T22:25:49Z</time>
      </trkpt>
      <trkpt lat="42.85227" lon="-0.14249">
        <ele>1530</ele>
        <time>2023-08-01T22:26:15Z</time>
      </trkpt>
      <trkpt lat="42.85205" lon="-0.1422">
        <ele>1530</ele>
        <time>2023-08-01T22:26:56Z</time>
      </trkpt>
      <trkpt lat="42.85185" lon="-0.14191">
        <ele>1529</ele>
        <time>2023-08-01T22:27:35Z</time>
      </trkpt>
      <trkpt lat="42.85177" lon="-0.14174">
        <ele>1529</ele>
        <time>2023-08-01T22:27:55Z</time>
      </trkpt>
      <trkpt lat="42.8517" lon="-0.14123">
        <ele>1525</ele>
        <time>2023-08-01T22:28:46Z</time>
      </trkpt>
      <trkpt lat="42.85171" lon="-0.14104">
        <ele>1524</ele>
        <time>2023-08-01T22:29:04Z</time>
      </trkpt>
      <trkpt lat="42.85169" lon="-0.1409">
        <ele>1523</ele>
        <time>2023-08-01T22:29:18Z</time>
      </trkpt>
      <trkpt lat="42.85163" lon="-0.14076">
        <ele>1521</ele>
        <time>2023-08-01T22:29:34Z</time>
      </trkpt>
      <trkpt lat="42.85147" lon="-0.14053">
        <ele>1517</ele>
        <time>2023-08-01T22:30:05Z</time>
      </trkpt>
      <trkpt lat="42.85139" lon="-0.14048">
        <ele>1516</ele>
        <time>2023-08-01T22:30:17Z</time>
      </trkpt>
      <trkpt lat="42.85125" lon="-0.14045">
        <ele>1514</ele>
        <time>2023-08-01T22:30:36Z</time>
      </trkpt>
      <trkpt lat="42.85128" lon="-0.14026">
        <ele>1512</ele>
        <time>2023-08-01T22:30:55Z</time>
      </trkpt>
      <trkpt lat="42.85138" lon="-0.13994">
        <ele>1510</ele>
        <time>2023-08-01T22:31:29Z</time>
      </trkpt>
      <trkpt lat="42.85139" lon="-0.13982">
        <ele>1508</ele>
        <time>2023-08-01T22:31:41Z</time>
      </trkpt>
      <trkpt lat="42.85135" lon="-0.13976">
        <ele>1507</ele>
        <time>2023-08-01T22:31:49Z</time>
      </trkpt>
      <trkpt lat="42.85128" lon="-0.13976">
        <ele>1507</ele>
        <time>2023-08-01T22:31:58Z</time>
      </trkpt>
      <trkpt lat="42.85116" lon="-0.13981">
        <ele>1507</ele>
        <time>2023-08-01T22:32:15Z</time>
      </trkpt>
      <trkpt lat="42.85104" lon="-0.13993">
        <ele>1507</ele>
        <time>2023-08-01T22:32:34Z</time>
      </trkpt>
      <trkpt lat="42.85101" lon="-0.13993">
        <ele>1506</ele>
        <time>2023-08-01T22:32:38Z</time>
      </trkpt>
      <trkpt lat="42.85082" lon="-0.13975">
        <ele>1505</ele>
        <time>2023-08-01T22:33:09Z</time>
      </trkpt>
      <trkpt lat="42.85082" lon="-0.13972">
        <ele>1505</ele>
        <time>2023-08-01T22:33:12Z</time>
      </trkpt>
    </trkseg>
  </trk>
</gpx>